<?xml version="1.0" encoding="UTF-8" standalone="no" ?>
<gpx xmlns="http://www.topografix.com/GPX/1/1" xmlns:xsi="http://www.w3.org/2001/XMLSchema-instance" xsi:schemaLocation="http://www.topografix.com/GPX/1/1 http://www.topografix.com/GPX/1/1/gpx.xsd" version="1.1" creator="VisuGPX - https://www.visugpx.com">
  <metadata>
    <name>Lac du Salagou.</name>
    <desc><![CDATA[65 km, peu de portage, départ des Rives de Clermont.]]></desc>
  </metadata>
  <trk>
    <name><![CDATA[28-SEP-14 15:41:27]]></name>
    <trkseg>
      <trkpt lat="43.64636" lon="3.38856">
        <ele>41.47</ele>
        <time>2014-09-28T05:51:34Z</time>
      </trkpt>
      <trkpt lat="43.64636" lon="3.38858">
        <ele>41.47</ele>
        <time>2014-09-28T05:51:35Z</time>
      </trkpt>
      <trkpt lat="43.64654" lon="3.38874">
        <ele>41.47</ele>
        <time>2014-09-28T05:51:46Z</time>
      </trkpt>
      <trkpt lat="43.64667" lon="3.38885">
        <ele>41.47</ele>
        <time>2014-09-28T05:51:57Z</time>
      </trkpt>
      <trkpt lat="43.6467" lon="3.38889">
        <ele>41.47</ele>
        <time>2014-09-28T05:52:00Z</time>
      </trkpt>
      <trkpt lat="43.64668" lon="3.389">
        <ele>41.95</ele>
        <time>2014-09-28T05:52:05Z</time>
      </trkpt>
      <trkpt lat="43.64664" lon="3.38903">
        <ele>45.32</ele>
        <time>2014-09-28T05:52:08Z</time>
      </trkpt>
      <trkpt lat="43.64662" lon="3.38902">
        <ele>48.68</ele>
        <time>2014-09-28T05:52:09Z</time>
      </trkpt>
      <trkpt lat="43.6466" lon="3.38902">
        <ele>52.05</ele>
        <time>2014-09-28T05:52:10Z</time>
      </trkpt>
      <trkpt lat="43.64658" lon="3.38901">
        <ele>54.93</ele>
        <time>2014-09-28T05:52:11Z</time>
      </trkpt>
      <trkpt lat="43.64657" lon="3.38901">
        <ele>58.3</ele>
        <time>2014-09-28T05:52:12Z</time>
      </trkpt>
      <trkpt lat="43.64655" lon="3.38901">
        <ele>64.07</ele>
        <time>2014-09-28T05:52:14Z</time>
      </trkpt>
      <trkpt lat="43.64655" lon="3.38902">
        <ele>69.35</ele>
        <time>2014-09-28T05:52:16Z</time>
      </trkpt>
      <trkpt lat="43.64655" lon="3.38902">
        <ele>74.64</ele>
        <time>2014-09-28T05:52:18Z</time>
      </trkpt>
      <trkpt lat="43.64655" lon="3.38901">
        <ele>79.45</ele>
        <time>2014-09-28T05:52:20Z</time>
      </trkpt>
      <trkpt lat="43.64655" lon="3.38901">
        <ele>83.77</ele>
        <time>2014-09-28T05:52:22Z</time>
      </trkpt>
      <trkpt lat="43.64654" lon="3.38901">
        <ele>88.1</ele>
        <time>2014-09-28T05:52:24Z</time>
      </trkpt>
      <trkpt lat="43.64653" lon="3.38902">
        <ele>92.42</ele>
        <time>2014-09-28T05:52:26Z</time>
      </trkpt>
      <trkpt lat="43.64653" lon="3.38901">
        <ele>96.27</ele>
        <time>2014-09-28T05:52:28Z</time>
      </trkpt>
      <trkpt lat="43.64654" lon="3.38901">
        <ele>99.63</ele>
        <time>2014-09-28T05:52:30Z</time>
      </trkpt>
      <trkpt lat="43.64653" lon="3.38902">
        <ele>103.48</ele>
        <time>2014-09-28T05:52:32Z</time>
      </trkpt>
      <trkpt lat="43.64653" lon="3.38903">
        <ele>106.36</ele>
        <time>2014-09-28T05:52:34Z</time>
      </trkpt>
      <trkpt lat="43.64652" lon="3.38903">
        <ele>109.73</ele>
        <time>2014-09-28T05:52:36Z</time>
      </trkpt>
      <trkpt lat="43.64653" lon="3.38902">
        <ele>113.57</ele>
        <time>2014-09-28T05:52:39Z</time>
      </trkpt>
      <trkpt lat="43.64654" lon="3.38902">
        <ele>116.94</ele>
        <time>2014-09-28T05:52:42Z</time>
      </trkpt>
      <trkpt lat="43.64655" lon="3.38902">
        <ele>120.3</ele>
        <time>2014-09-28T05:52:45Z</time>
      </trkpt>
      <trkpt lat="43.64654" lon="3.38902">
        <ele>123.67</ele>
        <time>2014-09-28T05:52:49Z</time>
      </trkpt>
      <trkpt lat="43.64654" lon="3.38901">
        <ele>127.03</ele>
        <time>2014-09-28T05:52:53Z</time>
      </trkpt>
      <trkpt lat="43.64653" lon="3.38903">
        <ele>129.92</ele>
        <time>2014-09-28T05:52:58Z</time>
      </trkpt>
      <trkpt lat="43.64653" lon="3.38903">
        <ele>133.28</ele>
        <time>2014-09-28T05:53:03Z</time>
      </trkpt>
      <trkpt lat="43.64654" lon="3.38904">
        <ele>136.16</ele>
        <time>2014-09-28T05:53:10Z</time>
      </trkpt>
      <trkpt lat="43.64655" lon="3.38903">
        <ele>139.53</ele>
        <time>2014-09-28T05:53:19Z</time>
      </trkpt>
      <trkpt lat="43.64654" lon="3.38903">
        <ele>142.89</ele>
        <time>2014-09-28T05:53:31Z</time>
      </trkpt>
      <trkpt lat="43.64654" lon="3.38902">
        <ele>145.78</ele>
        <time>2014-09-28T05:53:52Z</time>
      </trkpt>
      <trkpt lat="43.64654" lon="3.38901">
        <ele>147.22</ele>
        <time>2014-09-28T05:54:23Z</time>
      </trkpt>
      <trkpt lat="43.64653" lon="3.38901">
        <ele>147.22</ele>
        <time>2014-09-28T05:54:47Z</time>
      </trkpt>
      <trkpt lat="43.64653" lon="3.38901">
        <ele>147.22</ele>
        <time>2014-09-28T05:55:05Z</time>
      </trkpt>
      <trkpt lat="43.64653" lon="3.38901">
        <ele>147.22</ele>
        <time>2014-09-28T05:55:31Z</time>
      </trkpt>
      <trkpt lat="43.64654" lon="3.38902">
        <ele>147.22</ele>
        <time>2014-09-28T05:55:58Z</time>
      </trkpt>
      <trkpt lat="43.64656" lon="3.38902">
        <ele>147.22</ele>
        <time>2014-09-28T05:56:08Z</time>
      </trkpt>
      <trkpt lat="43.64673" lon="3.38882">
        <ele>146.26</ele>
        <time>2014-09-28T05:56:20Z</time>
      </trkpt>
      <trkpt lat="43.64676" lon="3.38826">
        <ele>145.78</ele>
        <time>2014-09-28T05:56:33Z</time>
      </trkpt>
      <trkpt lat="43.6468" lon="3.38764">
        <ele>144.82</ele>
        <time>2014-09-28T05:56:47Z</time>
      </trkpt>
      <trkpt lat="43.64674" lon="3.38718">
        <ele>144.34</ele>
        <time>2014-09-28T05:57:00Z</time>
      </trkpt>
      <trkpt lat="43.64659" lon="3.38678">
        <ele>142.89</ele>
        <time>2014-09-28T05:57:11Z</time>
      </trkpt>
      <trkpt lat="43.64641" lon="3.38646">
        <ele>142.41</ele>
        <time>2014-09-28T05:57:23Z</time>
      </trkpt>
      <trkpt lat="43.64621" lon="3.38624">
        <ele>141.93</ele>
        <time>2014-09-28T05:57:33Z</time>
      </trkpt>
      <trkpt lat="43.64587" lon="3.38633">
        <ele>142.41</ele>
        <time>2014-09-28T05:57:44Z</time>
      </trkpt>
      <trkpt lat="43.64541" lon="3.38639">
        <ele>142.89</ele>
        <time>2014-09-28T05:58:00Z</time>
      </trkpt>
      <trkpt lat="43.64501" lon="3.38626">
        <ele>142.41</ele>
        <time>2014-09-28T05:58:13Z</time>
      </trkpt>
      <trkpt lat="43.64467" lon="3.38587">
        <ele>141.93</ele>
        <time>2014-09-28T05:58:27Z</time>
      </trkpt>
      <trkpt lat="43.64465" lon="3.38585">
        <ele>141.93</ele>
        <time>2014-09-28T05:58:28Z</time>
      </trkpt>
      <trkpt lat="43.64452" lon="3.38542">
        <ele>141.93</ele>
        <time>2014-09-28T05:58:39Z</time>
      </trkpt>
      <trkpt lat="43.64432" lon="3.38512">
        <ele>141.93</ele>
        <time>2014-09-28T05:58:50Z</time>
      </trkpt>
      <trkpt lat="43.64427" lon="3.38509">
        <ele>141.93</ele>
        <time>2014-09-28T05:58:52Z</time>
      </trkpt>
      <trkpt lat="43.64425" lon="3.38499">
        <ele>141.93</ele>
        <time>2014-09-28T05:58:56Z</time>
      </trkpt>
      <trkpt lat="43.64424" lon="3.38493">
        <ele>141.45</ele>
        <time>2014-09-28T05:59:01Z</time>
      </trkpt>
      <trkpt lat="43.64403" lon="3.38483">
        <ele>141.93</ele>
        <time>2014-09-28T05:59:10Z</time>
      </trkpt>
      <trkpt lat="43.64401" lon="3.38479">
        <ele>141.93</ele>
        <time>2014-09-28T05:59:11Z</time>
      </trkpt>
      <trkpt lat="43.64388" lon="3.38438">
        <ele>141.45</ele>
        <time>2014-09-28T05:59:25Z</time>
      </trkpt>
      <trkpt lat="43.64388" lon="3.38434">
        <ele>141.45</ele>
        <time>2014-09-28T05:59:27Z</time>
      </trkpt>
      <trkpt lat="43.64391" lon="3.38413">
        <ele>141.45</ele>
        <time>2014-09-28T05:59:35Z</time>
      </trkpt>
      <trkpt lat="43.644" lon="3.38359">
        <ele>141.93</ele>
        <time>2014-09-28T05:59:48Z</time>
      </trkpt>
      <trkpt lat="43.64416" lon="3.38297">
        <ele>141.93</ele>
        <time>2014-09-28T06:00:01Z</time>
      </trkpt>
      <trkpt lat="43.64423" lon="3.38232">
        <ele>141.93</ele>
        <time>2014-09-28T06:00:15Z</time>
      </trkpt>
      <trkpt lat="43.64421" lon="3.38176">
        <ele>141.93</ele>
        <time>2014-09-28T06:00:27Z</time>
      </trkpt>
      <trkpt lat="43.64428" lon="3.38127">
        <ele>141.93</ele>
        <time>2014-09-28T06:00:37Z</time>
      </trkpt>
      <trkpt lat="43.64437" lon="3.38078">
        <ele>142.89</ele>
        <time>2014-09-28T06:00:47Z</time>
      </trkpt>
      <trkpt lat="43.6444" lon="3.38048">
        <ele>142.41</ele>
        <time>2014-09-28T06:00:52Z</time>
      </trkpt>
      <trkpt lat="43.6445" lon="3.38012">
        <ele>142.41</ele>
        <time>2014-09-28T06:00:59Z</time>
      </trkpt>
      <trkpt lat="43.64452" lon="3.38001">
        <ele>142.41</ele>
        <time>2014-09-28T06:01:01Z</time>
      </trkpt>
      <trkpt lat="43.64454" lon="3.37979">
        <ele>142.41</ele>
        <time>2014-09-28T06:01:05Z</time>
      </trkpt>
      <trkpt lat="43.64433" lon="3.37971">
        <ele>143.37</ele>
        <time>2014-09-28T06:01:11Z</time>
      </trkpt>
      <trkpt lat="43.64413" lon="3.37983">
        <ele>144.34</ele>
        <time>2014-09-28T06:01:18Z</time>
      </trkpt>
      <trkpt lat="43.64395" lon="3.38015">
        <ele>145.78</ele>
        <time>2014-09-28T06:01:29Z</time>
      </trkpt>
      <trkpt lat="43.64383" lon="3.38024">
        <ele>145.78</ele>
        <time>2014-09-28T06:01:33Z</time>
      </trkpt>
      <trkpt lat="43.64372" lon="3.3804">
        <ele>144.34</ele>
        <time>2014-09-28T06:01:37Z</time>
      </trkpt>
      <trkpt lat="43.64367" lon="3.38056">
        <ele>142.89</ele>
        <time>2014-09-28T06:01:40Z</time>
      </trkpt>
      <trkpt lat="43.64366" lon="3.38059">
        <ele>142.41</ele>
        <time>2014-09-28T06:01:41Z</time>
      </trkpt>
      <trkpt lat="43.64354" lon="3.38041">
        <ele>142.41</ele>
        <time>2014-09-28T06:01:50Z</time>
      </trkpt>
      <trkpt lat="43.64348" lon="3.38016">
        <ele>142.41</ele>
        <time>2014-09-28T06:01:56Z</time>
      </trkpt>
      <trkpt lat="43.64355" lon="3.3797">
        <ele>142.41</ele>
        <time>2014-09-28T06:02:05Z</time>
      </trkpt>
      <trkpt lat="43.64386" lon="3.37915">
        <ele>142.41</ele>
        <time>2014-09-28T06:02:19Z</time>
      </trkpt>
      <trkpt lat="43.6439" lon="3.37872">
        <ele>141.45</ele>
        <time>2014-09-28T06:02:29Z</time>
      </trkpt>
      <trkpt lat="43.64392" lon="3.37867">
        <ele>141.45</ele>
        <time>2014-09-28T06:02:30Z</time>
      </trkpt>
      <trkpt lat="43.644" lon="3.37832">
        <ele>142.41</ele>
        <time>2014-09-28T06:02:37Z</time>
      </trkpt>
      <trkpt lat="43.64412" lon="3.37797">
        <ele>141.45</ele>
        <time>2014-09-28T06:02:43Z</time>
      </trkpt>
      <trkpt lat="43.64425" lon="3.37752">
        <ele>141.93</ele>
        <time>2014-09-28T06:02:52Z</time>
      </trkpt>
      <trkpt lat="43.64419" lon="3.37722">
        <ele>141.93</ele>
        <time>2014-09-28T06:02:59Z</time>
      </trkpt>
      <trkpt lat="43.64422" lon="3.3769">
        <ele>141.93</ele>
        <time>2014-09-28T06:03:05Z</time>
      </trkpt>
      <trkpt lat="43.64428" lon="3.3767">
        <ele>141.93</ele>
        <time>2014-09-28T06:03:09Z</time>
      </trkpt>
      <trkpt lat="43.64431" lon="3.37627">
        <ele>141.93</ele>
        <time>2014-09-28T06:03:17Z</time>
      </trkpt>
      <trkpt lat="43.64429" lon="3.37609">
        <ele>141.45</ele>
        <time>2014-09-28T06:03:20Z</time>
      </trkpt>
      <trkpt lat="43.64437" lon="3.37592">
        <ele>141.45</ele>
        <time>2014-09-28T06:03:25Z</time>
      </trkpt>
      <trkpt lat="43.64452" lon="3.37535">
        <ele>141.45</ele>
        <time>2014-09-28T06:03:37Z</time>
      </trkpt>
      <trkpt lat="43.64468" lon="3.37464">
        <ele>141.93</ele>
        <time>2014-09-28T06:03:51Z</time>
      </trkpt>
      <trkpt lat="43.64472" lon="3.37436">
        <ele>141.93</ele>
        <time>2014-09-28T06:03:57Z</time>
      </trkpt>
      <trkpt lat="43.64476" lon="3.37417">
        <ele>141.45</ele>
        <time>2014-09-28T06:04:01Z</time>
      </trkpt>
      <trkpt lat="43.64465" lon="3.37366">
        <ele>141.45</ele>
        <time>2014-09-28T06:04:14Z</time>
      </trkpt>
      <trkpt lat="43.64463" lon="3.3736">
        <ele>141.45</ele>
        <time>2014-09-28T06:04:16Z</time>
      </trkpt>
      <trkpt lat="43.6447" lon="3.37345">
        <ele>141.45</ele>
        <time>2014-09-28T06:04:21Z</time>
      </trkpt>
      <trkpt lat="43.64472" lon="3.37316">
        <ele>140.49</ele>
        <time>2014-09-28T06:04:27Z</time>
      </trkpt>
      <trkpt lat="43.64456" lon="3.37257">
        <ele>140.49</ele>
        <time>2014-09-28T06:04:41Z</time>
      </trkpt>
      <trkpt lat="43.64433" lon="3.37239">
        <ele>141.45</ele>
        <time>2014-09-28T06:04:50Z</time>
      </trkpt>
      <trkpt lat="43.64406" lon="3.3721">
        <ele>141.93</ele>
        <time>2014-09-28T06:05:02Z</time>
      </trkpt>
      <trkpt lat="43.6438" lon="3.37193">
        <ele>141.45</ele>
        <time>2014-09-28T06:05:11Z</time>
      </trkpt>
      <trkpt lat="43.64368" lon="3.37172">
        <ele>141.45</ele>
        <time>2014-09-28T06:05:19Z</time>
      </trkpt>
      <trkpt lat="43.64354" lon="3.37145">
        <ele>141.45</ele>
        <time>2014-09-28T06:05:29Z</time>
      </trkpt>
      <trkpt lat="43.64355" lon="3.37125">
        <ele>141.45</ele>
        <time>2014-09-28T06:05:33Z</time>
      </trkpt>
      <trkpt lat="43.64356" lon="3.37113">
        <ele>141.45</ele>
        <time>2014-09-28T06:05:35Z</time>
      </trkpt>
      <trkpt lat="43.64345" lon="3.37048">
        <ele>141.45</ele>
        <time>2014-09-28T06:05:47Z</time>
      </trkpt>
      <trkpt lat="43.6435" lon="3.37023">
        <ele>140.49</ele>
        <time>2014-09-28T06:05:54Z</time>
      </trkpt>
      <trkpt lat="43.64355" lon="3.37011">
        <ele>140.97</ele>
        <time>2014-09-28T06:05:59Z</time>
      </trkpt>
      <trkpt lat="43.64355" lon="3.36982">
        <ele>141.93</ele>
        <time>2014-09-28T06:06:08Z</time>
      </trkpt>
      <trkpt lat="43.64359" lon="3.36932">
        <ele>141.93</ele>
        <time>2014-09-28T06:06:18Z</time>
      </trkpt>
      <trkpt lat="43.64359" lon="3.36925">
        <ele>141.45</ele>
        <time>2014-09-28T06:06:19Z</time>
      </trkpt>
      <trkpt lat="43.64346" lon="3.36886">
        <ele>141.93</ele>
        <time>2014-09-28T06:06:26Z</time>
      </trkpt>
      <trkpt lat="43.64344" lon="3.36874">
        <ele>141.93</ele>
        <time>2014-09-28T06:06:28Z</time>
      </trkpt>
      <trkpt lat="43.64342" lon="3.36852">
        <ele>141.93</ele>
        <time>2014-09-28T06:06:32Z</time>
      </trkpt>
      <trkpt lat="43.64333" lon="3.36807">
        <ele>140.97</ele>
        <time>2014-09-28T06:06:39Z</time>
      </trkpt>
      <trkpt lat="43.64325" lon="3.36784">
        <ele>141.45</ele>
        <time>2014-09-28T06:06:44Z</time>
      </trkpt>
      <trkpt lat="43.64317" lon="3.36758">
        <ele>141.93</ele>
        <time>2014-09-28T06:06:53Z</time>
      </trkpt>
      <trkpt lat="43.64318" lon="3.36754">
        <ele>141.93</ele>
        <time>2014-09-28T06:06:54Z</time>
      </trkpt>
      <trkpt lat="43.64314" lon="3.36727">
        <ele>142.41</ele>
        <time>2014-09-28T06:07:04Z</time>
      </trkpt>
      <trkpt lat="43.64313" lon="3.36725">
        <ele>141.45</ele>
        <time>2014-09-28T06:07:05Z</time>
      </trkpt>
      <trkpt lat="43.64311" lon="3.36719">
        <ele>141.93</ele>
        <time>2014-09-28T06:07:07Z</time>
      </trkpt>
      <trkpt lat="43.64311" lon="3.36683">
        <ele>141.45</ele>
        <time>2014-09-28T06:07:15Z</time>
      </trkpt>
      <trkpt lat="43.64295" lon="3.36654">
        <ele>141.45</ele>
        <time>2014-09-28T06:07:23Z</time>
      </trkpt>
      <trkpt lat="43.64289" lon="3.36649">
        <ele>141.45</ele>
        <time>2014-09-28T06:07:25Z</time>
      </trkpt>
      <trkpt lat="43.64287" lon="3.36629">
        <ele>141.45</ele>
        <time>2014-09-28T06:07:29Z</time>
      </trkpt>
      <trkpt lat="43.64282" lon="3.36566">
        <ele>142.41</ele>
        <time>2014-09-28T06:07:42Z</time>
      </trkpt>
      <trkpt lat="43.6428" lon="3.36532">
        <ele>142.41</ele>
        <time>2014-09-28T06:07:49Z</time>
      </trkpt>
      <trkpt lat="43.64281" lon="3.365">
        <ele>141.93</ele>
        <time>2014-09-28T06:07:55Z</time>
      </trkpt>
      <trkpt lat="43.64285" lon="3.36475">
        <ele>142.41</ele>
        <time>2014-09-28T06:08:00Z</time>
      </trkpt>
      <trkpt lat="43.64287" lon="3.36463">
        <ele>141.93</ele>
        <time>2014-09-28T06:08:02Z</time>
      </trkpt>
      <trkpt lat="43.643" lon="3.36409">
        <ele>142.89</ele>
        <time>2014-09-28T06:08:13Z</time>
      </trkpt>
      <trkpt lat="43.643" lon="3.36386">
        <ele>143.85</ele>
        <time>2014-09-28T06:08:21Z</time>
      </trkpt>
      <trkpt lat="43.64307" lon="3.36377">
        <ele>143.85</ele>
        <time>2014-09-28T06:08:26Z</time>
      </trkpt>
      <trkpt lat="43.64301" lon="3.36344">
        <ele>147.22</ele>
        <time>2014-09-28T06:08:38Z</time>
      </trkpt>
      <trkpt lat="43.64295" lon="3.36334">
        <ele>149.14</ele>
        <time>2014-09-28T06:08:43Z</time>
      </trkpt>
      <trkpt lat="43.64294" lon="3.36296">
        <ele>152.03</ele>
        <time>2014-09-28T06:08:58Z</time>
      </trkpt>
      <trkpt lat="43.64296" lon="3.36265">
        <ele>153.95</ele>
        <time>2014-09-28T06:09:09Z</time>
      </trkpt>
      <trkpt lat="43.64296" lon="3.36235">
        <ele>155.87</ele>
        <time>2014-09-28T06:09:22Z</time>
      </trkpt>
      <trkpt lat="43.64293" lon="3.36198">
        <ele>156.83</ele>
        <time>2014-09-28T06:09:35Z</time>
      </trkpt>
      <trkpt lat="43.64308" lon="3.36181">
        <ele>156.83</ele>
        <time>2014-09-28T06:09:43Z</time>
      </trkpt>
      <trkpt lat="43.64313" lon="3.36174">
        <ele>157.31</ele>
        <time>2014-09-28T06:09:46Z</time>
      </trkpt>
      <trkpt lat="43.64324" lon="3.36157">
        <ele>158.27</ele>
        <time>2014-09-28T06:09:59Z</time>
      </trkpt>
      <trkpt lat="43.64324" lon="3.36157">
        <ele>158.27</ele>
        <time>2014-09-28T06:10:22Z</time>
      </trkpt>
      <trkpt lat="43.64325" lon="3.36156">
        <ele>157.31</ele>
        <time>2014-09-28T06:10:37Z</time>
      </trkpt>
      <trkpt lat="43.64325" lon="3.36156">
        <ele>157.31</ele>
        <time>2014-09-28T06:11:06Z</time>
      </trkpt>
      <trkpt lat="43.64326" lon="3.36157">
        <ele>157.79</ele>
        <time>2014-09-28T06:11:32Z</time>
      </trkpt>
      <trkpt lat="43.64327" lon="3.36157">
        <ele>157.79</ele>
        <time>2014-09-28T06:11:51Z</time>
      </trkpt>
      <trkpt lat="43.64327" lon="3.36158">
        <ele>157.79</ele>
        <time>2014-09-28T06:12:05Z</time>
      </trkpt>
      <trkpt lat="43.64326" lon="3.36158">
        <ele>157.79</ele>
        <time>2014-09-28T06:12:24Z</time>
      </trkpt>
      <trkpt lat="43.6433" lon="3.36154">
        <ele>157.31</ele>
        <time>2014-09-28T06:12:46Z</time>
      </trkpt>
      <trkpt lat="43.64361" lon="3.36133">
        <ele>157.31</ele>
        <time>2014-09-28T06:12:57Z</time>
      </trkpt>
      <trkpt lat="43.64371" lon="3.36127">
        <ele>156.83</ele>
        <time>2014-09-28T06:13:00Z</time>
      </trkpt>
      <trkpt lat="43.6443" lon="3.36082">
        <ele>153.95</ele>
        <time>2014-09-28T06:13:12Z</time>
      </trkpt>
      <trkpt lat="43.64447" lon="3.36071">
        <ele>153.47</ele>
        <time>2014-09-28T06:13:15Z</time>
      </trkpt>
      <trkpt lat="43.64464" lon="3.36068">
        <ele>153.95</ele>
        <time>2014-09-28T06:13:18Z</time>
      </trkpt>
      <trkpt lat="43.64476" lon="3.36061">
        <ele>153.95</ele>
        <time>2014-09-28T06:13:21Z</time>
      </trkpt>
      <trkpt lat="43.64503" lon="3.36043">
        <ele>152.03</ele>
        <time>2014-09-28T06:13:26Z</time>
      </trkpt>
      <trkpt lat="43.64533" lon="3.3603">
        <ele>150.1</ele>
        <time>2014-09-28T06:13:31Z</time>
      </trkpt>
      <trkpt lat="43.64564" lon="3.36022">
        <ele>147.7</ele>
        <time>2014-09-28T06:13:36Z</time>
      </trkpt>
      <trkpt lat="43.64588" lon="3.36027">
        <ele>146.26</ele>
        <time>2014-09-28T06:13:41Z</time>
      </trkpt>
      <trkpt lat="43.64599" lon="3.36042">
        <ele>144.82</ele>
        <time>2014-09-28T06:13:46Z</time>
      </trkpt>
      <trkpt lat="43.64606" lon="3.36046">
        <ele>142.89</ele>
        <time>2014-09-28T06:13:50Z</time>
      </trkpt>
      <trkpt lat="43.6461" lon="3.36044">
        <ele>143.37</ele>
        <time>2014-09-28T06:14:02Z</time>
      </trkpt>
      <trkpt lat="43.64619" lon="3.36035">
        <ele>142.41</ele>
        <time>2014-09-28T06:14:15Z</time>
      </trkpt>
      <trkpt lat="43.64624" lon="3.36026">
        <ele>140.97</ele>
        <time>2014-09-28T06:14:25Z</time>
      </trkpt>
      <trkpt lat="43.64628" lon="3.36017">
        <ele>140.49</ele>
        <time>2014-09-28T06:14:33Z</time>
      </trkpt>
      <trkpt lat="43.6463" lon="3.36015">
        <ele>140.97</ele>
        <time>2014-09-28T06:14:35Z</time>
      </trkpt>
      <trkpt lat="43.64634" lon="3.36014">
        <ele>141.93</ele>
        <time>2014-09-28T06:14:43Z</time>
      </trkpt>
      <trkpt lat="43.64648" lon="3.36002">
        <ele>144.82</ele>
        <time>2014-09-28T06:14:57Z</time>
      </trkpt>
      <trkpt lat="43.64654" lon="3.35999">
        <ele>145.78</ele>
        <time>2014-09-28T06:15:04Z</time>
      </trkpt>
      <trkpt lat="43.64658" lon="3.36001">
        <ele>146.26</ele>
        <time>2014-09-28T06:15:09Z</time>
      </trkpt>
      <trkpt lat="43.64665" lon="3.36011">
        <ele>146.26</ele>
        <time>2014-09-28T06:15:21Z</time>
      </trkpt>
      <trkpt lat="43.64678" lon="3.36031">
        <ele>145.3</ele>
        <time>2014-09-28T06:15:31Z</time>
      </trkpt>
      <trkpt lat="43.64696" lon="3.36063">
        <ele>143.37</ele>
        <time>2014-09-28T06:15:42Z</time>
      </trkpt>
      <trkpt lat="43.64706" lon="3.36072">
        <ele>142.89</ele>
        <time>2014-09-28T06:15:45Z</time>
      </trkpt>
      <trkpt lat="43.64726" lon="3.36095">
        <ele>141.93</ele>
        <time>2014-09-28T06:15:52Z</time>
      </trkpt>
      <trkpt lat="43.6474" lon="3.36087">
        <ele>140.97</ele>
        <time>2014-09-28T06:15:57Z</time>
      </trkpt>
      <trkpt lat="43.64745" lon="3.36076">
        <ele>140.97</ele>
        <time>2014-09-28T06:16:00Z</time>
      </trkpt>
      <trkpt lat="43.64758" lon="3.3606">
        <ele>140.97</ele>
        <time>2014-09-28T06:16:04Z</time>
      </trkpt>
      <trkpt lat="43.64782" lon="3.36009">
        <ele>140.97</ele>
        <time>2014-09-28T06:16:15Z</time>
      </trkpt>
      <trkpt lat="43.64811" lon="3.3594">
        <ele>142.41</ele>
        <time>2014-09-28T06:16:30Z</time>
      </trkpt>
      <trkpt lat="43.64829" lon="3.35902">
        <ele>142.89</ele>
        <time>2014-09-28T06:16:38Z</time>
      </trkpt>
      <trkpt lat="43.64835" lon="3.35874">
        <ele>142.41</ele>
        <time>2014-09-28T06:16:42Z</time>
      </trkpt>
      <trkpt lat="43.64849" lon="3.35817">
        <ele>141.45</ele>
        <time>2014-09-28T06:16:50Z</time>
      </trkpt>
      <trkpt lat="43.64859" lon="3.35778">
        <ele>141.45</ele>
        <time>2014-09-28T06:17:01Z</time>
      </trkpt>
      <trkpt lat="43.64859" lon="3.35774">
        <ele>140.97</ele>
        <time>2014-09-28T06:17:02Z</time>
      </trkpt>
      <trkpt lat="43.64869" lon="3.35756">
        <ele>140.97</ele>
        <time>2014-09-28T06:17:07Z</time>
      </trkpt>
      <trkpt lat="43.64887" lon="3.35737">
        <ele>140.97</ele>
        <time>2014-09-28T06:17:12Z</time>
      </trkpt>
      <trkpt lat="43.64923" lon="3.35689">
        <ele>140.97</ele>
        <time>2014-09-28T06:17:22Z</time>
      </trkpt>
      <trkpt lat="43.64943" lon="3.35675">
        <ele>140.97</ele>
        <time>2014-09-28T06:17:27Z</time>
      </trkpt>
      <trkpt lat="43.64952" lon="3.35673">
        <ele>140.97</ele>
        <time>2014-09-28T06:17:29Z</time>
      </trkpt>
      <trkpt lat="43.6497" lon="3.35645">
        <ele>140.49</ele>
        <time>2014-09-28T06:17:35Z</time>
      </trkpt>
      <trkpt lat="43.64973" lon="3.35626">
        <ele>140.97</ele>
        <time>2014-09-28T06:17:38Z</time>
      </trkpt>
      <trkpt lat="43.64981" lon="3.35587">
        <ele>141.45</ele>
        <time>2014-09-28T06:17:45Z</time>
      </trkpt>
      <trkpt lat="43.64993" lon="3.3554">
        <ele>141.45</ele>
        <time>2014-09-28T06:17:53Z</time>
      </trkpt>
      <trkpt lat="43.64978" lon="3.35499">
        <ele>140.97</ele>
        <time>2014-09-28T06:18:01Z</time>
      </trkpt>
      <trkpt lat="43.64941" lon="3.35483">
        <ele>140.97</ele>
        <time>2014-09-28T06:18:09Z</time>
      </trkpt>
      <trkpt lat="43.64919" lon="3.35456">
        <ele>141.45</ele>
        <time>2014-09-28T06:18:16Z</time>
      </trkpt>
      <trkpt lat="43.64917" lon="3.35408">
        <ele>140.97</ele>
        <time>2014-09-28T06:18:24Z</time>
      </trkpt>
      <trkpt lat="43.6494" lon="3.35345">
        <ele>140.49</ele>
        <time>2014-09-28T06:18:34Z</time>
      </trkpt>
      <trkpt lat="43.64929" lon="3.35319">
        <ele>140.49</ele>
        <time>2014-09-28T06:18:38Z</time>
      </trkpt>
      <trkpt lat="43.64917" lon="3.35251">
        <ele>140.49</ele>
        <time>2014-09-28T06:18:48Z</time>
      </trkpt>
      <trkpt lat="43.64909" lon="3.35186">
        <ele>140.49</ele>
        <time>2014-09-28T06:18:58Z</time>
      </trkpt>
      <trkpt lat="43.64904" lon="3.35183">
        <ele>140.49</ele>
        <time>2014-09-28T06:18:59Z</time>
      </trkpt>
      <trkpt lat="43.64883" lon="3.35173">
        <ele>140.49</ele>
        <time>2014-09-28T06:19:03Z</time>
      </trkpt>
      <trkpt lat="43.64867" lon="3.35138">
        <ele>140.49</ele>
        <time>2014-09-28T06:19:09Z</time>
      </trkpt>
      <trkpt lat="43.64864" lon="3.35125">
        <ele>140.49</ele>
        <time>2014-09-28T06:19:11Z</time>
      </trkpt>
      <trkpt lat="43.64866" lon="3.35097">
        <ele>140.49</ele>
        <time>2014-09-28T06:19:15Z</time>
      </trkpt>
      <trkpt lat="43.64869" lon="3.35083">
        <ele>140.49</ele>
        <time>2014-09-28T06:19:17Z</time>
      </trkpt>
      <trkpt lat="43.64869" lon="3.35059">
        <ele>140.97</ele>
        <time>2014-09-28T06:19:21Z</time>
      </trkpt>
      <trkpt lat="43.64875" lon="3.35043">
        <ele>140.97</ele>
        <time>2014-09-28T06:19:24Z</time>
      </trkpt>
      <trkpt lat="43.64878" lon="3.35014">
        <ele>140.01</ele>
        <time>2014-09-28T06:19:31Z</time>
      </trkpt>
      <trkpt lat="43.64883" lon="3.34969">
        <ele>139.05</ele>
        <time>2014-09-28T06:19:41Z</time>
      </trkpt>
      <trkpt lat="43.6487" lon="3.34926">
        <ele>139.53</ele>
        <time>2014-09-28T06:19:53Z</time>
      </trkpt>
      <trkpt lat="43.64845" lon="3.34901">
        <ele>140.01</ele>
        <time>2014-09-28T06:20:04Z</time>
      </trkpt>
      <trkpt lat="43.64839" lon="3.34894">
        <ele>139.53</ele>
        <time>2014-09-28T06:20:08Z</time>
      </trkpt>
      <trkpt lat="43.64849" lon="3.34878">
        <ele>142.41</ele>
        <time>2014-09-28T06:20:16Z</time>
      </trkpt>
      <trkpt lat="43.64867" lon="3.34851">
        <ele>144.82</ele>
        <time>2014-09-28T06:20:30Z</time>
      </trkpt>
      <trkpt lat="43.64878" lon="3.34828">
        <ele>147.22</ele>
        <time>2014-09-28T06:20:42Z</time>
      </trkpt>
      <trkpt lat="43.6489" lon="3.34802">
        <ele>150.1</ele>
        <time>2014-09-28T06:20:56Z</time>
      </trkpt>
      <trkpt lat="43.64902" lon="3.34793">
        <ele>152.99</ele>
        <time>2014-09-28T06:21:05Z</time>
      </trkpt>
      <trkpt lat="43.6492" lon="3.34773">
        <ele>154.91</ele>
        <time>2014-09-28T06:21:19Z</time>
      </trkpt>
      <trkpt lat="43.64936" lon="3.34751">
        <ele>156.83</ele>
        <time>2014-09-28T06:21:32Z</time>
      </trkpt>
      <trkpt lat="43.64956" lon="3.34716">
        <ele>159.24</ele>
        <time>2014-09-28T06:21:50Z</time>
      </trkpt>
      <trkpt lat="43.64976" lon="3.34682">
        <ele>161.16</ele>
        <time>2014-09-28T06:22:06Z</time>
      </trkpt>
      <trkpt lat="43.64991" lon="3.34649">
        <ele>164.04</ele>
        <time>2014-09-28T06:22:22Z</time>
      </trkpt>
      <trkpt lat="43.65006" lon="3.34622">
        <ele>165</ele>
        <time>2014-09-28T06:22:35Z</time>
      </trkpt>
      <trkpt lat="43.65015" lon="3.34587">
        <ele>166.93</ele>
        <time>2014-09-28T06:22:49Z</time>
      </trkpt>
      <trkpt lat="43.65019" lon="3.34571">
        <ele>168.85</ele>
        <time>2014-09-28T06:22:58Z</time>
      </trkpt>
      <trkpt lat="43.65026" lon="3.34551">
        <ele>171.73</ele>
        <time>2014-09-28T06:23:11Z</time>
      </trkpt>
      <trkpt lat="43.65027" lon="3.34545">
        <ele>172.21</ele>
        <time>2014-09-28T06:23:15Z</time>
      </trkpt>
      <trkpt lat="43.65034" lon="3.34525">
        <ele>174.62</ele>
        <time>2014-09-28T06:23:27Z</time>
      </trkpt>
      <trkpt lat="43.65042" lon="3.34507">
        <ele>177.02</ele>
        <time>2014-09-28T06:23:38Z</time>
      </trkpt>
      <trkpt lat="43.65049" lon="3.345">
        <ele>178.94</ele>
        <time>2014-09-28T06:23:45Z</time>
      </trkpt>
      <trkpt lat="43.65046" lon="3.34472">
        <ele>180.87</ele>
        <time>2014-09-28T06:23:59Z</time>
      </trkpt>
      <trkpt lat="43.65017" lon="3.34444">
        <ele>179.9</ele>
        <time>2014-09-28T06:24:11Z</time>
      </trkpt>
      <trkpt lat="43.65001" lon="3.34416">
        <ele>179.42</ele>
        <time>2014-09-28T06:24:18Z</time>
      </trkpt>
      <trkpt lat="43.64982" lon="3.34398">
        <ele>179.42</ele>
        <time>2014-09-28T06:24:24Z</time>
      </trkpt>
      <trkpt lat="43.64987" lon="3.34378">
        <ele>178.94</ele>
        <time>2014-09-28T06:24:28Z</time>
      </trkpt>
      <trkpt lat="43.64991" lon="3.34362">
        <ele>177.5</ele>
        <time>2014-09-28T06:24:31Z</time>
      </trkpt>
      <trkpt lat="43.64996" lon="3.34345">
        <ele>175.58</ele>
        <time>2014-09-28T06:24:34Z</time>
      </trkpt>
      <trkpt lat="43.64997" lon="3.3434">
        <ele>175.58</ele>
        <time>2014-09-28T06:24:35Z</time>
      </trkpt>
      <trkpt lat="43.64999" lon="3.3433">
        <ele>175.1</ele>
        <time>2014-09-28T06:24:37Z</time>
      </trkpt>
      <trkpt lat="43.64999" lon="3.34327">
        <ele>176.54</ele>
        <time>2014-09-28T06:24:46Z</time>
      </trkpt>
      <trkpt lat="43.64998" lon="3.34318">
        <ele>177.98</ele>
        <time>2014-09-28T06:24:57Z</time>
      </trkpt>
      <trkpt lat="43.64994" lon="3.3431">
        <ele>178.46</ele>
        <time>2014-09-28T06:25:09Z</time>
      </trkpt>
      <trkpt lat="43.64993" lon="3.34303">
        <ele>178.94</ele>
        <time>2014-09-28T06:25:17Z</time>
      </trkpt>
      <trkpt lat="43.64984" lon="3.3428">
        <ele>181.35</ele>
        <time>2014-09-28T06:25:27Z</time>
      </trkpt>
      <trkpt lat="43.64983" lon="3.34278">
        <ele>181.35</ele>
        <time>2014-09-28T06:25:28Z</time>
      </trkpt>
      <trkpt lat="43.6497" lon="3.3425">
        <ele>182.31</ele>
        <time>2014-09-28T06:25:40Z</time>
      </trkpt>
      <trkpt lat="43.64959" lon="3.34224">
        <ele>182.31</ele>
        <time>2014-09-28T06:25:48Z</time>
      </trkpt>
      <trkpt lat="43.64945" lon="3.34192">
        <ele>180.87</ele>
        <time>2014-09-28T06:25:56Z</time>
      </trkpt>
      <trkpt lat="43.64937" lon="3.34144">
        <ele>179.9</ele>
        <time>2014-09-28T06:26:06Z</time>
      </trkpt>
      <trkpt lat="43.6494" lon="3.34127">
        <ele>178.94</ele>
        <time>2014-09-28T06:26:11Z</time>
      </trkpt>
      <trkpt lat="43.64933" lon="3.34109">
        <ele>178.46</ele>
        <time>2014-09-28T06:26:17Z</time>
      </trkpt>
      <trkpt lat="43.64931" lon="3.341">
        <ele>178.46</ele>
        <time>2014-09-28T06:26:19Z</time>
      </trkpt>
      <trkpt lat="43.6493" lon="3.34076">
        <ele>177.5</ele>
        <time>2014-09-28T06:26:23Z</time>
      </trkpt>
      <trkpt lat="43.64931" lon="3.34041">
        <ele>176.06</ele>
        <time>2014-09-28T06:26:28Z</time>
      </trkpt>
      <trkpt lat="43.64938" lon="3.34012">
        <ele>176.06</ele>
        <time>2014-09-28T06:26:33Z</time>
      </trkpt>
      <trkpt lat="43.64942" lon="3.33974">
        <ele>173.17</ele>
        <time>2014-09-28T06:26:40Z</time>
      </trkpt>
      <trkpt lat="43.64946" lon="3.33967">
        <ele>172.21</ele>
        <time>2014-09-28T06:26:49Z</time>
      </trkpt>
      <trkpt lat="43.64946" lon="3.33966">
        <ele>172.21</ele>
        <time>2014-09-28T06:26:59Z</time>
      </trkpt>
      <trkpt lat="43.64946" lon="3.33958">
        <ele>171.25</ele>
        <time>2014-09-28T06:27:08Z</time>
      </trkpt>
      <trkpt lat="43.64939" lon="3.33944">
        <ele>169.81</ele>
        <time>2014-09-28T06:27:13Z</time>
      </trkpt>
      <trkpt lat="43.64927" lon="3.33913">
        <ele>166.45</ele>
        <time>2014-09-28T06:27:19Z</time>
      </trkpt>
      <trkpt lat="43.64923" lon="3.33898">
        <ele>164.04</ele>
        <time>2014-09-28T06:27:22Z</time>
      </trkpt>
      <trkpt lat="43.64917" lon="3.33885">
        <ele>162.6</ele>
        <time>2014-09-28T06:27:24Z</time>
      </trkpt>
      <trkpt lat="43.64924" lon="3.33846">
        <ele>158.27</ele>
        <time>2014-09-28T06:27:30Z</time>
      </trkpt>
      <trkpt lat="43.6493" lon="3.33839">
        <ele>158.75</ele>
        <time>2014-09-28T06:27:32Z</time>
      </trkpt>
      <trkpt lat="43.64962" lon="3.33811">
        <ele>160.68</ele>
        <time>2014-09-28T06:27:43Z</time>
      </trkpt>
      <trkpt lat="43.64975" lon="3.33794">
        <ele>161.16</ele>
        <time>2014-09-28T06:27:49Z</time>
      </trkpt>
      <trkpt lat="43.65006" lon="3.33744">
        <ele>159.24</ele>
        <time>2014-09-28T06:28:03Z</time>
      </trkpt>
      <trkpt lat="43.65014" lon="3.33719">
        <ele>157.79</ele>
        <time>2014-09-28T06:28:09Z</time>
      </trkpt>
      <trkpt lat="43.65022" lon="3.33686">
        <ele>155.87</ele>
        <time>2014-09-28T06:28:16Z</time>
      </trkpt>
      <trkpt lat="43.65025" lon="3.33672">
        <ele>155.39</ele>
        <time>2014-09-28T06:28:19Z</time>
      </trkpt>
      <trkpt lat="43.65025" lon="3.33659">
        <ele>154.91</ele>
        <time>2014-09-28T06:28:21Z</time>
      </trkpt>
      <trkpt lat="43.65026" lon="3.33646">
        <ele>153.95</ele>
        <time>2014-09-28T06:28:23Z</time>
      </trkpt>
      <trkpt lat="43.6503" lon="3.33624">
        <ele>153.47</ele>
        <time>2014-09-28T06:28:26Z</time>
      </trkpt>
      <trkpt lat="43.65039" lon="3.33566">
        <ele>150.58</ele>
        <time>2014-09-28T06:28:33Z</time>
      </trkpt>
      <trkpt lat="43.6504" lon="3.33557">
        <ele>149.62</ele>
        <time>2014-09-28T06:28:34Z</time>
      </trkpt>
      <trkpt lat="43.65054" lon="3.33504">
        <ele>148.18</ele>
        <time>2014-09-28T06:28:41Z</time>
      </trkpt>
      <trkpt lat="43.65054" lon="3.33463">
        <ele>146.74</ele>
        <time>2014-09-28T06:28:47Z</time>
      </trkpt>
      <trkpt lat="43.65067" lon="3.33417">
        <ele>144.82</ele>
        <time>2014-09-28T06:28:53Z</time>
      </trkpt>
      <trkpt lat="43.65073" lon="3.33377">
        <ele>143.37</ele>
        <time>2014-09-28T06:29:01Z</time>
      </trkpt>
      <trkpt lat="43.65069" lon="3.33374">
        <ele>143.37</ele>
        <time>2014-09-28T06:29:02Z</time>
      </trkpt>
      <trkpt lat="43.65059" lon="3.33367">
        <ele>144.34</ele>
        <time>2014-09-28T06:29:05Z</time>
      </trkpt>
      <trkpt lat="43.65043" lon="3.33363">
        <ele>143.85</ele>
        <time>2014-09-28T06:29:09Z</time>
      </trkpt>
      <trkpt lat="43.64994" lon="3.33358">
        <ele>143.37</ele>
        <time>2014-09-28T06:29:20Z</time>
      </trkpt>
      <trkpt lat="43.64909" lon="3.33323">
        <ele>142.89</ele>
        <time>2014-09-28T06:29:34Z</time>
      </trkpt>
      <trkpt lat="43.64843" lon="3.33293">
        <ele>143.85</ele>
        <time>2014-09-28T06:29:46Z</time>
      </trkpt>
      <trkpt lat="43.64827" lon="3.33312">
        <ele>144.34</ele>
        <time>2014-09-28T06:29:52Z</time>
      </trkpt>
      <trkpt lat="43.64827" lon="3.33318">
        <ele>144.34</ele>
        <time>2014-09-28T06:29:53Z</time>
      </trkpt>
      <trkpt lat="43.64828" lon="3.33336">
        <ele>144.34</ele>
        <time>2014-09-28T06:29:56Z</time>
      </trkpt>
      <trkpt lat="43.64827" lon="3.33347">
        <ele>144.82</ele>
        <time>2014-09-28T06:29:58Z</time>
      </trkpt>
      <trkpt lat="43.64829" lon="3.33371">
        <ele>144.82</ele>
        <time>2014-09-28T06:30:02Z</time>
      </trkpt>
      <trkpt lat="43.64842" lon="3.33416">
        <ele>145.3</ele>
        <time>2014-09-28T06:30:11Z</time>
      </trkpt>
      <trkpt lat="43.64844" lon="3.33434">
        <ele>144.82</ele>
        <time>2014-09-28T06:30:14Z</time>
      </trkpt>
      <trkpt lat="43.64844" lon="3.33473">
        <ele>144.82</ele>
        <time>2014-09-28T06:30:23Z</time>
      </trkpt>
      <trkpt lat="43.64852" lon="3.33524">
        <ele>146.26</ele>
        <time>2014-09-28T06:30:36Z</time>
      </trkpt>
      <trkpt lat="43.64852" lon="3.33545">
        <ele>145.3</ele>
        <time>2014-09-28T06:30:41Z</time>
      </trkpt>
      <trkpt lat="43.64852" lon="3.33591">
        <ele>146.74</ele>
        <time>2014-09-28T06:30:52Z</time>
      </trkpt>
      <trkpt lat="43.64853" lon="3.33598">
        <ele>147.22</ele>
        <time>2014-09-28T06:30:54Z</time>
      </trkpt>
      <trkpt lat="43.64859" lon="3.33652">
        <ele>147.22</ele>
        <time>2014-09-28T06:31:06Z</time>
      </trkpt>
      <trkpt lat="43.64859" lon="3.33688">
        <ele>149.14</ele>
        <time>2014-09-28T06:31:15Z</time>
      </trkpt>
      <trkpt lat="43.64855" lon="3.33696">
        <ele>149.62</ele>
        <time>2014-09-28T06:31:18Z</time>
      </trkpt>
      <trkpt lat="43.64853" lon="3.33705">
        <ele>150.58</ele>
        <time>2014-09-28T06:31:22Z</time>
      </trkpt>
      <trkpt lat="43.64851" lon="3.33745">
        <ele>152.51</ele>
        <time>2014-09-28T06:31:36Z</time>
      </trkpt>
      <trkpt lat="43.64852" lon="3.33772">
        <ele>154.43</ele>
        <time>2014-09-28T06:31:47Z</time>
      </trkpt>
      <trkpt lat="43.64852" lon="3.33781">
        <ele>154.91</ele>
        <time>2014-09-28T06:31:51Z</time>
      </trkpt>
      <trkpt lat="43.64847" lon="3.33806">
        <ele>156.35</ele>
        <time>2014-09-28T06:32:00Z</time>
      </trkpt>
      <trkpt lat="43.64841" lon="3.33852">
        <ele>158.75</ele>
        <time>2014-09-28T06:32:15Z</time>
      </trkpt>
      <trkpt lat="43.6483" lon="3.33891">
        <ele>158.75</ele>
        <time>2014-09-28T06:32:27Z</time>
      </trkpt>
      <trkpt lat="43.64826" lon="3.33897">
        <ele>157.79</ele>
        <time>2014-09-28T06:32:29Z</time>
      </trkpt>
      <trkpt lat="43.64818" lon="3.3393">
        <ele>154.43</ele>
        <time>2014-09-28T06:32:35Z</time>
      </trkpt>
      <trkpt lat="43.64816" lon="3.33932">
        <ele>154.91</ele>
        <time>2014-09-28T06:32:38Z</time>
      </trkpt>
      <trkpt lat="43.64813" lon="3.33934">
        <ele>156.83</ele>
        <time>2014-09-28T06:32:50Z</time>
      </trkpt>
      <trkpt lat="43.64812" lon="3.33943">
        <ele>158.75</ele>
        <time>2014-09-28T06:32:58Z</time>
      </trkpt>
      <trkpt lat="43.6481" lon="3.33953">
        <ele>159.72</ele>
        <time>2014-09-28T06:33:08Z</time>
      </trkpt>
      <trkpt lat="43.64808" lon="3.33977">
        <ele>162.12</ele>
        <time>2014-09-28T06:33:20Z</time>
      </trkpt>
      <trkpt lat="43.64796" lon="3.34027">
        <ele>163.08</ele>
        <time>2014-09-28T06:33:36Z</time>
      </trkpt>
      <trkpt lat="43.64785" lon="3.34062">
        <ele>164.52</ele>
        <time>2014-09-28T06:33:47Z</time>
      </trkpt>
      <trkpt lat="43.6477" lon="3.34109">
        <ele>164.52</ele>
        <time>2014-09-28T06:33:57Z</time>
      </trkpt>
      <trkpt lat="43.64755" lon="3.34161">
        <ele>163.08</ele>
        <time>2014-09-28T06:34:05Z</time>
      </trkpt>
      <trkpt lat="43.64747" lon="3.34196">
        <ele>163.56</ele>
        <time>2014-09-28T06:34:11Z</time>
      </trkpt>
      <trkpt lat="43.64744" lon="3.34244">
        <ele>160.68</ele>
        <time>2014-09-28T06:34:18Z</time>
      </trkpt>
      <trkpt lat="43.6475" lon="3.34292">
        <ele>156.35</ele>
        <time>2014-09-28T06:34:23Z</time>
      </trkpt>
      <trkpt lat="43.64752" lon="3.34334">
        <ele>155.39</ele>
        <time>2014-09-28T06:34:28Z</time>
      </trkpt>
      <trkpt lat="43.64746" lon="3.3435">
        <ele>154.91</ele>
        <time>2014-09-28T06:34:30Z</time>
      </trkpt>
      <trkpt lat="43.64741" lon="3.34377">
        <ele>152.99</ele>
        <time>2014-09-28T06:34:33Z</time>
      </trkpt>
      <trkpt lat="43.64741" lon="3.34395">
        <ele>152.51</ele>
        <time>2014-09-28T06:34:35Z</time>
      </trkpt>
      <trkpt lat="43.6474" lon="3.3445">
        <ele>151.54</ele>
        <time>2014-09-28T06:34:42Z</time>
      </trkpt>
      <trkpt lat="43.64737" lon="3.34481">
        <ele>150.58</ele>
        <time>2014-09-28T06:34:46Z</time>
      </trkpt>
      <trkpt lat="43.64735" lon="3.34505">
        <ele>150.58</ele>
        <time>2014-09-28T06:34:49Z</time>
      </trkpt>
      <trkpt lat="43.64735" lon="3.34529">
        <ele>149.62</ele>
        <time>2014-09-28T06:34:52Z</time>
      </trkpt>
      <trkpt lat="43.64736" lon="3.34556">
        <ele>150.1</ele>
        <time>2014-09-28T06:34:56Z</time>
      </trkpt>
      <trkpt lat="43.64736" lon="3.34591">
        <ele>148.66</ele>
        <time>2014-09-28T06:35:03Z</time>
      </trkpt>
      <trkpt lat="43.64731" lon="3.34603">
        <ele>146.74</ele>
        <time>2014-09-28T06:35:08Z</time>
      </trkpt>
      <trkpt lat="43.64729" lon="3.34618">
        <ele>144.82</ele>
        <time>2014-09-28T06:35:11Z</time>
      </trkpt>
      <trkpt lat="43.64726" lon="3.34652">
        <ele>146.26</ele>
        <time>2014-09-28T06:35:19Z</time>
      </trkpt>
      <trkpt lat="43.64727" lon="3.34685">
        <ele>145.3</ele>
        <time>2014-09-28T06:35:24Z</time>
      </trkpt>
      <trkpt lat="43.64731" lon="3.34715">
        <ele>144.82</ele>
        <time>2014-09-28T06:35:28Z</time>
      </trkpt>
      <trkpt lat="43.64729" lon="3.34808">
        <ele>143.37</ele>
        <time>2014-09-28T06:35:41Z</time>
      </trkpt>
      <trkpt lat="43.64728" lon="3.34827">
        <ele>143.37</ele>
        <time>2014-09-28T06:35:44Z</time>
      </trkpt>
      <trkpt lat="43.64725" lon="3.34856">
        <ele>143.85</ele>
        <time>2014-09-28T06:35:49Z</time>
      </trkpt>
      <trkpt lat="43.6472" lon="3.34894">
        <ele>143.85</ele>
        <time>2014-09-28T06:35:55Z</time>
      </trkpt>
      <trkpt lat="43.6471" lon="3.3494">
        <ele>142.89</ele>
        <time>2014-09-28T06:36:02Z</time>
      </trkpt>
      <trkpt lat="43.64686" lon="3.34995">
        <ele>142.89</ele>
        <time>2014-09-28T06:36:14Z</time>
      </trkpt>
      <trkpt lat="43.64677" lon="3.3506">
        <ele>143.85</ele>
        <time>2014-09-28T06:36:27Z</time>
      </trkpt>
      <trkpt lat="43.64684" lon="3.35126">
        <ele>144.34</ele>
        <time>2014-09-28T06:36:40Z</time>
      </trkpt>
      <trkpt lat="43.64671" lon="3.35226">
        <ele>145.3</ele>
        <time>2014-09-28T06:36:59Z</time>
      </trkpt>
      <trkpt lat="43.64671" lon="3.35293">
        <ele>145.78</ele>
        <time>2014-09-28T06:37:11Z</time>
      </trkpt>
      <trkpt lat="43.64678" lon="3.35387">
        <ele>146.74</ele>
        <time>2014-09-28T06:37:28Z</time>
      </trkpt>
      <trkpt lat="43.64679" lon="3.35453">
        <ele>147.22</ele>
        <time>2014-09-28T06:37:40Z</time>
      </trkpt>
      <trkpt lat="43.64672" lon="3.35482">
        <ele>146.74</ele>
        <time>2014-09-28T06:37:45Z</time>
      </trkpt>
      <trkpt lat="43.64663" lon="3.35506">
        <ele>146.74</ele>
        <time>2014-09-28T06:37:49Z</time>
      </trkpt>
      <trkpt lat="43.64653" lon="3.35538">
        <ele>146.74</ele>
        <time>2014-09-28T06:37:54Z</time>
      </trkpt>
      <trkpt lat="43.64651" lon="3.35638">
        <ele>148.18</ele>
        <time>2014-09-28T06:38:12Z</time>
      </trkpt>
      <trkpt lat="43.64651" lon="3.3565">
        <ele>148.18</ele>
        <time>2014-09-28T06:38:14Z</time>
      </trkpt>
      <trkpt lat="43.64652" lon="3.3573">
        <ele>149.62</ele>
        <time>2014-09-28T06:38:29Z</time>
      </trkpt>
      <trkpt lat="43.64647" lon="3.35795">
        <ele>150.1</ele>
        <time>2014-09-28T06:38:41Z</time>
      </trkpt>
      <trkpt lat="43.64629" lon="3.35861">
        <ele>151.06</ele>
        <time>2014-09-28T06:38:54Z</time>
      </trkpt>
      <trkpt lat="43.64625" lon="3.35873">
        <ele>151.06</ele>
        <time>2014-09-28T06:38:56Z</time>
      </trkpt>
      <trkpt lat="43.64613" lon="3.3593">
        <ele>147.22</ele>
        <time>2014-09-28T06:39:03Z</time>
      </trkpt>
      <trkpt lat="43.64605" lon="3.3596">
        <ele>145.78</ele>
        <time>2014-09-28T06:39:06Z</time>
      </trkpt>
      <trkpt lat="43.64589" lon="3.35975">
        <ele>145.78</ele>
        <time>2014-09-28T06:39:10Z</time>
      </trkpt>
      <trkpt lat="43.6456" lon="3.35959">
        <ele>146.74</ele>
        <time>2014-09-28T06:39:18Z</time>
      </trkpt>
      <trkpt lat="43.64527" lon="3.35936">
        <ele>148.18</ele>
        <time>2014-09-28T06:39:30Z</time>
      </trkpt>
      <trkpt lat="43.64497" lon="3.35909">
        <ele>149.14</ele>
        <time>2014-09-28T06:39:42Z</time>
      </trkpt>
      <trkpt lat="43.64473" lon="3.35868">
        <ele>151.06</ele>
        <time>2014-09-28T06:39:56Z</time>
      </trkpt>
      <trkpt lat="43.64452" lon="3.3584">
        <ele>152.51</ele>
        <time>2014-09-28T06:40:07Z</time>
      </trkpt>
      <trkpt lat="43.64419" lon="3.3584">
        <ele>152.99</ele>
        <time>2014-09-28T06:40:18Z</time>
      </trkpt>
      <trkpt lat="43.64383" lon="3.35838">
        <ele>153.47</ele>
        <time>2014-09-28T06:40:30Z</time>
      </trkpt>
      <trkpt lat="43.64355" lon="3.35809">
        <ele>154.43</ele>
        <time>2014-09-28T06:40:42Z</time>
      </trkpt>
      <trkpt lat="43.64329" lon="3.35785">
        <ele>155.87</ele>
        <time>2014-09-28T06:40:54Z</time>
      </trkpt>
      <trkpt lat="43.64302" lon="3.3578">
        <ele>157.31</ele>
        <time>2014-09-28T06:41:07Z</time>
      </trkpt>
      <trkpt lat="43.64284" lon="3.35764">
        <ele>158.75</ele>
        <time>2014-09-28T06:41:18Z</time>
      </trkpt>
      <trkpt lat="43.64264" lon="3.35743">
        <ele>160.2</ele>
        <time>2014-09-28T06:41:31Z</time>
      </trkpt>
      <trkpt lat="43.64246" lon="3.35737">
        <ele>162.6</ele>
        <time>2014-09-28T06:41:43Z</time>
      </trkpt>
      <trkpt lat="43.64224" lon="3.35726">
        <ele>163.56</ele>
        <time>2014-09-28T06:41:55Z</time>
      </trkpt>
      <trkpt lat="43.64204" lon="3.35704">
        <ele>165.48</ele>
        <time>2014-09-28T06:42:08Z</time>
      </trkpt>
      <trkpt lat="43.64183" lon="3.35691">
        <ele>166.93</ele>
        <time>2014-09-28T06:42:21Z</time>
      </trkpt>
      <trkpt lat="43.64163" lon="3.35672">
        <ele>168.37</ele>
        <time>2014-09-28T06:42:33Z</time>
      </trkpt>
      <trkpt lat="43.6414" lon="3.35649">
        <ele>169.81</ele>
        <time>2014-09-28T06:42:47Z</time>
      </trkpt>
      <trkpt lat="43.64136" lon="3.35647">
        <ele>170.29</ele>
        <time>2014-09-28T06:42:49Z</time>
      </trkpt>
      <trkpt lat="43.64117" lon="3.35643">
        <ele>173.17</ele>
        <time>2014-09-28T06:43:02Z</time>
      </trkpt>
      <trkpt lat="43.64086" lon="3.35653">
        <ele>174.14</ele>
        <time>2014-09-28T06:43:15Z</time>
      </trkpt>
      <trkpt lat="43.64054" lon="3.35691">
        <ele>175.1</ele>
        <time>2014-09-28T06:43:30Z</time>
      </trkpt>
      <trkpt lat="43.64039" lon="3.35729">
        <ele>177.02</ele>
        <time>2014-09-28T06:43:43Z</time>
      </trkpt>
      <trkpt lat="43.64019" lon="3.35759">
        <ele>178.94</ele>
        <time>2014-09-28T06:43:57Z</time>
      </trkpt>
      <trkpt lat="43.63992" lon="3.35773">
        <ele>180.38</ele>
        <time>2014-09-28T06:44:10Z</time>
      </trkpt>
      <trkpt lat="43.63957" lon="3.35789">
        <ele>181.83</ele>
        <time>2014-09-28T06:44:25Z</time>
      </trkpt>
      <trkpt lat="43.63929" lon="3.35789">
        <ele>184.23</ele>
        <time>2014-09-28T06:44:39Z</time>
      </trkpt>
      <trkpt lat="43.639" lon="3.35793">
        <ele>185.67</ele>
        <time>2014-09-28T06:44:53Z</time>
      </trkpt>
      <trkpt lat="43.63874" lon="3.35795">
        <ele>189.04</ele>
        <time>2014-09-28T06:45:08Z</time>
      </trkpt>
      <trkpt lat="43.63855" lon="3.35785">
        <ele>190.48</ele>
        <time>2014-09-28T06:45:23Z</time>
      </trkpt>
      <trkpt lat="43.6385" lon="3.35782">
        <ele>190.96</ele>
        <time>2014-09-28T06:45:28Z</time>
      </trkpt>
      <trkpt lat="43.63838" lon="3.35774">
        <ele>192.88</ele>
        <time>2014-09-28T06:45:38Z</time>
      </trkpt>
      <trkpt lat="43.63825" lon="3.35769">
        <ele>194.8</ele>
        <time>2014-09-28T06:45:49Z</time>
      </trkpt>
      <trkpt lat="43.63816" lon="3.35766">
        <ele>196.25</ele>
        <time>2014-09-28T06:45:56Z</time>
      </trkpt>
      <trkpt lat="43.63813" lon="3.35775">
        <ele>196.25</ele>
        <time>2014-09-28T06:46:01Z</time>
      </trkpt>
      <trkpt lat="43.63803" lon="3.35802">
        <ele>196.25</ele>
        <time>2014-09-28T06:46:08Z</time>
      </trkpt>
      <trkpt lat="43.63785" lon="3.35874">
        <ele>197.21</ele>
        <time>2014-09-28T06:46:24Z</time>
      </trkpt>
      <trkpt lat="43.6376" lon="3.35898">
        <ele>200.09</ele>
        <time>2014-09-28T06:46:37Z</time>
      </trkpt>
      <trkpt lat="43.63718" lon="3.35909">
        <ele>201.05</ele>
        <time>2014-09-28T06:46:52Z</time>
      </trkpt>
      <trkpt lat="43.63685" lon="3.35905">
        <ele>202.49</ele>
        <time>2014-09-28T06:47:03Z</time>
      </trkpt>
      <trkpt lat="43.63657" lon="3.35943">
        <ele>204.9</ele>
        <time>2014-09-28T06:47:16Z</time>
      </trkpt>
      <trkpt lat="43.63654" lon="3.35991">
        <ele>206.82</ele>
        <time>2014-09-28T06:47:29Z</time>
      </trkpt>
      <trkpt lat="43.63645" lon="3.36037">
        <ele>208.74</ele>
        <time>2014-09-28T06:47:44Z</time>
      </trkpt>
      <trkpt lat="43.63636" lon="3.36072">
        <ele>210.67</ele>
        <time>2014-09-28T06:47:57Z</time>
      </trkpt>
      <trkpt lat="43.63629" lon="3.36095">
        <ele>212.59</ele>
        <time>2014-09-28T06:48:07Z</time>
      </trkpt>
      <trkpt lat="43.63624" lon="3.36123">
        <ele>214.51</ele>
        <time>2014-09-28T06:48:21Z</time>
      </trkpt>
      <trkpt lat="43.63613" lon="3.36145">
        <ele>217.88</ele>
        <time>2014-09-28T06:48:34Z</time>
      </trkpt>
      <trkpt lat="43.63603" lon="3.3618">
        <ele>218.84</ele>
        <time>2014-09-28T06:48:48Z</time>
      </trkpt>
      <trkpt lat="43.6359" lon="3.36233">
        <ele>218.84</ele>
        <time>2014-09-28T06:49:00Z</time>
      </trkpt>
      <trkpt lat="43.63561" lon="3.36305">
        <ele>217.88</ele>
        <time>2014-09-28T06:49:13Z</time>
      </trkpt>
      <trkpt lat="43.63544" lon="3.36369">
        <ele>218.36</ele>
        <time>2014-09-28T06:49:25Z</time>
      </trkpt>
      <trkpt lat="43.63543" lon="3.36405">
        <ele>220.28</ele>
        <time>2014-09-28T06:49:33Z</time>
      </trkpt>
      <trkpt lat="43.63535" lon="3.36402">
        <ele>221.72</ele>
        <time>2014-09-28T06:49:39Z</time>
      </trkpt>
      <trkpt lat="43.63527" lon="3.36379">
        <ele>223.64</ele>
        <time>2014-09-28T06:49:51Z</time>
      </trkpt>
      <trkpt lat="43.63522" lon="3.36355">
        <ele>226.05</ele>
        <time>2014-09-28T06:50:03Z</time>
      </trkpt>
      <trkpt lat="43.63523" lon="3.3633">
        <ele>227.49</ele>
        <time>2014-09-28T06:50:14Z</time>
      </trkpt>
      <trkpt lat="43.63519" lon="3.36292">
        <ele>229.41</ele>
        <time>2014-09-28T06:50:27Z</time>
      </trkpt>
      <trkpt lat="43.63518" lon="3.36286">
        <ele>229.89</ele>
        <time>2014-09-28T06:50:29Z</time>
      </trkpt>
      <trkpt lat="43.63509" lon="3.36249">
        <ele>230.37</ele>
        <time>2014-09-28T06:50:41Z</time>
      </trkpt>
      <trkpt lat="43.63495" lon="3.3623">
        <ele>231.81</ele>
        <time>2014-09-28T06:50:50Z</time>
      </trkpt>
      <trkpt lat="43.63479" lon="3.36223">
        <ele>233.74</ele>
        <time>2014-09-28T06:51:01Z</time>
      </trkpt>
      <trkpt lat="43.63471" lon="3.36218">
        <ele>235.18</ele>
        <time>2014-09-28T06:51:07Z</time>
      </trkpt>
      <trkpt lat="43.63464" lon="3.36181">
        <ele>236.14</ele>
        <time>2014-09-28T06:51:20Z</time>
      </trkpt>
      <trkpt lat="43.63461" lon="3.36115">
        <ele>236.14</ele>
        <time>2014-09-28T06:51:33Z</time>
      </trkpt>
      <trkpt lat="43.63463" lon="3.36069">
        <ele>237.1</ele>
        <time>2014-09-28T06:51:45Z</time>
      </trkpt>
      <trkpt lat="43.63485" lon="3.3605">
        <ele>239.02</ele>
        <time>2014-09-28T06:51:59Z</time>
      </trkpt>
      <trkpt lat="43.63494" lon="3.36039">
        <ele>240.47</ele>
        <time>2014-09-28T06:52:11Z</time>
      </trkpt>
      <trkpt lat="43.63495" lon="3.36035">
        <ele>241.43</ele>
        <time>2014-09-28T06:52:16Z</time>
      </trkpt>
      <trkpt lat="43.63494" lon="3.36032">
        <ele>241.91</ele>
        <time>2014-09-28T06:52:19Z</time>
      </trkpt>
      <trkpt lat="43.63491" lon="3.36022">
        <ele>243.35</ele>
        <time>2014-09-28T06:52:31Z</time>
      </trkpt>
      <trkpt lat="43.63482" lon="3.36009">
        <ele>245.75</ele>
        <time>2014-09-28T06:52:45Z</time>
      </trkpt>
      <trkpt lat="43.63479" lon="3.36004">
        <ele>247.68</ele>
        <time>2014-09-28T06:52:54Z</time>
      </trkpt>
      <trkpt lat="43.63471" lon="3.35993">
        <ele>249.6</ele>
        <time>2014-09-28T06:53:06Z</time>
      </trkpt>
      <trkpt lat="43.63466" lon="3.35983">
        <ele>251.04</ele>
        <time>2014-09-28T06:53:18Z</time>
      </trkpt>
      <trkpt lat="43.63465" lon="3.35962">
        <ele>252.96</ele>
        <time>2014-09-28T06:53:31Z</time>
      </trkpt>
      <trkpt lat="43.63464" lon="3.35954">
        <ele>253.93</ele>
        <time>2014-09-28T06:53:39Z</time>
      </trkpt>
      <trkpt lat="43.63462" lon="3.35936">
        <ele>256.81</ele>
        <time>2014-09-28T06:53:52Z</time>
      </trkpt>
      <trkpt lat="43.63462" lon="3.35923">
        <ele>258.25</ele>
        <time>2014-09-28T06:54:03Z</time>
      </trkpt>
      <trkpt lat="43.63462" lon="3.35908">
        <ele>260.17</ele>
        <time>2014-09-28T06:54:15Z</time>
      </trkpt>
      <trkpt lat="43.63461" lon="3.35896">
        <ele>261.62</ele>
        <time>2014-09-28T06:54:27Z</time>
      </trkpt>
      <trkpt lat="43.6346" lon="3.35875">
        <ele>263.54</ele>
        <time>2014-09-28T06:54:42Z</time>
      </trkpt>
      <trkpt lat="43.63461" lon="3.35857">
        <ele>265.46</ele>
        <time>2014-09-28T06:54:55Z</time>
      </trkpt>
      <trkpt lat="43.63463" lon="3.35842">
        <ele>266.42</ele>
        <time>2014-09-28T06:55:06Z</time>
      </trkpt>
      <trkpt lat="43.63463" lon="3.35838">
        <ele>266.42</ele>
        <time>2014-09-28T06:55:11Z</time>
      </trkpt>
      <trkpt lat="43.63457" lon="3.3581">
        <ele>267.86</ele>
        <time>2014-09-28T06:55:21Z</time>
      </trkpt>
      <trkpt lat="43.6345" lon="3.358">
        <ele>268.83</ele>
        <time>2014-09-28T06:55:33Z</time>
      </trkpt>
      <trkpt lat="43.63447" lon="3.358">
        <ele>269.31</ele>
        <time>2014-09-28T06:55:36Z</time>
      </trkpt>
      <trkpt lat="43.63439" lon="3.35795">
        <ele>270.75</ele>
        <time>2014-09-28T06:55:48Z</time>
      </trkpt>
      <trkpt lat="43.6343" lon="3.35785">
        <ele>272.67</ele>
        <time>2014-09-28T06:56:02Z</time>
      </trkpt>
      <trkpt lat="43.63425" lon="3.35783">
        <ele>274.59</ele>
        <time>2014-09-28T06:56:16Z</time>
      </trkpt>
      <trkpt lat="43.63424" lon="3.35783">
        <ele>274.59</ele>
        <time>2014-09-28T06:56:18Z</time>
      </trkpt>
      <trkpt lat="43.63414" lon="3.35777">
        <ele>277</ele>
        <time>2014-09-28T06:56:30Z</time>
      </trkpt>
      <trkpt lat="43.63408" lon="3.35774">
        <ele>278.92</ele>
        <time>2014-09-28T06:56:43Z</time>
      </trkpt>
      <trkpt lat="43.63397" lon="3.35768">
        <ele>280.84</ele>
        <time>2014-09-28T06:56:56Z</time>
      </trkpt>
      <trkpt lat="43.63388" lon="3.35759">
        <ele>283.25</ele>
        <time>2014-09-28T06:57:11Z</time>
      </trkpt>
      <trkpt lat="43.63386" lon="3.35752">
        <ele>285.17</ele>
        <time>2014-09-28T06:57:21Z</time>
      </trkpt>
      <trkpt lat="43.63374" lon="3.35742">
        <ele>287.09</ele>
        <time>2014-09-28T06:57:36Z</time>
      </trkpt>
      <trkpt lat="43.63363" lon="3.35732">
        <ele>289.49</ele>
        <time>2014-09-28T06:57:51Z</time>
      </trkpt>
      <trkpt lat="43.63362" lon="3.3573">
        <ele>289.49</ele>
        <time>2014-09-28T06:57:53Z</time>
      </trkpt>
      <trkpt lat="43.63357" lon="3.35723">
        <ele>290.46</ele>
        <time>2014-09-28T06:58:07Z</time>
      </trkpt>
      <trkpt lat="43.63358" lon="3.35722">
        <ele>290.94</ele>
        <time>2014-09-28T06:58:30Z</time>
      </trkpt>
      <trkpt lat="43.63347" lon="3.35713">
        <ele>293.34</ele>
        <time>2014-09-28T06:58:42Z</time>
      </trkpt>
      <trkpt lat="43.63333" lon="3.357">
        <ele>296.22</ele>
        <time>2014-09-28T06:58:55Z</time>
      </trkpt>
      <trkpt lat="43.63327" lon="3.35692">
        <ele>297.67</ele>
        <time>2014-09-28T06:59:02Z</time>
      </trkpt>
      <trkpt lat="43.6332" lon="3.35687">
        <ele>299.59</ele>
        <time>2014-09-28T06:59:10Z</time>
      </trkpt>
      <trkpt lat="43.63313" lon="3.35683">
        <ele>300.55</ele>
        <time>2014-09-28T06:59:17Z</time>
      </trkpt>
      <trkpt lat="43.63303" lon="3.35676">
        <ele>302.47</ele>
        <time>2014-09-28T06:59:27Z</time>
      </trkpt>
      <trkpt lat="43.63292" lon="3.35668">
        <ele>305.84</ele>
        <time>2014-09-28T06:59:41Z</time>
      </trkpt>
      <trkpt lat="43.63289" lon="3.35667">
        <ele>306.32</ele>
        <time>2014-09-28T06:59:43Z</time>
      </trkpt>
      <trkpt lat="43.63284" lon="3.35669">
        <ele>306.8</ele>
        <time>2014-09-28T06:59:47Z</time>
      </trkpt>
      <trkpt lat="43.63274" lon="3.35678">
        <ele>308.72</ele>
        <time>2014-09-28T07:00:00Z</time>
      </trkpt>
      <trkpt lat="43.63266" lon="3.35694">
        <ele>311.12</ele>
        <time>2014-09-28T07:00:14Z</time>
      </trkpt>
      <trkpt lat="43.63262" lon="3.35703">
        <ele>312.57</ele>
        <time>2014-09-28T07:00:24Z</time>
      </trkpt>
      <trkpt lat="43.63257" lon="3.35712">
        <ele>314.49</ele>
        <time>2014-09-28T07:00:35Z</time>
      </trkpt>
      <trkpt lat="43.63254" lon="3.35716">
        <ele>314.97</ele>
        <time>2014-09-28T07:00:39Z</time>
      </trkpt>
      <trkpt lat="43.63249" lon="3.35722">
        <ele>316.41</ele>
        <time>2014-09-28T07:00:52Z</time>
      </trkpt>
      <trkpt lat="43.63244" lon="3.35734">
        <ele>318.33</ele>
        <time>2014-09-28T07:01:03Z</time>
      </trkpt>
      <trkpt lat="43.63239" lon="3.35745">
        <ele>320.26</ele>
        <time>2014-09-28T07:01:16Z</time>
      </trkpt>
      <trkpt lat="43.63234" lon="3.35759">
        <ele>322.18</ele>
        <time>2014-09-28T07:01:31Z</time>
      </trkpt>
      <trkpt lat="43.63233" lon="3.35763">
        <ele>323.14</ele>
        <time>2014-09-28T07:01:36Z</time>
      </trkpt>
      <trkpt lat="43.63227" lon="3.3577">
        <ele>324.58</ele>
        <time>2014-09-28T07:01:48Z</time>
      </trkpt>
      <trkpt lat="43.63224" lon="3.35757">
        <ele>326.02</ele>
        <time>2014-09-28T07:02:02Z</time>
      </trkpt>
      <trkpt lat="43.63223" lon="3.35756">
        <ele>326.5</ele>
        <time>2014-09-28T07:02:04Z</time>
      </trkpt>
      <trkpt lat="43.63224" lon="3.35737">
        <ele>327.95</ele>
        <time>2014-09-28T07:02:19Z</time>
      </trkpt>
      <trkpt lat="43.63223" lon="3.35721">
        <ele>329.87</ele>
        <time>2014-09-28T07:02:32Z</time>
      </trkpt>
      <trkpt lat="43.6322" lon="3.35706">
        <ele>331.79</ele>
        <time>2014-09-28T07:02:45Z</time>
      </trkpt>
      <trkpt lat="43.6322" lon="3.35694">
        <ele>333.23</ele>
        <time>2014-09-28T07:02:57Z</time>
      </trkpt>
      <trkpt lat="43.63219" lon="3.35677">
        <ele>335.16</ele>
        <time>2014-09-28T07:03:12Z</time>
      </trkpt>
      <trkpt lat="43.63216" lon="3.35662">
        <ele>337.56</ele>
        <time>2014-09-28T07:03:26Z</time>
      </trkpt>
      <trkpt lat="43.63213" lon="3.35649">
        <ele>339</ele>
        <time>2014-09-28T07:03:41Z</time>
      </trkpt>
      <trkpt lat="43.63211" lon="3.35638">
        <ele>340.92</ele>
        <time>2014-09-28T07:03:54Z</time>
      </trkpt>
      <trkpt lat="43.63209" lon="3.35626">
        <ele>342.85</ele>
        <time>2014-09-28T07:04:07Z</time>
      </trkpt>
      <trkpt lat="43.63208" lon="3.35625">
        <ele>342.85</ele>
        <time>2014-09-28T07:04:08Z</time>
      </trkpt>
      <trkpt lat="43.63202" lon="3.35611">
        <ele>344.77</ele>
        <time>2014-09-28T07:04:22Z</time>
      </trkpt>
      <trkpt lat="43.63196" lon="3.35599">
        <ele>347.17</ele>
        <time>2014-09-28T07:04:36Z</time>
      </trkpt>
      <trkpt lat="43.63191" lon="3.3559">
        <ele>348.62</ele>
        <time>2014-09-28T07:04:46Z</time>
      </trkpt>
      <trkpt lat="43.63186" lon="3.35579">
        <ele>351.02</ele>
        <time>2014-09-28T07:05:00Z</time>
      </trkpt>
      <trkpt lat="43.63182" lon="3.35573">
        <ele>352.46</ele>
        <time>2014-09-28T07:05:12Z</time>
      </trkpt>
      <trkpt lat="43.63179" lon="3.35562">
        <ele>354.38</ele>
        <time>2014-09-28T07:05:26Z</time>
      </trkpt>
      <trkpt lat="43.63176" lon="3.35555">
        <ele>355.83</ele>
        <time>2014-09-28T07:05:38Z</time>
      </trkpt>
      <trkpt lat="43.63171" lon="3.35546">
        <ele>357.75</ele>
        <time>2014-09-28T07:05:49Z</time>
      </trkpt>
      <trkpt lat="43.63169" lon="3.35537">
        <ele>359.19</ele>
        <time>2014-09-28T07:06:00Z</time>
      </trkpt>
      <trkpt lat="43.63169" lon="3.35527">
        <ele>360.63</ele>
        <time>2014-09-28T07:06:11Z</time>
      </trkpt>
      <trkpt lat="43.63165" lon="3.35513">
        <ele>363.04</ele>
        <time>2014-09-28T07:06:26Z</time>
      </trkpt>
      <trkpt lat="43.63163" lon="3.35505">
        <ele>364.48</ele>
        <time>2014-09-28T07:06:37Z</time>
      </trkpt>
      <trkpt lat="43.63159" lon="3.35499">
        <ele>366.88</ele>
        <time>2014-09-28T07:06:52Z</time>
      </trkpt>
      <trkpt lat="43.63157" lon="3.355">
        <ele>366.88</ele>
        <time>2014-09-28T07:06:54Z</time>
      </trkpt>
      <trkpt lat="43.63154" lon="3.355">
        <ele>368.32</ele>
        <time>2014-09-28T07:07:06Z</time>
      </trkpt>
      <trkpt lat="43.63147" lon="3.35503">
        <ele>370.73</ele>
        <time>2014-09-28T07:07:19Z</time>
      </trkpt>
      <trkpt lat="43.63138" lon="3.35499">
        <ele>373.13</ele>
        <time>2014-09-28T07:07:33Z</time>
      </trkpt>
      <trkpt lat="43.63136" lon="3.35492">
        <ele>375.05</ele>
        <time>2014-09-28T07:07:45Z</time>
      </trkpt>
      <trkpt lat="43.6313" lon="3.35482">
        <ele>376.97</ele>
        <time>2014-09-28T07:07:59Z</time>
      </trkpt>
      <trkpt lat="43.63126" lon="3.35469">
        <ele>378.9</ele>
        <time>2014-09-28T07:08:11Z</time>
      </trkpt>
      <trkpt lat="43.63127" lon="3.35459">
        <ele>379.86</ele>
        <time>2014-09-28T07:08:18Z</time>
      </trkpt>
      <trkpt lat="43.63127" lon="3.35445">
        <ele>381.3</ele>
        <time>2014-09-28T07:08:30Z</time>
      </trkpt>
      <trkpt lat="43.63128" lon="3.35444">
        <ele>381.3</ele>
        <time>2014-09-28T07:08:32Z</time>
      </trkpt>
      <trkpt lat="43.63137" lon="3.35437">
        <ele>383.22</ele>
        <time>2014-09-28T07:08:45Z</time>
      </trkpt>
      <trkpt lat="43.63148" lon="3.35423">
        <ele>386.11</ele>
        <time>2014-09-28T07:09:02Z</time>
      </trkpt>
      <trkpt lat="43.63154" lon="3.35417">
        <ele>387.55</ele>
        <time>2014-09-28T07:09:15Z</time>
      </trkpt>
      <trkpt lat="43.63158" lon="3.35417">
        <ele>388.51</ele>
        <time>2014-09-28T07:09:21Z</time>
      </trkpt>
      <trkpt lat="43.6317" lon="3.35415">
        <ele>390.43</ele>
        <time>2014-09-28T07:09:33Z</time>
      </trkpt>
      <trkpt lat="43.63172" lon="3.35412">
        <ele>390.91</ele>
        <time>2014-09-28T07:09:39Z</time>
      </trkpt>
      <trkpt lat="43.6319" lon="3.35406">
        <ele>393.32</ele>
        <time>2014-09-28T07:09:56Z</time>
      </trkpt>
      <trkpt lat="43.63198" lon="3.35395">
        <ele>395.72</ele>
        <time>2014-09-28T07:10:11Z</time>
      </trkpt>
      <trkpt lat="43.63199" lon="3.35394">
        <ele>395.72</ele>
        <time>2014-09-28T07:10:12Z</time>
      </trkpt>
      <trkpt lat="43.63202" lon="3.35386">
        <ele>397.16</ele>
        <time>2014-09-28T07:10:26Z</time>
      </trkpt>
      <trkpt lat="43.63207" lon="3.35376">
        <ele>397.64</ele>
        <time>2014-09-28T07:10:32Z</time>
      </trkpt>
      <trkpt lat="43.63211" lon="3.35368">
        <ele>398.12</ele>
        <time>2014-09-28T07:10:37Z</time>
      </trkpt>
      <trkpt lat="43.63212" lon="3.35355">
        <ele>398.6</ele>
        <time>2014-09-28T07:10:43Z</time>
      </trkpt>
      <trkpt lat="43.63215" lon="3.35333">
        <ele>400.05</ele>
        <time>2014-09-28T07:10:56Z</time>
      </trkpt>
      <trkpt lat="43.6322" lon="3.35317">
        <ele>401.49</ele>
        <time>2014-09-28T07:11:06Z</time>
      </trkpt>
      <trkpt lat="43.63218" lon="3.35307">
        <ele>402.45</ele>
        <time>2014-09-28T07:11:13Z</time>
      </trkpt>
      <trkpt lat="43.63222" lon="3.35285">
        <ele>404.37</ele>
        <time>2014-09-28T07:11:26Z</time>
      </trkpt>
      <trkpt lat="43.63225" lon="3.3527">
        <ele>405.81</ele>
        <time>2014-09-28T07:11:36Z</time>
      </trkpt>
      <trkpt lat="43.63225" lon="3.35245">
        <ele>408.7</ele>
        <time>2014-09-28T07:11:50Z</time>
      </trkpt>
      <trkpt lat="43.63225" lon="3.35241">
        <ele>409.18</ele>
        <time>2014-09-28T07:11:52Z</time>
      </trkpt>
      <trkpt lat="43.63226" lon="3.35232">
        <ele>409.66</ele>
        <time>2014-09-28T07:11:57Z</time>
      </trkpt>
      <trkpt lat="43.63225" lon="3.35228">
        <ele>410.62</ele>
        <time>2014-09-28T07:12:00Z</time>
      </trkpt>
      <trkpt lat="43.63227" lon="3.35208">
        <ele>412.06</ele>
        <time>2014-09-28T07:12:14Z</time>
      </trkpt>
      <trkpt lat="43.63228" lon="3.352">
        <ele>412.54</ele>
        <time>2014-09-28T07:12:19Z</time>
      </trkpt>
      <trkpt lat="43.63228" lon="3.35194">
        <ele>413.02</ele>
        <time>2014-09-28T07:12:23Z</time>
      </trkpt>
      <trkpt lat="43.63229" lon="3.35179">
        <ele>413.98</ele>
        <time>2014-09-28T07:12:32Z</time>
      </trkpt>
      <trkpt lat="43.63228" lon="3.35155">
        <ele>415.91</ele>
        <time>2014-09-28T07:12:47Z</time>
      </trkpt>
      <trkpt lat="43.63229" lon="3.35153">
        <ele>415.91</ele>
        <time>2014-09-28T07:12:48Z</time>
      </trkpt>
      <trkpt lat="43.63237" lon="3.35127">
        <ele>418.31</ele>
        <time>2014-09-28T07:13:02Z</time>
      </trkpt>
      <trkpt lat="43.6324" lon="3.35114">
        <ele>419.75</ele>
        <time>2014-09-28T07:13:16Z</time>
      </trkpt>
      <trkpt lat="43.63245" lon="3.35105">
        <ele>421.68</ele>
        <time>2014-09-28T07:13:29Z</time>
      </trkpt>
      <trkpt lat="43.63247" lon="3.35095">
        <ele>423.6</ele>
        <time>2014-09-28T07:13:40Z</time>
      </trkpt>
      <trkpt lat="43.63249" lon="3.35087">
        <ele>425.04</ele>
        <time>2014-09-28T07:13:52Z</time>
      </trkpt>
      <trkpt lat="43.63249" lon="3.35081">
        <ele>426</ele>
        <time>2014-09-28T07:14:06Z</time>
      </trkpt>
      <trkpt lat="43.6325" lon="3.35076">
        <ele>426.96</ele>
        <time>2014-09-28T07:14:18Z</time>
      </trkpt>
      <trkpt lat="43.6325" lon="3.35076">
        <ele>426.96</ele>
        <time>2014-09-28T07:14:45Z</time>
      </trkpt>
      <trkpt lat="43.63252" lon="3.3507">
        <ele>427.92</ele>
        <time>2014-09-28T07:15:07Z</time>
      </trkpt>
      <trkpt lat="43.63256" lon="3.35054">
        <ele>430.33</ele>
        <time>2014-09-28T07:15:20Z</time>
      </trkpt>
      <trkpt lat="43.63259" lon="3.35042">
        <ele>431.77</ele>
        <time>2014-09-28T07:15:33Z</time>
      </trkpt>
      <trkpt lat="43.63265" lon="3.35025">
        <ele>434.17</ele>
        <time>2014-09-28T07:15:49Z</time>
      </trkpt>
      <trkpt lat="43.63262" lon="3.35009">
        <ele>436.1</ele>
        <time>2014-09-28T07:16:02Z</time>
      </trkpt>
      <trkpt lat="43.63264" lon="3.34996">
        <ele>437.54</ele>
        <time>2014-09-28T07:16:14Z</time>
      </trkpt>
      <trkpt lat="43.63264" lon="3.34981">
        <ele>439.46</ele>
        <time>2014-09-28T07:16:27Z</time>
      </trkpt>
      <trkpt lat="43.63264" lon="3.34977">
        <ele>439.46</ele>
        <time>2014-09-28T07:16:35Z</time>
      </trkpt>
      <trkpt lat="43.63265" lon="3.34965">
        <ele>441.38</ele>
        <time>2014-09-28T07:16:42Z</time>
      </trkpt>
      <trkpt lat="43.63266" lon="3.34948">
        <ele>442.82</ele>
        <time>2014-09-28T07:16:51Z</time>
      </trkpt>
      <trkpt lat="43.63266" lon="3.34939">
        <ele>443.79</ele>
        <time>2014-09-28T07:16:55Z</time>
      </trkpt>
      <trkpt lat="43.63273" lon="3.34916">
        <ele>445.71</ele>
        <time>2014-09-28T07:17:08Z</time>
      </trkpt>
      <trkpt lat="43.63278" lon="3.34903">
        <ele>447.15</ele>
        <time>2014-09-28T07:17:16Z</time>
      </trkpt>
      <trkpt lat="43.63279" lon="3.34892">
        <ele>447.63</ele>
        <time>2014-09-28T07:17:22Z</time>
      </trkpt>
      <trkpt lat="43.6328" lon="3.34872">
        <ele>449.07</ele>
        <time>2014-09-28T07:17:32Z</time>
      </trkpt>
      <trkpt lat="43.63284" lon="3.34856">
        <ele>450.03</ele>
        <time>2014-09-28T07:17:40Z</time>
      </trkpt>
      <trkpt lat="43.6329" lon="3.34832">
        <ele>451.96</ele>
        <time>2014-09-28T07:17:54Z</time>
      </trkpt>
      <trkpt lat="43.63293" lon="3.34819">
        <ele>453.88</ele>
        <time>2014-09-28T07:18:03Z</time>
      </trkpt>
      <trkpt lat="43.63295" lon="3.3481">
        <ele>454.36</ele>
        <time>2014-09-28T07:18:07Z</time>
      </trkpt>
      <trkpt lat="43.63298" lon="3.34798">
        <ele>455.32</ele>
        <time>2014-09-28T07:18:14Z</time>
      </trkpt>
      <trkpt lat="43.63301" lon="3.34789">
        <ele>456.28</ele>
        <time>2014-09-28T07:18:20Z</time>
      </trkpt>
      <trkpt lat="43.63306" lon="3.34769">
        <ele>456.76</ele>
        <time>2014-09-28T07:18:30Z</time>
      </trkpt>
      <trkpt lat="43.6331" lon="3.34764">
        <ele>456.76</ele>
        <time>2014-09-28T07:18:32Z</time>
      </trkpt>
      <trkpt lat="43.63308" lon="3.34753">
        <ele>456.76</ele>
        <time>2014-09-28T07:18:39Z</time>
      </trkpt>
      <trkpt lat="43.63314" lon="3.34739">
        <ele>458.69</ele>
        <time>2014-09-28T07:18:47Z</time>
      </trkpt>
      <trkpt lat="43.63327" lon="3.3472">
        <ele>459.65</ele>
        <time>2014-09-28T07:18:56Z</time>
      </trkpt>
      <trkpt lat="43.63338" lon="3.34701">
        <ele>461.57</ele>
        <time>2014-09-28T07:19:09Z</time>
      </trkpt>
      <trkpt lat="43.63342" lon="3.34688">
        <ele>462.53</ele>
        <time>2014-09-28T07:19:15Z</time>
      </trkpt>
      <trkpt lat="43.63342" lon="3.34672">
        <ele>463.49</ele>
        <time>2014-09-28T07:19:24Z</time>
      </trkpt>
      <trkpt lat="43.63345" lon="3.34663">
        <ele>463.97</ele>
        <time>2014-09-28T07:19:28Z</time>
      </trkpt>
      <trkpt lat="43.63345" lon="3.34654">
        <ele>464.45</ele>
        <time>2014-09-28T07:19:32Z</time>
      </trkpt>
      <trkpt lat="43.63345" lon="3.34647">
        <ele>464.93</ele>
        <time>2014-09-28T07:19:36Z</time>
      </trkpt>
      <trkpt lat="43.63344" lon="3.34635">
        <ele>466.86</ele>
        <time>2014-09-28T07:19:45Z</time>
      </trkpt>
      <trkpt lat="43.63344" lon="3.34632">
        <ele>466.86</ele>
        <time>2014-09-28T07:19:47Z</time>
      </trkpt>
      <trkpt lat="43.63346" lon="3.34614">
        <ele>468.3</ele>
        <time>2014-09-28T07:19:57Z</time>
      </trkpt>
      <trkpt lat="43.63346" lon="3.34587">
        <ele>470.22</ele>
        <time>2014-09-28T07:20:12Z</time>
      </trkpt>
      <trkpt lat="43.63346" lon="3.34585">
        <ele>470.7</ele>
        <time>2014-09-28T07:20:13Z</time>
      </trkpt>
      <trkpt lat="43.63345" lon="3.34568">
        <ele>471.18</ele>
        <time>2014-09-28T07:20:22Z</time>
      </trkpt>
      <trkpt lat="43.6334" lon="3.34541">
        <ele>473.11</ele>
        <time>2014-09-28T07:20:37Z</time>
      </trkpt>
      <trkpt lat="43.63341" lon="3.34531">
        <ele>474.07</ele>
        <time>2014-09-28T07:20:42Z</time>
      </trkpt>
      <trkpt lat="43.63343" lon="3.34526">
        <ele>474.55</ele>
        <time>2014-09-28T07:20:44Z</time>
      </trkpt>
      <trkpt lat="43.63344" lon="3.34497">
        <ele>476.95</ele>
        <time>2014-09-28T07:20:57Z</time>
      </trkpt>
      <trkpt lat="43.63343" lon="3.34475">
        <ele>478.87</ele>
        <time>2014-09-28T07:21:09Z</time>
      </trkpt>
      <trkpt lat="43.63345" lon="3.34458">
        <ele>481.28</ele>
        <time>2014-09-28T07:21:19Z</time>
      </trkpt>
      <trkpt lat="43.63343" lon="3.34454">
        <ele>482.24</ele>
        <time>2014-09-28T07:21:22Z</time>
      </trkpt>
      <trkpt lat="43.63348" lon="3.34444">
        <ele>482.24</ele>
        <time>2014-09-28T07:21:26Z</time>
      </trkpt>
      <trkpt lat="43.63351" lon="3.34438">
        <ele>482.72</ele>
        <time>2014-09-28T07:21:29Z</time>
      </trkpt>
      <trkpt lat="43.63358" lon="3.34416">
        <ele>484.16</ele>
        <time>2014-09-28T07:21:41Z</time>
      </trkpt>
      <trkpt lat="43.63359" lon="3.34414">
        <ele>484.64</ele>
        <time>2014-09-28T07:21:42Z</time>
      </trkpt>
      <trkpt lat="43.63364" lon="3.3441">
        <ele>485.12</ele>
        <time>2014-09-28T07:21:46Z</time>
      </trkpt>
      <trkpt lat="43.63377" lon="3.3439">
        <ele>485.6</ele>
        <time>2014-09-28T07:21:57Z</time>
      </trkpt>
      <trkpt lat="43.63392" lon="3.34375">
        <ele>483.68</ele>
        <time>2014-09-28T07:22:05Z</time>
      </trkpt>
      <trkpt lat="43.63399" lon="3.34362">
        <ele>480.8</ele>
        <time>2014-09-28T07:22:10Z</time>
      </trkpt>
      <trkpt lat="43.63398" lon="3.34356">
        <ele>479.35</ele>
        <time>2014-09-28T07:22:25Z</time>
      </trkpt>
      <trkpt lat="43.63398" lon="3.34355">
        <ele>479.35</ele>
        <time>2014-09-28T07:22:49Z</time>
      </trkpt>
      <trkpt lat="43.63398" lon="3.34355">
        <ele>479.35</ele>
        <time>2014-09-28T07:23:05Z</time>
      </trkpt>
      <trkpt lat="43.63399" lon="3.34354">
        <ele>479.35</ele>
        <time>2014-09-28T07:23:21Z</time>
      </trkpt>
      <trkpt lat="43.63399" lon="3.34339">
        <ele>475.99</ele>
        <time>2014-09-28T07:23:27Z</time>
      </trkpt>
      <trkpt lat="43.634" lon="3.34329">
        <ele>474.07</ele>
        <time>2014-09-28T07:23:31Z</time>
      </trkpt>
      <trkpt lat="43.63415" lon="3.34313">
        <ele>469.74</ele>
        <time>2014-09-28T07:23:37Z</time>
      </trkpt>
      <trkpt lat="43.63423" lon="3.34303">
        <ele>466.38</ele>
        <time>2014-09-28T07:23:42Z</time>
      </trkpt>
      <trkpt lat="43.6343" lon="3.34297">
        <ele>463.01</ele>
        <time>2014-09-28T07:23:45Z</time>
      </trkpt>
      <trkpt lat="43.63444" lon="3.34284">
        <ele>460.13</ele>
        <time>2014-09-28T07:23:51Z</time>
      </trkpt>
      <trkpt lat="43.63449" lon="3.34268">
        <ele>456.76</ele>
        <time>2014-09-28T07:23:57Z</time>
      </trkpt>
      <trkpt lat="43.6345" lon="3.34249">
        <ele>452.92</ele>
        <time>2014-09-28T07:24:02Z</time>
      </trkpt>
      <trkpt lat="43.63449" lon="3.34239">
        <ele>449.55</ele>
        <time>2014-09-28T07:24:06Z</time>
      </trkpt>
      <trkpt lat="43.63448" lon="3.34237">
        <ele>449.07</ele>
        <time>2014-09-28T07:24:07Z</time>
      </trkpt>
      <trkpt lat="43.63444" lon="3.34232">
        <ele>446.67</ele>
        <time>2014-09-28T07:24:11Z</time>
      </trkpt>
      <trkpt lat="43.63443" lon="3.34231">
        <ele>446.67</ele>
        <time>2014-09-28T07:24:13Z</time>
      </trkpt>
      <trkpt lat="43.63441" lon="3.34229">
        <ele>445.71</ele>
        <time>2014-09-28T07:24:15Z</time>
      </trkpt>
      <trkpt lat="43.63435" lon="3.34216">
        <ele>441.86</ele>
        <time>2014-09-28T07:24:19Z</time>
      </trkpt>
      <trkpt lat="43.63425" lon="3.34201">
        <ele>438.02</ele>
        <time>2014-09-28T07:24:23Z</time>
      </trkpt>
      <trkpt lat="43.63418" lon="3.34194">
        <ele>436.1</ele>
        <time>2014-09-28T07:24:26Z</time>
      </trkpt>
      <trkpt lat="43.63418" lon="3.34178">
        <ele>432.25</ele>
        <time>2014-09-28T07:24:31Z</time>
      </trkpt>
      <trkpt lat="43.63403" lon="3.34156">
        <ele>425.52</ele>
        <time>2014-09-28T07:24:36Z</time>
      </trkpt>
      <trkpt lat="43.63388" lon="3.34134">
        <ele>420.71</ele>
        <time>2014-09-28T07:24:40Z</time>
      </trkpt>
      <trkpt lat="43.63382" lon="3.34121">
        <ele>417.83</ele>
        <time>2014-09-28T07:24:42Z</time>
      </trkpt>
      <trkpt lat="43.63374" lon="3.34097">
        <ele>413.98</ele>
        <time>2014-09-28T07:24:45Z</time>
      </trkpt>
      <trkpt lat="43.63357" lon="3.34063">
        <ele>410.14</ele>
        <time>2014-09-28T07:24:49Z</time>
      </trkpt>
      <trkpt lat="43.63341" lon="3.3403">
        <ele>405.33</ele>
        <time>2014-09-28T07:24:54Z</time>
      </trkpt>
      <trkpt lat="43.63335" lon="3.34016">
        <ele>401.97</ele>
        <time>2014-09-28T07:24:57Z</time>
      </trkpt>
      <trkpt lat="43.63337" lon="3.34007">
        <ele>400.05</ele>
        <time>2014-09-28T07:24:59Z</time>
      </trkpt>
      <trkpt lat="43.63344" lon="3.33977">
        <ele>398.12</ele>
        <time>2014-09-28T07:25:04Z</time>
      </trkpt>
      <trkpt lat="43.63345" lon="3.3396">
        <ele>396.68</ele>
        <time>2014-09-28T07:25:06Z</time>
      </trkpt>
      <trkpt lat="43.63343" lon="3.33932">
        <ele>394.28</ele>
        <time>2014-09-28T07:25:09Z</time>
      </trkpt>
      <trkpt lat="43.63331" lon="3.33901">
        <ele>390.43</ele>
        <time>2014-09-28T07:25:14Z</time>
      </trkpt>
      <trkpt lat="43.63323" lon="3.33878">
        <ele>386.59</ele>
        <time>2014-09-28T07:25:18Z</time>
      </trkpt>
      <trkpt lat="43.63312" lon="3.3386">
        <ele>383.7</ele>
        <time>2014-09-28T07:25:23Z</time>
      </trkpt>
      <trkpt lat="43.6331" lon="3.33855">
        <ele>382.74</ele>
        <time>2014-09-28T07:25:24Z</time>
      </trkpt>
      <trkpt lat="43.63285" lon="3.33827">
        <ele>377.94</ele>
        <time>2014-09-28T07:25:32Z</time>
      </trkpt>
      <trkpt lat="43.63275" lon="3.33804">
        <ele>374.57</ele>
        <time>2014-09-28T07:25:37Z</time>
      </trkpt>
      <trkpt lat="43.63254" lon="3.33802">
        <ele>370.24</ele>
        <time>2014-09-28T07:25:42Z</time>
      </trkpt>
      <trkpt lat="43.63228" lon="3.33796">
        <ele>365.44</ele>
        <time>2014-09-28T07:25:46Z</time>
      </trkpt>
      <trkpt lat="43.63209" lon="3.33794">
        <ele>362.55</ele>
        <time>2014-09-28T07:25:49Z</time>
      </trkpt>
      <trkpt lat="43.63192" lon="3.33792">
        <ele>359.19</ele>
        <time>2014-09-28T07:25:52Z</time>
      </trkpt>
      <trkpt lat="43.63177" lon="3.33793">
        <ele>355.83</ele>
        <time>2014-09-28T07:25:55Z</time>
      </trkpt>
      <trkpt lat="43.63165" lon="3.33798">
        <ele>353.9</ele>
        <time>2014-09-28T07:25:58Z</time>
      </trkpt>
      <trkpt lat="43.63156" lon="3.33796">
        <ele>353.42</ele>
        <time>2014-09-28T07:26:02Z</time>
      </trkpt>
      <trkpt lat="43.63147" lon="3.33755">
        <ele>350.54</ele>
        <time>2014-09-28T07:26:12Z</time>
      </trkpt>
      <trkpt lat="43.63136" lon="3.33743">
        <ele>347.65</ele>
        <time>2014-09-28T07:26:15Z</time>
      </trkpt>
      <trkpt lat="43.63127" lon="3.33725">
        <ele>346.21</ele>
        <time>2014-09-28T07:26:18Z</time>
      </trkpt>
      <trkpt lat="43.6312" lon="3.33717">
        <ele>345.25</ele>
        <time>2014-09-28T07:26:20Z</time>
      </trkpt>
      <trkpt lat="43.63113" lon="3.33707">
        <ele>343.81</ele>
        <time>2014-09-28T07:26:25Z</time>
      </trkpt>
      <trkpt lat="43.63109" lon="3.33695">
        <ele>339.96</ele>
        <time>2014-09-28T07:26:28Z</time>
      </trkpt>
      <trkpt lat="43.63108" lon="3.33685">
        <ele>337.56</ele>
        <time>2014-09-28T07:26:31Z</time>
      </trkpt>
      <trkpt lat="43.63106" lon="3.33674">
        <ele>333.71</ele>
        <time>2014-09-28T07:26:35Z</time>
      </trkpt>
      <trkpt lat="43.63106" lon="3.33667">
        <ele>331.79</ele>
        <time>2014-09-28T07:26:37Z</time>
      </trkpt>
      <trkpt lat="43.63106" lon="3.3366">
        <ele>327.95</ele>
        <time>2014-09-28T07:26:39Z</time>
      </trkpt>
      <trkpt lat="43.63102" lon="3.33644">
        <ele>324.1</ele>
        <time>2014-09-28T07:26:43Z</time>
      </trkpt>
      <trkpt lat="43.63099" lon="3.33636">
        <ele>323.62</ele>
        <time>2014-09-28T07:26:45Z</time>
      </trkpt>
      <trkpt lat="43.63092" lon="3.33626">
        <ele>323.62</ele>
        <time>2014-09-28T07:26:48Z</time>
      </trkpt>
      <trkpt lat="43.63083" lon="3.33619">
        <ele>321.7</ele>
        <time>2014-09-28T07:26:54Z</time>
      </trkpt>
      <trkpt lat="43.63059" lon="3.33594">
        <ele>318.81</ele>
        <time>2014-09-28T07:27:02Z</time>
      </trkpt>
      <trkpt lat="43.63055" lon="3.33585">
        <ele>316.89</ele>
        <time>2014-09-28T07:27:08Z</time>
      </trkpt>
      <trkpt lat="43.63054" lon="3.33575">
        <ele>316.41</ele>
        <time>2014-09-28T07:27:22Z</time>
      </trkpt>
      <trkpt lat="43.63055" lon="3.33561">
        <ele>314.49</ele>
        <time>2014-09-28T07:27:38Z</time>
      </trkpt>
      <trkpt lat="43.63058" lon="3.33537">
        <ele>310.16</ele>
        <time>2014-09-28T07:27:43Z</time>
      </trkpt>
      <trkpt lat="43.63063" lon="3.33526">
        <ele>307.76</ele>
        <time>2014-09-28T07:27:45Z</time>
      </trkpt>
      <trkpt lat="43.63088" lon="3.33492">
        <ele>304.88</ele>
        <time>2014-09-28T07:27:52Z</time>
      </trkpt>
      <trkpt lat="43.63092" lon="3.33488">
        <ele>303.91</ele>
        <time>2014-09-28T07:27:53Z</time>
      </trkpt>
      <trkpt lat="43.63096" lon="3.33483">
        <ele>302.47</ele>
        <time>2014-09-28T07:27:54Z</time>
      </trkpt>
      <trkpt lat="43.63112" lon="3.33466">
        <ele>300.55</ele>
        <time>2014-09-28T07:27:58Z</time>
      </trkpt>
      <trkpt lat="43.63128" lon="3.33441">
        <ele>299.59</ele>
        <time>2014-09-28T07:28:06Z</time>
      </trkpt>
      <trkpt lat="43.63145" lon="3.33407">
        <ele>296.7</ele>
        <time>2014-09-28T07:28:17Z</time>
      </trkpt>
      <trkpt lat="43.63149" lon="3.33397">
        <ele>295.26</ele>
        <time>2014-09-28T07:28:20Z</time>
      </trkpt>
      <trkpt lat="43.63157" lon="3.33372">
        <ele>292.38</ele>
        <time>2014-09-28T07:28:26Z</time>
      </trkpt>
      <trkpt lat="43.63172" lon="3.33343">
        <ele>289.49</ele>
        <time>2014-09-28T07:28:34Z</time>
      </trkpt>
      <trkpt lat="43.63195" lon="3.33307">
        <ele>286.61</ele>
        <time>2014-09-28T07:28:44Z</time>
      </trkpt>
      <trkpt lat="43.63216" lon="3.33286">
        <ele>283.25</ele>
        <time>2014-09-28T07:28:53Z</time>
      </trkpt>
      <trkpt lat="43.63228" lon="3.3327">
        <ele>280.84</ele>
        <time>2014-09-28T07:29:01Z</time>
      </trkpt>
      <trkpt lat="43.63241" lon="3.33251">
        <ele>277.96</ele>
        <time>2014-09-28T07:29:12Z</time>
      </trkpt>
      <trkpt lat="43.63244" lon="3.33247">
        <ele>275.56</ele>
        <time>2014-09-28T07:29:14Z</time>
      </trkpt>
      <trkpt lat="43.63244" lon="3.33231">
        <ele>270.75</ele>
        <time>2014-09-28T07:29:19Z</time>
      </trkpt>
      <trkpt lat="43.63242" lon="3.33228">
        <ele>270.27</ele>
        <time>2014-09-28T07:29:20Z</time>
      </trkpt>
      <trkpt lat="43.63242" lon="3.33213">
        <ele>266.9</ele>
        <time>2014-09-28T07:29:25Z</time>
      </trkpt>
      <trkpt lat="43.63242" lon="3.33195">
        <ele>263.06</ele>
        <time>2014-09-28T07:29:30Z</time>
      </trkpt>
      <trkpt lat="43.63244" lon="3.33186">
        <ele>261.62</ele>
        <time>2014-09-28T07:29:32Z</time>
      </trkpt>
      <trkpt lat="43.63245" lon="3.33166">
        <ele>258.25</ele>
        <time>2014-09-28T07:29:37Z</time>
      </trkpt>
      <trkpt lat="43.63244" lon="3.33132">
        <ele>254.89</ele>
        <time>2014-09-28T07:29:44Z</time>
      </trkpt>
      <trkpt lat="43.63246" lon="3.33106">
        <ele>252.48</ele>
        <time>2014-09-28T07:29:48Z</time>
      </trkpt>
      <trkpt lat="43.63251" lon="3.3308">
        <ele>251.04</ele>
        <time>2014-09-28T07:29:53Z</time>
      </trkpt>
      <trkpt lat="43.63258" lon="3.33063">
        <ele>248.64</ele>
        <time>2014-09-28T07:29:56Z</time>
      </trkpt>
      <trkpt lat="43.63264" lon="3.33052">
        <ele>246.72</ele>
        <time>2014-09-28T07:29:58Z</time>
      </trkpt>
      <trkpt lat="43.63278" lon="3.33025">
        <ele>243.83</ele>
        <time>2014-09-28T07:30:06Z</time>
      </trkpt>
      <trkpt lat="43.63279" lon="3.33011">
        <ele>241.91</ele>
        <time>2014-09-28T07:30:15Z</time>
      </trkpt>
      <trkpt lat="43.63278" lon="3.33008">
        <ele>241.91</ele>
        <time>2014-09-28T07:30:22Z</time>
      </trkpt>
      <trkpt lat="43.63279" lon="3.33007">
        <ele>241.91</ele>
        <time>2014-09-28T07:30:24Z</time>
      </trkpt>
      <trkpt lat="43.63281" lon="3.33004">
        <ele>239.99</ele>
        <time>2014-09-28T07:30:30Z</time>
      </trkpt>
      <trkpt lat="43.63284" lon="3.33002">
        <ele>239.02</ele>
        <time>2014-09-28T07:30:32Z</time>
      </trkpt>
      <trkpt lat="43.63288" lon="3.32999">
        <ele>237.1</ele>
        <time>2014-09-28T07:30:42Z</time>
      </trkpt>
      <trkpt lat="43.63289" lon="3.32997">
        <ele>236.14</ele>
        <time>2014-09-28T07:30:47Z</time>
      </trkpt>
      <trkpt lat="43.63291" lon="3.32995">
        <ele>235.66</ele>
        <time>2014-09-28T07:30:49Z</time>
      </trkpt>
      <trkpt lat="43.63297" lon="3.3299">
        <ele>233.26</ele>
        <time>2014-09-28T07:31:00Z</time>
      </trkpt>
      <trkpt lat="43.63298" lon="3.3299">
        <ele>234.22</ele>
        <time>2014-09-28T07:31:13Z</time>
      </trkpt>
      <trkpt lat="43.633" lon="3.3299">
        <ele>233.26</ele>
        <time>2014-09-28T07:31:35Z</time>
      </trkpt>
      <trkpt lat="43.63301" lon="3.32989">
        <ele>232.78</ele>
        <time>2014-09-28T07:31:59Z</time>
      </trkpt>
      <trkpt lat="43.63302" lon="3.32984">
        <ele>231.81</ele>
        <time>2014-09-28T07:32:09Z</time>
      </trkpt>
      <trkpt lat="43.63301" lon="3.32983">
        <ele>231.81</ele>
        <time>2014-09-28T07:32:21Z</time>
      </trkpt>
      <trkpt lat="43.63302" lon="3.32983">
        <ele>231.81</ele>
        <time>2014-09-28T07:32:40Z</time>
      </trkpt>
      <trkpt lat="43.63303" lon="3.32983">
        <ele>231.33</ele>
        <time>2014-09-28T07:33:02Z</time>
      </trkpt>
      <trkpt lat="43.63303" lon="3.3298">
        <ele>231.33</ele>
        <time>2014-09-28T07:33:19Z</time>
      </trkpt>
      <trkpt lat="43.63303" lon="3.32979">
        <ele>230.85</ele>
        <time>2014-09-28T07:33:32Z</time>
      </trkpt>
      <trkpt lat="43.63303" lon="3.3298">
        <ele>230.85</ele>
        <time>2014-09-28T07:34:02Z</time>
      </trkpt>
      <trkpt lat="43.63303" lon="3.32982">
        <ele>230.85</ele>
        <time>2014-09-28T07:34:38Z</time>
      </trkpt>
      <trkpt lat="43.63303" lon="3.32982">
        <ele>230.85</ele>
        <time>2014-09-28T07:35:04Z</time>
      </trkpt>
      <trkpt lat="43.63302" lon="3.3298">
        <ele>230.85</ele>
        <time>2014-09-28T07:35:29Z</time>
      </trkpt>
      <trkpt lat="43.63302" lon="3.3298">
        <ele>230.37</ele>
        <time>2014-09-28T07:35:52Z</time>
      </trkpt>
      <trkpt lat="43.63301" lon="3.32979">
        <ele>230.37</ele>
        <time>2014-09-28T07:36:26Z</time>
      </trkpt>
      <trkpt lat="43.63299" lon="3.3298">
        <ele>230.37</ele>
        <time>2014-09-28T07:36:54Z</time>
      </trkpt>
      <trkpt lat="43.63299" lon="3.3298">
        <ele>230.37</ele>
        <time>2014-09-28T07:37:21Z</time>
      </trkpt>
      <trkpt lat="43.63299" lon="3.32979">
        <ele>230.37</ele>
        <time>2014-09-28T07:37:47Z</time>
      </trkpt>
      <trkpt lat="43.63298" lon="3.3298">
        <ele>229.89</ele>
        <time>2014-09-28T07:38:16Z</time>
      </trkpt>
      <trkpt lat="43.63298" lon="3.3298">
        <ele>229.41</ele>
        <time>2014-09-28T07:38:46Z</time>
      </trkpt>
      <trkpt lat="43.63297" lon="3.3298">
        <ele>229.89</ele>
        <time>2014-09-28T07:39:15Z</time>
      </trkpt>
      <trkpt lat="43.63298" lon="3.3298">
        <ele>229.41</ele>
        <time>2014-09-28T07:39:36Z</time>
      </trkpt>
      <trkpt lat="43.63302" lon="3.32972">
        <ele>227.49</ele>
        <time>2014-09-28T07:39:49Z</time>
      </trkpt>
      <trkpt lat="43.63304" lon="3.3297">
        <ele>226.53</ele>
        <time>2014-09-28T07:39:59Z</time>
      </trkpt>
      <trkpt lat="43.63314" lon="3.32956">
        <ele>222.68</ele>
        <time>2014-09-28T07:40:08Z</time>
      </trkpt>
      <trkpt lat="43.6332" lon="3.32952">
        <ele>221.24</ele>
        <time>2014-09-28T07:40:13Z</time>
      </trkpt>
      <trkpt lat="43.63322" lon="3.32947">
        <ele>220.28</ele>
        <time>2014-09-28T07:40:18Z</time>
      </trkpt>
      <trkpt lat="43.63327" lon="3.32941">
        <ele>219.32</ele>
        <time>2014-09-28T07:40:32Z</time>
      </trkpt>
      <trkpt lat="43.6333" lon="3.32928">
        <ele>218.36</ele>
        <time>2014-09-28T07:40:36Z</time>
      </trkpt>
      <trkpt lat="43.63334" lon="3.32922">
        <ele>217.4</ele>
        <time>2014-09-28T07:40:47Z</time>
      </trkpt>
      <trkpt lat="43.63338" lon="3.32916">
        <ele>216.91</ele>
        <time>2014-09-28T07:40:54Z</time>
      </trkpt>
      <trkpt lat="43.63338" lon="3.32917">
        <ele>216.91</ele>
        <time>2014-09-28T07:41:06Z</time>
      </trkpt>
      <trkpt lat="43.63339" lon="3.32898">
        <ele>214.51</ele>
        <time>2014-09-28T07:41:12Z</time>
      </trkpt>
      <trkpt lat="43.6334" lon="3.32888">
        <ele>213.07</ele>
        <time>2014-09-28T07:41:21Z</time>
      </trkpt>
      <trkpt lat="43.6334" lon="3.32886">
        <ele>212.59</ele>
        <time>2014-09-28T07:41:27Z</time>
      </trkpt>
      <trkpt lat="43.63338" lon="3.32877">
        <ele>210.67</ele>
        <time>2014-09-28T07:41:38Z</time>
      </trkpt>
      <trkpt lat="43.6334" lon="3.32874">
        <ele>209.7</ele>
        <time>2014-09-28T07:41:50Z</time>
      </trkpt>
      <trkpt lat="43.63337" lon="3.3287">
        <ele>208.26</ele>
        <time>2014-09-28T07:42:08Z</time>
      </trkpt>
      <trkpt lat="43.63326" lon="3.32862">
        <ele>207.3</ele>
        <time>2014-09-28T07:42:18Z</time>
      </trkpt>
      <trkpt lat="43.63325" lon="3.32859">
        <ele>206.82</ele>
        <time>2014-09-28T07:42:26Z</time>
      </trkpt>
      <trkpt lat="43.63317" lon="3.32848">
        <ele>205.86</ele>
        <time>2014-09-28T07:42:38Z</time>
      </trkpt>
      <trkpt lat="43.63318" lon="3.32845">
        <ele>204.9</ele>
        <time>2014-09-28T07:42:45Z</time>
      </trkpt>
      <trkpt lat="43.63324" lon="3.32832">
        <ele>203.46</ele>
        <time>2014-09-28T07:42:57Z</time>
      </trkpt>
      <trkpt lat="43.63329" lon="3.32825">
        <ele>202.98</ele>
        <time>2014-09-28T07:43:06Z</time>
      </trkpt>
      <trkpt lat="43.63328" lon="3.32803">
        <ele>202.01</ele>
        <time>2014-09-28T07:43:18Z</time>
      </trkpt>
      <trkpt lat="43.63327" lon="3.32796">
        <ele>201.53</ele>
        <time>2014-09-28T07:43:21Z</time>
      </trkpt>
      <trkpt lat="43.63304" lon="3.32773">
        <ele>201.05</ele>
        <time>2014-09-28T07:43:33Z</time>
      </trkpt>
      <trkpt lat="43.63308" lon="3.32709">
        <ele>198.65</ele>
        <time>2014-09-28T07:43:47Z</time>
      </trkpt>
      <trkpt lat="43.6332" lon="3.32663">
        <ele>197.69</ele>
        <time>2014-09-28T07:43:56Z</time>
      </trkpt>
      <trkpt lat="43.63343" lon="3.32611">
        <ele>196.25</ele>
        <time>2014-09-28T07:44:09Z</time>
      </trkpt>
      <trkpt lat="43.63359" lon="3.32574">
        <ele>194.32</ele>
        <time>2014-09-28T07:44:15Z</time>
      </trkpt>
      <trkpt lat="43.63381" lon="3.32544">
        <ele>191.92</ele>
        <time>2014-09-28T07:44:22Z</time>
      </trkpt>
      <trkpt lat="43.63387" lon="3.32535">
        <ele>191.44</ele>
        <time>2014-09-28T07:44:24Z</time>
      </trkpt>
      <trkpt lat="43.63397" lon="3.3252">
        <ele>190.96</ele>
        <time>2014-09-28T07:44:27Z</time>
      </trkpt>
      <trkpt lat="43.63405" lon="3.325">
        <ele>189.52</ele>
        <time>2014-09-28T07:44:30Z</time>
      </trkpt>
      <trkpt lat="43.63414" lon="3.32462">
        <ele>185.19</ele>
        <time>2014-09-28T07:44:37Z</time>
      </trkpt>
      <trkpt lat="43.63415" lon="3.3246">
        <ele>184.71</ele>
        <time>2014-09-28T07:44:38Z</time>
      </trkpt>
      <trkpt lat="43.63417" lon="3.32457">
        <ele>184.71</ele>
        <time>2014-09-28T07:44:53Z</time>
      </trkpt>
      <trkpt lat="43.63418" lon="3.32455">
        <ele>184.23</ele>
        <time>2014-09-28T07:45:09Z</time>
      </trkpt>
      <trkpt lat="43.63419" lon="3.32454">
        <ele>184.23</ele>
        <time>2014-09-28T07:45:31Z</time>
      </trkpt>
      <trkpt lat="43.63418" lon="3.32455">
        <ele>184.23</ele>
        <time>2014-09-28T07:45:54Z</time>
      </trkpt>
      <trkpt lat="43.63418" lon="3.32454">
        <ele>184.23</ele>
        <time>2014-09-28T07:46:10Z</time>
      </trkpt>
      <trkpt lat="43.63418" lon="3.32454">
        <ele>184.23</ele>
        <time>2014-09-28T07:46:34Z</time>
      </trkpt>
      <trkpt lat="43.63417" lon="3.32455">
        <ele>184.23</ele>
        <time>2014-09-28T07:47:05Z</time>
      </trkpt>
      <trkpt lat="43.63416" lon="3.32456">
        <ele>184.23</ele>
        <time>2014-09-28T07:47:16Z</time>
      </trkpt>
      <trkpt lat="43.63419" lon="3.32448">
        <ele>183.27</ele>
        <time>2014-09-28T07:47:20Z</time>
      </trkpt>
      <trkpt lat="43.63418" lon="3.32444">
        <ele>182.31</ele>
        <time>2014-09-28T07:47:24Z</time>
      </trkpt>
      <trkpt lat="43.63416" lon="3.32426">
        <ele>179.42</ele>
        <time>2014-09-28T07:47:34Z</time>
      </trkpt>
      <trkpt lat="43.63426" lon="3.32397">
        <ele>177.98</ele>
        <time>2014-09-28T07:47:44Z</time>
      </trkpt>
      <trkpt lat="43.63437" lon="3.32394">
        <ele>177.02</ele>
        <time>2014-09-28T07:47:48Z</time>
      </trkpt>
      <trkpt lat="43.63458" lon="3.32384">
        <ele>175.1</ele>
        <time>2014-09-28T07:47:56Z</time>
      </trkpt>
      <trkpt lat="43.63461" lon="3.32381">
        <ele>175.1</ele>
        <time>2014-09-28T07:47:57Z</time>
      </trkpt>
      <trkpt lat="43.63478" lon="3.32358">
        <ele>172.21</ele>
        <time>2014-09-28T07:48:03Z</time>
      </trkpt>
      <trkpt lat="43.63488" lon="3.32332">
        <ele>169.81</ele>
        <time>2014-09-28T07:48:09Z</time>
      </trkpt>
      <trkpt lat="43.63491" lon="3.32327">
        <ele>168.85</ele>
        <time>2014-09-28T07:48:11Z</time>
      </trkpt>
      <trkpt lat="43.63496" lon="3.3232">
        <ele>167.89</ele>
        <time>2014-09-28T07:48:13Z</time>
      </trkpt>
      <trkpt lat="43.63521" lon="3.32301">
        <ele>164.04</ele>
        <time>2014-09-28T07:48:22Z</time>
      </trkpt>
      <trkpt lat="43.63535" lon="3.32265">
        <ele>162.6</ele>
        <time>2014-09-28T07:48:33Z</time>
      </trkpt>
      <trkpt lat="43.63536" lon="3.32238">
        <ele>161.16</ele>
        <time>2014-09-28T07:48:38Z</time>
      </trkpt>
      <trkpt lat="43.63539" lon="3.32227">
        <ele>160.2</ele>
        <time>2014-09-28T07:48:40Z</time>
      </trkpt>
      <trkpt lat="43.63548" lon="3.32203">
        <ele>159.24</ele>
        <time>2014-09-28T07:48:44Z</time>
      </trkpt>
      <trkpt lat="43.63551" lon="3.32189">
        <ele>157.79</ele>
        <time>2014-09-28T07:48:46Z</time>
      </trkpt>
      <trkpt lat="43.63558" lon="3.32172">
        <ele>157.31</ele>
        <time>2014-09-28T07:48:49Z</time>
      </trkpt>
      <trkpt lat="43.63556" lon="3.32126">
        <ele>155.39</ele>
        <time>2014-09-28T07:48:58Z</time>
      </trkpt>
      <trkpt lat="43.63556" lon="3.32123">
        <ele>155.39</ele>
        <time>2014-09-28T07:49:00Z</time>
      </trkpt>
      <trkpt lat="43.63565" lon="3.32124">
        <ele>154.91</ele>
        <time>2014-09-28T07:49:05Z</time>
      </trkpt>
      <trkpt lat="43.63596" lon="3.32134">
        <ele>153.95</ele>
        <time>2014-09-28T07:49:13Z</time>
      </trkpt>
      <trkpt lat="43.63656" lon="3.32147">
        <ele>153.95</ele>
        <time>2014-09-28T07:49:28Z</time>
      </trkpt>
      <trkpt lat="43.6367" lon="3.3215">
        <ele>153.95</ele>
        <time>2014-09-28T07:49:32Z</time>
      </trkpt>
      <trkpt lat="43.63686" lon="3.32139">
        <ele>153.47</ele>
        <time>2014-09-28T07:49:37Z</time>
      </trkpt>
      <trkpt lat="43.63692" lon="3.32131">
        <ele>153.47</ele>
        <time>2014-09-28T07:49:39Z</time>
      </trkpt>
      <trkpt lat="43.63699" lon="3.32121">
        <ele>152.03</ele>
        <time>2014-09-28T07:49:41Z</time>
      </trkpt>
      <trkpt lat="43.63706" lon="3.32102">
        <ele>151.06</ele>
        <time>2014-09-28T07:49:44Z</time>
      </trkpt>
      <trkpt lat="43.63719" lon="3.32079">
        <ele>150.1</ele>
        <time>2014-09-28T07:49:48Z</time>
      </trkpt>
      <trkpt lat="43.63761" lon="3.32037">
        <ele>147.7</ele>
        <time>2014-09-28T07:50:00Z</time>
      </trkpt>
      <trkpt lat="43.63787" lon="3.32053">
        <ele>147.7</ele>
        <time>2014-09-28T07:50:08Z</time>
      </trkpt>
      <trkpt lat="43.63799" lon="3.32063">
        <ele>147.22</ele>
        <time>2014-09-28T07:50:11Z</time>
      </trkpt>
      <trkpt lat="43.63814" lon="3.32073">
        <ele>147.22</ele>
        <time>2014-09-28T07:50:15Z</time>
      </trkpt>
      <trkpt lat="43.6384" lon="3.32099">
        <ele>147.22</ele>
        <time>2014-09-28T07:50:23Z</time>
      </trkpt>
      <trkpt lat="43.63852" lon="3.32114">
        <ele>147.22</ele>
        <time>2014-09-28T07:50:27Z</time>
      </trkpt>
      <trkpt lat="43.63861" lon="3.32125">
        <ele>147.22</ele>
        <time>2014-09-28T07:50:30Z</time>
      </trkpt>
      <trkpt lat="43.63874" lon="3.32156">
        <ele>146.26</ele>
        <time>2014-09-28T07:50:36Z</time>
      </trkpt>
      <trkpt lat="43.63891" lon="3.32181">
        <ele>146.26</ele>
        <time>2014-09-28T07:50:42Z</time>
      </trkpt>
      <trkpt lat="43.63936" lon="3.32235">
        <ele>146.26</ele>
        <time>2014-09-28T07:50:57Z</time>
      </trkpt>
      <trkpt lat="43.63983" lon="3.32291">
        <ele>146.26</ele>
        <time>2014-09-28T07:51:13Z</time>
      </trkpt>
      <trkpt lat="43.6401" lon="3.32335">
        <ele>145.78</ele>
        <time>2014-09-28T07:51:24Z</time>
      </trkpt>
      <trkpt lat="43.64024" lon="3.32347">
        <ele>145.78</ele>
        <time>2014-09-28T07:51:28Z</time>
      </trkpt>
      <trkpt lat="43.64047" lon="3.32398">
        <ele>144.82</ele>
        <time>2014-09-28T07:51:40Z</time>
      </trkpt>
      <trkpt lat="43.64046" lon="3.32418">
        <ele>144.82</ele>
        <time>2014-09-28T07:51:46Z</time>
      </trkpt>
      <trkpt lat="43.64053" lon="3.32424">
        <ele>144.82</ele>
        <time>2014-09-28T07:51:50Z</time>
      </trkpt>
      <trkpt lat="43.64083" lon="3.32428">
        <ele>143.85</ele>
        <time>2014-09-28T07:52:01Z</time>
      </trkpt>
      <trkpt lat="43.6409" lon="3.32432">
        <ele>143.37</ele>
        <time>2014-09-28T07:52:04Z</time>
      </trkpt>
      <trkpt lat="43.64093" lon="3.32432">
        <ele>143.37</ele>
        <time>2014-09-28T07:52:07Z</time>
      </trkpt>
      <trkpt lat="43.6411" lon="3.3243">
        <ele>143.37</ele>
        <time>2014-09-28T07:52:17Z</time>
      </trkpt>
      <trkpt lat="43.64148" lon="3.32449">
        <ele>144.34</ele>
        <time>2014-09-28T07:52:28Z</time>
      </trkpt>
      <trkpt lat="43.64198" lon="3.3248">
        <ele>144.34</ele>
        <time>2014-09-28T07:52:46Z</time>
      </trkpt>
      <trkpt lat="43.64219" lon="3.32493">
        <ele>143.85</ele>
        <time>2014-09-28T07:52:59Z</time>
      </trkpt>
      <trkpt lat="43.64219" lon="3.32493">
        <ele>144.34</ele>
        <time>2014-09-28T07:53:19Z</time>
      </trkpt>
      <trkpt lat="43.64223" lon="3.32492">
        <ele>143.85</ele>
        <time>2014-09-28T07:53:30Z</time>
      </trkpt>
      <trkpt lat="43.64223" lon="3.32492">
        <ele>143.85</ele>
        <time>2014-09-28T07:53:34Z</time>
      </trkpt>
      <trkpt lat="43.64234" lon="3.32485">
        <ele>143.85</ele>
        <time>2014-09-28T07:53:41Z</time>
      </trkpt>
      <trkpt lat="43.64253" lon="3.32432">
        <ele>144.82</ele>
        <time>2014-09-28T07:53:53Z</time>
      </trkpt>
      <trkpt lat="43.64267" lon="3.32384">
        <ele>145.78</ele>
        <time>2014-09-28T07:54:06Z</time>
      </trkpt>
      <trkpt lat="43.64292" lon="3.32349">
        <ele>146.74</ele>
        <time>2014-09-28T07:54:18Z</time>
      </trkpt>
      <trkpt lat="43.64315" lon="3.32296">
        <ele>147.7</ele>
        <time>2014-09-28T07:54:32Z</time>
      </trkpt>
      <trkpt lat="43.64316" lon="3.32263">
        <ele>147.7</ele>
        <time>2014-09-28T07:54:38Z</time>
      </trkpt>
      <trkpt lat="43.64319" lon="3.32216">
        <ele>147.7</ele>
        <time>2014-09-28T07:54:47Z</time>
      </trkpt>
      <trkpt lat="43.64326" lon="3.32183">
        <ele>147.22</ele>
        <time>2014-09-28T07:54:53Z</time>
      </trkpt>
      <trkpt lat="43.64322" lon="3.32125">
        <ele>148.18</ele>
        <time>2014-09-28T07:55:05Z</time>
      </trkpt>
      <trkpt lat="43.64318" lon="3.32067">
        <ele>148.66</ele>
        <time>2014-09-28T07:55:17Z</time>
      </trkpt>
      <trkpt lat="43.64333" lon="3.32023">
        <ele>149.14</ele>
        <time>2014-09-28T07:55:29Z</time>
      </trkpt>
      <trkpt lat="43.64342" lon="3.31982">
        <ele>149.62</ele>
        <time>2014-09-28T07:55:41Z</time>
      </trkpt>
      <trkpt lat="43.64337" lon="3.31938">
        <ele>151.54</ele>
        <time>2014-09-28T07:55:53Z</time>
      </trkpt>
      <trkpt lat="43.6435" lon="3.31886">
        <ele>151.54</ele>
        <time>2014-09-28T07:56:06Z</time>
      </trkpt>
      <trkpt lat="43.64364" lon="3.31844">
        <ele>152.99</ele>
        <time>2014-09-28T07:56:17Z</time>
      </trkpt>
      <trkpt lat="43.64377" lon="3.3181">
        <ele>153.47</ele>
        <time>2014-09-28T07:56:27Z</time>
      </trkpt>
      <trkpt lat="43.64383" lon="3.31779">
        <ele>154.43</ele>
        <time>2014-09-28T07:56:39Z</time>
      </trkpt>
      <trkpt lat="43.64379" lon="3.31774">
        <ele>154.91</ele>
        <time>2014-09-28T07:56:43Z</time>
      </trkpt>
      <trkpt lat="43.64365" lon="3.31766">
        <ele>156.83</ele>
        <time>2014-09-28T07:56:52Z</time>
      </trkpt>
      <trkpt lat="43.64359" lon="3.31757">
        <ele>157.79</ele>
        <time>2014-09-28T07:56:57Z</time>
      </trkpt>
      <trkpt lat="43.64367" lon="3.31716">
        <ele>158.75</ele>
        <time>2014-09-28T07:57:09Z</time>
      </trkpt>
      <trkpt lat="43.64381" lon="3.31683">
        <ele>158.27</ele>
        <time>2014-09-28T07:57:20Z</time>
      </trkpt>
      <trkpt lat="43.64385" lon="3.31632">
        <ele>158.75</ele>
        <time>2014-09-28T07:57:33Z</time>
      </trkpt>
      <trkpt lat="43.644" lon="3.31569">
        <ele>158.75</ele>
        <time>2014-09-28T07:57:47Z</time>
      </trkpt>
      <trkpt lat="43.64411" lon="3.31498">
        <ele>158.75</ele>
        <time>2014-09-28T07:58:05Z</time>
      </trkpt>
      <trkpt lat="43.64408" lon="3.31451">
        <ele>159.72</ele>
        <time>2014-09-28T07:58:17Z</time>
      </trkpt>
      <trkpt lat="43.64404" lon="3.31401">
        <ele>160.68</ele>
        <time>2014-09-28T07:58:30Z</time>
      </trkpt>
      <trkpt lat="43.64402" lon="3.31379">
        <ele>160.68</ele>
        <time>2014-09-28T07:58:35Z</time>
      </trkpt>
      <trkpt lat="43.64398" lon="3.31357">
        <ele>159.72</ele>
        <time>2014-09-28T07:58:39Z</time>
      </trkpt>
      <trkpt lat="43.64379" lon="3.31298">
        <ele>161.64</ele>
        <time>2014-09-28T07:58:52Z</time>
      </trkpt>
      <trkpt lat="43.64358" lon="3.31254">
        <ele>164.04</ele>
        <time>2014-09-28T07:59:05Z</time>
      </trkpt>
      <trkpt lat="43.64335" lon="3.31202">
        <ele>166.45</ele>
        <time>2014-09-28T07:59:20Z</time>
      </trkpt>
      <trkpt lat="43.64323" lon="3.31162">
        <ele>166.45</ele>
        <time>2014-09-28T07:59:32Z</time>
      </trkpt>
      <trkpt lat="43.64319" lon="3.31146">
        <ele>166.45</ele>
        <time>2014-09-28T07:59:41Z</time>
      </trkpt>
      <trkpt lat="43.643" lon="3.31075">
        <ele>166.45</ele>
        <time>2014-09-28T07:59:56Z</time>
      </trkpt>
      <trkpt lat="43.64279" lon="3.31001">
        <ele>168.37</ele>
        <time>2014-09-28T08:00:12Z</time>
      </trkpt>
      <trkpt lat="43.64274" lon="3.30929">
        <ele>168.37</ele>
        <time>2014-09-28T08:00:26Z</time>
      </trkpt>
      <trkpt lat="43.64271" lon="3.30847">
        <ele>168.85</ele>
        <time>2014-09-28T08:00:40Z</time>
      </trkpt>
      <trkpt lat="43.64253" lon="3.30797">
        <ele>170.77</ele>
        <time>2014-09-28T08:00:51Z</time>
      </trkpt>
      <trkpt lat="43.6424" lon="3.30737">
        <ele>173.66</ele>
        <time>2014-09-28T08:01:06Z</time>
      </trkpt>
      <trkpt lat="43.64239" lon="3.30705">
        <ele>174.14</ele>
        <time>2014-09-28T08:01:17Z</time>
      </trkpt>
      <trkpt lat="43.6425" lon="3.30664">
        <ele>173.66</ele>
        <time>2014-09-28T08:01:27Z</time>
      </trkpt>
      <trkpt lat="43.64245" lon="3.3061">
        <ele>175.1</ele>
        <time>2014-09-28T08:01:39Z</time>
      </trkpt>
      <trkpt lat="43.6424" lon="3.30564">
        <ele>177.5</ele>
        <time>2014-09-28T08:01:51Z</time>
      </trkpt>
      <trkpt lat="43.64234" lon="3.3052">
        <ele>180.87</ele>
        <time>2014-09-28T08:02:06Z</time>
      </trkpt>
      <trkpt lat="43.64227" lon="3.30482">
        <ele>183.75</ele>
        <time>2014-09-28T08:02:20Z</time>
      </trkpt>
      <trkpt lat="43.64224" lon="3.30448">
        <ele>185.67</ele>
        <time>2014-09-28T08:02:33Z</time>
      </trkpt>
      <trkpt lat="43.6422" lon="3.30407">
        <ele>188.08</ele>
        <time>2014-09-28T08:02:47Z</time>
      </trkpt>
      <trkpt lat="43.6422" lon="3.30368">
        <ele>190</ele>
        <time>2014-09-28T08:03:01Z</time>
      </trkpt>
      <trkpt lat="43.64225" lon="3.30333">
        <ele>193.36</ele>
        <time>2014-09-28T08:03:16Z</time>
      </trkpt>
      <trkpt lat="43.64218" lon="3.30299">
        <ele>193.84</ele>
        <time>2014-09-28T08:03:29Z</time>
      </trkpt>
      <trkpt lat="43.64214" lon="3.30252">
        <ele>195.28</ele>
        <time>2014-09-28T08:03:42Z</time>
      </trkpt>
      <trkpt lat="43.64214" lon="3.30206">
        <ele>196.73</ele>
        <time>2014-09-28T08:03:55Z</time>
      </trkpt>
      <trkpt lat="43.64218" lon="3.30151">
        <ele>198.17</ele>
        <time>2014-09-28T08:04:11Z</time>
      </trkpt>
      <trkpt lat="43.64228" lon="3.30102">
        <ele>199.61</ele>
        <time>2014-09-28T08:04:24Z</time>
      </trkpt>
      <trkpt lat="43.64233" lon="3.30091">
        <ele>199.61</ele>
        <time>2014-09-28T08:04:27Z</time>
      </trkpt>
      <trkpt lat="43.64235" lon="3.30031">
        <ele>200.09</ele>
        <time>2014-09-28T08:04:40Z</time>
      </trkpt>
      <trkpt lat="43.64232" lon="3.29983">
        <ele>202.01</ele>
        <time>2014-09-28T08:04:52Z</time>
      </trkpt>
      <trkpt lat="43.64223" lon="3.29912">
        <ele>203.46</ele>
        <time>2014-09-28T08:05:09Z</time>
      </trkpt>
      <trkpt lat="43.64223" lon="3.29857">
        <ele>205.38</ele>
        <time>2014-09-28T08:05:25Z</time>
      </trkpt>
      <trkpt lat="43.64219" lon="3.29812">
        <ele>206.34</ele>
        <time>2014-09-28T08:05:37Z</time>
      </trkpt>
      <trkpt lat="43.64198" lon="3.29788">
        <ele>206.34</ele>
        <time>2014-09-28T08:05:46Z</time>
      </trkpt>
      <trkpt lat="43.64193" lon="3.29741">
        <ele>207.3</ele>
        <time>2014-09-28T08:05:58Z</time>
      </trkpt>
      <trkpt lat="43.64205" lon="3.29702">
        <ele>208.26</ele>
        <time>2014-09-28T08:06:09Z</time>
      </trkpt>
      <trkpt lat="43.64208" lon="3.29668">
        <ele>209.7</ele>
        <time>2014-09-28T08:06:20Z</time>
      </trkpt>
      <trkpt lat="43.64201" lon="3.2962">
        <ele>212.11</ele>
        <time>2014-09-28T08:06:36Z</time>
      </trkpt>
      <trkpt lat="43.64197" lon="3.29583">
        <ele>214.51</ele>
        <time>2014-09-28T08:06:49Z</time>
      </trkpt>
      <trkpt lat="43.64195" lon="3.29543">
        <ele>216.43</ele>
        <time>2014-09-28T08:07:03Z</time>
      </trkpt>
      <trkpt lat="43.64192" lon="3.29507">
        <ele>218.36</ele>
        <time>2014-09-28T08:07:15Z</time>
      </trkpt>
      <trkpt lat="43.64178" lon="3.2945">
        <ele>218.84</ele>
        <time>2014-09-28T08:07:28Z</time>
      </trkpt>
      <trkpt lat="43.64169" lon="3.29404">
        <ele>221.24</ele>
        <time>2014-09-28T08:07:41Z</time>
      </trkpt>
      <trkpt lat="43.64168" lon="3.29349">
        <ele>224.61</ele>
        <time>2014-09-28T08:07:57Z</time>
      </trkpt>
      <trkpt lat="43.64163" lon="3.29299">
        <ele>225.57</ele>
        <time>2014-09-28T08:08:11Z</time>
      </trkpt>
      <trkpt lat="43.64158" lon="3.29245">
        <ele>226.05</ele>
        <time>2014-09-28T08:08:25Z</time>
      </trkpt>
      <trkpt lat="43.64164" lon="3.29195">
        <ele>227.01</ele>
        <time>2014-09-28T08:08:37Z</time>
      </trkpt>
      <trkpt lat="43.64161" lon="3.29145">
        <ele>225.09</ele>
        <time>2014-09-28T08:08:48Z</time>
      </trkpt>
      <trkpt lat="43.6415" lon="3.29119">
        <ele>220.76</ele>
        <time>2014-09-28T08:08:54Z</time>
      </trkpt>
      <trkpt lat="43.64147" lon="3.29115">
        <ele>219.8</ele>
        <time>2014-09-28T08:08:55Z</time>
      </trkpt>
      <trkpt lat="43.64136" lon="3.29092">
        <ele>215.95</ele>
        <time>2014-09-28T08:08:59Z</time>
      </trkpt>
      <trkpt lat="43.6413" lon="3.29078">
        <ele>212.59</ele>
        <time>2014-09-28T08:09:03Z</time>
      </trkpt>
      <trkpt lat="43.64121" lon="3.29064">
        <ele>209.7</ele>
        <time>2014-09-28T08:09:08Z</time>
      </trkpt>
      <trkpt lat="43.64121" lon="3.29053">
        <ele>208.26</ele>
        <time>2014-09-28T08:09:13Z</time>
      </trkpt>
      <trkpt lat="43.64121" lon="3.29048">
        <ele>208.26</ele>
        <time>2014-09-28T08:09:17Z</time>
      </trkpt>
      <trkpt lat="43.64124" lon="3.2903">
        <ele>206.34</ele>
        <time>2014-09-28T08:09:28Z</time>
      </trkpt>
      <trkpt lat="43.64125" lon="3.2902">
        <ele>206.82</ele>
        <time>2014-09-28T08:09:30Z</time>
      </trkpt>
      <trkpt lat="43.64136" lon="3.28993">
        <ele>205.86</ele>
        <time>2014-09-28T08:09:37Z</time>
      </trkpt>
      <trkpt lat="43.6415" lon="3.28975">
        <ele>203.94</ele>
        <time>2014-09-28T08:09:48Z</time>
      </trkpt>
      <trkpt lat="43.64151" lon="3.28973">
        <ele>203.94</ele>
        <time>2014-09-28T08:09:56Z</time>
      </trkpt>
      <trkpt lat="43.64151" lon="3.28966">
        <ele>203.94</ele>
        <time>2014-09-28T08:09:59Z</time>
      </trkpt>
      <trkpt lat="43.64144" lon="3.28947">
        <ele>204.42</ele>
        <time>2014-09-28T08:10:07Z</time>
      </trkpt>
      <trkpt lat="43.64138" lon="3.28948">
        <ele>204.9</ele>
        <time>2014-09-28T08:10:09Z</time>
      </trkpt>
      <trkpt lat="43.64125" lon="3.28951">
        <ele>206.82</ele>
        <time>2014-09-28T08:10:14Z</time>
      </trkpt>
      <trkpt lat="43.64123" lon="3.28951">
        <ele>206.82</ele>
        <time>2014-09-28T08:10:15Z</time>
      </trkpt>
      <trkpt lat="43.64092" lon="3.28983">
        <ele>207.3</ele>
        <time>2014-09-28T08:10:26Z</time>
      </trkpt>
      <trkpt lat="43.64048" lon="3.29002">
        <ele>207.3</ele>
        <time>2014-09-28T08:10:37Z</time>
      </trkpt>
      <trkpt lat="43.63989" lon="3.29015">
        <ele>207.3</ele>
        <time>2014-09-28T08:10:50Z</time>
      </trkpt>
      <trkpt lat="43.63977" lon="3.29012">
        <ele>207.3</ele>
        <time>2014-09-28T08:10:53Z</time>
      </trkpt>
      <trkpt lat="43.63912" lon="3.2901">
        <ele>207.3</ele>
        <time>2014-09-28T08:11:09Z</time>
      </trkpt>
      <trkpt lat="43.63889" lon="3.2901">
        <ele>206.34</ele>
        <time>2014-09-28T08:11:13Z</time>
      </trkpt>
      <trkpt lat="43.63855" lon="3.29048">
        <ele>203.46</ele>
        <time>2014-09-28T08:11:20Z</time>
      </trkpt>
      <trkpt lat="43.63841" lon="3.29073">
        <ele>201.53</ele>
        <time>2014-09-28T08:11:23Z</time>
      </trkpt>
      <trkpt lat="43.63829" lon="3.29088">
        <ele>200.57</ele>
        <time>2014-09-28T08:11:25Z</time>
      </trkpt>
      <trkpt lat="43.63817" lon="3.29103">
        <ele>199.61</ele>
        <time>2014-09-28T08:11:27Z</time>
      </trkpt>
      <trkpt lat="43.6378" lon="3.29116">
        <ele>195.77</ele>
        <time>2014-09-28T08:11:33Z</time>
      </trkpt>
      <trkpt lat="43.63741" lon="3.29103">
        <ele>194.8</ele>
        <time>2014-09-28T08:11:40Z</time>
      </trkpt>
      <trkpt lat="43.63686" lon="3.29113">
        <ele>190.96</ele>
        <time>2014-09-28T08:11:47Z</time>
      </trkpt>
      <trkpt lat="43.63661" lon="3.29101">
        <ele>189.52</ele>
        <time>2014-09-28T08:11:50Z</time>
      </trkpt>
      <trkpt lat="43.63626" lon="3.2908">
        <ele>186.63</ele>
        <time>2014-09-28T08:11:54Z</time>
      </trkpt>
      <trkpt lat="43.63582" lon="3.29072">
        <ele>185.19</ele>
        <time>2014-09-28T08:11:59Z</time>
      </trkpt>
      <trkpt lat="43.63549" lon="3.29072">
        <ele>184.71</ele>
        <time>2014-09-28T08:12:03Z</time>
      </trkpt>
      <trkpt lat="43.63517" lon="3.29049">
        <ele>181.35</ele>
        <time>2014-09-28T08:12:07Z</time>
      </trkpt>
      <trkpt lat="43.63502" lon="3.29039">
        <ele>180.87</ele>
        <time>2014-09-28T08:12:09Z</time>
      </trkpt>
      <trkpt lat="43.63485" lon="3.29038">
        <ele>179.9</ele>
        <time>2014-09-28T08:12:11Z</time>
      </trkpt>
      <trkpt lat="43.63452" lon="3.29041">
        <ele>177.5</ele>
        <time>2014-09-28T08:12:15Z</time>
      </trkpt>
      <trkpt lat="43.63435" lon="3.29023">
        <ele>176.54</ele>
        <time>2014-09-28T08:12:19Z</time>
      </trkpt>
      <trkpt lat="43.63418" lon="3.28909">
        <ele>178.46</ele>
        <time>2014-09-28T08:12:36Z</time>
      </trkpt>
      <trkpt lat="43.6341" lon="3.28881">
        <ele>178.94</ele>
        <time>2014-09-28T08:12:41Z</time>
      </trkpt>
      <trkpt lat="43.63378" lon="3.28829">
        <ele>180.38</ele>
        <time>2014-09-28T08:12:53Z</time>
      </trkpt>
      <trkpt lat="43.63369" lon="3.28809">
        <ele>180.87</ele>
        <time>2014-09-28T08:12:57Z</time>
      </trkpt>
      <trkpt lat="43.63338" lon="3.28717">
        <ele>184.23</ele>
        <time>2014-09-28T08:13:15Z</time>
      </trkpt>
      <trkpt lat="43.63337" lon="3.28712">
        <ele>184.23</ele>
        <time>2014-09-28T08:13:16Z</time>
      </trkpt>
      <trkpt lat="43.63351" lon="3.28675">
        <ele>187.11</ele>
        <time>2014-09-28T08:13:28Z</time>
      </trkpt>
      <trkpt lat="43.63375" lon="3.28637">
        <ele>188.08</ele>
        <time>2014-09-28T08:13:42Z</time>
      </trkpt>
      <trkpt lat="43.634" lon="3.28595">
        <ele>190.96</ele>
        <time>2014-09-28T08:13:59Z</time>
      </trkpt>
      <trkpt lat="43.63424" lon="3.28569">
        <ele>193.84</ele>
        <time>2014-09-28T08:14:13Z</time>
      </trkpt>
      <trkpt lat="43.63447" lon="3.28543">
        <ele>196.73</ele>
        <time>2014-09-28T08:14:28Z</time>
      </trkpt>
      <trkpt lat="43.63466" lon="3.28527">
        <ele>198.65</ele>
        <time>2014-09-28T08:14:41Z</time>
      </trkpt>
      <trkpt lat="43.63467" lon="3.28526">
        <ele>199.13</ele>
        <time>2014-09-28T08:14:42Z</time>
      </trkpt>
      <trkpt lat="43.63486" lon="3.28507">
        <ele>200.57</ele>
        <time>2014-09-28T08:14:54Z</time>
      </trkpt>
      <trkpt lat="43.63504" lon="3.28491">
        <ele>202.49</ele>
        <time>2014-09-28T08:15:06Z</time>
      </trkpt>
      <trkpt lat="43.63515" lon="3.28494">
        <ele>203.94</ele>
        <time>2014-09-28T08:15:12Z</time>
      </trkpt>
      <trkpt lat="43.63518" lon="3.28468">
        <ele>203.94</ele>
        <time>2014-09-28T08:15:21Z</time>
      </trkpt>
      <trkpt lat="43.63511" lon="3.28429">
        <ele>205.38</ele>
        <time>2014-09-28T08:15:34Z</time>
      </trkpt>
      <trkpt lat="43.63505" lon="3.28411">
        <ele>204.9</ele>
        <time>2014-09-28T08:15:38Z</time>
      </trkpt>
      <trkpt lat="43.63486" lon="3.28368">
        <ele>204.9</ele>
        <time>2014-09-28T08:15:50Z</time>
      </trkpt>
      <trkpt lat="43.6348" lon="3.28347">
        <ele>203.94</ele>
        <time>2014-09-28T08:15:55Z</time>
      </trkpt>
      <trkpt lat="43.63464" lon="3.28318">
        <ele>202.49</ele>
        <time>2014-09-28T08:16:01Z</time>
      </trkpt>
      <trkpt lat="43.63433" lon="3.28284">
        <ele>202.01</ele>
        <time>2014-09-28T08:16:11Z</time>
      </trkpt>
      <trkpt lat="43.63426" lon="3.28253">
        <ele>202.01</ele>
        <time>2014-09-28T08:16:16Z</time>
      </trkpt>
      <trkpt lat="43.63428" lon="3.28204">
        <ele>202.98</ele>
        <time>2014-09-28T08:16:26Z</time>
      </trkpt>
      <trkpt lat="43.63426" lon="3.2817">
        <ele>203.46</ele>
        <time>2014-09-28T08:16:33Z</time>
      </trkpt>
      <trkpt lat="43.63426" lon="3.2816">
        <ele>203.46</ele>
        <time>2014-09-28T08:16:35Z</time>
      </trkpt>
      <trkpt lat="43.63425" lon="3.28148">
        <ele>202.98</ele>
        <time>2014-09-28T08:16:37Z</time>
      </trkpt>
      <trkpt lat="43.63421" lon="3.28128">
        <ele>202.49</ele>
        <time>2014-09-28T08:16:40Z</time>
      </trkpt>
      <trkpt lat="43.63419" lon="3.28115">
        <ele>202.49</ele>
        <time>2014-09-28T08:16:42Z</time>
      </trkpt>
      <trkpt lat="43.63422" lon="3.2809">
        <ele>202.01</ele>
        <time>2014-09-28T08:16:46Z</time>
      </trkpt>
      <trkpt lat="43.63427" lon="3.28065">
        <ele>203.46</ele>
        <time>2014-09-28T08:16:51Z</time>
      </trkpt>
      <trkpt lat="43.63424" lon="3.28011">
        <ele>204.9</ele>
        <time>2014-09-28T08:17:04Z</time>
      </trkpt>
      <trkpt lat="43.63417" lon="3.27941">
        <ele>204.42</ele>
        <time>2014-09-28T08:17:17Z</time>
      </trkpt>
      <trkpt lat="43.63414" lon="3.27914">
        <ele>202.01</ele>
        <time>2014-09-28T08:17:23Z</time>
      </trkpt>
      <trkpt lat="43.63414" lon="3.27892">
        <ele>199.61</ele>
        <time>2014-09-28T08:17:27Z</time>
      </trkpt>
      <trkpt lat="43.63417" lon="3.27856">
        <ele>201.05</ele>
        <time>2014-09-28T08:17:36Z</time>
      </trkpt>
      <trkpt lat="43.63421" lon="3.27831">
        <ele>200.57</ele>
        <time>2014-09-28T08:17:41Z</time>
      </trkpt>
      <trkpt lat="43.63424" lon="3.27766">
        <ele>197.21</ele>
        <time>2014-09-28T08:17:50Z</time>
      </trkpt>
      <trkpt lat="43.6342" lon="3.27726">
        <ele>195.77</ele>
        <time>2014-09-28T08:17:58Z</time>
      </trkpt>
      <trkpt lat="43.63417" lon="3.27699">
        <ele>193.84</ele>
        <time>2014-09-28T08:18:02Z</time>
      </trkpt>
      <trkpt lat="43.63406" lon="3.27652">
        <ele>190</ele>
        <time>2014-09-28T08:18:12Z</time>
      </trkpt>
      <trkpt lat="43.63421" lon="3.2762">
        <ele>190.48</ele>
        <time>2014-09-28T08:18:21Z</time>
      </trkpt>
      <trkpt lat="43.63434" lon="3.27594">
        <ele>189.52</ele>
        <time>2014-09-28T08:18:31Z</time>
      </trkpt>
      <trkpt lat="43.63436" lon="3.27593">
        <ele>189.52</ele>
        <time>2014-09-28T08:18:32Z</time>
      </trkpt>
      <trkpt lat="43.63443" lon="3.27582">
        <ele>190.48</ele>
        <time>2014-09-28T08:18:42Z</time>
      </trkpt>
      <trkpt lat="43.63455" lon="3.27585">
        <ele>191.44</ele>
        <time>2014-09-28T08:18:48Z</time>
      </trkpt>
      <trkpt lat="43.63462" lon="3.27578">
        <ele>191.92</ele>
        <time>2014-09-28T08:18:51Z</time>
      </trkpt>
      <trkpt lat="43.63471" lon="3.27541">
        <ele>193.36</ele>
        <time>2014-09-28T08:19:01Z</time>
      </trkpt>
      <trkpt lat="43.63474" lon="3.27513">
        <ele>195.28</ele>
        <time>2014-09-28T08:19:12Z</time>
      </trkpt>
      <trkpt lat="43.63469" lon="3.27492">
        <ele>196.73</ele>
        <time>2014-09-28T08:19:22Z</time>
      </trkpt>
      <trkpt lat="43.6347" lon="3.27475">
        <ele>198.65</ele>
        <time>2014-09-28T08:19:30Z</time>
      </trkpt>
      <trkpt lat="43.63468" lon="3.27471">
        <ele>199.13</ele>
        <time>2014-09-28T08:19:44Z</time>
      </trkpt>
      <trkpt lat="43.63468" lon="3.27473">
        <ele>199.13</ele>
        <time>2014-09-28T08:20:01Z</time>
      </trkpt>
      <trkpt lat="43.63467" lon="3.27468">
        <ele>199.61</ele>
        <time>2014-09-28T08:20:19Z</time>
      </trkpt>
      <trkpt lat="43.63467" lon="3.27467">
        <ele>200.09</ele>
        <time>2014-09-28T08:20:21Z</time>
      </trkpt>
      <trkpt lat="43.63467" lon="3.2746">
        <ele>201.53</ele>
        <time>2014-09-28T08:20:30Z</time>
      </trkpt>
      <trkpt lat="43.6347" lon="3.27448">
        <ele>203.46</ele>
        <time>2014-09-28T08:20:43Z</time>
      </trkpt>
      <trkpt lat="43.63471" lon="3.27442">
        <ele>204.9</ele>
        <time>2014-09-28T08:20:51Z</time>
      </trkpt>
      <trkpt lat="43.6347" lon="3.27433">
        <ele>206.34</ele>
        <time>2014-09-28T08:21:02Z</time>
      </trkpt>
      <trkpt lat="43.63473" lon="3.27422">
        <ele>207.3</ele>
        <time>2014-09-28T08:21:14Z</time>
      </trkpt>
      <trkpt lat="43.6348" lon="3.27406">
        <ele>208.26</ele>
        <time>2014-09-28T08:21:26Z</time>
      </trkpt>
      <trkpt lat="43.63486" lon="3.27381">
        <ele>211.15</ele>
        <time>2014-09-28T08:21:39Z</time>
      </trkpt>
      <trkpt lat="43.63493" lon="3.2735">
        <ele>213.55</ele>
        <time>2014-09-28T08:21:56Z</time>
      </trkpt>
      <trkpt lat="43.63494" lon="3.27346">
        <ele>214.03</ele>
        <time>2014-09-28T08:21:58Z</time>
      </trkpt>
      <trkpt lat="43.6349" lon="3.27342">
        <ele>214.51</ele>
        <time>2014-09-28T08:22:02Z</time>
      </trkpt>
      <trkpt lat="43.63462" lon="3.27359">
        <ele>213.07</ele>
        <time>2014-09-28T08:22:12Z</time>
      </trkpt>
      <trkpt lat="43.63459" lon="3.27361">
        <ele>213.07</ele>
        <time>2014-09-28T08:22:13Z</time>
      </trkpt>
      <trkpt lat="43.63438" lon="3.27385">
        <ele>211.15</ele>
        <time>2014-09-28T08:22:19Z</time>
      </trkpt>
      <trkpt lat="43.63419" lon="3.27426">
        <ele>208.74</ele>
        <time>2014-09-28T08:22:25Z</time>
      </trkpt>
      <trkpt lat="43.63402" lon="3.27453">
        <ele>207.3</ele>
        <time>2014-09-28T08:22:29Z</time>
      </trkpt>
      <trkpt lat="43.63391" lon="3.27464">
        <ele>206.34</ele>
        <time>2014-09-28T08:22:31Z</time>
      </trkpt>
      <trkpt lat="43.63356" lon="3.27489">
        <ele>204.42</ele>
        <time>2014-09-28T08:22:37Z</time>
      </trkpt>
      <trkpt lat="43.6331" lon="3.27507">
        <ele>201.53</ele>
        <time>2014-09-28T08:22:44Z</time>
      </trkpt>
      <trkpt lat="43.63273" lon="3.275">
        <ele>199.13</ele>
        <time>2014-09-28T08:22:49Z</time>
      </trkpt>
      <trkpt lat="43.63258" lon="3.2749">
        <ele>197.69</ele>
        <time>2014-09-28T08:22:51Z</time>
      </trkpt>
      <trkpt lat="43.63231" lon="3.27483">
        <ele>193.84</ele>
        <time>2014-09-28T08:22:55Z</time>
      </trkpt>
      <trkpt lat="43.63219" lon="3.27488">
        <ele>192.88</ele>
        <time>2014-09-28T08:22:57Z</time>
      </trkpt>
      <trkpt lat="43.632" lon="3.27491">
        <ele>191.44</ele>
        <time>2014-09-28T08:23:01Z</time>
      </trkpt>
      <trkpt lat="43.63178" lon="3.27486">
        <ele>190</ele>
        <time>2014-09-28T08:23:05Z</time>
      </trkpt>
      <trkpt lat="43.63164" lon="3.27461">
        <ele>186.15</ele>
        <time>2014-09-28T08:23:12Z</time>
      </trkpt>
      <trkpt lat="43.63167" lon="3.27456">
        <ele>185.67</ele>
        <time>2014-09-28T08:23:13Z</time>
      </trkpt>
      <trkpt lat="43.63198" lon="3.27402">
        <ele>187.59</ele>
        <time>2014-09-28T08:23:28Z</time>
      </trkpt>
      <trkpt lat="43.63211" lon="3.27368">
        <ele>190</ele>
        <time>2014-09-28T08:23:40Z</time>
      </trkpt>
      <trkpt lat="43.63217" lon="3.27332">
        <ele>191.92</ele>
        <time>2014-09-28T08:23:53Z</time>
      </trkpt>
      <trkpt lat="43.63219" lon="3.27306">
        <ele>194.32</ele>
        <time>2014-09-28T08:24:06Z</time>
      </trkpt>
      <trkpt lat="43.63222" lon="3.27296">
        <ele>194.8</ele>
        <time>2014-09-28T08:24:11Z</time>
      </trkpt>
      <trkpt lat="43.63223" lon="3.27292">
        <ele>195.28</ele>
        <time>2014-09-28T08:24:13Z</time>
      </trkpt>
      <trkpt lat="43.63228" lon="3.27277">
        <ele>196.73</ele>
        <time>2014-09-28T08:24:22Z</time>
      </trkpt>
      <trkpt lat="43.63236" lon="3.27244">
        <ele>198.17</ele>
        <time>2014-09-28T08:24:37Z</time>
      </trkpt>
      <trkpt lat="43.63239" lon="3.2722">
        <ele>199.61</ele>
        <time>2014-09-28T08:24:47Z</time>
      </trkpt>
      <trkpt lat="43.63236" lon="3.27207">
        <ele>200.57</ele>
        <time>2014-09-28T08:24:58Z</time>
      </trkpt>
      <trkpt lat="43.63236" lon="3.27207">
        <ele>200.09</ele>
        <time>2014-09-28T08:25:24Z</time>
      </trkpt>
      <trkpt lat="43.63237" lon="3.27208">
        <ele>200.09</ele>
        <time>2014-09-28T08:25:49Z</time>
      </trkpt>
      <trkpt lat="43.63237" lon="3.27207">
        <ele>200.09</ele>
        <time>2014-09-28T08:26:05Z</time>
      </trkpt>
      <trkpt lat="43.63236" lon="3.27207">
        <ele>200.09</ele>
        <time>2014-09-28T08:26:18Z</time>
      </trkpt>
      <trkpt lat="43.63235" lon="3.27187">
        <ele>201.05</ele>
        <time>2014-09-28T08:26:25Z</time>
      </trkpt>
      <trkpt lat="43.63228" lon="3.27135">
        <ele>201.53</ele>
        <time>2014-09-28T08:26:38Z</time>
      </trkpt>
      <trkpt lat="43.63223" lon="3.2709">
        <ele>203.46</ele>
        <time>2014-09-28T08:26:50Z</time>
      </trkpt>
      <trkpt lat="43.63213" lon="3.27058">
        <ele>205.38</ele>
        <time>2014-09-28T08:27:02Z</time>
      </trkpt>
      <trkpt lat="43.63206" lon="3.27045">
        <ele>206.34</ele>
        <time>2014-09-28T08:27:08Z</time>
      </trkpt>
      <trkpt lat="43.63195" lon="3.2701">
        <ele>208.26</ele>
        <time>2014-09-28T08:27:19Z</time>
      </trkpt>
      <trkpt lat="43.63181" lon="3.2697">
        <ele>208.26</ele>
        <time>2014-09-28T08:27:33Z</time>
      </trkpt>
      <trkpt lat="43.6317" lon="3.26964">
        <ele>207.78</ele>
        <time>2014-09-28T08:27:40Z</time>
      </trkpt>
      <trkpt lat="43.63168" lon="3.2696">
        <ele>207.3</ele>
        <time>2014-09-28T08:27:50Z</time>
      </trkpt>
      <trkpt lat="43.6317" lon="3.2696">
        <ele>206.82</ele>
        <time>2014-09-28T08:28:17Z</time>
      </trkpt>
      <trkpt lat="43.63168" lon="3.2696">
        <ele>206.82</ele>
        <time>2014-09-28T08:28:48Z</time>
      </trkpt>
      <trkpt lat="43.63168" lon="3.26961">
        <ele>206.82</ele>
        <time>2014-09-28T08:29:10Z</time>
      </trkpt>
      <trkpt lat="43.63168" lon="3.26961">
        <ele>206.82</ele>
        <time>2014-09-28T08:29:31Z</time>
      </trkpt>
      <trkpt lat="43.63168" lon="3.26963">
        <ele>206.82</ele>
        <time>2014-09-28T08:30:01Z</time>
      </trkpt>
      <trkpt lat="43.63169" lon="3.26962">
        <ele>206.82</ele>
        <time>2014-09-28T08:30:33Z</time>
      </trkpt>
      <trkpt lat="43.63169" lon="3.26963">
        <ele>206.82</ele>
        <time>2014-09-28T08:31:07Z</time>
      </trkpt>
      <trkpt lat="43.63169" lon="3.26964">
        <ele>206.82</ele>
        <time>2014-09-28T08:31:43Z</time>
      </trkpt>
      <trkpt lat="43.63168" lon="3.26964">
        <ele>207.3</ele>
        <time>2014-09-28T08:32:14Z</time>
      </trkpt>
      <trkpt lat="43.63168" lon="3.26964">
        <ele>206.82</ele>
        <time>2014-09-28T08:32:47Z</time>
      </trkpt>
      <trkpt lat="43.63167" lon="3.26964">
        <ele>207.3</ele>
        <time>2014-09-28T08:33:18Z</time>
      </trkpt>
      <trkpt lat="43.63167" lon="3.26963">
        <ele>207.3</ele>
        <time>2014-09-28T08:33:55Z</time>
      </trkpt>
      <trkpt lat="43.63166" lon="3.26963">
        <ele>207.3</ele>
        <time>2014-09-28T08:34:31Z</time>
      </trkpt>
      <trkpt lat="43.63167" lon="3.26963">
        <ele>207.3</ele>
        <time>2014-09-28T08:35:06Z</time>
      </trkpt>
      <trkpt lat="43.63167" lon="3.26963">
        <ele>207.3</ele>
        <time>2014-09-28T08:35:34Z</time>
      </trkpt>
      <trkpt lat="43.63166" lon="3.26961">
        <ele>207.78</ele>
        <time>2014-09-28T08:36:05Z</time>
      </trkpt>
      <trkpt lat="43.63166" lon="3.2695">
        <ele>207.78</ele>
        <time>2014-09-28T08:36:13Z</time>
      </trkpt>
      <trkpt lat="43.63167" lon="3.26948">
        <ele>207.78</ele>
        <time>2014-09-28T08:36:14Z</time>
      </trkpt>
      <trkpt lat="43.63168" lon="3.2694">
        <ele>207.78</ele>
        <time>2014-09-28T08:36:18Z</time>
      </trkpt>
      <trkpt lat="43.63168" lon="3.26929">
        <ele>207.78</ele>
        <time>2014-09-28T08:36:22Z</time>
      </trkpt>
      <trkpt lat="43.63166" lon="3.26884">
        <ele>207.3</ele>
        <time>2014-09-28T08:36:32Z</time>
      </trkpt>
      <trkpt lat="43.63165" lon="3.26855">
        <ele>206.34</ele>
        <time>2014-09-28T08:36:37Z</time>
      </trkpt>
      <trkpt lat="43.63163" lon="3.26815">
        <ele>205.86</ele>
        <time>2014-09-28T08:36:43Z</time>
      </trkpt>
      <trkpt lat="43.63161" lon="3.26742">
        <ele>203.94</ele>
        <time>2014-09-28T08:36:52Z</time>
      </trkpt>
      <trkpt lat="43.63176" lon="3.26665">
        <ele>204.42</ele>
        <time>2014-09-28T08:37:02Z</time>
      </trkpt>
      <trkpt lat="43.63185" lon="3.26634">
        <ele>204.42</ele>
        <time>2014-09-28T08:37:07Z</time>
      </trkpt>
      <trkpt lat="43.63204" lon="3.26594">
        <ele>204.42</ele>
        <time>2014-09-28T08:37:14Z</time>
      </trkpt>
      <trkpt lat="43.63226" lon="3.26547">
        <ele>203.94</ele>
        <time>2014-09-28T08:37:22Z</time>
      </trkpt>
      <trkpt lat="43.63228" lon="3.26524">
        <ele>203.46</ele>
        <time>2014-09-28T08:37:25Z</time>
      </trkpt>
      <trkpt lat="43.63206" lon="3.26454">
        <ele>203.94</ele>
        <time>2014-09-28T08:37:37Z</time>
      </trkpt>
      <trkpt lat="43.63182" lon="3.26396">
        <ele>204.9</ele>
        <time>2014-09-28T08:37:49Z</time>
      </trkpt>
      <trkpt lat="43.63165" lon="3.26346">
        <ele>204.9</ele>
        <time>2014-09-28T08:37:58Z</time>
      </trkpt>
      <trkpt lat="43.63162" lon="3.26321">
        <ele>204.9</ele>
        <time>2014-09-28T08:38:02Z</time>
      </trkpt>
      <trkpt lat="43.63164" lon="3.263">
        <ele>204.42</ele>
        <time>2014-09-28T08:38:05Z</time>
      </trkpt>
      <trkpt lat="43.63182" lon="3.26249">
        <ele>202.98</ele>
        <time>2014-09-28T08:38:12Z</time>
      </trkpt>
      <trkpt lat="43.6321" lon="3.26217">
        <ele>202.01</ele>
        <time>2014-09-28T08:38:18Z</time>
      </trkpt>
      <trkpt lat="43.63254" lon="3.26187">
        <ele>202.01</ele>
        <time>2014-09-28T08:38:26Z</time>
      </trkpt>
      <trkpt lat="43.63258" lon="3.26184">
        <ele>202.01</ele>
        <time>2014-09-28T08:38:27Z</time>
      </trkpt>
      <trkpt lat="43.63263" lon="3.26181">
        <ele>202.01</ele>
        <time>2014-09-28T08:38:28Z</time>
      </trkpt>
      <trkpt lat="43.63325" lon="3.2615">
        <ele>203.46</ele>
        <time>2014-09-28T08:38:42Z</time>
      </trkpt>
      <trkpt lat="43.63367" lon="3.26131">
        <ele>205.38</ele>
        <time>2014-09-28T08:38:54Z</time>
      </trkpt>
      <trkpt lat="43.63418" lon="3.26102">
        <ele>207.3</ele>
        <time>2014-09-28T08:39:11Z</time>
      </trkpt>
      <trkpt lat="43.63469" lon="3.26069">
        <ele>209.22</ele>
        <time>2014-09-28T08:39:27Z</time>
      </trkpt>
      <trkpt lat="43.63529" lon="3.26042">
        <ele>211.15</ele>
        <time>2014-09-28T08:39:44Z</time>
      </trkpt>
      <trkpt lat="43.63585" lon="3.26014">
        <ele>211.63</ele>
        <time>2014-09-28T08:39:59Z</time>
      </trkpt>
      <trkpt lat="43.63612" lon="3.25995">
        <ele>212.11</ele>
        <time>2014-09-28T08:40:07Z</time>
      </trkpt>
      <trkpt lat="43.6366" lon="3.25956">
        <ele>213.55</ele>
        <time>2014-09-28T08:40:21Z</time>
      </trkpt>
      <trkpt lat="43.637" lon="3.2588">
        <ele>213.55</ele>
        <time>2014-09-28T08:40:37Z</time>
      </trkpt>
      <trkpt lat="43.63722" lon="3.25845">
        <ele>214.03</ele>
        <time>2014-09-28T08:40:45Z</time>
      </trkpt>
      <trkpt lat="43.63776" lon="3.25824">
        <ele>214.99</ele>
        <time>2014-09-28T08:40:59Z</time>
      </trkpt>
      <trkpt lat="43.63851" lon="3.25801">
        <ele>215.95</ele>
        <time>2014-09-28T08:41:17Z</time>
      </trkpt>
      <trkpt lat="43.63903" lon="3.25779">
        <ele>216.43</ele>
        <time>2014-09-28T08:41:30Z</time>
      </trkpt>
      <trkpt lat="43.63952" lon="3.25755">
        <ele>216.91</ele>
        <time>2014-09-28T08:41:44Z</time>
      </trkpt>
      <trkpt lat="43.63962" lon="3.2576">
        <ele>216.43</ele>
        <time>2014-09-28T08:41:46Z</time>
      </trkpt>
      <trkpt lat="43.63965" lon="3.25763">
        <ele>216.43</ele>
        <time>2014-09-28T08:41:47Z</time>
      </trkpt>
      <trkpt lat="43.63995" lon="3.25823">
        <ele>217.88</ele>
        <time>2014-09-28T08:42:02Z</time>
      </trkpt>
      <trkpt lat="43.64033" lon="3.25827">
        <ele>219.32</ele>
        <time>2014-09-28T08:42:13Z</time>
      </trkpt>
      <trkpt lat="43.64075" lon="3.25836">
        <ele>221.24</ele>
        <time>2014-09-28T08:42:25Z</time>
      </trkpt>
      <trkpt lat="43.64111" lon="3.25856">
        <ele>223.64</ele>
        <time>2014-09-28T08:42:37Z</time>
      </trkpt>
      <trkpt lat="43.64143" lon="3.25894">
        <ele>225.57</ele>
        <time>2014-09-28T08:42:50Z</time>
      </trkpt>
      <trkpt lat="43.64187" lon="3.2591">
        <ele>226.05</ele>
        <time>2014-09-28T08:43:03Z</time>
      </trkpt>
      <trkpt lat="43.6422" lon="3.25891">
        <ele>226.53</ele>
        <time>2014-09-28T08:43:14Z</time>
      </trkpt>
      <trkpt lat="43.64241" lon="3.25862">
        <ele>228.45</ele>
        <time>2014-09-28T08:43:25Z</time>
      </trkpt>
      <trkpt lat="43.64261" lon="3.25866">
        <ele>229.41</ele>
        <time>2014-09-28T08:43:34Z</time>
      </trkpt>
      <trkpt lat="43.64278" lon="3.25872">
        <ele>231.33</ele>
        <time>2014-09-28T08:43:42Z</time>
      </trkpt>
      <trkpt lat="43.64305" lon="3.25894">
        <ele>233.74</ele>
        <time>2014-09-28T08:43:58Z</time>
      </trkpt>
      <trkpt lat="43.64334" lon="3.2592">
        <ele>236.14</ele>
        <time>2014-09-28T08:44:14Z</time>
      </trkpt>
      <trkpt lat="43.64357" lon="3.25935">
        <ele>238.06</ele>
        <time>2014-09-28T08:44:27Z</time>
      </trkpt>
      <trkpt lat="43.64374" lon="3.25942">
        <ele>239.99</ele>
        <time>2014-09-28T08:44:38Z</time>
      </trkpt>
      <trkpt lat="43.64395" lon="3.25957">
        <ele>241.43</ele>
        <time>2014-09-28T08:44:50Z</time>
      </trkpt>
      <trkpt lat="43.64407" lon="3.25962">
        <ele>243.35</ele>
        <time>2014-09-28T08:44:58Z</time>
      </trkpt>
      <trkpt lat="43.64434" lon="3.25957">
        <ele>245.27</ele>
        <time>2014-09-28T08:45:12Z</time>
      </trkpt>
      <trkpt lat="43.64454" lon="3.25955">
        <ele>247.2</ele>
        <time>2014-09-28T08:45:24Z</time>
      </trkpt>
      <trkpt lat="43.64472" lon="3.25961">
        <ele>249.12</ele>
        <time>2014-09-28T08:45:36Z</time>
      </trkpt>
      <trkpt lat="43.64479" lon="3.25968">
        <ele>250.08</ele>
        <time>2014-09-28T08:45:42Z</time>
      </trkpt>
      <trkpt lat="43.64501" lon="3.25974">
        <ele>252.48</ele>
        <time>2014-09-28T08:45:57Z</time>
      </trkpt>
      <trkpt lat="43.64509" lon="3.25973">
        <ele>253.44</ele>
        <time>2014-09-28T08:46:02Z</time>
      </trkpt>
      <trkpt lat="43.64519" lon="3.25975">
        <ele>254.89</ele>
        <time>2014-09-28T08:46:10Z</time>
      </trkpt>
      <trkpt lat="43.64521" lon="3.25975">
        <ele>255.37</ele>
        <time>2014-09-28T08:46:12Z</time>
      </trkpt>
      <trkpt lat="43.64531" lon="3.25953">
        <ele>256.33</ele>
        <time>2014-09-28T08:46:25Z</time>
      </trkpt>
      <trkpt lat="43.64541" lon="3.25933">
        <ele>259.21</ele>
        <time>2014-09-28T08:46:38Z</time>
      </trkpt>
      <trkpt lat="43.64551" lon="3.25926">
        <ele>260.65</ele>
        <time>2014-09-28T08:46:47Z</time>
      </trkpt>
      <trkpt lat="43.64561" lon="3.2593">
        <ele>262.1</ele>
        <time>2014-09-28T08:46:55Z</time>
      </trkpt>
      <trkpt lat="43.64574" lon="3.25946">
        <ele>264.98</ele>
        <time>2014-09-28T08:47:11Z</time>
      </trkpt>
      <trkpt lat="43.64579" lon="3.25952">
        <ele>266.42</ele>
        <time>2014-09-28T08:47:17Z</time>
      </trkpt>
      <trkpt lat="43.64583" lon="3.25958">
        <ele>266.9</ele>
        <time>2014-09-28T08:47:22Z</time>
      </trkpt>
      <trkpt lat="43.64604" lon="3.25957">
        <ele>269.31</ele>
        <time>2014-09-28T08:47:38Z</time>
      </trkpt>
      <trkpt lat="43.64622" lon="3.25931">
        <ele>271.23</ele>
        <time>2014-09-28T08:47:53Z</time>
      </trkpt>
      <trkpt lat="43.64629" lon="3.25924">
        <ele>271.23</ele>
        <time>2014-09-28T08:47:58Z</time>
      </trkpt>
      <trkpt lat="43.64634" lon="3.2592">
        <ele>271.71</ele>
        <time>2014-09-28T08:48:02Z</time>
      </trkpt>
      <trkpt lat="43.6464" lon="3.25918">
        <ele>272.67</ele>
        <time>2014-09-28T08:48:06Z</time>
      </trkpt>
      <trkpt lat="43.64646" lon="3.25915">
        <ele>273.15</ele>
        <time>2014-09-28T08:48:11Z</time>
      </trkpt>
      <trkpt lat="43.64662" lon="3.25906">
        <ele>276.04</ele>
        <time>2014-09-28T08:48:25Z</time>
      </trkpt>
      <trkpt lat="43.64673" lon="3.25899">
        <ele>277.48</ele>
        <time>2014-09-28T08:48:35Z</time>
      </trkpt>
      <trkpt lat="43.64678" lon="3.25899">
        <ele>277.96</ele>
        <time>2014-09-28T08:48:39Z</time>
      </trkpt>
      <trkpt lat="43.64692" lon="3.25893">
        <ele>279.88</ele>
        <time>2014-09-28T08:48:52Z</time>
      </trkpt>
      <trkpt lat="43.64698" lon="3.25892">
        <ele>281.32</ele>
        <time>2014-09-28T08:48:58Z</time>
      </trkpt>
      <trkpt lat="43.64704" lon="3.2589">
        <ele>282.28</ele>
        <time>2014-09-28T08:49:03Z</time>
      </trkpt>
      <trkpt lat="43.64709" lon="3.25888">
        <ele>282.77</ele>
        <time>2014-09-28T08:49:07Z</time>
      </trkpt>
      <trkpt lat="43.64713" lon="3.25889">
        <ele>283.25</ele>
        <time>2014-09-28T08:49:11Z</time>
      </trkpt>
      <trkpt lat="43.64722" lon="3.25887">
        <ele>284.69</ele>
        <time>2014-09-28T08:49:19Z</time>
      </trkpt>
      <trkpt lat="43.6474" lon="3.25892">
        <ele>287.09</ele>
        <time>2014-09-28T08:49:33Z</time>
      </trkpt>
      <trkpt lat="43.64747" lon="3.25894">
        <ele>288.05</ele>
        <time>2014-09-28T08:49:39Z</time>
      </trkpt>
      <trkpt lat="43.64759" lon="3.25888">
        <ele>289.49</ele>
        <time>2014-09-28T08:49:52Z</time>
      </trkpt>
      <trkpt lat="43.64753" lon="3.25882">
        <ele>290.46</ele>
        <time>2014-09-28T08:49:58Z</time>
      </trkpt>
      <trkpt lat="43.64737" lon="3.25874">
        <ele>293.82</ele>
        <time>2014-09-28T08:50:12Z</time>
      </trkpt>
      <trkpt lat="43.64723" lon="3.2587">
        <ele>294.78</ele>
        <time>2014-09-28T08:50:20Z</time>
      </trkpt>
      <trkpt lat="43.64713" lon="3.25866">
        <ele>294.78</ele>
        <time>2014-09-28T08:50:26Z</time>
      </trkpt>
      <trkpt lat="43.64689" lon="3.2586">
        <ele>296.7</ele>
        <time>2014-09-28T08:50:40Z</time>
      </trkpt>
      <trkpt lat="43.64666" lon="3.25854">
        <ele>298.63</ele>
        <time>2014-09-28T08:50:53Z</time>
      </trkpt>
      <trkpt lat="43.64657" lon="3.2585">
        <ele>299.59</ele>
        <time>2014-09-28T08:50:58Z</time>
      </trkpt>
      <trkpt lat="43.64648" lon="3.25839">
        <ele>301.03</ele>
        <time>2014-09-28T08:51:04Z</time>
      </trkpt>
      <trkpt lat="43.64654" lon="3.2582">
        <ele>302.95</ele>
        <time>2014-09-28T08:51:17Z</time>
      </trkpt>
      <trkpt lat="43.64672" lon="3.25816">
        <ele>305.36</ele>
        <time>2014-09-28T08:51:32Z</time>
      </trkpt>
      <trkpt lat="43.6469" lon="3.2581">
        <ele>307.28</ele>
        <time>2014-09-28T08:51:47Z</time>
      </trkpt>
      <trkpt lat="43.647" lon="3.25805">
        <ele>309.2</ele>
        <time>2014-09-28T08:51:55Z</time>
      </trkpt>
      <trkpt lat="43.64706" lon="3.25802">
        <ele>309.2</ele>
        <time>2014-09-28T08:52:00Z</time>
      </trkpt>
      <trkpt lat="43.64727" lon="3.25788">
        <ele>310.64</ele>
        <time>2014-09-28T08:52:15Z</time>
      </trkpt>
      <trkpt lat="43.64749" lon="3.25773">
        <ele>313.53</ele>
        <time>2014-09-28T08:52:31Z</time>
      </trkpt>
      <trkpt lat="43.64767" lon="3.25766">
        <ele>315.93</ele>
        <time>2014-09-28T08:52:45Z</time>
      </trkpt>
      <trkpt lat="43.64786" lon="3.25759">
        <ele>317.37</ele>
        <time>2014-09-28T08:53:00Z</time>
      </trkpt>
      <trkpt lat="43.64797" lon="3.25756">
        <ele>319.3</ele>
        <time>2014-09-28T08:53:10Z</time>
      </trkpt>
      <trkpt lat="43.64802" lon="3.25756">
        <ele>320.74</ele>
        <time>2014-09-28T08:53:25Z</time>
      </trkpt>
      <trkpt lat="43.64803" lon="3.25755">
        <ele>320.74</ele>
        <time>2014-09-28T08:53:30Z</time>
      </trkpt>
      <trkpt lat="43.64806" lon="3.25751">
        <ele>321.7</ele>
        <time>2014-09-28T08:53:47Z</time>
      </trkpt>
      <trkpt lat="43.64814" lon="3.25748">
        <ele>323.14</ele>
        <time>2014-09-28T08:54:00Z</time>
      </trkpt>
      <trkpt lat="43.64825" lon="3.25744">
        <ele>326.02</ele>
        <time>2014-09-28T08:54:13Z</time>
      </trkpt>
      <trkpt lat="43.64841" lon="3.25731">
        <ele>328.43</ele>
        <time>2014-09-28T08:54:29Z</time>
      </trkpt>
      <trkpt lat="43.6485" lon="3.25726">
        <ele>330.35</ele>
        <time>2014-09-28T08:54:37Z</time>
      </trkpt>
      <trkpt lat="43.64861" lon="3.25732">
        <ele>332.75</ele>
        <time>2014-09-28T08:54:51Z</time>
      </trkpt>
      <trkpt lat="43.64866" lon="3.2574">
        <ele>334.2</ele>
        <time>2014-09-28T08:54:59Z</time>
      </trkpt>
      <trkpt lat="43.64873" lon="3.25761">
        <ele>337.56</ele>
        <time>2014-09-28T08:55:15Z</time>
      </trkpt>
      <trkpt lat="43.64878" lon="3.25771">
        <ele>338.52</ele>
        <time>2014-09-28T08:55:29Z</time>
      </trkpt>
      <trkpt lat="43.64891" lon="3.25793">
        <ele>340.92</ele>
        <time>2014-09-28T08:55:45Z</time>
      </trkpt>
      <trkpt lat="43.64903" lon="3.25807">
        <ele>341.89</ele>
        <time>2014-09-28T08:55:58Z</time>
      </trkpt>
      <trkpt lat="43.64911" lon="3.25812">
        <ele>342.37</ele>
        <time>2014-09-28T08:56:04Z</time>
      </trkpt>
      <trkpt lat="43.64927" lon="3.25822">
        <ele>344.77</ele>
        <time>2014-09-28T08:56:18Z</time>
      </trkpt>
      <trkpt lat="43.64935" lon="3.25831">
        <ele>346.69</ele>
        <time>2014-09-28T08:56:27Z</time>
      </trkpt>
      <trkpt lat="43.64945" lon="3.25849">
        <ele>349.58</ele>
        <time>2014-09-28T08:56:41Z</time>
      </trkpt>
      <trkpt lat="43.64953" lon="3.25869">
        <ele>352.46</ele>
        <time>2014-09-28T08:56:55Z</time>
      </trkpt>
      <trkpt lat="43.64957" lon="3.25877">
        <ele>353.9</ele>
        <time>2014-09-28T08:57:05Z</time>
      </trkpt>
      <trkpt lat="43.64959" lon="3.25869">
        <ele>355.34</ele>
        <time>2014-09-28T08:57:10Z</time>
      </trkpt>
      <trkpt lat="43.64961" lon="3.2584">
        <ele>357.75</ele>
        <time>2014-09-28T08:57:26Z</time>
      </trkpt>
      <trkpt lat="43.64964" lon="3.25835">
        <ele>358.71</ele>
        <time>2014-09-28T08:57:31Z</time>
      </trkpt>
      <trkpt lat="43.64969" lon="3.25835">
        <ele>359.19</ele>
        <time>2014-09-28T08:57:35Z</time>
      </trkpt>
      <trkpt lat="43.64971" lon="3.25838">
        <ele>360.15</ele>
        <time>2014-09-28T08:57:38Z</time>
      </trkpt>
      <trkpt lat="43.64977" lon="3.25862">
        <ele>363.04</ele>
        <time>2014-09-28T08:57:54Z</time>
      </trkpt>
      <trkpt lat="43.6498" lon="3.25872">
        <ele>364.48</ele>
        <time>2014-09-28T08:58:01Z</time>
      </trkpt>
      <trkpt lat="43.64987" lon="3.25891">
        <ele>367.36</ele>
        <time>2014-09-28T08:58:15Z</time>
      </trkpt>
      <trkpt lat="43.64988" lon="3.25895">
        <ele>367.36</ele>
        <time>2014-09-28T08:58:18Z</time>
      </trkpt>
      <trkpt lat="43.64991" lon="3.25909">
        <ele>368.32</ele>
        <time>2014-09-28T08:58:26Z</time>
      </trkpt>
      <trkpt lat="43.64998" lon="3.25926">
        <ele>370.73</ele>
        <time>2014-09-28T08:58:39Z</time>
      </trkpt>
      <trkpt lat="43.65006" lon="3.2594">
        <ele>373.13</ele>
        <time>2014-09-28T08:58:52Z</time>
      </trkpt>
      <trkpt lat="43.65007" lon="3.25942">
        <ele>373.13</ele>
        <time>2014-09-28T08:58:54Z</time>
      </trkpt>
      <trkpt lat="43.65015" lon="3.25961">
        <ele>375.05</ele>
        <time>2014-09-28T08:59:07Z</time>
      </trkpt>
      <trkpt lat="43.65035" lon="3.25971">
        <ele>376.97</ele>
        <time>2014-09-28T08:59:24Z</time>
      </trkpt>
      <trkpt lat="43.65047" lon="3.2598">
        <ele>378.42</ele>
        <time>2014-09-28T08:59:36Z</time>
      </trkpt>
      <trkpt lat="43.65063" lon="3.25986">
        <ele>379.86</ele>
        <time>2014-09-28T08:59:48Z</time>
      </trkpt>
      <trkpt lat="43.65073" lon="3.25991">
        <ele>380.34</ele>
        <time>2014-09-28T08:59:54Z</time>
      </trkpt>
      <trkpt lat="43.65078" lon="3.25998">
        <ele>380.82</ele>
        <time>2014-09-28T08:59:58Z</time>
      </trkpt>
      <trkpt lat="43.65092" lon="3.2601">
        <ele>381.3</ele>
        <time>2014-09-28T09:00:04Z</time>
      </trkpt>
      <trkpt lat="43.65118" lon="3.26034">
        <ele>382.26</ele>
        <time>2014-09-28T09:00:17Z</time>
      </trkpt>
      <trkpt lat="43.65138" lon="3.26073">
        <ele>384.18</ele>
        <time>2014-09-28T09:00:31Z</time>
      </trkpt>
      <trkpt lat="43.65149" lon="3.26105">
        <ele>385.63</ele>
        <time>2014-09-28T09:00:43Z</time>
      </trkpt>
      <trkpt lat="43.65173" lon="3.26129">
        <ele>388.03</ele>
        <time>2014-09-28T09:00:58Z</time>
      </trkpt>
      <trkpt lat="43.652" lon="3.26155">
        <ele>389.47</ele>
        <time>2014-09-28T09:01:12Z</time>
      </trkpt>
      <trkpt lat="43.65236" lon="3.26193">
        <ele>389.95</ele>
        <time>2014-09-28T09:01:26Z</time>
      </trkpt>
      <trkpt lat="43.65273" lon="3.26223">
        <ele>389.47</ele>
        <time>2014-09-28T09:01:37Z</time>
      </trkpt>
      <trkpt lat="43.65318" lon="3.26243">
        <ele>389.95</ele>
        <time>2014-09-28T09:01:49Z</time>
      </trkpt>
      <trkpt lat="43.65339" lon="3.26262">
        <ele>389.47</ele>
        <time>2014-09-28T09:01:55Z</time>
      </trkpt>
      <trkpt lat="43.65338" lon="3.26279">
        <ele>389.47</ele>
        <time>2014-09-28T09:01:58Z</time>
      </trkpt>
      <trkpt lat="43.65323" lon="3.2634">
        <ele>389.47</ele>
        <time>2014-09-28T09:02:08Z</time>
      </trkpt>
      <trkpt lat="43.65309" lon="3.26365">
        <ele>390.43</ele>
        <time>2014-09-28T09:02:14Z</time>
      </trkpt>
      <trkpt lat="43.65275" lon="3.26413">
        <ele>391.87</ele>
        <time>2014-09-28T09:02:29Z</time>
      </trkpt>
      <trkpt lat="43.6526" lon="3.26451">
        <ele>394.28</ele>
        <time>2014-09-28T09:02:42Z</time>
      </trkpt>
      <trkpt lat="43.65242" lon="3.26486">
        <ele>397.16</ele>
        <time>2014-09-28T09:02:58Z</time>
      </trkpt>
      <trkpt lat="43.65223" lon="3.2651">
        <ele>400.05</ele>
        <time>2014-09-28T09:03:15Z</time>
      </trkpt>
      <trkpt lat="43.65208" lon="3.26529">
        <ele>402.93</ele>
        <time>2014-09-28T09:03:30Z</time>
      </trkpt>
      <trkpt lat="43.65189" lon="3.26552">
        <ele>404.85</ele>
        <time>2014-09-28T09:03:45Z</time>
      </trkpt>
      <trkpt lat="43.6517" lon="3.26578">
        <ele>407.26</ele>
        <time>2014-09-28T09:04:00Z</time>
      </trkpt>
      <trkpt lat="43.65152" lon="3.26617">
        <ele>409.18</ele>
        <time>2014-09-28T09:04:16Z</time>
      </trkpt>
      <trkpt lat="43.65142" lon="3.26656">
        <ele>411.1</ele>
        <time>2014-09-28T09:04:31Z</time>
      </trkpt>
      <trkpt lat="43.65135" lon="3.26695">
        <ele>413.5</ele>
        <time>2014-09-28T09:04:45Z</time>
      </trkpt>
      <trkpt lat="43.65134" lon="3.26732">
        <ele>414.95</ele>
        <time>2014-09-28T09:04:58Z</time>
      </trkpt>
      <trkpt lat="43.65124" lon="3.26766">
        <ele>416.87</ele>
        <time>2014-09-28T09:05:12Z</time>
      </trkpt>
      <trkpt lat="43.651" lon="3.26785">
        <ele>419.75</ele>
        <time>2014-09-28T09:05:29Z</time>
      </trkpt>
      <trkpt lat="43.65078" lon="3.26794">
        <ele>421.19</ele>
        <time>2014-09-28T09:05:43Z</time>
      </trkpt>
      <trkpt lat="43.65077" lon="3.26794">
        <ele>421.68</ele>
        <time>2014-09-28T09:05:44Z</time>
      </trkpt>
      <trkpt lat="43.65073" lon="3.26799">
        <ele>422.16</ele>
        <time>2014-09-28T09:05:48Z</time>
      </trkpt>
      <trkpt lat="43.65068" lon="3.26816">
        <ele>423.6</ele>
        <time>2014-09-28T09:05:57Z</time>
      </trkpt>
      <trkpt lat="43.65077" lon="3.26858">
        <ele>425.52</ele>
        <time>2014-09-28T09:06:13Z</time>
      </trkpt>
      <trkpt lat="43.6508" lon="3.26912">
        <ele>424.56</ele>
        <time>2014-09-28T09:06:26Z</time>
      </trkpt>
      <trkpt lat="43.65079" lon="3.26927">
        <ele>423.12</ele>
        <time>2014-09-28T09:06:28Z</time>
      </trkpt>
      <trkpt lat="43.65083" lon="3.26982">
        <ele>418.79</ele>
        <time>2014-09-28T09:06:33Z</time>
      </trkpt>
      <trkpt lat="43.65085" lon="3.2702">
        <ele>415.91</ele>
        <time>2014-09-28T09:06:36Z</time>
      </trkpt>
      <trkpt lat="43.65072" lon="3.2707">
        <ele>412.54</ele>
        <time>2014-09-28T09:06:40Z</time>
      </trkpt>
      <trkpt lat="43.65039" lon="3.27124">
        <ele>408.22</ele>
        <time>2014-09-28T09:06:45Z</time>
      </trkpt>
      <trkpt lat="43.65016" lon="3.27153">
        <ele>404.85</ele>
        <time>2014-09-28T09:06:48Z</time>
      </trkpt>
      <trkpt lat="43.6498" lon="3.27187">
        <ele>401.01</ele>
        <time>2014-09-28T09:06:52Z</time>
      </trkpt>
      <trkpt lat="43.64961" lon="3.27204">
        <ele>397.64</ele>
        <time>2014-09-28T09:06:54Z</time>
      </trkpt>
      <trkpt lat="43.64953" lon="3.2721">
        <ele>397.64</ele>
        <time>2014-09-28T09:06:55Z</time>
      </trkpt>
      <trkpt lat="43.64931" lon="3.27228">
        <ele>393.32</ele>
        <time>2014-09-28T09:06:58Z</time>
      </trkpt>
      <trkpt lat="43.64915" lon="3.27239">
        <ele>389.95</ele>
        <time>2014-09-28T09:07:00Z</time>
      </trkpt>
      <trkpt lat="43.64893" lon="3.27261">
        <ele>386.59</ele>
        <time>2014-09-28T09:07:03Z</time>
      </trkpt>
      <trkpt lat="43.64874" lon="3.27276">
        <ele>382.26</ele>
        <time>2014-09-28T09:07:06Z</time>
      </trkpt>
      <trkpt lat="43.64861" lon="3.27308">
        <ele>378.9</ele>
        <time>2014-09-28T09:07:09Z</time>
      </trkpt>
      <trkpt lat="43.6486" lon="3.27331">
        <ele>378.42</ele>
        <time>2014-09-28T09:07:11Z</time>
      </trkpt>
      <trkpt lat="43.64854" lon="3.27361">
        <ele>376.49</ele>
        <time>2014-09-28T09:07:14Z</time>
      </trkpt>
      <trkpt lat="43.6485" lon="3.27374">
        <ele>374.57</ele>
        <time>2014-09-28T09:07:15Z</time>
      </trkpt>
      <trkpt lat="43.64835" lon="3.27394">
        <ele>373.13</ele>
        <time>2014-09-28T09:07:18Z</time>
      </trkpt>
      <trkpt lat="43.64802" lon="3.27417">
        <ele>370.24</ele>
        <time>2014-09-28T09:07:23Z</time>
      </trkpt>
      <trkpt lat="43.64792" lon="3.27436">
        <ele>367.36</ele>
        <time>2014-09-28T09:07:25Z</time>
      </trkpt>
      <trkpt lat="43.64776" lon="3.27477">
        <ele>364.48</ele>
        <time>2014-09-28T09:07:29Z</time>
      </trkpt>
      <trkpt lat="43.64767" lon="3.27562">
        <ele>364.96</ele>
        <time>2014-09-28T09:07:39Z</time>
      </trkpt>
      <trkpt lat="43.64766" lon="3.27569">
        <ele>364.48</ele>
        <time>2014-09-28T09:07:40Z</time>
      </trkpt>
      <trkpt lat="43.64763" lon="3.27584">
        <ele>364.48</ele>
        <time>2014-09-28T09:07:42Z</time>
      </trkpt>
      <trkpt lat="43.64755" lon="3.27616">
        <ele>362.55</ele>
        <time>2014-09-28T09:07:46Z</time>
      </trkpt>
      <trkpt lat="43.64745" lon="3.27665">
        <ele>358.23</ele>
        <time>2014-09-28T09:07:51Z</time>
      </trkpt>
      <trkpt lat="43.64733" lon="3.27702">
        <ele>354.86</ele>
        <time>2014-09-28T09:07:55Z</time>
      </trkpt>
      <trkpt lat="43.64719" lon="3.27726">
        <ele>352.94</ele>
        <time>2014-09-28T09:07:58Z</time>
      </trkpt>
      <trkpt lat="43.64717" lon="3.27732">
        <ele>352.46</ele>
        <time>2014-09-28T09:07:59Z</time>
      </trkpt>
      <trkpt lat="43.64714" lon="3.27742">
        <ele>351.98</ele>
        <time>2014-09-28T09:08:00Z</time>
      </trkpt>
      <trkpt lat="43.64709" lon="3.27778">
        <ele>350.54</ele>
        <time>2014-09-28T09:08:03Z</time>
      </trkpt>
      <trkpt lat="43.64704" lon="3.27806">
        <ele>349.1</ele>
        <time>2014-09-28T09:08:06Z</time>
      </trkpt>
      <trkpt lat="43.64701" lon="3.27826">
        <ele>348.62</ele>
        <time>2014-09-28T09:08:08Z</time>
      </trkpt>
      <trkpt lat="43.64698" lon="3.27875">
        <ele>344.29</ele>
        <time>2014-09-28T09:08:13Z</time>
      </trkpt>
      <trkpt lat="43.64698" lon="3.27908">
        <ele>342.37</ele>
        <time>2014-09-28T09:08:17Z</time>
      </trkpt>
      <trkpt lat="43.64698" lon="3.27914">
        <ele>341.89</ele>
        <time>2014-09-28T09:08:18Z</time>
      </trkpt>
      <trkpt lat="43.64691" lon="3.2793">
        <ele>340.92</ele>
        <time>2014-09-28T09:08:22Z</time>
      </trkpt>
      <trkpt lat="43.64687" lon="3.27938">
        <ele>339.96</ele>
        <time>2014-09-28T09:08:24Z</time>
      </trkpt>
      <trkpt lat="43.64679" lon="3.27979">
        <ele>336.6</ele>
        <time>2014-09-28T09:08:30Z</time>
      </trkpt>
      <trkpt lat="43.64677" lon="3.28">
        <ele>334.68</ele>
        <time>2014-09-28T09:08:33Z</time>
      </trkpt>
      <trkpt lat="43.64676" lon="3.28006">
        <ele>334.68</ele>
        <time>2014-09-28T09:08:34Z</time>
      </trkpt>
      <trkpt lat="43.64658" lon="3.28042">
        <ele>332.75</ele>
        <time>2014-09-28T09:08:40Z</time>
      </trkpt>
      <trkpt lat="43.64653" lon="3.28062">
        <ele>331.31</ele>
        <time>2014-09-28T09:08:43Z</time>
      </trkpt>
      <trkpt lat="43.6465" lon="3.28091">
        <ele>329.87</ele>
        <time>2014-09-28T09:08:48Z</time>
      </trkpt>
      <trkpt lat="43.64659" lon="3.28132">
        <ele>327.95</ele>
        <time>2014-09-28T09:08:54Z</time>
      </trkpt>
      <trkpt lat="43.64682" lon="3.28182">
        <ele>324.1</ele>
        <time>2014-09-28T09:09:01Z</time>
      </trkpt>
      <trkpt lat="43.647" lon="3.28221">
        <ele>321.7</ele>
        <time>2014-09-28T09:09:06Z</time>
      </trkpt>
      <trkpt lat="43.6471" lon="3.28241">
        <ele>321.22</ele>
        <time>2014-09-28T09:09:09Z</time>
      </trkpt>
      <trkpt lat="43.64733" lon="3.28272">
        <ele>317.37</ele>
        <time>2014-09-28T09:09:16Z</time>
      </trkpt>
      <trkpt lat="43.64732" lon="3.28272">
        <ele>317.37</ele>
        <time>2014-09-28T09:09:24Z</time>
      </trkpt>
      <trkpt lat="43.64731" lon="3.28271">
        <ele>317.37</ele>
        <time>2014-09-28T09:09:27Z</time>
      </trkpt>
      <trkpt lat="43.64721" lon="3.28269">
        <ele>316.89</ele>
        <time>2014-09-28T09:09:32Z</time>
      </trkpt>
      <trkpt lat="43.64694" lon="3.28255">
        <ele>313.53</ele>
        <time>2014-09-28T09:09:38Z</time>
      </trkpt>
      <trkpt lat="43.6466" lon="3.28225">
        <ele>310.16</ele>
        <time>2014-09-28T09:09:45Z</time>
      </trkpt>
      <trkpt lat="43.64628" lon="3.28183">
        <ele>306.8</ele>
        <time>2014-09-28T09:09:52Z</time>
      </trkpt>
      <trkpt lat="43.64609" lon="3.28162">
        <ele>305.36</ele>
        <time>2014-09-28T09:09:56Z</time>
      </trkpt>
      <trkpt lat="43.64586" lon="3.28153">
        <ele>302.47</ele>
        <time>2014-09-28T09:10:01Z</time>
      </trkpt>
      <trkpt lat="43.64556" lon="3.28143">
        <ele>299.59</ele>
        <time>2014-09-28T09:10:08Z</time>
      </trkpt>
      <trkpt lat="43.64538" lon="3.28135">
        <ele>298.15</ele>
        <time>2014-09-28T09:10:12Z</time>
      </trkpt>
      <trkpt lat="43.64524" lon="3.28128">
        <ele>297.18</ele>
        <time>2014-09-28T09:10:15Z</time>
      </trkpt>
      <trkpt lat="43.64518" lon="3.28125">
        <ele>296.22</ele>
        <time>2014-09-28T09:10:16Z</time>
      </trkpt>
      <trkpt lat="43.64498" lon="3.28124">
        <ele>295.74</ele>
        <time>2014-09-28T09:10:20Z</time>
      </trkpt>
      <trkpt lat="43.64479" lon="3.28112">
        <ele>293.82</ele>
        <time>2014-09-28T09:10:25Z</time>
      </trkpt>
      <trkpt lat="43.64477" lon="3.2812">
        <ele>291.42</ele>
        <time>2014-09-28T09:10:30Z</time>
      </trkpt>
      <trkpt lat="43.64489" lon="3.28129">
        <ele>289.97</ele>
        <time>2014-09-28T09:10:34Z</time>
      </trkpt>
      <trkpt lat="43.6452" lon="3.28157">
        <ele>286.61</ele>
        <time>2014-09-28T09:10:41Z</time>
      </trkpt>
      <trkpt lat="43.64525" lon="3.28161">
        <ele>286.13</ele>
        <time>2014-09-28T09:10:42Z</time>
      </trkpt>
      <trkpt lat="43.64528" lon="3.28188">
        <ele>284.21</ele>
        <time>2014-09-28T09:10:46Z</time>
      </trkpt>
      <trkpt lat="43.6453" lon="3.28204">
        <ele>283.25</ele>
        <time>2014-09-28T09:10:48Z</time>
      </trkpt>
      <trkpt lat="43.64535" lon="3.2822">
        <ele>282.28</ele>
        <time>2014-09-28T09:10:50Z</time>
      </trkpt>
      <trkpt lat="43.64551" lon="3.28261">
        <ele>279.88</ele>
        <time>2014-09-28T09:10:56Z</time>
      </trkpt>
      <trkpt lat="43.64568" lon="3.28303">
        <ele>277</ele>
        <time>2014-09-28T09:11:02Z</time>
      </trkpt>
      <trkpt lat="43.64588" lon="3.2833">
        <ele>274.59</ele>
        <time>2014-09-28T09:11:07Z</time>
      </trkpt>
      <trkpt lat="43.64603" lon="3.28344">
        <ele>273.15</ele>
        <time>2014-09-28T09:11:10Z</time>
      </trkpt>
      <trkpt lat="43.64617" lon="3.28371">
        <ele>270.75</ele>
        <time>2014-09-28T09:11:15Z</time>
      </trkpt>
      <trkpt lat="43.6461" lon="3.28375">
        <ele>269.79</ele>
        <time>2014-09-28T09:11:20Z</time>
      </trkpt>
      <trkpt lat="43.64582" lon="3.28356">
        <ele>266.42</ele>
        <time>2014-09-28T09:11:31Z</time>
      </trkpt>
      <trkpt lat="43.64544" lon="3.28346">
        <ele>263.06</ele>
        <time>2014-09-28T09:11:41Z</time>
      </trkpt>
      <trkpt lat="43.6453" lon="3.2833">
        <ele>262.1</ele>
        <time>2014-09-28T09:11:45Z</time>
      </trkpt>
      <trkpt lat="43.64523" lon="3.28315">
        <ele>261.14</ele>
        <time>2014-09-28T09:11:48Z</time>
      </trkpt>
      <trkpt lat="43.64487" lon="3.28276">
        <ele>257.29</ele>
        <time>2014-09-28T09:11:57Z</time>
      </trkpt>
      <trkpt lat="43.64483" lon="3.28272">
        <ele>256.81</ele>
        <time>2014-09-28T09:11:58Z</time>
      </trkpt>
      <trkpt lat="43.64468" lon="3.28279">
        <ele>254.89</ele>
        <time>2014-09-28T09:12:05Z</time>
      </trkpt>
      <trkpt lat="43.64474" lon="3.28322">
        <ele>253.44</ele>
        <time>2014-09-28T09:12:19Z</time>
      </trkpt>
      <trkpt lat="43.64475" lon="3.28333">
        <ele>252.96</ele>
        <time>2014-09-28T09:12:22Z</time>
      </trkpt>
      <trkpt lat="43.64475" lon="3.28345">
        <ele>252</ele>
        <time>2014-09-28T09:12:33Z</time>
      </trkpt>
      <trkpt lat="43.64475" lon="3.28351">
        <ele>251.52</ele>
        <time>2014-09-28T09:12:36Z</time>
      </trkpt>
      <trkpt lat="43.64474" lon="3.28359">
        <ele>251.04</ele>
        <time>2014-09-28T09:12:47Z</time>
      </trkpt>
      <trkpt lat="43.64474" lon="3.2836">
        <ele>251.52</ele>
        <time>2014-09-28T09:12:52Z</time>
      </trkpt>
      <trkpt lat="43.64473" lon="3.28362">
        <ele>251.52</ele>
        <time>2014-09-28T09:12:54Z</time>
      </trkpt>
      <trkpt lat="43.64474" lon="3.28372">
        <ele>250.56</ele>
        <time>2014-09-28T09:12:58Z</time>
      </trkpt>
      <trkpt lat="43.64476" lon="3.284">
        <ele>249.6</ele>
        <time>2014-09-28T09:13:05Z</time>
      </trkpt>
      <trkpt lat="43.64473" lon="3.28416">
        <ele>249.12</ele>
        <time>2014-09-28T09:13:08Z</time>
      </trkpt>
      <trkpt lat="43.64473" lon="3.28453">
        <ele>246.72</ele>
        <time>2014-09-28T09:13:13Z</time>
      </trkpt>
      <trkpt lat="43.6447" lon="3.28488">
        <ele>245.27</ele>
        <time>2014-09-28T09:13:18Z</time>
      </trkpt>
      <trkpt lat="43.64462" lon="3.28508">
        <ele>243.83</ele>
        <time>2014-09-28T09:13:22Z</time>
      </trkpt>
      <trkpt lat="43.6445" lon="3.28513">
        <ele>242.87</ele>
        <time>2014-09-28T09:13:25Z</time>
      </trkpt>
      <trkpt lat="43.6443" lon="3.28524">
        <ele>240.95</ele>
        <time>2014-09-28T09:13:30Z</time>
      </trkpt>
      <trkpt lat="43.64425" lon="3.2853">
        <ele>240.47</ele>
        <time>2014-09-28T09:13:31Z</time>
      </trkpt>
      <trkpt lat="43.6442" lon="3.28541">
        <ele>239.99</ele>
        <time>2014-09-28T09:13:33Z</time>
      </trkpt>
      <trkpt lat="43.64386" lon="3.28573">
        <ele>237.58</ele>
        <time>2014-09-28T09:13:41Z</time>
      </trkpt>
      <trkpt lat="43.64378" lon="3.28577">
        <ele>236.62</ele>
        <time>2014-09-28T09:13:43Z</time>
      </trkpt>
      <trkpt lat="43.64369" lon="3.2858">
        <ele>236.14</ele>
        <time>2014-09-28T09:13:45Z</time>
      </trkpt>
      <trkpt lat="43.6435" lon="3.28615">
        <ele>234.22</ele>
        <time>2014-09-28T09:13:53Z</time>
      </trkpt>
      <trkpt lat="43.64349" lon="3.28619">
        <ele>233.74</ele>
        <time>2014-09-28T09:14:02Z</time>
      </trkpt>
      <trkpt lat="43.64347" lon="3.28618">
        <ele>233.74</ele>
        <time>2014-09-28T09:14:23Z</time>
      </trkpt>
      <trkpt lat="43.64345" lon="3.2862">
        <ele>233.26</ele>
        <time>2014-09-28T09:14:45Z</time>
      </trkpt>
      <trkpt lat="43.64343" lon="3.28625">
        <ele>233.26</ele>
        <time>2014-09-28T09:15:02Z</time>
      </trkpt>
      <trkpt lat="43.64332" lon="3.28641">
        <ele>231.81</ele>
        <time>2014-09-28T09:15:07Z</time>
      </trkpt>
      <trkpt lat="43.64328" lon="3.28673">
        <ele>230.37</ele>
        <time>2014-09-28T09:15:12Z</time>
      </trkpt>
      <trkpt lat="43.64324" lon="3.28696">
        <ele>229.41</ele>
        <time>2014-09-28T09:15:15Z</time>
      </trkpt>
      <trkpt lat="43.64317" lon="3.28718">
        <ele>227.97</ele>
        <time>2014-09-28T09:15:18Z</time>
      </trkpt>
      <trkpt lat="43.64298" lon="3.28747">
        <ele>226.53</ele>
        <time>2014-09-28T09:15:22Z</time>
      </trkpt>
      <trkpt lat="43.64283" lon="3.28771">
        <ele>224.12</ele>
        <time>2014-09-28T09:15:25Z</time>
      </trkpt>
      <trkpt lat="43.64272" lon="3.28798">
        <ele>222.68</ele>
        <time>2014-09-28T09:15:28Z</time>
      </trkpt>
      <trkpt lat="43.64263" lon="3.28816">
        <ele>221.24</ele>
        <time>2014-09-28T09:15:31Z</time>
      </trkpt>
      <trkpt lat="43.64223" lon="3.28868">
        <ele>218.36</ele>
        <time>2014-09-28T09:15:39Z</time>
      </trkpt>
      <trkpt lat="43.64217" lon="3.28874">
        <ele>217.4</ele>
        <time>2014-09-28T09:15:40Z</time>
      </trkpt>
      <trkpt lat="43.64192" lon="3.28896">
        <ele>215.47</ele>
        <time>2014-09-28T09:15:44Z</time>
      </trkpt>
      <trkpt lat="43.64186" lon="3.28901">
        <ele>213.55</ele>
        <time>2014-09-28T09:15:47Z</time>
      </trkpt>
      <trkpt lat="43.64183" lon="3.28901">
        <ele>213.55</ele>
        <time>2014-09-28T09:16:03Z</time>
      </trkpt>
      <trkpt lat="43.64179" lon="3.28901">
        <ele>213.07</ele>
        <time>2014-09-28T09:16:07Z</time>
      </trkpt>
      <trkpt lat="43.64179" lon="3.28904">
        <ele>213.07</ele>
        <time>2014-09-28T09:16:13Z</time>
      </trkpt>
      <trkpt lat="43.6418" lon="3.28901">
        <ele>213.07</ele>
        <time>2014-09-28T09:16:16Z</time>
      </trkpt>
      <trkpt lat="43.64184" lon="3.28899">
        <ele>214.03</ele>
        <time>2014-09-28T09:16:29Z</time>
      </trkpt>
      <trkpt lat="43.64186" lon="3.28899">
        <ele>214.03</ele>
        <time>2014-09-28T09:16:46Z</time>
      </trkpt>
      <trkpt lat="43.64187" lon="3.28902">
        <ele>213.55</ele>
        <time>2014-09-28T09:16:49Z</time>
      </trkpt>
      <trkpt lat="43.64182" lon="3.2891">
        <ele>212.11</ele>
        <time>2014-09-28T09:16:53Z</time>
      </trkpt>
      <trkpt lat="43.64167" lon="3.28927">
        <ele>208.74</ele>
        <time>2014-09-28T09:16:59Z</time>
      </trkpt>
      <trkpt lat="43.64153" lon="3.28938">
        <ele>206.82</ele>
        <time>2014-09-28T09:17:05Z</time>
      </trkpt>
      <trkpt lat="43.64147" lon="3.28946">
        <ele>205.86</ele>
        <time>2014-09-28T09:17:10Z</time>
      </trkpt>
      <trkpt lat="43.64152" lon="3.28961">
        <ele>204.42</ele>
        <time>2014-09-28T09:17:16Z</time>
      </trkpt>
      <trkpt lat="43.64144" lon="3.28976">
        <ele>205.38</ele>
        <time>2014-09-28T09:17:23Z</time>
      </trkpt>
      <trkpt lat="43.64125" lon="3.2901">
        <ele>207.3</ele>
        <time>2014-09-28T09:17:37Z</time>
      </trkpt>
      <trkpt lat="43.64121" lon="3.29036">
        <ele>207.3</ele>
        <time>2014-09-28T09:17:51Z</time>
      </trkpt>
      <trkpt lat="43.6412" lon="3.29037">
        <ele>207.78</ele>
        <time>2014-09-28T09:17:52Z</time>
      </trkpt>
      <trkpt lat="43.64121" lon="3.29044">
        <ele>208.74</ele>
        <time>2014-09-28T09:17:56Z</time>
      </trkpt>
      <trkpt lat="43.6412" lon="3.2905">
        <ele>208.74</ele>
        <time>2014-09-28T09:18:00Z</time>
      </trkpt>
      <trkpt lat="43.6412" lon="3.29062">
        <ele>209.7</ele>
        <time>2014-09-28T09:18:15Z</time>
      </trkpt>
      <trkpt lat="43.64123" lon="3.29066">
        <ele>210.67</ele>
        <time>2014-09-28T09:18:21Z</time>
      </trkpt>
      <trkpt lat="43.64127" lon="3.29067">
        <ele>211.63</ele>
        <time>2014-09-28T09:18:37Z</time>
      </trkpt>
      <trkpt lat="43.64137" lon="3.2907">
        <ele>212.59</ele>
        <time>2014-09-28T09:18:50Z</time>
      </trkpt>
      <trkpt lat="43.64149" lon="3.2908">
        <ele>213.07</ele>
        <time>2014-09-28T09:19:00Z</time>
      </trkpt>
      <trkpt lat="43.64153" lon="3.29084">
        <ele>213.55</ele>
        <time>2014-09-28T09:19:06Z</time>
      </trkpt>
      <trkpt lat="43.64163" lon="3.29098">
        <ele>215.47</ele>
        <time>2014-09-28T09:19:19Z</time>
      </trkpt>
      <trkpt lat="43.64168" lon="3.2911">
        <ele>217.88</ele>
        <time>2014-09-28T09:19:33Z</time>
      </trkpt>
      <trkpt lat="43.6417" lon="3.29119">
        <ele>219.32</ele>
        <time>2014-09-28T09:19:44Z</time>
      </trkpt>
      <trkpt lat="43.64173" lon="3.29134">
        <ele>221.24</ele>
        <time>2014-09-28T09:19:57Z</time>
      </trkpt>
      <trkpt lat="43.64177" lon="3.29148">
        <ele>223.16</ele>
        <time>2014-09-28T09:20:11Z</time>
      </trkpt>
      <trkpt lat="43.64181" lon="3.29158">
        <ele>225.09</ele>
        <time>2014-09-28T09:20:25Z</time>
      </trkpt>
      <trkpt lat="43.64185" lon="3.29163">
        <ele>225.57</ele>
        <time>2014-09-28T09:20:32Z</time>
      </trkpt>
      <trkpt lat="43.6419" lon="3.29175">
        <ele>227.01</ele>
        <time>2014-09-28T09:20:46Z</time>
      </trkpt>
      <trkpt lat="43.64193" lon="3.29185">
        <ele>228.93</ele>
        <time>2014-09-28T09:20:59Z</time>
      </trkpt>
      <trkpt lat="43.64197" lon="3.29191">
        <ele>230.37</ele>
        <time>2014-09-28T09:21:07Z</time>
      </trkpt>
      <trkpt lat="43.64204" lon="3.29204">
        <ele>232.3</ele>
        <time>2014-09-28T09:21:22Z</time>
      </trkpt>
      <trkpt lat="43.6421" lon="3.29216">
        <ele>234.22</ele>
        <time>2014-09-28T09:21:37Z</time>
      </trkpt>
      <trkpt lat="43.64217" lon="3.29217">
        <ele>235.18</ele>
        <time>2014-09-28T09:21:47Z</time>
      </trkpt>
      <trkpt lat="43.64225" lon="3.29214">
        <ele>236.14</ele>
        <time>2014-09-28T09:22:01Z</time>
      </trkpt>
      <trkpt lat="43.6424" lon="3.29211">
        <ele>237.58</ele>
        <time>2014-09-28T09:22:17Z</time>
      </trkpt>
      <trkpt lat="43.64242" lon="3.29207">
        <ele>237.58</ele>
        <time>2014-09-28T09:22:27Z</time>
      </trkpt>
      <trkpt lat="43.64252" lon="3.29205">
        <ele>238.06</ele>
        <time>2014-09-28T09:22:37Z</time>
      </trkpt>
      <trkpt lat="43.64259" lon="3.29206">
        <ele>238.54</ele>
        <time>2014-09-28T09:22:41Z</time>
      </trkpt>
      <trkpt lat="43.64262" lon="3.29209">
        <ele>239.02</ele>
        <time>2014-09-28T09:22:45Z</time>
      </trkpt>
      <trkpt lat="43.6427" lon="3.29234">
        <ele>240.95</ele>
        <time>2014-09-28T09:22:58Z</time>
      </trkpt>
      <trkpt lat="43.64271" lon="3.29235">
        <ele>241.43</ele>
        <time>2014-09-28T09:22:59Z</time>
      </trkpt>
      <trkpt lat="43.64281" lon="3.29261">
        <ele>243.35</ele>
        <time>2014-09-28T09:23:14Z</time>
      </trkpt>
      <trkpt lat="43.64293" lon="3.29287">
        <ele>245.75</ele>
        <time>2014-09-28T09:23:28Z</time>
      </trkpt>
      <trkpt lat="43.64302" lon="3.293">
        <ele>247.68</ele>
        <time>2014-09-28T09:23:42Z</time>
      </trkpt>
      <trkpt lat="43.64307" lon="3.29304">
        <ele>249.12</ele>
        <time>2014-09-28T09:23:52Z</time>
      </trkpt>
      <trkpt lat="43.64313" lon="3.29304">
        <ele>251.04</ele>
        <time>2014-09-28T09:24:06Z</time>
      </trkpt>
      <trkpt lat="43.64313" lon="3.29305">
        <ele>251.04</ele>
        <time>2014-09-28T09:24:24Z</time>
      </trkpt>
      <trkpt lat="43.64313" lon="3.29303">
        <ele>251.04</ele>
        <time>2014-09-28T09:24:40Z</time>
      </trkpt>
      <trkpt lat="43.64306" lon="3.2927">
        <ele>252.48</ele>
        <time>2014-09-28T09:24:55Z</time>
      </trkpt>
      <trkpt lat="43.64312" lon="3.29233">
        <ele>254.41</ele>
        <time>2014-09-28T09:25:08Z</time>
      </trkpt>
      <trkpt lat="43.64316" lon="3.29193">
        <ele>256.33</ele>
        <time>2014-09-28T09:25:22Z</time>
      </trkpt>
      <trkpt lat="43.6433" lon="3.29148">
        <ele>258.73</ele>
        <time>2014-09-28T09:25:37Z</time>
      </trkpt>
      <trkpt lat="43.64344" lon="3.29115">
        <ele>260.17</ele>
        <time>2014-09-28T09:25:50Z</time>
      </trkpt>
      <trkpt lat="43.64357" lon="3.2908">
        <ele>262.1</ele>
        <time>2014-09-28T09:26:03Z</time>
      </trkpt>
      <trkpt lat="43.64379" lon="3.29043">
        <ele>264.5</ele>
        <time>2014-09-28T09:26:19Z</time>
      </trkpt>
      <trkpt lat="43.64403" lon="3.29017">
        <ele>266.42</ele>
        <time>2014-09-28T09:26:33Z</time>
      </trkpt>
      <trkpt lat="43.64429" lon="3.28994">
        <ele>268.83</ele>
        <time>2014-09-28T09:26:47Z</time>
      </trkpt>
      <trkpt lat="43.64437" lon="3.28957">
        <ele>270.27</ele>
        <time>2014-09-28T09:27:00Z</time>
      </trkpt>
      <trkpt lat="43.64452" lon="3.2892">
        <ele>272.19</ele>
        <time>2014-09-28T09:27:15Z</time>
      </trkpt>
      <trkpt lat="43.64475" lon="3.28897">
        <ele>273.63</ele>
        <time>2014-09-28T09:27:28Z</time>
      </trkpt>
      <trkpt lat="43.64496" lon="3.2887">
        <ele>275.56</ele>
        <time>2014-09-28T09:27:43Z</time>
      </trkpt>
      <trkpt lat="43.64517" lon="3.28843">
        <ele>277.48</ele>
        <time>2014-09-28T09:27:56Z</time>
      </trkpt>
      <trkpt lat="43.64531" lon="3.28806">
        <ele>278.44</ele>
        <time>2014-09-28T09:28:09Z</time>
      </trkpt>
      <trkpt lat="43.64549" lon="3.2877">
        <ele>280.84</ele>
        <time>2014-09-28T09:28:24Z</time>
      </trkpt>
      <trkpt lat="43.64561" lon="3.28732">
        <ele>282.77</ele>
        <time>2014-09-28T09:28:38Z</time>
      </trkpt>
      <trkpt lat="43.6459" lon="3.28709">
        <ele>285.65</ele>
        <time>2014-09-28T09:28:54Z</time>
      </trkpt>
      <trkpt lat="43.64621" lon="3.28696">
        <ele>288.05</ele>
        <time>2014-09-28T09:29:10Z</time>
      </trkpt>
      <trkpt lat="43.64648" lon="3.2868">
        <ele>289.49</ele>
        <time>2014-09-28T09:29:24Z</time>
      </trkpt>
      <trkpt lat="43.64672" lon="3.28677">
        <ele>291.42</ele>
        <time>2014-09-28T09:29:38Z</time>
      </trkpt>
      <trkpt lat="43.64674" lon="3.28678">
        <ele>291.9</ele>
        <time>2014-09-28T09:29:40Z</time>
      </trkpt>
      <trkpt lat="43.6467" lon="3.28685">
        <ele>292.38</ele>
        <time>2014-09-28T09:29:44Z</time>
      </trkpt>
      <trkpt lat="43.64662" lon="3.2869">
        <ele>293.34</ele>
        <time>2014-09-28T09:29:50Z</time>
      </trkpt>
      <trkpt lat="43.64642" lon="3.28702">
        <ele>294.78</ele>
        <time>2014-09-28T09:30:02Z</time>
      </trkpt>
      <trkpt lat="43.64614" lon="3.28727">
        <ele>295.74</ele>
        <time>2014-09-28T09:30:15Z</time>
      </trkpt>
      <trkpt lat="43.64597" lon="3.28769">
        <ele>296.22</ele>
        <time>2014-09-28T09:30:27Z</time>
      </trkpt>
      <trkpt lat="43.64591" lon="3.2881">
        <ele>298.15</ele>
        <time>2014-09-28T09:30:40Z</time>
      </trkpt>
      <trkpt lat="43.64582" lon="3.28842">
        <ele>299.59</ele>
        <time>2014-09-28T09:30:52Z</time>
      </trkpt>
      <trkpt lat="43.64578" lon="3.28853">
        <ele>300.55</ele>
        <time>2014-09-28T09:30:58Z</time>
      </trkpt>
      <trkpt lat="43.64574" lon="3.28896">
        <ele>302.95</ele>
        <time>2014-09-28T09:31:14Z</time>
      </trkpt>
      <trkpt lat="43.64567" lon="3.28927">
        <ele>304.88</ele>
        <time>2014-09-28T09:31:26Z</time>
      </trkpt>
      <trkpt lat="43.64558" lon="3.28943">
        <ele>306.32</ele>
        <time>2014-09-28T09:31:36Z</time>
      </trkpt>
      <trkpt lat="43.64552" lon="3.28981">
        <ele>309.68</ele>
        <time>2014-09-28T09:31:54Z</time>
      </trkpt>
      <trkpt lat="43.64546" lon="3.29017">
        <ele>312.09</ele>
        <time>2014-09-28T09:32:08Z</time>
      </trkpt>
      <trkpt lat="43.64536" lon="3.2905">
        <ele>314.49</ele>
        <time>2014-09-28T09:32:23Z</time>
      </trkpt>
      <trkpt lat="43.64531" lon="3.29072">
        <ele>315.93</ele>
        <time>2014-09-28T09:32:33Z</time>
      </trkpt>
      <trkpt lat="43.64519" lon="3.29108">
        <ele>317.85</ele>
        <time>2014-09-28T09:32:49Z</time>
      </trkpt>
      <trkpt lat="43.64509" lon="3.2913">
        <ele>320.26</ele>
        <time>2014-09-28T09:33:02Z</time>
      </trkpt>
      <trkpt lat="43.64502" lon="3.2917">
        <ele>322.18</ele>
        <time>2014-09-28T09:33:20Z</time>
      </trkpt>
      <trkpt lat="43.64504" lon="3.29184">
        <ele>323.14</ele>
        <time>2014-09-28T09:33:27Z</time>
      </trkpt>
      <trkpt lat="43.64505" lon="3.29195">
        <ele>324.1</ele>
        <time>2014-09-28T09:33:33Z</time>
      </trkpt>
      <trkpt lat="43.64507" lon="3.29218">
        <ele>326.02</ele>
        <time>2014-09-28T09:33:45Z</time>
      </trkpt>
      <trkpt lat="43.64512" lon="3.29252">
        <ele>327.95</ele>
        <time>2014-09-28T09:34:03Z</time>
      </trkpt>
      <trkpt lat="43.64522" lon="3.29279">
        <ele>330.83</ele>
        <time>2014-09-28T09:34:18Z</time>
      </trkpt>
      <trkpt lat="43.64533" lon="3.29294">
        <ele>331.79</ele>
        <time>2014-09-28T09:34:28Z</time>
      </trkpt>
      <trkpt lat="43.64549" lon="3.2931">
        <ele>334.2</ele>
        <time>2014-09-28T09:34:44Z</time>
      </trkpt>
      <trkpt lat="43.64557" lon="3.2932">
        <ele>335.16</ele>
        <time>2014-09-28T09:34:53Z</time>
      </trkpt>
      <trkpt lat="43.64567" lon="3.29331">
        <ele>336.6</ele>
        <time>2014-09-28T09:35:03Z</time>
      </trkpt>
      <trkpt lat="43.64572" lon="3.29332">
        <ele>337.08</ele>
        <time>2014-09-28T09:35:07Z</time>
      </trkpt>
      <trkpt lat="43.6458" lon="3.29337">
        <ele>337.56</ele>
        <time>2014-09-28T09:35:13Z</time>
      </trkpt>
      <trkpt lat="43.64597" lon="3.29345">
        <ele>339</ele>
        <time>2014-09-28T09:35:28Z</time>
      </trkpt>
      <trkpt lat="43.64616" lon="3.29351">
        <ele>340.44</ele>
        <time>2014-09-28T09:35:41Z</time>
      </trkpt>
      <trkpt lat="43.64639" lon="3.29354">
        <ele>342.37</ele>
        <time>2014-09-28T09:35:57Z</time>
      </trkpt>
      <trkpt lat="43.64649" lon="3.29355">
        <ele>343.81</ele>
        <time>2014-09-28T09:36:05Z</time>
      </trkpt>
      <trkpt lat="43.6467" lon="3.29359">
        <ele>345.25</ele>
        <time>2014-09-28T09:36:19Z</time>
      </trkpt>
      <trkpt lat="43.64676" lon="3.29359">
        <ele>345.73</ele>
        <time>2014-09-28T09:36:23Z</time>
      </trkpt>
      <trkpt lat="43.64703" lon="3.29357">
        <ele>347.65</ele>
        <time>2014-09-28T09:36:41Z</time>
      </trkpt>
      <trkpt lat="43.64718" lon="3.29352">
        <ele>349.1</ele>
        <time>2014-09-28T09:36:51Z</time>
      </trkpt>
      <trkpt lat="43.64738" lon="3.29342">
        <ele>351.02</ele>
        <time>2014-09-28T09:37:07Z</time>
      </trkpt>
      <trkpt lat="43.64743" lon="3.29341">
        <ele>352.46</ele>
        <time>2014-09-28T09:37:12Z</time>
      </trkpt>
      <trkpt lat="43.64755" lon="3.29349">
        <ele>353.9</ele>
        <time>2014-09-28T09:37:21Z</time>
      </trkpt>
      <trkpt lat="43.64758" lon="3.2935">
        <ele>354.38</ele>
        <time>2014-09-28T09:37:24Z</time>
      </trkpt>
      <trkpt lat="43.64774" lon="3.29362">
        <ele>356.31</ele>
        <time>2014-09-28T09:37:38Z</time>
      </trkpt>
      <trkpt lat="43.64789" lon="3.29372">
        <ele>358.71</ele>
        <time>2014-09-28T09:37:52Z</time>
      </trkpt>
      <trkpt lat="43.64799" lon="3.29378">
        <ele>360.15</ele>
        <time>2014-09-28T09:38:01Z</time>
      </trkpt>
      <trkpt lat="43.64806" lon="3.29385">
        <ele>361.59</ele>
        <time>2014-09-28T09:38:09Z</time>
      </trkpt>
      <trkpt lat="43.64814" lon="3.29388">
        <ele>363.04</ele>
        <time>2014-09-28T09:38:16Z</time>
      </trkpt>
      <trkpt lat="43.64826" lon="3.29396">
        <ele>364</ele>
        <time>2014-09-28T09:38:25Z</time>
      </trkpt>
      <trkpt lat="43.64847" lon="3.29417">
        <ele>365.44</ele>
        <time>2014-09-28T09:38:40Z</time>
      </trkpt>
      <trkpt lat="43.64867" lon="3.29434">
        <ele>367.36</ele>
        <time>2014-09-28T09:38:53Z</time>
      </trkpt>
      <trkpt lat="43.64868" lon="3.29435">
        <ele>366.88</ele>
        <time>2014-09-28T09:38:54Z</time>
      </trkpt>
      <trkpt lat="43.64875" lon="3.29443">
        <ele>367.84</ele>
        <time>2014-09-28T09:39:00Z</time>
      </trkpt>
      <trkpt lat="43.64894" lon="3.29467">
        <ele>369.28</ele>
        <time>2014-09-28T09:39:13Z</time>
      </trkpt>
      <trkpt lat="43.64922" lon="3.29498">
        <ele>371.69</ele>
        <time>2014-09-28T09:39:27Z</time>
      </trkpt>
      <trkpt lat="43.6495" lon="3.29527">
        <ele>372.17</ele>
        <time>2014-09-28T09:39:41Z</time>
      </trkpt>
      <trkpt lat="43.64978" lon="3.29529">
        <ele>374.09</ele>
        <time>2014-09-28T09:39:55Z</time>
      </trkpt>
      <trkpt lat="43.64985" lon="3.29526">
        <ele>374.57</ele>
        <time>2014-09-28T09:39:59Z</time>
      </trkpt>
      <trkpt lat="43.64999" lon="3.29491">
        <ele>376.01</ele>
        <time>2014-09-28T09:40:15Z</time>
      </trkpt>
      <trkpt lat="43.6501" lon="3.29459">
        <ele>377.45</ele>
        <time>2014-09-28T09:40:29Z</time>
      </trkpt>
      <trkpt lat="43.65026" lon="3.29412">
        <ele>380.34</ele>
        <time>2014-09-28T09:40:49Z</time>
      </trkpt>
      <trkpt lat="43.65049" lon="3.29371">
        <ele>381.3</ele>
        <time>2014-09-28T09:41:07Z</time>
      </trkpt>
      <trkpt lat="43.65079" lon="3.29342">
        <ele>382.74</ele>
        <time>2014-09-28T09:41:22Z</time>
      </trkpt>
      <trkpt lat="43.65111" lon="3.29307">
        <ele>384.66</ele>
        <time>2014-09-28T09:41:39Z</time>
      </trkpt>
      <trkpt lat="43.65145" lon="3.29277">
        <ele>385.15</ele>
        <time>2014-09-28T09:41:52Z</time>
      </trkpt>
      <trkpt lat="43.65164" lon="3.29271">
        <ele>384.66</ele>
        <time>2014-09-28T09:41:57Z</time>
      </trkpt>
      <trkpt lat="43.65203" lon="3.29239">
        <ele>383.7</ele>
        <time>2014-09-28T09:42:11Z</time>
      </trkpt>
      <trkpt lat="43.65216" lon="3.2919">
        <ele>385.15</ele>
        <time>2014-09-28T09:42:24Z</time>
      </trkpt>
      <trkpt lat="43.65226" lon="3.29125">
        <ele>386.59</ele>
        <time>2014-09-28T09:42:41Z</time>
      </trkpt>
      <trkpt lat="43.65232" lon="3.29082">
        <ele>388.51</ele>
        <time>2014-09-28T09:42:56Z</time>
      </trkpt>
      <trkpt lat="43.65238" lon="3.29052">
        <ele>389.95</ele>
        <time>2014-09-28T09:43:08Z</time>
      </trkpt>
      <trkpt lat="43.65246" lon="3.29001">
        <ele>391.39</ele>
        <time>2014-09-28T09:43:25Z</time>
      </trkpt>
      <trkpt lat="43.65252" lon="3.28956">
        <ele>393.32</ele>
        <time>2014-09-28T09:43:40Z</time>
      </trkpt>
      <trkpt lat="43.65264" lon="3.28925">
        <ele>395.72</ele>
        <time>2014-09-28T09:43:55Z</time>
      </trkpt>
      <trkpt lat="43.65293" lon="3.289">
        <ele>394.28</ele>
        <time>2014-09-28T09:44:06Z</time>
      </trkpt>
      <trkpt lat="43.65314" lon="3.28863">
        <ele>395.72</ele>
        <time>2014-09-28T09:44:17Z</time>
      </trkpt>
      <trkpt lat="43.6534" lon="3.288">
        <ele>397.16</ele>
        <time>2014-09-28T09:44:34Z</time>
      </trkpt>
      <trkpt lat="43.65365" lon="3.28747">
        <ele>396.68</ele>
        <time>2014-09-28T09:44:47Z</time>
      </trkpt>
      <trkpt lat="43.65376" lon="3.28692">
        <ele>399.57</ele>
        <time>2014-09-28T09:45:03Z</time>
      </trkpt>
      <trkpt lat="43.65382" lon="3.28646">
        <ele>401.97</ele>
        <time>2014-09-28T09:45:18Z</time>
      </trkpt>
      <trkpt lat="43.65378" lon="3.28591">
        <ele>403.41</ele>
        <time>2014-09-28T09:45:35Z</time>
      </trkpt>
      <trkpt lat="43.65381" lon="3.28532">
        <ele>404.85</ele>
        <time>2014-09-28T09:45:50Z</time>
      </trkpt>
      <trkpt lat="43.65384" lon="3.28468">
        <ele>404.85</ele>
        <time>2014-09-28T09:46:05Z</time>
      </trkpt>
      <trkpt lat="43.654" lon="3.28399">
        <ele>404.85</ele>
        <time>2014-09-28T09:46:19Z</time>
      </trkpt>
      <trkpt lat="43.65404" lon="3.28361">
        <ele>406.77</ele>
        <time>2014-09-28T09:46:31Z</time>
      </trkpt>
      <trkpt lat="43.65405" lon="3.28337">
        <ele>408.22</ele>
        <time>2014-09-28T09:46:41Z</time>
      </trkpt>
      <trkpt lat="43.65407" lon="3.28323">
        <ele>409.18</ele>
        <time>2014-09-28T09:46:47Z</time>
      </trkpt>
      <trkpt lat="43.65416" lon="3.28275">
        <ele>410.62</ele>
        <time>2014-09-28T09:47:01Z</time>
      </trkpt>
      <trkpt lat="43.65425" lon="3.28235">
        <ele>413.02</ele>
        <time>2014-09-28T09:47:15Z</time>
      </trkpt>
      <trkpt lat="43.65434" lon="3.28186">
        <ele>413.98</ele>
        <time>2014-09-28T09:47:29Z</time>
      </trkpt>
      <trkpt lat="43.65435" lon="3.28183">
        <ele>413.98</ele>
        <time>2014-09-28T09:47:30Z</time>
      </trkpt>
      <trkpt lat="43.6544" lon="3.28175">
        <ele>414.47</ele>
        <time>2014-09-28T09:47:34Z</time>
      </trkpt>
      <trkpt lat="43.6546" lon="3.28153">
        <ele>414.47</ele>
        <time>2014-09-28T09:47:46Z</time>
      </trkpt>
      <trkpt lat="43.6547" lon="3.28145">
        <ele>413.98</ele>
        <time>2014-09-28T09:47:54Z</time>
      </trkpt>
      <trkpt lat="43.65478" lon="3.28147">
        <ele>413.02</ele>
        <time>2014-09-28T09:48:07Z</time>
      </trkpt>
      <trkpt lat="43.65479" lon="3.28148">
        <ele>412.54</ele>
        <time>2014-09-28T09:48:21Z</time>
      </trkpt>
      <trkpt lat="43.65479" lon="3.28148">
        <ele>412.54</ele>
        <time>2014-09-28T09:48:54Z</time>
      </trkpt>
      <trkpt lat="43.6548" lon="3.28149">
        <ele>412.54</ele>
        <time>2014-09-28T09:49:13Z</time>
      </trkpt>
      <trkpt lat="43.65481" lon="3.28149">
        <ele>412.54</ele>
        <time>2014-09-28T09:49:33Z</time>
      </trkpt>
      <trkpt lat="43.65487" lon="3.28151">
        <ele>411.1</ele>
        <time>2014-09-28T09:49:44Z</time>
      </trkpt>
      <trkpt lat="43.65498" lon="3.28137">
        <ele>407.74</ele>
        <time>2014-09-28T09:49:52Z</time>
      </trkpt>
      <trkpt lat="43.655" lon="3.28135">
        <ele>407.26</ele>
        <time>2014-09-28T09:49:53Z</time>
      </trkpt>
      <trkpt lat="43.65501" lon="3.28136">
        <ele>405.81</ele>
        <time>2014-09-28T09:49:54Z</time>
      </trkpt>
      <trkpt lat="43.6551" lon="3.28148">
        <ele>402.45</ele>
        <time>2014-09-28T09:49:59Z</time>
      </trkpt>
      <trkpt lat="43.65517" lon="3.28157">
        <ele>398.12</ele>
        <time>2014-09-28T09:50:03Z</time>
      </trkpt>
      <trkpt lat="43.65519" lon="3.28159">
        <ele>397.16</ele>
        <time>2014-09-28T09:50:04Z</time>
      </trkpt>
      <trkpt lat="43.65523" lon="3.28164">
        <ele>393.32</ele>
        <time>2014-09-28T09:50:06Z</time>
      </trkpt>
      <trkpt lat="43.6553" lon="3.28181">
        <ele>389.95</ele>
        <time>2014-09-28T09:50:10Z</time>
      </trkpt>
      <trkpt lat="43.65541" lon="3.28214">
        <ele>387.07</ele>
        <time>2014-09-28T09:50:21Z</time>
      </trkpt>
      <trkpt lat="43.65544" lon="3.28219">
        <ele>385.63</ele>
        <time>2014-09-28T09:50:22Z</time>
      </trkpt>
      <trkpt lat="43.65547" lon="3.28223">
        <ele>384.66</ele>
        <time>2014-09-28T09:50:23Z</time>
      </trkpt>
      <trkpt lat="43.65549" lon="3.28246">
        <ele>382.26</ele>
        <time>2014-09-28T09:50:27Z</time>
      </trkpt>
      <trkpt lat="43.65549" lon="3.28252">
        <ele>381.78</ele>
        <time>2014-09-28T09:50:29Z</time>
      </trkpt>
      <trkpt lat="43.6555" lon="3.28256">
        <ele>380.82</ele>
        <time>2014-09-28T09:50:31Z</time>
      </trkpt>
      <trkpt lat="43.65546" lon="3.28256">
        <ele>380.82</ele>
        <time>2014-09-28T09:50:44Z</time>
      </trkpt>
      <trkpt lat="43.65546" lon="3.28254">
        <ele>381.3</ele>
        <time>2014-09-28T09:51:12Z</time>
      </trkpt>
      <trkpt lat="43.65545" lon="3.28254">
        <ele>381.78</ele>
        <time>2014-09-28T09:51:32Z</time>
      </trkpt>
      <trkpt lat="43.65546" lon="3.28255">
        <ele>381.78</ele>
        <time>2014-09-28T09:51:41Z</time>
      </trkpt>
      <trkpt lat="43.65552" lon="3.28271">
        <ele>377.45</ele>
        <time>2014-09-28T09:51:47Z</time>
      </trkpt>
      <trkpt lat="43.65554" lon="3.28295">
        <ele>373.13</ele>
        <time>2014-09-28T09:51:54Z</time>
      </trkpt>
      <trkpt lat="43.65554" lon="3.28299">
        <ele>372.17</ele>
        <time>2014-09-28T09:51:55Z</time>
      </trkpt>
      <trkpt lat="43.65549" lon="3.28323">
        <ele>370.73</ele>
        <time>2014-09-28T09:52:00Z</time>
      </trkpt>
      <trkpt lat="43.65546" lon="3.28352">
        <ele>367.36</ele>
        <time>2014-09-28T09:52:05Z</time>
      </trkpt>
      <trkpt lat="43.65546" lon="3.28374">
        <ele>364</ele>
        <time>2014-09-28T09:52:11Z</time>
      </trkpt>
      <trkpt lat="43.65548" lon="3.28373">
        <ele>363.04</ele>
        <time>2014-09-28T09:52:13Z</time>
      </trkpt>
      <trkpt lat="43.6555" lon="3.28383">
        <ele>359.67</ele>
        <time>2014-09-28T09:52:21Z</time>
      </trkpt>
      <trkpt lat="43.6555" lon="3.28389">
        <ele>359.19</ele>
        <time>2014-09-28T09:52:22Z</time>
      </trkpt>
      <trkpt lat="43.65545" lon="3.28428">
        <ele>357.75</ele>
        <time>2014-09-28T09:52:32Z</time>
      </trkpt>
      <trkpt lat="43.65553" lon="3.28451">
        <ele>354.86</ele>
        <time>2014-09-28T09:52:42Z</time>
      </trkpt>
      <trkpt lat="43.65559" lon="3.28464">
        <ele>352.94</ele>
        <time>2014-09-28T09:52:55Z</time>
      </trkpt>
      <trkpt lat="43.65559" lon="3.28466">
        <ele>352.94</ele>
        <time>2014-09-28T09:52:56Z</time>
      </trkpt>
      <trkpt lat="43.65561" lon="3.28491">
        <ele>349.58</ele>
        <time>2014-09-28T09:53:05Z</time>
      </trkpt>
      <trkpt lat="43.65564" lon="3.28514">
        <ele>346.21</ele>
        <time>2014-09-28T09:53:11Z</time>
      </trkpt>
      <trkpt lat="43.65566" lon="3.28534">
        <ele>342.85</ele>
        <time>2014-09-28T09:53:16Z</time>
      </trkpt>
      <trkpt lat="43.6557" lon="3.28554">
        <ele>339.96</ele>
        <time>2014-09-28T09:53:22Z</time>
      </trkpt>
      <trkpt lat="43.6557" lon="3.28555">
        <ele>339.48</ele>
        <time>2014-09-28T09:53:23Z</time>
      </trkpt>
      <trkpt lat="43.65573" lon="3.28561">
        <ele>338.52</ele>
        <time>2014-09-28T09:53:26Z</time>
      </trkpt>
      <trkpt lat="43.65576" lon="3.28575">
        <ele>336.12</ele>
        <time>2014-09-28T09:53:30Z</time>
      </trkpt>
      <trkpt lat="43.65581" lon="3.28593">
        <ele>334.2</ele>
        <time>2014-09-28T09:53:42Z</time>
      </trkpt>
      <trkpt lat="43.65581" lon="3.28595">
        <ele>334.2</ele>
        <time>2014-09-28T09:53:45Z</time>
      </trkpt>
      <trkpt lat="43.65584" lon="3.28616">
        <ele>330.83</ele>
        <time>2014-09-28T09:53:54Z</time>
      </trkpt>
      <trkpt lat="43.65586" lon="3.28639">
        <ele>327.95</ele>
        <time>2014-09-28T09:54:06Z</time>
      </trkpt>
      <trkpt lat="43.65585" lon="3.28646">
        <ele>326.5</ele>
        <time>2014-09-28T09:54:11Z</time>
      </trkpt>
      <trkpt lat="43.65582" lon="3.28661">
        <ele>323.14</ele>
        <time>2014-09-28T09:54:21Z</time>
      </trkpt>
      <trkpt lat="43.65584" lon="3.28669">
        <ele>321.7</ele>
        <time>2014-09-28T09:54:27Z</time>
      </trkpt>
      <trkpt lat="43.65587" lon="3.28677">
        <ele>320.26</ele>
        <time>2014-09-28T09:54:41Z</time>
      </trkpt>
      <trkpt lat="43.65593" lon="3.28686">
        <ele>317.37</ele>
        <time>2014-09-28T09:54:57Z</time>
      </trkpt>
      <trkpt lat="43.65595" lon="3.28704">
        <ele>314.97</ele>
        <time>2014-09-28T09:55:07Z</time>
      </trkpt>
      <trkpt lat="43.65597" lon="3.28721">
        <ele>311.12</ele>
        <time>2014-09-28T09:55:15Z</time>
      </trkpt>
      <trkpt lat="43.65598" lon="3.28731">
        <ele>309.68</ele>
        <time>2014-09-28T09:55:17Z</time>
      </trkpt>
      <trkpt lat="43.65601" lon="3.28753">
        <ele>306.32</ele>
        <time>2014-09-28T09:55:21Z</time>
      </trkpt>
      <trkpt lat="43.65605" lon="3.28775">
        <ele>303.43</ele>
        <time>2014-09-28T09:55:26Z</time>
      </trkpt>
      <trkpt lat="43.65604" lon="3.28794">
        <ele>301.99</ele>
        <time>2014-09-28T09:55:32Z</time>
      </trkpt>
      <trkpt lat="43.65606" lon="3.28827">
        <ele>298.63</ele>
        <time>2014-09-28T09:55:41Z</time>
      </trkpt>
      <trkpt lat="43.65607" lon="3.28844">
        <ele>295.26</ele>
        <time>2014-09-28T09:55:48Z</time>
      </trkpt>
      <trkpt lat="43.65607" lon="3.28854">
        <ele>292.86</ele>
        <time>2014-09-28T09:55:51Z</time>
      </trkpt>
      <trkpt lat="43.65606" lon="3.28866">
        <ele>291.42</ele>
        <time>2014-09-28T09:55:54Z</time>
      </trkpt>
      <trkpt lat="43.65609" lon="3.28891">
        <ele>288.53</ele>
        <time>2014-09-28T09:56:00Z</time>
      </trkpt>
      <trkpt lat="43.65613" lon="3.28912">
        <ele>285.65</ele>
        <time>2014-09-28T09:56:06Z</time>
      </trkpt>
      <trkpt lat="43.65619" lon="3.28925">
        <ele>282.77</ele>
        <time>2014-09-28T09:56:13Z</time>
      </trkpt>
      <trkpt lat="43.6562" lon="3.28943">
        <ele>279.4</ele>
        <time>2014-09-28T09:56:24Z</time>
      </trkpt>
      <trkpt lat="43.6562" lon="3.28948">
        <ele>279.4</ele>
        <time>2014-09-28T09:56:31Z</time>
      </trkpt>
      <trkpt lat="43.65617" lon="3.28959">
        <ele>277</ele>
        <time>2014-09-28T09:56:44Z</time>
      </trkpt>
      <trkpt lat="43.65616" lon="3.28965">
        <ele>275.56</ele>
        <time>2014-09-28T09:56:59Z</time>
      </trkpt>
      <trkpt lat="43.65616" lon="3.28967">
        <ele>275.56</ele>
        <time>2014-09-28T09:57:00Z</time>
      </trkpt>
      <trkpt lat="43.65611" lon="3.28983">
        <ele>272.67</ele>
        <time>2014-09-28T09:57:12Z</time>
      </trkpt>
      <trkpt lat="43.65612" lon="3.28985">
        <ele>272.19</ele>
        <time>2014-09-28T09:57:14Z</time>
      </trkpt>
      <trkpt lat="43.65617" lon="3.28996">
        <ele>270.27</ele>
        <time>2014-09-28T09:57:27Z</time>
      </trkpt>
      <trkpt lat="43.65618" lon="3.29">
        <ele>269.31</ele>
        <time>2014-09-28T09:57:31Z</time>
      </trkpt>
      <trkpt lat="43.65615" lon="3.29019">
        <ele>266.9</ele>
        <time>2014-09-28T09:57:38Z</time>
      </trkpt>
      <trkpt lat="43.65617" lon="3.29027">
        <ele>264.5</ele>
        <time>2014-09-28T09:57:41Z</time>
      </trkpt>
      <trkpt lat="43.65623" lon="3.29043">
        <ele>261.14</ele>
        <time>2014-09-28T09:57:46Z</time>
      </trkpt>
      <trkpt lat="43.65624" lon="3.29048">
        <ele>260.17</ele>
        <time>2014-09-28T09:57:48Z</time>
      </trkpt>
      <trkpt lat="43.65626" lon="3.2907">
        <ele>256.81</ele>
        <time>2014-09-28T09:57:53Z</time>
      </trkpt>
      <trkpt lat="43.65622" lon="3.29086">
        <ele>255.37</ele>
        <time>2014-09-28T09:57:58Z</time>
      </trkpt>
      <trkpt lat="43.65612" lon="3.29106">
        <ele>253.93</ele>
        <time>2014-09-28T09:58:07Z</time>
      </trkpt>
      <trkpt lat="43.65612" lon="3.29106">
        <ele>253.93</ele>
        <time>2014-09-28T09:58:09Z</time>
      </trkpt>
      <trkpt lat="43.65625" lon="3.29126">
        <ele>250.08</ele>
        <time>2014-09-28T09:58:17Z</time>
      </trkpt>
      <trkpt lat="43.65626" lon="3.2913">
        <ele>250.08</ele>
        <time>2014-09-28T09:58:18Z</time>
      </trkpt>
      <trkpt lat="43.65629" lon="3.29141">
        <ele>248.16</ele>
        <time>2014-09-28T09:58:20Z</time>
      </trkpt>
      <trkpt lat="43.6563" lon="3.2917">
        <ele>244.31</ele>
        <time>2014-09-28T09:58:28Z</time>
      </trkpt>
      <trkpt lat="43.65631" lon="3.29173">
        <ele>244.31</ele>
        <time>2014-09-28T09:58:29Z</time>
      </trkpt>
      <trkpt lat="43.65633" lon="3.29177">
        <ele>244.79</ele>
        <time>2014-09-28T09:58:31Z</time>
      </trkpt>
      <trkpt lat="43.65637" lon="3.29209">
        <ele>245.75</ele>
        <time>2014-09-28T09:58:41Z</time>
      </trkpt>
      <trkpt lat="43.65638" lon="3.29214">
        <ele>246.23</ele>
        <time>2014-09-28T09:58:42Z</time>
      </trkpt>
      <trkpt lat="43.65638" lon="3.29234">
        <ele>247.68</ele>
        <time>2014-09-28T09:58:53Z</time>
      </trkpt>
      <trkpt lat="43.65641" lon="3.29241">
        <ele>247.2</ele>
        <time>2014-09-28T09:59:00Z</time>
      </trkpt>
      <trkpt lat="43.6565" lon="3.29263">
        <ele>243.83</ele>
        <time>2014-09-28T09:59:04Z</time>
      </trkpt>
      <trkpt lat="43.65663" lon="3.29295">
        <ele>240.95</ele>
        <time>2014-09-28T09:59:10Z</time>
      </trkpt>
      <trkpt lat="43.65667" lon="3.2931">
        <ele>239.99</ele>
        <time>2014-09-28T09:59:24Z</time>
      </trkpt>
      <trkpt lat="43.6567" lon="3.29325">
        <ele>239.51</ele>
        <time>2014-09-28T09:59:28Z</time>
      </trkpt>
      <trkpt lat="43.65661" lon="3.29368">
        <ele>236.14</ele>
        <time>2014-09-28T09:59:39Z</time>
      </trkpt>
      <trkpt lat="43.65662" lon="3.29375">
        <ele>235.18</ele>
        <time>2014-09-28T09:59:46Z</time>
      </trkpt>
      <trkpt lat="43.65664" lon="3.29389">
        <ele>233.74</ele>
        <time>2014-09-28T09:59:52Z</time>
      </trkpt>
      <trkpt lat="43.65659" lon="3.29412">
        <ele>232.3</ele>
        <time>2014-09-28T09:59:57Z</time>
      </trkpt>
      <trkpt lat="43.65653" lon="3.29453">
        <ele>228.93</ele>
        <time>2014-09-28T10:00:05Z</time>
      </trkpt>
      <trkpt lat="43.65656" lon="3.29459">
        <ele>227.97</ele>
        <time>2014-09-28T10:00:08Z</time>
      </trkpt>
      <trkpt lat="43.65657" lon="3.29461">
        <ele>227.01</ele>
        <time>2014-09-28T10:00:09Z</time>
      </trkpt>
      <trkpt lat="43.65653" lon="3.29484">
        <ele>226.05</ele>
        <time>2014-09-28T10:00:15Z</time>
      </trkpt>
      <trkpt lat="43.65649" lon="3.29512">
        <ele>224.61</ele>
        <time>2014-09-28T10:00:20Z</time>
      </trkpt>
      <trkpt lat="43.65641" lon="3.29556">
        <ele>222.2</ele>
        <time>2014-09-28T10:00:33Z</time>
      </trkpt>
      <trkpt lat="43.65632" lon="3.29582">
        <ele>222.2</ele>
        <time>2014-09-28T10:00:37Z</time>
      </trkpt>
      <trkpt lat="43.65606" lon="3.29639">
        <ele>220.76</ele>
        <time>2014-09-28T10:00:46Z</time>
      </trkpt>
      <trkpt lat="43.65579" lon="3.29693">
        <ele>217.4</ele>
        <time>2014-09-28T10:00:53Z</time>
      </trkpt>
      <trkpt lat="43.65551" lon="3.29742">
        <ele>213.07</ele>
        <time>2014-09-28T10:00:58Z</time>
      </trkpt>
      <trkpt lat="43.65536" lon="3.29774">
        <ele>211.63</ele>
        <time>2014-09-28T10:01:01Z</time>
      </trkpt>
      <trkpt lat="43.65518" lon="3.29813">
        <ele>209.22</ele>
        <time>2014-09-28T10:01:05Z</time>
      </trkpt>
      <trkpt lat="43.65519" lon="3.29846">
        <ele>206.82</ele>
        <time>2014-09-28T10:01:09Z</time>
      </trkpt>
      <trkpt lat="43.65518" lon="3.29874">
        <ele>206.34</ele>
        <time>2014-09-28T10:01:13Z</time>
      </trkpt>
      <trkpt lat="43.65513" lon="3.29898">
        <ele>205.86</ele>
        <time>2014-09-28T10:01:16Z</time>
      </trkpt>
      <trkpt lat="43.65522" lon="3.29967">
        <ele>204.9</ele>
        <time>2014-09-28T10:01:24Z</time>
      </trkpt>
      <trkpt lat="43.65521" lon="3.29994">
        <ele>206.34</ele>
        <time>2014-09-28T10:01:28Z</time>
      </trkpt>
      <trkpt lat="43.65515" lon="3.3001">
        <ele>205.86</ele>
        <time>2014-09-28T10:01:31Z</time>
      </trkpt>
      <trkpt lat="43.65502" lon="3.30028">
        <ele>205.86</ele>
        <time>2014-09-28T10:01:35Z</time>
      </trkpt>
      <trkpt lat="43.65489" lon="3.30053">
        <ele>205.86</ele>
        <time>2014-09-28T10:01:40Z</time>
      </trkpt>
      <trkpt lat="43.65485" lon="3.30095">
        <ele>205.38</ele>
        <time>2014-09-28T10:01:46Z</time>
      </trkpt>
      <trkpt lat="43.6548" lon="3.30113">
        <ele>205.86</ele>
        <time>2014-09-28T10:01:49Z</time>
      </trkpt>
      <trkpt lat="43.65451" lon="3.30173">
        <ele>204.9</ele>
        <time>2014-09-28T10:02:01Z</time>
      </trkpt>
      <trkpt lat="43.65433" lon="3.30244">
        <ele>206.34</ele>
        <time>2014-09-28T10:02:16Z</time>
      </trkpt>
      <trkpt lat="43.65429" lon="3.30274">
        <ele>203.94</ele>
        <time>2014-09-28T10:02:21Z</time>
      </trkpt>
      <trkpt lat="43.65429" lon="3.30291">
        <ele>202.49</ele>
        <time>2014-09-28T10:02:24Z</time>
      </trkpt>
      <trkpt lat="43.6541" lon="3.30337">
        <ele>198.65</ele>
        <time>2014-09-28T10:02:34Z</time>
      </trkpt>
      <trkpt lat="43.65379" lon="3.30369">
        <ele>196.25</ele>
        <time>2014-09-28T10:02:39Z</time>
      </trkpt>
      <trkpt lat="43.65318" lon="3.30437">
        <ele>193.36</ele>
        <time>2014-09-28T10:02:51Z</time>
      </trkpt>
      <trkpt lat="43.65288" lon="3.3047">
        <ele>192.4</ele>
        <time>2014-09-28T10:03:00Z</time>
      </trkpt>
      <trkpt lat="43.65269" lon="3.30494">
        <ele>191.92</ele>
        <time>2014-09-28T10:03:06Z</time>
      </trkpt>
      <trkpt lat="43.65257" lon="3.30503">
        <ele>191.92</ele>
        <time>2014-09-28T10:03:09Z</time>
      </trkpt>
      <trkpt lat="43.65233" lon="3.30529">
        <ele>191.44</ele>
        <time>2014-09-28T10:03:17Z</time>
      </trkpt>
      <trkpt lat="43.65229" lon="3.30517">
        <ele>190.48</ele>
        <time>2014-09-28T10:03:23Z</time>
      </trkpt>
      <trkpt lat="43.65234" lon="3.30511">
        <ele>190.48</ele>
        <time>2014-09-28T10:03:26Z</time>
      </trkpt>
      <trkpt lat="43.65236" lon="3.30505">
        <ele>190</ele>
        <time>2014-09-28T10:03:38Z</time>
      </trkpt>
      <trkpt lat="43.65236" lon="3.30505">
        <ele>190</ele>
        <time>2014-09-28T10:04:13Z</time>
      </trkpt>
      <trkpt lat="43.65236" lon="3.30505">
        <ele>190</ele>
        <time>2014-09-28T10:04:47Z</time>
      </trkpt>
      <trkpt lat="43.65238" lon="3.30503">
        <ele>190.48</ele>
        <time>2014-09-28T10:05:26Z</time>
      </trkpt>
      <trkpt lat="43.65238" lon="3.30503">
        <ele>190</ele>
        <time>2014-09-28T10:06:01Z</time>
      </trkpt>
      <trkpt lat="43.65238" lon="3.30503">
        <ele>190</ele>
        <time>2014-09-28T10:06:38Z</time>
      </trkpt>
      <trkpt lat="43.65238" lon="3.30503">
        <ele>190</ele>
        <time>2014-09-28T10:07:13Z</time>
      </trkpt>
      <trkpt lat="43.65237" lon="3.30504">
        <ele>189.52</ele>
        <time>2014-09-28T10:07:47Z</time>
      </trkpt>
      <trkpt lat="43.65236" lon="3.30503">
        <ele>189.04</ele>
        <time>2014-09-28T10:08:21Z</time>
      </trkpt>
      <trkpt lat="43.65235" lon="3.30503">
        <ele>189.52</ele>
        <time>2014-09-28T10:08:54Z</time>
      </trkpt>
      <trkpt lat="43.65236" lon="3.30503">
        <ele>190</ele>
        <time>2014-09-28T10:09:29Z</time>
      </trkpt>
      <trkpt lat="43.65236" lon="3.30503">
        <ele>189.04</ele>
        <time>2014-09-28T10:10:07Z</time>
      </trkpt>
      <trkpt lat="43.65237" lon="3.30505">
        <ele>189.04</ele>
        <time>2014-09-28T10:10:41Z</time>
      </trkpt>
      <trkpt lat="43.65237" lon="3.30509">
        <ele>189.04</ele>
        <time>2014-09-28T10:10:58Z</time>
      </trkpt>
      <trkpt lat="43.65236" lon="3.30509">
        <ele>189.04</ele>
        <time>2014-09-28T10:11:05Z</time>
      </trkpt>
      <trkpt lat="43.65227" lon="3.30512">
        <ele>189.04</ele>
        <time>2014-09-28T10:11:11Z</time>
      </trkpt>
      <trkpt lat="43.65231" lon="3.30515">
        <ele>188.56</ele>
        <time>2014-09-28T10:11:17Z</time>
      </trkpt>
      <trkpt lat="43.65234" lon="3.30509">
        <ele>189.04</ele>
        <time>2014-09-28T10:11:34Z</time>
      </trkpt>
      <trkpt lat="43.65234" lon="3.3051">
        <ele>188.56</ele>
        <time>2014-09-28T10:12:05Z</time>
      </trkpt>
      <trkpt lat="43.65235" lon="3.3051">
        <ele>188.56</ele>
        <time>2014-09-28T10:12:35Z</time>
      </trkpt>
      <trkpt lat="43.65235" lon="3.30508">
        <ele>188.56</ele>
        <time>2014-09-28T10:12:55Z</time>
      </trkpt>
      <trkpt lat="43.6524" lon="3.30506">
        <ele>188.56</ele>
        <time>2014-09-28T10:13:02Z</time>
      </trkpt>
      <trkpt lat="43.65239" lon="3.30506">
        <ele>188.56</ele>
        <time>2014-09-28T10:13:12Z</time>
      </trkpt>
      <trkpt lat="43.65235" lon="3.30512">
        <ele>188.56</ele>
        <time>2014-09-28T10:13:19Z</time>
      </trkpt>
      <trkpt lat="43.65231" lon="3.30513">
        <ele>188.56</ele>
        <time>2014-09-28T10:13:22Z</time>
      </trkpt>
      <trkpt lat="43.65227" lon="3.30526">
        <ele>188.56</ele>
        <time>2014-09-28T10:13:32Z</time>
      </trkpt>
      <trkpt lat="43.65231" lon="3.30534">
        <ele>189.52</ele>
        <time>2014-09-28T10:13:38Z</time>
      </trkpt>
      <trkpt lat="43.65238" lon="3.30527">
        <ele>189.52</ele>
        <time>2014-09-28T10:13:43Z</time>
      </trkpt>
      <trkpt lat="43.65268" lon="3.30489">
        <ele>189.04</ele>
        <time>2014-09-28T10:13:59Z</time>
      </trkpt>
      <trkpt lat="43.65298" lon="3.30458">
        <ele>190</ele>
        <time>2014-09-28T10:14:12Z</time>
      </trkpt>
      <trkpt lat="43.65338" lon="3.30419">
        <ele>190.96</ele>
        <time>2014-09-28T10:14:29Z</time>
      </trkpt>
      <trkpt lat="43.65363" lon="3.3039">
        <ele>192.4</ele>
        <time>2014-09-28T10:14:41Z</time>
      </trkpt>
      <trkpt lat="43.65394" lon="3.30356">
        <ele>194.32</ele>
        <time>2014-09-28T10:14:55Z</time>
      </trkpt>
      <trkpt lat="43.65421" lon="3.30323">
        <ele>197.21</ele>
        <time>2014-09-28T10:15:10Z</time>
      </trkpt>
      <trkpt lat="43.65453" lon="3.30307">
        <ele>198.17</ele>
        <time>2014-09-28T10:15:23Z</time>
      </trkpt>
      <trkpt lat="43.65468" lon="3.30295">
        <ele>200.09</ele>
        <time>2014-09-28T10:15:30Z</time>
      </trkpt>
      <trkpt lat="43.65475" lon="3.30286">
        <ele>200.09</ele>
        <time>2014-09-28T10:15:35Z</time>
      </trkpt>
      <trkpt lat="43.65487" lon="3.30267">
        <ele>202.01</ele>
        <time>2014-09-28T10:15:45Z</time>
      </trkpt>
      <trkpt lat="43.65506" lon="3.3024">
        <ele>203.46</ele>
        <time>2014-09-28T10:16:00Z</time>
      </trkpt>
      <trkpt lat="43.65508" lon="3.30239">
        <ele>203.46</ele>
        <time>2014-09-28T10:16:01Z</time>
      </trkpt>
      <trkpt lat="43.65527" lon="3.30245">
        <ele>205.86</ele>
        <time>2014-09-28T10:16:13Z</time>
      </trkpt>
      <trkpt lat="43.65546" lon="3.30259">
        <ele>207.78</ele>
        <time>2014-09-28T10:16:28Z</time>
      </trkpt>
      <trkpt lat="43.65564" lon="3.3027">
        <ele>209.22</ele>
        <time>2014-09-28T10:16:42Z</time>
      </trkpt>
      <trkpt lat="43.65567" lon="3.30272">
        <ele>209.22</ele>
        <time>2014-09-28T10:16:44Z</time>
      </trkpt>
      <trkpt lat="43.65578" lon="3.30276">
        <ele>210.19</ele>
        <time>2014-09-28T10:16:51Z</time>
      </trkpt>
      <trkpt lat="43.65597" lon="3.30285">
        <ele>210.67</ele>
        <time>2014-09-28T10:17:03Z</time>
      </trkpt>
      <trkpt lat="43.65607" lon="3.30289">
        <ele>211.15</ele>
        <time>2014-09-28T10:17:08Z</time>
      </trkpt>
      <trkpt lat="43.65629" lon="3.30317">
        <ele>212.11</ele>
        <time>2014-09-28T10:17:21Z</time>
      </trkpt>
      <trkpt lat="43.65645" lon="3.30363">
        <ele>213.55</ele>
        <time>2014-09-28T10:17:36Z</time>
      </trkpt>
      <trkpt lat="43.65667" lon="3.30391">
        <ele>215.95</ele>
        <time>2014-09-28T10:17:50Z</time>
      </trkpt>
      <trkpt lat="43.65687" lon="3.30409">
        <ele>217.88</ele>
        <time>2014-09-28T10:18:03Z</time>
      </trkpt>
      <trkpt lat="43.65715" lon="3.30423">
        <ele>220.76</ele>
        <time>2014-09-28T10:18:19Z</time>
      </trkpt>
      <trkpt lat="43.65734" lon="3.30424">
        <ele>223.16</ele>
        <time>2014-09-28T10:18:32Z</time>
      </trkpt>
      <trkpt lat="43.65744" lon="3.30423">
        <ele>224.12</ele>
        <time>2014-09-28T10:18:39Z</time>
      </trkpt>
      <trkpt lat="43.65752" lon="3.30421">
        <ele>225.09</ele>
        <time>2014-09-28T10:18:45Z</time>
      </trkpt>
      <trkpt lat="43.65759" lon="3.3042">
        <ele>226.05</ele>
        <time>2014-09-28T10:18:50Z</time>
      </trkpt>
      <trkpt lat="43.6577" lon="3.30419">
        <ele>227.49</ele>
        <time>2014-09-28T10:18:59Z</time>
      </trkpt>
      <trkpt lat="43.65774" lon="3.3042">
        <ele>227.97</ele>
        <time>2014-09-28T10:19:02Z</time>
      </trkpt>
      <trkpt lat="43.65779" lon="3.30421">
        <ele>228.45</ele>
        <time>2014-09-28T10:19:06Z</time>
      </trkpt>
      <trkpt lat="43.65792" lon="3.30422">
        <ele>229.89</ele>
        <time>2014-09-28T10:19:15Z</time>
      </trkpt>
      <trkpt lat="43.65795" lon="3.30425">
        <ele>230.37</ele>
        <time>2014-09-28T10:19:18Z</time>
      </trkpt>
      <trkpt lat="43.65801" lon="3.30425">
        <ele>231.81</ele>
        <time>2014-09-28T10:19:22Z</time>
      </trkpt>
      <trkpt lat="43.65807" lon="3.30428">
        <ele>232.3</ele>
        <time>2014-09-28T10:19:28Z</time>
      </trkpt>
      <trkpt lat="43.65832" lon="3.30433">
        <ele>234.22</ele>
        <time>2014-09-28T10:19:44Z</time>
      </trkpt>
      <trkpt lat="43.65857" lon="3.30439">
        <ele>235.66</ele>
        <time>2014-09-28T10:19:58Z</time>
      </trkpt>
      <trkpt lat="43.65878" lon="3.30445">
        <ele>237.58</ele>
        <time>2014-09-28T10:20:12Z</time>
      </trkpt>
      <trkpt lat="43.65883" lon="3.30445">
        <ele>238.06</ele>
        <time>2014-09-28T10:20:16Z</time>
      </trkpt>
      <trkpt lat="43.65891" lon="3.30442">
        <ele>239.02</ele>
        <time>2014-09-28T10:20:22Z</time>
      </trkpt>
      <trkpt lat="43.65895" lon="3.30437">
        <ele>240.47</ele>
        <time>2014-09-28T10:20:27Z</time>
      </trkpt>
      <trkpt lat="43.65912" lon="3.30431">
        <ele>243.35</ele>
        <time>2014-09-28T10:20:42Z</time>
      </trkpt>
      <trkpt lat="43.65914" lon="3.3043">
        <ele>243.35</ele>
        <time>2014-09-28T10:20:44Z</time>
      </trkpt>
      <trkpt lat="43.6593" lon="3.30422">
        <ele>245.27</ele>
        <time>2014-09-28T10:20:58Z</time>
      </trkpt>
      <trkpt lat="43.65944" lon="3.30412">
        <ele>247.68</ele>
        <time>2014-09-28T10:21:11Z</time>
      </trkpt>
      <trkpt lat="43.65952" lon="3.30405">
        <ele>249.12</ele>
        <time>2014-09-28T10:21:20Z</time>
      </trkpt>
      <trkpt lat="43.6596" lon="3.30402">
        <ele>250.08</ele>
        <time>2014-09-28T10:21:26Z</time>
      </trkpt>
      <trkpt lat="43.65962" lon="3.304">
        <ele>250.56</ele>
        <time>2014-09-28T10:21:28Z</time>
      </trkpt>
      <trkpt lat="43.65979" lon="3.30392">
        <ele>252.96</ele>
        <time>2014-09-28T10:21:41Z</time>
      </trkpt>
      <trkpt lat="43.65981" lon="3.30391">
        <ele>252.96</ele>
        <time>2014-09-28T10:21:43Z</time>
      </trkpt>
      <trkpt lat="43.65996" lon="3.30391">
        <ele>255.37</ele>
        <time>2014-09-28T10:21:56Z</time>
      </trkpt>
      <trkpt lat="43.66006" lon="3.30387">
        <ele>256.33</ele>
        <time>2014-09-28T10:22:04Z</time>
      </trkpt>
      <trkpt lat="43.66014" lon="3.30386">
        <ele>256.81</ele>
        <time>2014-09-28T10:22:11Z</time>
      </trkpt>
      <trkpt lat="43.66018" lon="3.30382">
        <ele>257.29</ele>
        <time>2014-09-28T10:22:15Z</time>
      </trkpt>
      <trkpt lat="43.66021" lon="3.3038">
        <ele>257.29</ele>
        <time>2014-09-28T10:22:17Z</time>
      </trkpt>
      <trkpt lat="43.66027" lon="3.30374">
        <ele>258.73</ele>
        <time>2014-09-28T10:22:23Z</time>
      </trkpt>
      <trkpt lat="43.66049" lon="3.3036">
        <ele>259.69</ele>
        <time>2014-09-28T10:22:39Z</time>
      </trkpt>
      <trkpt lat="43.66065" lon="3.3034">
        <ele>261.14</ele>
        <time>2014-09-28T10:22:54Z</time>
      </trkpt>
      <trkpt lat="43.66077" lon="3.30325">
        <ele>261.62</ele>
        <time>2014-09-28T10:23:04Z</time>
      </trkpt>
      <trkpt lat="43.6608" lon="3.30323">
        <ele>262.1</ele>
        <time>2014-09-28T10:23:07Z</time>
      </trkpt>
      <trkpt lat="43.66101" lon="3.30315">
        <ele>263.06</ele>
        <time>2014-09-28T10:23:21Z</time>
      </trkpt>
      <trkpt lat="43.66121" lon="3.30307">
        <ele>264.98</ele>
        <time>2014-09-28T10:23:32Z</time>
      </trkpt>
      <trkpt lat="43.6613" lon="3.30296">
        <ele>265.94</ele>
        <time>2014-09-28T10:23:38Z</time>
      </trkpt>
      <trkpt lat="43.66145" lon="3.30272">
        <ele>266.9</ele>
        <time>2014-09-28T10:23:53Z</time>
      </trkpt>
      <trkpt lat="43.6615" lon="3.30271">
        <ele>267.86</ele>
        <time>2014-09-28T10:23:56Z</time>
      </trkpt>
      <trkpt lat="43.66173" lon="3.30256">
        <ele>269.31</ele>
        <time>2014-09-28T10:24:10Z</time>
      </trkpt>
      <trkpt lat="43.66186" lon="3.30225">
        <ele>270.75</ele>
        <time>2014-09-28T10:24:25Z</time>
      </trkpt>
      <trkpt lat="43.66187" lon="3.30221">
        <ele>270.75</ele>
        <time>2014-09-28T10:24:27Z</time>
      </trkpt>
      <trkpt lat="43.66187" lon="3.30204">
        <ele>271.71</ele>
        <time>2014-09-28T10:24:35Z</time>
      </trkpt>
      <trkpt lat="43.66179" lon="3.30189">
        <ele>272.67</ele>
        <time>2014-09-28T10:24:42Z</time>
      </trkpt>
      <trkpt lat="43.66183" lon="3.30163">
        <ele>273.63</ele>
        <time>2014-09-28T10:24:53Z</time>
      </trkpt>
      <trkpt lat="43.66195" lon="3.30154">
        <ele>274.59</ele>
        <time>2014-09-28T10:25:02Z</time>
      </trkpt>
      <trkpt lat="43.66212" lon="3.30168">
        <ele>275.56</ele>
        <time>2014-09-28T10:25:14Z</time>
      </trkpt>
      <trkpt lat="43.6622" lon="3.30173">
        <ele>276.04</ele>
        <time>2014-09-28T10:25:19Z</time>
      </trkpt>
      <trkpt lat="43.66226" lon="3.30183">
        <ele>276.04</ele>
        <time>2014-09-28T10:25:24Z</time>
      </trkpt>
      <trkpt lat="43.66247" lon="3.30198">
        <ele>277.96</ele>
        <time>2014-09-28T10:25:38Z</time>
      </trkpt>
      <trkpt lat="43.66268" lon="3.3019">
        <ele>279.4</ele>
        <time>2014-09-28T10:25:50Z</time>
      </trkpt>
      <trkpt lat="43.66271" lon="3.30189">
        <ele>279.4</ele>
        <time>2014-09-28T10:25:52Z</time>
      </trkpt>
      <trkpt lat="43.66279" lon="3.3019">
        <ele>280.36</ele>
        <time>2014-09-28T10:25:57Z</time>
      </trkpt>
      <trkpt lat="43.66284" lon="3.30189">
        <ele>280.84</ele>
        <time>2014-09-28T10:26:00Z</time>
      </trkpt>
      <trkpt lat="43.66307" lon="3.30184">
        <ele>282.28</ele>
        <time>2014-09-28T10:26:15Z</time>
      </trkpt>
      <trkpt lat="43.66329" lon="3.30178">
        <ele>283.25</ele>
        <time>2014-09-28T10:26:29Z</time>
      </trkpt>
      <trkpt lat="43.66351" lon="3.30169">
        <ele>284.21</ele>
        <time>2014-09-28T10:26:40Z</time>
      </trkpt>
      <trkpt lat="43.66366" lon="3.30168">
        <ele>285.17</ele>
        <time>2014-09-28T10:26:48Z</time>
      </trkpt>
      <trkpt lat="43.66372" lon="3.30162">
        <ele>286.61</ele>
        <time>2014-09-28T10:26:53Z</time>
      </trkpt>
      <trkpt lat="43.66385" lon="3.3015">
        <ele>287.57</ele>
        <time>2014-09-28T10:27:02Z</time>
      </trkpt>
      <trkpt lat="43.66392" lon="3.30147">
        <ele>288.53</ele>
        <time>2014-09-28T10:27:07Z</time>
      </trkpt>
      <trkpt lat="43.66415" lon="3.30133">
        <ele>289.97</ele>
        <time>2014-09-28T10:27:22Z</time>
      </trkpt>
      <trkpt lat="43.66437" lon="3.30105">
        <ele>291.9</ele>
        <time>2014-09-28T10:27:37Z</time>
      </trkpt>
      <trkpt lat="43.66447" lon="3.30087">
        <ele>293.34</ele>
        <time>2014-09-28T10:27:47Z</time>
      </trkpt>
      <trkpt lat="43.66452" lon="3.30079">
        <ele>294.3</ele>
        <time>2014-09-28T10:27:52Z</time>
      </trkpt>
      <trkpt lat="43.6646" lon="3.30068">
        <ele>294.78</ele>
        <time>2014-09-28T10:27:59Z</time>
      </trkpt>
      <trkpt lat="43.66472" lon="3.30058">
        <ele>296.22</ele>
        <time>2014-09-28T10:28:10Z</time>
      </trkpt>
      <trkpt lat="43.66478" lon="3.30051">
        <ele>296.7</ele>
        <time>2014-09-28T10:28:16Z</time>
      </trkpt>
      <trkpt lat="43.66492" lon="3.30045">
        <ele>298.63</ele>
        <time>2014-09-28T10:28:30Z</time>
      </trkpt>
      <trkpt lat="43.66504" lon="3.30022">
        <ele>300.55</ele>
        <time>2014-09-28T10:28:44Z</time>
      </trkpt>
      <trkpt lat="43.66514" lon="3.29997">
        <ele>301.99</ele>
        <time>2014-09-28T10:28:57Z</time>
      </trkpt>
      <trkpt lat="43.66533" lon="3.29982">
        <ele>302.95</ele>
        <time>2014-09-28T10:29:11Z</time>
      </trkpt>
      <trkpt lat="43.66547" lon="3.29971">
        <ele>304.39</ele>
        <time>2014-09-28T10:29:21Z</time>
      </trkpt>
      <trkpt lat="43.66561" lon="3.2996">
        <ele>305.36</ele>
        <time>2014-09-28T10:29:30Z</time>
      </trkpt>
      <trkpt lat="43.66572" lon="3.29937">
        <ele>306.32</ele>
        <time>2014-09-28T10:29:43Z</time>
      </trkpt>
      <trkpt lat="43.66581" lon="3.2992">
        <ele>307.76</ele>
        <time>2014-09-28T10:29:53Z</time>
      </trkpt>
      <trkpt lat="43.66585" lon="3.29917">
        <ele>308.24</ele>
        <time>2014-09-28T10:29:56Z</time>
      </trkpt>
      <trkpt lat="43.66588" lon="3.29912">
        <ele>308.72</ele>
        <time>2014-09-28T10:30:00Z</time>
      </trkpt>
      <trkpt lat="43.66594" lon="3.29896">
        <ele>309.68</ele>
        <time>2014-09-28T10:30:08Z</time>
      </trkpt>
      <trkpt lat="43.66606" lon="3.29872">
        <ele>311.6</ele>
        <time>2014-09-28T10:30:21Z</time>
      </trkpt>
      <trkpt lat="43.66606" lon="3.29871">
        <ele>311.6</ele>
        <time>2014-09-28T10:30:22Z</time>
      </trkpt>
      <trkpt lat="43.66614" lon="3.29847">
        <ele>313.05</ele>
        <time>2014-09-28T10:30:35Z</time>
      </trkpt>
      <trkpt lat="43.66617" lon="3.29835">
        <ele>313.53</ele>
        <time>2014-09-28T10:30:41Z</time>
      </trkpt>
      <trkpt lat="43.66619" lon="3.29824">
        <ele>314.01</ele>
        <time>2014-09-28T10:30:46Z</time>
      </trkpt>
      <trkpt lat="43.66616" lon="3.29803">
        <ele>314.97</ele>
        <time>2014-09-28T10:30:55Z</time>
      </trkpt>
      <trkpt lat="43.66611" lon="3.29797">
        <ele>315.45</ele>
        <time>2014-09-28T10:30:59Z</time>
      </trkpt>
      <trkpt lat="43.66608" lon="3.29783">
        <ele>315.93</ele>
        <time>2014-09-28T10:31:06Z</time>
      </trkpt>
      <trkpt lat="43.66609" lon="3.29775">
        <ele>316.41</ele>
        <time>2014-09-28T10:31:10Z</time>
      </trkpt>
      <trkpt lat="43.66616" lon="3.29764">
        <ele>317.85</ele>
        <time>2014-09-28T10:31:18Z</time>
      </trkpt>
      <trkpt lat="43.66627" lon="3.29742">
        <ele>318.81</ele>
        <time>2014-09-28T10:31:31Z</time>
      </trkpt>
      <trkpt lat="43.66627" lon="3.29717">
        <ele>319.3</ele>
        <time>2014-09-28T10:31:40Z</time>
      </trkpt>
      <trkpt lat="43.66635" lon="3.29676">
        <ele>320.26</ele>
        <time>2014-09-28T10:31:53Z</time>
      </trkpt>
      <trkpt lat="43.6664" lon="3.29624">
        <ele>319.3</ele>
        <time>2014-09-28T10:32:05Z</time>
      </trkpt>
      <trkpt lat="43.66642" lon="3.29608">
        <ele>318.33</ele>
        <time>2014-09-28T10:32:08Z</time>
      </trkpt>
      <trkpt lat="43.66669" lon="3.29558">
        <ele>316.41</ele>
        <time>2014-09-28T10:32:19Z</time>
      </trkpt>
      <trkpt lat="43.66675" lon="3.29534">
        <ele>315.45</ele>
        <time>2014-09-28T10:32:24Z</time>
      </trkpt>
      <trkpt lat="43.66683" lon="3.29511">
        <ele>314.49</ele>
        <time>2014-09-28T10:32:28Z</time>
      </trkpt>
      <trkpt lat="43.66688" lon="3.29467">
        <ele>312.09</ele>
        <time>2014-09-28T10:32:34Z</time>
      </trkpt>
      <trkpt lat="43.6668" lon="3.29426">
        <ele>312.57</ele>
        <time>2014-09-28T10:32:43Z</time>
      </trkpt>
      <trkpt lat="43.66695" lon="3.29397">
        <ele>312.09</ele>
        <time>2014-09-28T10:32:51Z</time>
      </trkpt>
      <trkpt lat="43.66708" lon="3.29419">
        <ele>313.53</ele>
        <time>2014-09-28T10:33:02Z</time>
      </trkpt>
      <trkpt lat="43.66716" lon="3.29427">
        <ele>314.49</ele>
        <time>2014-09-28T10:33:07Z</time>
      </trkpt>
      <trkpt lat="43.66727" lon="3.29448">
        <ele>316.41</ele>
        <time>2014-09-28T10:33:18Z</time>
      </trkpt>
      <trkpt lat="43.66741" lon="3.29469">
        <ele>319.3</ele>
        <time>2014-09-28T10:33:31Z</time>
      </trkpt>
      <trkpt lat="43.66742" lon="3.2947">
        <ele>319.3</ele>
        <time>2014-09-28T10:33:32Z</time>
      </trkpt>
      <trkpt lat="43.66752" lon="3.29488">
        <ele>319.78</ele>
        <time>2014-09-28T10:33:42Z</time>
      </trkpt>
      <trkpt lat="43.66753" lon="3.29498">
        <ele>320.74</ele>
        <time>2014-09-28T10:33:46Z</time>
      </trkpt>
      <trkpt lat="43.66754" lon="3.29537">
        <ele>321.22</ele>
        <time>2014-09-28T10:33:59Z</time>
      </trkpt>
      <trkpt lat="43.6675" lon="3.29584">
        <ele>323.14</ele>
        <time>2014-09-28T10:34:13Z</time>
      </trkpt>
      <trkpt lat="43.66755" lon="3.29637">
        <ele>322.18</ele>
        <time>2014-09-28T10:34:25Z</time>
      </trkpt>
      <trkpt lat="43.6677" lon="3.29684">
        <ele>322.66</ele>
        <time>2014-09-28T10:34:36Z</time>
      </trkpt>
      <trkpt lat="43.66788" lon="3.29722">
        <ele>324.58</ele>
        <time>2014-09-28T10:34:51Z</time>
      </trkpt>
      <trkpt lat="43.66804" lon="3.29748">
        <ele>325.54</ele>
        <time>2014-09-28T10:35:02Z</time>
      </trkpt>
      <trkpt lat="43.6682" lon="3.29779">
        <ele>326.5</ele>
        <time>2014-09-28T10:35:14Z</time>
      </trkpt>
      <trkpt lat="43.66848" lon="3.29808">
        <ele>327.95</ele>
        <time>2014-09-28T10:35:28Z</time>
      </trkpt>
      <trkpt lat="43.66885" lon="3.29828">
        <ele>327.47</ele>
        <time>2014-09-28T10:35:40Z</time>
      </trkpt>
      <trkpt lat="43.66919" lon="3.29843">
        <ele>327.47</ele>
        <time>2014-09-28T10:35:51Z</time>
      </trkpt>
      <trkpt lat="43.66935" lon="3.29845">
        <ele>329.39</ele>
        <time>2014-09-28T10:36:00Z</time>
      </trkpt>
      <trkpt lat="43.66938" lon="3.29845">
        <ele>330.35</ele>
        <time>2014-09-28T10:36:03Z</time>
      </trkpt>
      <trkpt lat="43.66946" lon="3.29843">
        <ele>330.83</ele>
        <time>2014-09-28T10:36:08Z</time>
      </trkpt>
      <trkpt lat="43.66968" lon="3.29837">
        <ele>332.75</ele>
        <time>2014-09-28T10:36:23Z</time>
      </trkpt>
      <trkpt lat="43.66983" lon="3.29829">
        <ele>336.12</ele>
        <time>2014-09-28T10:36:36Z</time>
      </trkpt>
      <trkpt lat="43.66992" lon="3.29823">
        <ele>337.56</ele>
        <time>2014-09-28T10:36:44Z</time>
      </trkpt>
      <trkpt lat="43.67011" lon="3.29824">
        <ele>338.52</ele>
        <time>2014-09-28T10:36:55Z</time>
      </trkpt>
      <trkpt lat="43.6704" lon="3.29831">
        <ele>338.52</ele>
        <time>2014-09-28T10:37:10Z</time>
      </trkpt>
      <trkpt lat="43.67073" lon="3.29846">
        <ele>341.41</ele>
        <time>2014-09-28T10:37:21Z</time>
      </trkpt>
      <trkpt lat="43.6709" lon="3.29857">
        <ele>342.37</ele>
        <time>2014-09-28T10:37:30Z</time>
      </trkpt>
      <trkpt lat="43.67095" lon="3.29865">
        <ele>342.85</ele>
        <time>2014-09-28T10:37:34Z</time>
      </trkpt>
      <trkpt lat="43.67104" lon="3.29894">
        <ele>344.29</ele>
        <time>2014-09-28T10:37:49Z</time>
      </trkpt>
      <trkpt lat="43.67105" lon="3.2991">
        <ele>345.73</ele>
        <time>2014-09-28T10:37:59Z</time>
      </trkpt>
      <trkpt lat="43.67106" lon="3.2993">
        <ele>346.69</ele>
        <time>2014-09-28T10:38:11Z</time>
      </trkpt>
      <trkpt lat="43.67101" lon="3.2995">
        <ele>348.13</ele>
        <time>2014-09-28T10:38:21Z</time>
      </trkpt>
      <trkpt lat="43.67095" lon="3.29971">
        <ele>349.58</ele>
        <time>2014-09-28T10:38:33Z</time>
      </trkpt>
      <trkpt lat="43.67077" lon="3.30003">
        <ele>351.02</ele>
        <time>2014-09-28T10:38:50Z</time>
      </trkpt>
      <trkpt lat="43.67068" lon="3.3004">
        <ele>351.98</ele>
        <time>2014-09-28T10:39:07Z</time>
      </trkpt>
      <trkpt lat="43.67068" lon="3.30076">
        <ele>353.42</ele>
        <time>2014-09-28T10:39:23Z</time>
      </trkpt>
      <trkpt lat="43.67073" lon="3.30095">
        <ele>355.83</ele>
        <time>2014-09-28T10:39:34Z</time>
      </trkpt>
      <trkpt lat="43.67067" lon="3.30104">
        <ele>356.31</ele>
        <time>2014-09-28T10:39:40Z</time>
      </trkpt>
      <trkpt lat="43.67045" lon="3.30134">
        <ele>355.83</ele>
        <time>2014-09-28T10:39:52Z</time>
      </trkpt>
      <trkpt lat="43.67023" lon="3.30163">
        <ele>355.83</ele>
        <time>2014-09-28T10:40:03Z</time>
      </trkpt>
      <trkpt lat="43.66997" lon="3.30201">
        <ele>357.27</ele>
        <time>2014-09-28T10:40:19Z</time>
      </trkpt>
      <trkpt lat="43.66972" lon="3.30243">
        <ele>357.75</ele>
        <time>2014-09-28T10:40:34Z</time>
      </trkpt>
      <trkpt lat="43.66952" lon="3.30288">
        <ele>359.19</ele>
        <time>2014-09-28T10:40:50Z</time>
      </trkpt>
      <trkpt lat="43.66946" lon="3.3034">
        <ele>359.67</ele>
        <time>2014-09-28T10:41:04Z</time>
      </trkpt>
      <trkpt lat="43.66928" lon="3.30378">
        <ele>359.67</ele>
        <time>2014-09-28T10:41:15Z</time>
      </trkpt>
      <trkpt lat="43.66904" lon="3.30423">
        <ele>359.67</ele>
        <time>2014-09-28T10:41:28Z</time>
      </trkpt>
      <trkpt lat="43.66897" lon="3.30445">
        <ele>359.67</ele>
        <time>2014-09-28T10:41:32Z</time>
      </trkpt>
      <trkpt lat="43.66886" lon="3.30477">
        <ele>357.27</ele>
        <time>2014-09-28T10:41:37Z</time>
      </trkpt>
      <trkpt lat="43.66875" lon="3.30505">
        <ele>355.83</ele>
        <time>2014-09-28T10:41:41Z</time>
      </trkpt>
      <trkpt lat="43.66871" lon="3.30518">
        <ele>354.86</ele>
        <time>2014-09-28T10:41:43Z</time>
      </trkpt>
      <trkpt lat="43.6686" lon="3.3055">
        <ele>355.83</ele>
        <time>2014-09-28T10:41:51Z</time>
      </trkpt>
      <trkpt lat="43.66844" lon="3.30577">
        <ele>357.75</ele>
        <time>2014-09-28T10:42:04Z</time>
      </trkpt>
      <trkpt lat="43.66835" lon="3.30616">
        <ele>358.71</ele>
        <time>2014-09-28T10:42:19Z</time>
      </trkpt>
      <trkpt lat="43.66828" lon="3.30639">
        <ele>361.59</ele>
        <time>2014-09-28T10:42:32Z</time>
      </trkpt>
      <trkpt lat="43.66825" lon="3.30644">
        <ele>362.07</ele>
        <time>2014-09-28T10:42:35Z</time>
      </trkpt>
      <trkpt lat="43.66822" lon="3.3065">
        <ele>362.55</ele>
        <time>2014-09-28T10:42:39Z</time>
      </trkpt>
      <trkpt lat="43.66813" lon="3.30662">
        <ele>364.96</ele>
        <time>2014-09-28T10:42:49Z</time>
      </trkpt>
      <trkpt lat="43.66807" lon="3.30665">
        <ele>365.92</ele>
        <time>2014-09-28T10:42:54Z</time>
      </trkpt>
      <trkpt lat="43.66804" lon="3.30666">
        <ele>366.4</ele>
        <time>2014-09-28T10:42:56Z</time>
      </trkpt>
      <trkpt lat="43.66789" lon="3.30667">
        <ele>366.88</ele>
        <time>2014-09-28T10:43:06Z</time>
      </trkpt>
      <trkpt lat="43.66778" lon="3.30666">
        <ele>367.36</ele>
        <time>2014-09-28T10:43:13Z</time>
      </trkpt>
      <trkpt lat="43.66747" lon="3.3067">
        <ele>369.28</ele>
        <time>2014-09-28T10:43:31Z</time>
      </trkpt>
      <trkpt lat="43.66723" lon="3.30674">
        <ele>370.73</ele>
        <time>2014-09-28T10:43:45Z</time>
      </trkpt>
      <trkpt lat="43.66695" lon="3.30677">
        <ele>372.17</ele>
        <time>2014-09-28T10:43:59Z</time>
      </trkpt>
      <trkpt lat="43.66684" lon="3.3069">
        <ele>374.09</ele>
        <time>2014-09-28T10:44:12Z</time>
      </trkpt>
      <trkpt lat="43.66674" lon="3.30699">
        <ele>375.53</ele>
        <time>2014-09-28T10:44:24Z</time>
      </trkpt>
      <trkpt lat="43.66671" lon="3.30705">
        <ele>376.49</ele>
        <time>2014-09-28T10:44:28Z</time>
      </trkpt>
      <trkpt lat="43.66666" lon="3.30719">
        <ele>377.45</ele>
        <time>2014-09-28T10:44:38Z</time>
      </trkpt>
      <trkpt lat="43.66665" lon="3.30744">
        <ele>378.9</ele>
        <time>2014-09-28T10:44:52Z</time>
      </trkpt>
      <trkpt lat="43.66664" lon="3.30747">
        <ele>378.9</ele>
        <time>2014-09-28T10:44:54Z</time>
      </trkpt>
      <trkpt lat="43.66661" lon="3.3077">
        <ele>380.34</ele>
        <time>2014-09-28T10:45:07Z</time>
      </trkpt>
      <trkpt lat="43.6666" lon="3.30779">
        <ele>380.82</ele>
        <time>2014-09-28T10:45:12Z</time>
      </trkpt>
      <trkpt lat="43.66655" lon="3.30808">
        <ele>383.22</ele>
        <time>2014-09-28T10:45:30Z</time>
      </trkpt>
      <trkpt lat="43.66656" lon="3.3083">
        <ele>384.66</ele>
        <time>2014-09-28T10:45:43Z</time>
      </trkpt>
      <trkpt lat="43.66657" lon="3.30842">
        <ele>385.63</ele>
        <time>2014-09-28T10:45:50Z</time>
      </trkpt>
      <trkpt lat="43.66672" lon="3.30864">
        <ele>387.55</ele>
        <time>2014-09-28T10:46:08Z</time>
      </trkpt>
      <trkpt lat="43.66675" lon="3.30867">
        <ele>388.51</ele>
        <time>2014-09-28T10:46:11Z</time>
      </trkpt>
      <trkpt lat="43.66688" lon="3.30904">
        <ele>388.51</ele>
        <time>2014-09-28T10:46:27Z</time>
      </trkpt>
      <trkpt lat="43.66712" lon="3.30943">
        <ele>389.47</ele>
        <time>2014-09-28T10:46:42Z</time>
      </trkpt>
      <trkpt lat="43.66733" lon="3.30985">
        <ele>390.91</ele>
        <time>2014-09-28T10:46:59Z</time>
      </trkpt>
      <trkpt lat="43.66744" lon="3.31026">
        <ele>392.36</ele>
        <time>2014-09-28T10:47:15Z</time>
      </trkpt>
      <trkpt lat="43.66732" lon="3.31058">
        <ele>392.36</ele>
        <time>2014-09-28T10:47:26Z</time>
      </trkpt>
      <trkpt lat="43.6672" lon="3.31098">
        <ele>392.84</ele>
        <time>2014-09-28T10:47:40Z</time>
      </trkpt>
      <trkpt lat="43.66713" lon="3.31113">
        <ele>392.84</ele>
        <time>2014-09-28T10:47:46Z</time>
      </trkpt>
      <trkpt lat="43.66712" lon="3.31126">
        <ele>392.84</ele>
        <time>2014-09-28T10:47:51Z</time>
      </trkpt>
      <trkpt lat="43.66718" lon="3.31168">
        <ele>393.8</ele>
        <time>2014-09-28T10:48:05Z</time>
      </trkpt>
      <trkpt lat="43.6673" lon="3.31193">
        <ele>393.8</ele>
        <time>2014-09-28T10:48:14Z</time>
      </trkpt>
      <trkpt lat="43.66731" lon="3.31206">
        <ele>393.8</ele>
        <time>2014-09-28T10:48:18Z</time>
      </trkpt>
      <trkpt lat="43.66732" lon="3.31212">
        <ele>393.8</ele>
        <time>2014-09-28T10:48:20Z</time>
      </trkpt>
      <trkpt lat="43.66723" lon="3.31236">
        <ele>394.28</ele>
        <time>2014-09-28T10:48:30Z</time>
      </trkpt>
      <trkpt lat="43.6672" lon="3.31243">
        <ele>394.76</ele>
        <time>2014-09-28T10:48:41Z</time>
      </trkpt>
      <trkpt lat="43.66719" lon="3.31246">
        <ele>395.24</ele>
        <time>2014-09-28T10:48:46Z</time>
      </trkpt>
      <trkpt lat="43.66714" lon="3.3125">
        <ele>395.24</ele>
        <time>2014-09-28T10:48:57Z</time>
      </trkpt>
      <trkpt lat="43.66692" lon="3.31234">
        <ele>396.2</ele>
        <time>2014-09-28T10:49:10Z</time>
      </trkpt>
      <trkpt lat="43.66686" lon="3.31231">
        <ele>396.68</ele>
        <time>2014-09-28T10:49:14Z</time>
      </trkpt>
      <trkpt lat="43.66672" lon="3.3122">
        <ele>397.64</ele>
        <time>2014-09-28T10:49:27Z</time>
      </trkpt>
      <trkpt lat="43.6667" lon="3.31219">
        <ele>397.64</ele>
        <time>2014-09-28T10:49:37Z</time>
      </trkpt>
      <trkpt lat="43.66663" lon="3.31214">
        <ele>398.12</ele>
        <time>2014-09-28T10:49:42Z</time>
      </trkpt>
      <trkpt lat="43.66654" lon="3.31208">
        <ele>398.6</ele>
        <time>2014-09-28T10:49:49Z</time>
      </trkpt>
      <trkpt lat="43.66642" lon="3.312">
        <ele>399.08</ele>
        <time>2014-09-28T10:49:57Z</time>
      </trkpt>
      <trkpt lat="43.66617" lon="3.3118">
        <ele>399.08</ele>
        <time>2014-09-28T10:50:11Z</time>
      </trkpt>
      <trkpt lat="43.66597" lon="3.31152">
        <ele>400.53</ele>
        <time>2014-09-28T10:50:25Z</time>
      </trkpt>
      <trkpt lat="43.66591" lon="3.31137">
        <ele>400.53</ele>
        <time>2014-09-28T10:50:32Z</time>
      </trkpt>
      <trkpt lat="43.66572" lon="3.31129">
        <ele>402.45</ele>
        <time>2014-09-28T10:50:45Z</time>
      </trkpt>
      <trkpt lat="43.66564" lon="3.31128">
        <ele>402.93</ele>
        <time>2014-09-28T10:50:50Z</time>
      </trkpt>
      <trkpt lat="43.66538" lon="3.31139">
        <ele>402.93</ele>
        <time>2014-09-28T10:51:04Z</time>
      </trkpt>
      <trkpt lat="43.66518" lon="3.31151">
        <ele>403.41</ele>
        <time>2014-09-28T10:51:13Z</time>
      </trkpt>
      <trkpt lat="43.66504" lon="3.31155">
        <ele>402.93</ele>
        <time>2014-09-28T10:51:17Z</time>
      </trkpt>
      <trkpt lat="43.66492" lon="3.31168">
        <ele>401.97</ele>
        <time>2014-09-28T10:51:22Z</time>
      </trkpt>
      <trkpt lat="43.66472" lon="3.31193">
        <ele>400.53</ele>
        <time>2014-09-28T10:51:30Z</time>
      </trkpt>
      <trkpt lat="43.66453" lon="3.31218">
        <ele>397.64</ele>
        <time>2014-09-28T10:51:38Z</time>
      </trkpt>
      <trkpt lat="43.66453" lon="3.31245">
        <ele>395.24</ele>
        <time>2014-09-28T10:51:47Z</time>
      </trkpt>
      <trkpt lat="43.66458" lon="3.31267">
        <ele>393.32</ele>
        <time>2014-09-28T10:51:55Z</time>
      </trkpt>
      <trkpt lat="43.6646" lon="3.31268">
        <ele>393.32</ele>
        <time>2014-09-28T10:51:56Z</time>
      </trkpt>
      <trkpt lat="43.66479" lon="3.31284">
        <ele>391.87</ele>
        <time>2014-09-28T10:52:02Z</time>
      </trkpt>
      <trkpt lat="43.66493" lon="3.31293">
        <ele>390.91</ele>
        <time>2014-09-28T10:52:05Z</time>
      </trkpt>
      <trkpt lat="43.66515" lon="3.31315">
        <ele>387.55</ele>
        <time>2014-09-28T10:52:10Z</time>
      </trkpt>
      <trkpt lat="43.66523" lon="3.31327">
        <ele>387.07</ele>
        <time>2014-09-28T10:52:12Z</time>
      </trkpt>
      <trkpt lat="43.6655" lon="3.3136">
        <ele>385.63</ele>
        <time>2014-09-28T10:52:18Z</time>
      </trkpt>
      <trkpt lat="43.66559" lon="3.31374">
        <ele>385.63</ele>
        <time>2014-09-28T10:52:21Z</time>
      </trkpt>
      <trkpt lat="43.66577" lon="3.31407">
        <ele>383.7</ele>
        <time>2014-09-28T10:52:31Z</time>
      </trkpt>
      <trkpt lat="43.66585" lon="3.31428">
        <ele>382.26</ele>
        <time>2014-09-28T10:52:35Z</time>
      </trkpt>
      <trkpt lat="43.66597" lon="3.31444">
        <ele>382.26</ele>
        <time>2014-09-28T10:52:39Z</time>
      </trkpt>
      <trkpt lat="43.66602" lon="3.31451">
        <ele>382.26</ele>
        <time>2014-09-28T10:52:41Z</time>
      </trkpt>
      <trkpt lat="43.66613" lon="3.31478">
        <ele>382.26</ele>
        <time>2014-09-28T10:52:46Z</time>
      </trkpt>
      <trkpt lat="43.66624" lon="3.31498">
        <ele>381.78</ele>
        <time>2014-09-28T10:52:50Z</time>
      </trkpt>
      <trkpt lat="43.66641" lon="3.31521">
        <ele>381.78</ele>
        <time>2014-09-28T10:52:56Z</time>
      </trkpt>
      <trkpt lat="43.66653" lon="3.31541">
        <ele>381.3</ele>
        <time>2014-09-28T10:53:01Z</time>
      </trkpt>
      <trkpt lat="43.66638" lon="3.31548">
        <ele>379.38</ele>
        <time>2014-09-28T10:53:08Z</time>
      </trkpt>
      <trkpt lat="43.66624" lon="3.31541">
        <ele>378.42</ele>
        <time>2014-09-28T10:53:11Z</time>
      </trkpt>
      <trkpt lat="43.66608" lon="3.31531">
        <ele>376.49</ele>
        <time>2014-09-28T10:53:14Z</time>
      </trkpt>
      <trkpt lat="43.66587" lon="3.31521">
        <ele>374.57</ele>
        <time>2014-09-28T10:53:18Z</time>
      </trkpt>
      <trkpt lat="43.66555" lon="3.31502">
        <ele>370.24</ele>
        <time>2014-09-28T10:53:23Z</time>
      </trkpt>
      <trkpt lat="43.66518" lon="3.31484">
        <ele>366.4</ele>
        <time>2014-09-28T10:53:28Z</time>
      </trkpt>
      <trkpt lat="43.66504" lon="3.31477">
        <ele>364.48</ele>
        <time>2014-09-28T10:53:30Z</time>
      </trkpt>
      <trkpt lat="43.66484" lon="3.3146">
        <ele>363.04</ele>
        <time>2014-09-28T10:53:33Z</time>
      </trkpt>
      <trkpt lat="43.66449" lon="3.31448">
        <ele>360.15</ele>
        <time>2014-09-28T10:53:38Z</time>
      </trkpt>
      <trkpt lat="43.66381" lon="3.31407">
        <ele>358.23</ele>
        <time>2014-09-28T10:53:50Z</time>
      </trkpt>
      <trkpt lat="43.66336" lon="3.3138">
        <ele>354.38</ele>
        <time>2014-09-28T10:53:58Z</time>
      </trkpt>
      <trkpt lat="43.66329" lon="3.31376">
        <ele>354.38</ele>
        <time>2014-09-28T10:53:59Z</time>
      </trkpt>
      <trkpt lat="43.66313" lon="3.31372">
        <ele>352.94</ele>
        <time>2014-09-28T10:54:01Z</time>
      </trkpt>
      <trkpt lat="43.66276" lon="3.31369">
        <ele>350.06</ele>
        <time>2014-09-28T10:54:05Z</time>
      </trkpt>
      <trkpt lat="43.66259" lon="3.31362">
        <ele>348.13</ele>
        <time>2014-09-28T10:54:07Z</time>
      </trkpt>
      <trkpt lat="43.66237" lon="3.31333">
        <ele>345.73</ele>
        <time>2014-09-28T10:54:13Z</time>
      </trkpt>
      <trkpt lat="43.66228" lon="3.31324">
        <ele>343.33</ele>
        <time>2014-09-28T10:54:16Z</time>
      </trkpt>
      <trkpt lat="43.662" lon="3.31279">
        <ele>338.52</ele>
        <time>2014-09-28T10:54:23Z</time>
      </trkpt>
      <trkpt lat="43.66189" lon="3.31256">
        <ele>337.08</ele>
        <time>2014-09-28T10:54:26Z</time>
      </trkpt>
      <trkpt lat="43.66178" lon="3.31239">
        <ele>336.6</ele>
        <time>2014-09-28T10:54:30Z</time>
      </trkpt>
      <trkpt lat="43.66166" lon="3.31228">
        <ele>335.64</ele>
        <time>2014-09-28T10:54:34Z</time>
      </trkpt>
      <trkpt lat="43.66155" lon="3.31213">
        <ele>334.2</ele>
        <time>2014-09-28T10:54:38Z</time>
      </trkpt>
      <trkpt lat="43.66145" lon="3.31202">
        <ele>331.31</ele>
        <time>2014-09-28T10:54:45Z</time>
      </trkpt>
      <trkpt lat="43.66135" lon="3.31189">
        <ele>327.47</ele>
        <time>2014-09-28T10:54:51Z</time>
      </trkpt>
      <trkpt lat="43.66129" lon="3.31174">
        <ele>323.14</ele>
        <time>2014-09-28T10:54:55Z</time>
      </trkpt>
      <trkpt lat="43.66125" lon="3.31153">
        <ele>319.3</ele>
        <time>2014-09-28T10:55:00Z</time>
      </trkpt>
      <trkpt lat="43.66121" lon="3.31138">
        <ele>316.41</ele>
        <time>2014-09-28T10:55:05Z</time>
      </trkpt>
      <trkpt lat="43.66119" lon="3.31133">
        <ele>314.49</ele>
        <time>2014-09-28T10:55:14Z</time>
      </trkpt>
      <trkpt lat="43.66116" lon="3.3113">
        <ele>312.57</ele>
        <time>2014-09-28T10:55:19Z</time>
      </trkpt>
      <trkpt lat="43.66114" lon="3.31128">
        <ele>312.09</ele>
        <time>2014-09-28T10:55:21Z</time>
      </trkpt>
      <trkpt lat="43.66104" lon="3.31134">
        <ele>308.24</ele>
        <time>2014-09-28T10:55:27Z</time>
      </trkpt>
      <trkpt lat="43.66099" lon="3.31138">
        <ele>306.8</ele>
        <time>2014-09-28T10:55:29Z</time>
      </trkpt>
      <trkpt lat="43.66084" lon="3.31151">
        <ele>304.39</ele>
        <time>2014-09-28T10:55:34Z</time>
      </trkpt>
      <trkpt lat="43.66078" lon="3.31156">
        <ele>301.03</ele>
        <time>2014-09-28T10:55:37Z</time>
      </trkpt>
      <trkpt lat="43.66062" lon="3.31174">
        <ele>297.18</ele>
        <time>2014-09-28T10:55:43Z</time>
      </trkpt>
      <trkpt lat="43.66047" lon="3.31187">
        <ele>293.34</ele>
        <time>2014-09-28T10:55:47Z</time>
      </trkpt>
      <trkpt lat="43.6604" lon="3.31195">
        <ele>290.46</ele>
        <time>2014-09-28T10:55:49Z</time>
      </trkpt>
      <trkpt lat="43.66032" lon="3.31205">
        <ele>287.57</ele>
        <time>2014-09-28T10:55:53Z</time>
      </trkpt>
      <trkpt lat="43.66035" lon="3.31232">
        <ele>287.09</ele>
        <time>2014-09-28T10:56:00Z</time>
      </trkpt>
      <trkpt lat="43.66041" lon="3.31277">
        <ele>287.09</ele>
        <time>2014-09-28T10:56:11Z</time>
      </trkpt>
      <trkpt lat="43.66041" lon="3.31283">
        <ele>286.61</ele>
        <time>2014-09-28T10:56:12Z</time>
      </trkpt>
      <trkpt lat="43.66038" lon="3.31306">
        <ele>282.77</ele>
        <time>2014-09-28T10:56:16Z</time>
      </trkpt>
      <trkpt lat="43.66032" lon="3.31335">
        <ele>280.36</ele>
        <time>2014-09-28T10:56:22Z</time>
      </trkpt>
      <trkpt lat="43.66019" lon="3.31356">
        <ele>278.92</ele>
        <time>2014-09-28T10:56:26Z</time>
      </trkpt>
      <trkpt lat="43.65997" lon="3.31383">
        <ele>276.04</ele>
        <time>2014-09-28T10:56:31Z</time>
      </trkpt>
      <trkpt lat="43.65987" lon="3.31396">
        <ele>272.67</ele>
        <time>2014-09-28T10:56:34Z</time>
      </trkpt>
      <trkpt lat="43.6598" lon="3.31404">
        <ele>269.79</ele>
        <time>2014-09-28T10:56:38Z</time>
      </trkpt>
      <trkpt lat="43.65981" lon="3.31405">
        <ele>269.31</ele>
        <time>2014-09-28T10:56:39Z</time>
      </trkpt>
      <trkpt lat="43.65973" lon="3.31418">
        <ele>266.42</ele>
        <time>2014-09-28T10:56:50Z</time>
      </trkpt>
      <trkpt lat="43.65963" lon="3.31435">
        <ele>262.58</ele>
        <time>2014-09-28T10:56:53Z</time>
      </trkpt>
      <trkpt lat="43.6596" lon="3.3144">
        <ele>261.14</ele>
        <time>2014-09-28T10:56:54Z</time>
      </trkpt>
      <trkpt lat="43.65943" lon="3.3146">
        <ele>256.33</ele>
        <time>2014-09-28T10:56:58Z</time>
      </trkpt>
      <trkpt lat="43.65932" lon="3.31474">
        <ele>251.04</ele>
        <time>2014-09-28T10:57:00Z</time>
      </trkpt>
      <trkpt lat="43.65922" lon="3.315">
        <ele>247.68</ele>
        <time>2014-09-28T10:57:03Z</time>
      </trkpt>
      <trkpt lat="43.65922" lon="3.31511">
        <ele>247.2</ele>
        <time>2014-09-28T10:57:05Z</time>
      </trkpt>
      <trkpt lat="43.65922" lon="3.31512">
        <ele>247.2</ele>
        <time>2014-09-28T10:57:06Z</time>
      </trkpt>
      <trkpt lat="43.65933" lon="3.31512">
        <ele>246.23</ele>
        <time>2014-09-28T10:57:08Z</time>
      </trkpt>
      <trkpt lat="43.65941" lon="3.31528">
        <ele>242.39</ele>
        <time>2014-09-28T10:57:14Z</time>
      </trkpt>
      <trkpt lat="43.65929" lon="3.31538">
        <ele>239.51</ele>
        <time>2014-09-28T10:57:18Z</time>
      </trkpt>
      <trkpt lat="43.65915" lon="3.31548">
        <ele>235.66</ele>
        <time>2014-09-28T10:57:22Z</time>
      </trkpt>
      <trkpt lat="43.65904" lon="3.31558">
        <ele>232.78</ele>
        <time>2014-09-28T10:57:25Z</time>
      </trkpt>
      <trkpt lat="43.65896" lon="3.31565">
        <ele>228.93</ele>
        <time>2014-09-28T10:57:27Z</time>
      </trkpt>
      <trkpt lat="43.65885" lon="3.3158">
        <ele>223.64</ele>
        <time>2014-09-28T10:57:31Z</time>
      </trkpt>
      <trkpt lat="43.65877" lon="3.31585">
        <ele>221.24</ele>
        <time>2014-09-28T10:57:33Z</time>
      </trkpt>
      <trkpt lat="43.65856" lon="3.31607">
        <ele>214.99</ele>
        <time>2014-09-28T10:57:38Z</time>
      </trkpt>
      <trkpt lat="43.65853" lon="3.31611">
        <ele>214.03</ele>
        <time>2014-09-28T10:57:39Z</time>
      </trkpt>
      <trkpt lat="43.6584" lon="3.31629">
        <ele>209.22</ele>
        <time>2014-09-28T10:57:44Z</time>
      </trkpt>
      <trkpt lat="43.65842" lon="3.31644">
        <ele>205.86</ele>
        <time>2014-09-28T10:57:48Z</time>
      </trkpt>
      <trkpt lat="43.65841" lon="3.31649">
        <ele>204.9</ele>
        <time>2014-09-28T10:57:49Z</time>
      </trkpt>
      <trkpt lat="43.65835" lon="3.31679">
        <ele>198.65</ele>
        <time>2014-09-28T10:57:53Z</time>
      </trkpt>
      <trkpt lat="43.65832" lon="3.31696">
        <ele>197.69</ele>
        <time>2014-09-28T10:57:55Z</time>
      </trkpt>
      <trkpt lat="43.65816" lon="3.31719">
        <ele>193.36</ele>
        <time>2014-09-28T10:58:01Z</time>
      </trkpt>
      <trkpt lat="43.65808" lon="3.31729">
        <ele>190</ele>
        <time>2014-09-28T10:58:03Z</time>
      </trkpt>
      <trkpt lat="43.65789" lon="3.31754">
        <ele>184.23</ele>
        <time>2014-09-28T10:58:07Z</time>
      </trkpt>
      <trkpt lat="43.65773" lon="3.31773">
        <ele>181.35</ele>
        <time>2014-09-28T10:58:10Z</time>
      </trkpt>
      <trkpt lat="43.65761" lon="3.31787">
        <ele>177.5</ele>
        <time>2014-09-28T10:58:13Z</time>
      </trkpt>
      <trkpt lat="43.65757" lon="3.3179">
        <ele>176.54</ele>
        <time>2014-09-28T10:58:14Z</time>
      </trkpt>
      <trkpt lat="43.65737" lon="3.31808">
        <ele>173.66</ele>
        <time>2014-09-28T10:58:19Z</time>
      </trkpt>
      <trkpt lat="43.65728" lon="3.31811">
        <ele>172.69</ele>
        <time>2014-09-28T10:58:29Z</time>
      </trkpt>
      <trkpt lat="43.657" lon="3.31815">
        <ele>171.25</ele>
        <time>2014-09-28T10:58:38Z</time>
      </trkpt>
      <trkpt lat="43.65695" lon="3.31825">
        <ele>171.25</ele>
        <time>2014-09-28T10:58:41Z</time>
      </trkpt>
      <trkpt lat="43.65692" lon="3.3183">
        <ele>171.73</ele>
        <time>2014-09-28T10:58:43Z</time>
      </trkpt>
      <trkpt lat="43.65665" lon="3.31821">
        <ele>170.77</ele>
        <time>2014-09-28T10:58:50Z</time>
      </trkpt>
      <trkpt lat="43.65636" lon="3.31787">
        <ele>169.33</ele>
        <time>2014-09-28T10:58:57Z</time>
      </trkpt>
      <trkpt lat="43.65619" lon="3.31775">
        <ele>170.29</ele>
        <time>2014-09-28T10:59:02Z</time>
      </trkpt>
      <trkpt lat="43.65615" lon="3.3178">
        <ele>169.33</ele>
        <time>2014-09-28T10:59:14Z</time>
      </trkpt>
      <trkpt lat="43.65615" lon="3.3178">
        <ele>169.33</ele>
        <time>2014-09-28T10:59:39Z</time>
      </trkpt>
      <trkpt lat="43.65614" lon="3.31779">
        <ele>169.33</ele>
        <time>2014-09-28T11:00:08Z</time>
      </trkpt>
      <trkpt lat="43.65614" lon="3.31779">
        <ele>168.37</ele>
        <time>2014-09-28T11:00:30Z</time>
      </trkpt>
      <trkpt lat="43.65614" lon="3.31779">
        <ele>168.37</ele>
        <time>2014-09-28T11:01:10Z</time>
      </trkpt>
      <trkpt lat="43.65614" lon="3.31779">
        <ele>168.37</ele>
        <time>2014-09-28T11:01:45Z</time>
      </trkpt>
      <trkpt lat="43.65614" lon="3.31778">
        <ele>168.85</ele>
        <time>2014-09-28T11:02:01Z</time>
      </trkpt>
      <trkpt lat="43.65613" lon="3.31779">
        <ele>168.85</ele>
        <time>2014-09-28T11:02:19Z</time>
      </trkpt>
      <trkpt lat="43.65613" lon="3.31779">
        <ele>168.85</ele>
        <time>2014-09-28T11:02:37Z</time>
      </trkpt>
      <trkpt lat="43.65612" lon="3.31778">
        <ele>168.37</ele>
        <time>2014-09-28T11:02:59Z</time>
      </trkpt>
      <trkpt lat="43.65603" lon="3.31779">
        <ele>167.89</ele>
        <time>2014-09-28T11:03:14Z</time>
      </trkpt>
      <trkpt lat="43.65597" lon="3.31779">
        <ele>167.41</ele>
        <time>2014-09-28T11:03:16Z</time>
      </trkpt>
      <trkpt lat="43.6556" lon="3.3178">
        <ele>165</ele>
        <time>2014-09-28T11:03:23Z</time>
      </trkpt>
      <trkpt lat="43.65495" lon="3.31778">
        <ele>161.16</ele>
        <time>2014-09-28T11:03:32Z</time>
      </trkpt>
      <trkpt lat="43.65461" lon="3.31776">
        <ele>159.24</ele>
        <time>2014-09-28T11:03:36Z</time>
      </trkpt>
      <trkpt lat="43.65445" lon="3.3178">
        <ele>158.75</ele>
        <time>2014-09-28T11:03:38Z</time>
      </trkpt>
      <trkpt lat="43.65424" lon="3.31811">
        <ele>157.79</ele>
        <time>2014-09-28T11:03:43Z</time>
      </trkpt>
      <trkpt lat="43.65418" lon="3.31842">
        <ele>156.35</ele>
        <time>2014-09-28T11:03:49Z</time>
      </trkpt>
      <trkpt lat="43.65407" lon="3.31855">
        <ele>156.35</ele>
        <time>2014-09-28T11:04:00Z</time>
      </trkpt>
      <trkpt lat="43.65405" lon="3.31858">
        <ele>156.35</ele>
        <time>2014-09-28T11:04:02Z</time>
      </trkpt>
      <trkpt lat="43.65409" lon="3.31872">
        <ele>153.47</ele>
        <time>2014-09-28T11:04:12Z</time>
      </trkpt>
      <trkpt lat="43.65406" lon="3.31881">
        <ele>153.47</ele>
        <time>2014-09-28T11:04:22Z</time>
      </trkpt>
      <trkpt lat="43.65403" lon="3.31886">
        <ele>153.47</ele>
        <time>2014-09-28T11:04:32Z</time>
      </trkpt>
      <trkpt lat="43.65403" lon="3.31891">
        <ele>153.47</ele>
        <time>2014-09-28T11:04:39Z</time>
      </trkpt>
      <trkpt lat="43.65412" lon="3.31911">
        <ele>153.47</ele>
        <time>2014-09-28T11:04:52Z</time>
      </trkpt>
      <trkpt lat="43.65422" lon="3.31932">
        <ele>155.39</ele>
        <time>2014-09-28T11:05:05Z</time>
      </trkpt>
      <trkpt lat="43.65428" lon="3.31943">
        <ele>155.39</ele>
        <time>2014-09-28T11:05:10Z</time>
      </trkpt>
      <trkpt lat="43.65429" lon="3.32007">
        <ele>155.39</ele>
        <time>2014-09-28T11:05:28Z</time>
      </trkpt>
      <trkpt lat="43.65425" lon="3.32038">
        <ele>155.87</ele>
        <time>2014-09-28T11:05:35Z</time>
      </trkpt>
      <trkpt lat="43.65422" lon="3.32054">
        <ele>154.43</ele>
        <time>2014-09-28T11:05:38Z</time>
      </trkpt>
      <trkpt lat="43.65409" lon="3.32106">
        <ele>152.03</ele>
        <time>2014-09-28T11:05:47Z</time>
      </trkpt>
      <trkpt lat="43.65396" lon="3.32119">
        <ele>150.1</ele>
        <time>2014-09-28T11:05:52Z</time>
      </trkpt>
      <trkpt lat="43.65391" lon="3.32145">
        <ele>151.54</ele>
        <time>2014-09-28T11:06:00Z</time>
      </trkpt>
      <trkpt lat="43.65391" lon="3.3216">
        <ele>152.03</ele>
        <time>2014-09-28T11:06:04Z</time>
      </trkpt>
      <trkpt lat="43.65387" lon="3.32199">
        <ele>152.51</ele>
        <time>2014-09-28T11:06:12Z</time>
      </trkpt>
      <trkpt lat="43.65384" lon="3.32238">
        <ele>152.03</ele>
        <time>2014-09-28T11:06:19Z</time>
      </trkpt>
      <trkpt lat="43.65389" lon="3.32311">
        <ele>150.58</ele>
        <time>2014-09-28T11:06:33Z</time>
      </trkpt>
      <trkpt lat="43.65397" lon="3.32337">
        <ele>150.58</ele>
        <time>2014-09-28T11:06:42Z</time>
      </trkpt>
      <trkpt lat="43.65394" lon="3.32361">
        <ele>149.62</ele>
        <time>2014-09-28T11:06:48Z</time>
      </trkpt>
      <trkpt lat="43.65361" lon="3.32387">
        <ele>147.22</ele>
        <time>2014-09-28T11:06:58Z</time>
      </trkpt>
      <trkpt lat="43.65352" lon="3.32398">
        <ele>146.74</ele>
        <time>2014-09-28T11:07:01Z</time>
      </trkpt>
      <trkpt lat="43.65337" lon="3.32438">
        <ele>146.74</ele>
        <time>2014-09-28T11:07:13Z</time>
      </trkpt>
      <trkpt lat="43.65328" lon="3.32487">
        <ele>146.74</ele>
        <time>2014-09-28T11:07:27Z</time>
      </trkpt>
      <trkpt lat="43.65312" lon="3.32555">
        <ele>146.26</ele>
        <time>2014-09-28T11:07:42Z</time>
      </trkpt>
      <trkpt lat="43.65313" lon="3.32609">
        <ele>145.78</ele>
        <time>2014-09-28T11:07:54Z</time>
      </trkpt>
      <trkpt lat="43.65314" lon="3.32614">
        <ele>145.3</ele>
        <time>2014-09-28T11:07:55Z</time>
      </trkpt>
      <trkpt lat="43.6532" lon="3.32653">
        <ele>144.82</ele>
        <time>2014-09-28T11:08:02Z</time>
      </trkpt>
      <trkpt lat="43.65324" lon="3.32677">
        <ele>144.34</ele>
        <time>2014-09-28T11:08:06Z</time>
      </trkpt>
      <trkpt lat="43.65334" lon="3.32731">
        <ele>143.85</ele>
        <time>2014-09-28T11:08:15Z</time>
      </trkpt>
      <trkpt lat="43.65336" lon="3.32744">
        <ele>143.37</ele>
        <time>2014-09-28T11:08:17Z</time>
      </trkpt>
      <trkpt lat="43.65338" lon="3.32756">
        <ele>142.89</ele>
        <time>2014-09-28T11:08:19Z</time>
      </trkpt>
      <trkpt lat="43.65348" lon="3.32814">
        <ele>142.89</ele>
        <time>2014-09-28T11:08:30Z</time>
      </trkpt>
      <trkpt lat="43.65358" lon="3.32866">
        <ele>142.41</ele>
        <time>2014-09-28T11:08:41Z</time>
      </trkpt>
      <trkpt lat="43.65373" lon="3.32894">
        <ele>142.41</ele>
        <time>2014-09-28T11:08:50Z</time>
      </trkpt>
      <trkpt lat="43.65405" lon="3.32913">
        <ele>142.89</ele>
        <time>2014-09-28T11:09:03Z</time>
      </trkpt>
      <trkpt lat="43.6542" lon="3.32929">
        <ele>142.41</ele>
        <time>2014-09-28T11:09:11Z</time>
      </trkpt>
      <trkpt lat="43.65425" lon="3.32937">
        <ele>142.89</ele>
        <time>2014-09-28T11:09:15Z</time>
      </trkpt>
      <trkpt lat="43.6543" lon="3.32945">
        <ele>142.89</ele>
        <time>2014-09-28T11:09:19Z</time>
      </trkpt>
      <trkpt lat="43.65446" lon="3.32967">
        <ele>142.89</ele>
        <time>2014-09-28T11:09:32Z</time>
      </trkpt>
      <trkpt lat="43.65447" lon="3.32967">
        <ele>142.89</ele>
        <time>2014-09-28T11:09:47Z</time>
      </trkpt>
      <trkpt lat="43.6545" lon="3.32972">
        <ele>142.89</ele>
        <time>2014-09-28T11:10:10Z</time>
      </trkpt>
      <trkpt lat="43.65451" lon="3.32973">
        <ele>142.89</ele>
        <time>2014-09-28T11:10:11Z</time>
      </trkpt>
      <trkpt lat="43.65467" lon="3.32995">
        <ele>141.93</ele>
        <time>2014-09-28T11:10:21Z</time>
      </trkpt>
      <trkpt lat="43.65474" lon="3.32998">
        <ele>142.89</ele>
        <time>2014-09-28T11:10:31Z</time>
      </trkpt>
      <trkpt lat="43.65482" lon="3.32995">
        <ele>144.82</ele>
        <time>2014-09-28T11:10:44Z</time>
      </trkpt>
      <trkpt lat="43.65482" lon="3.32995">
        <ele>144.82</ele>
        <time>2014-09-28T11:10:45Z</time>
      </trkpt>
      <trkpt lat="43.65488" lon="3.33001">
        <ele>143.85</ele>
        <time>2014-09-28T11:10:49Z</time>
      </trkpt>
      <trkpt lat="43.65511" lon="3.33034">
        <ele>145.3</ele>
        <time>2014-09-28T11:11:04Z</time>
      </trkpt>
      <trkpt lat="43.65521" lon="3.33059">
        <ele>144.82</ele>
        <time>2014-09-28T11:11:12Z</time>
      </trkpt>
      <trkpt lat="43.65527" lon="3.33078">
        <ele>143.37</ele>
        <time>2014-09-28T11:11:17Z</time>
      </trkpt>
      <trkpt lat="43.65544" lon="3.33095">
        <ele>144.82</ele>
        <time>2014-09-28T11:11:28Z</time>
      </trkpt>
      <trkpt lat="43.65546" lon="3.33096">
        <ele>144.82</ele>
        <time>2014-09-28T11:11:41Z</time>
      </trkpt>
      <trkpt lat="43.65548" lon="3.331">
        <ele>146.26</ele>
        <time>2014-09-28T11:11:55Z</time>
      </trkpt>
      <trkpt lat="43.65548" lon="3.33101">
        <ele>146.26</ele>
        <time>2014-09-28T11:11:57Z</time>
      </trkpt>
      <trkpt lat="43.65558" lon="3.33118">
        <ele>145.78</ele>
        <time>2014-09-28T11:12:05Z</time>
      </trkpt>
      <trkpt lat="43.65574" lon="3.33128">
        <ele>146.74</ele>
        <time>2014-09-28T11:12:13Z</time>
      </trkpt>
      <trkpt lat="43.65579" lon="3.33133">
        <ele>147.22</ele>
        <time>2014-09-28T11:12:16Z</time>
      </trkpt>
      <trkpt lat="43.65582" lon="3.33149">
        <ele>144.82</ele>
        <time>2014-09-28T11:12:20Z</time>
      </trkpt>
      <trkpt lat="43.6559" lon="3.33167">
        <ele>142.89</ele>
        <time>2014-09-28T11:12:25Z</time>
      </trkpt>
      <trkpt lat="43.65601" lon="3.33173">
        <ele>143.37</ele>
        <time>2014-09-28T11:12:37Z</time>
      </trkpt>
      <trkpt lat="43.65608" lon="3.3317">
        <ele>144.82</ele>
        <time>2014-09-28T11:12:48Z</time>
      </trkpt>
      <trkpt lat="43.65625" lon="3.33206">
        <ele>142.89</ele>
        <time>2014-09-28T11:12:57Z</time>
      </trkpt>
      <trkpt lat="43.65638" lon="3.33229">
        <ele>141.45</ele>
        <time>2014-09-28T11:13:02Z</time>
      </trkpt>
      <trkpt lat="43.65648" lon="3.33239">
        <ele>141.45</ele>
        <time>2014-09-28T11:13:05Z</time>
      </trkpt>
      <trkpt lat="43.6565" lon="3.33267">
        <ele>141.93</ele>
        <time>2014-09-28T11:13:13Z</time>
      </trkpt>
      <trkpt lat="43.65656" lon="3.33291">
        <ele>144.34</ele>
        <time>2014-09-28T11:13:23Z</time>
      </trkpt>
      <trkpt lat="43.6566" lon="3.333">
        <ele>144.82</ele>
        <time>2014-09-28T11:13:27Z</time>
      </trkpt>
      <trkpt lat="43.65674" lon="3.33327">
        <ele>144.82</ele>
        <time>2014-09-28T11:13:36Z</time>
      </trkpt>
      <trkpt lat="43.65688" lon="3.33341">
        <ele>142.89</ele>
        <time>2014-09-28T11:13:44Z</time>
      </trkpt>
      <trkpt lat="43.65693" lon="3.33344">
        <ele>142.89</ele>
        <time>2014-09-28T11:13:46Z</time>
      </trkpt>
      <trkpt lat="43.65711" lon="3.33356">
        <ele>141.45</ele>
        <time>2014-09-28T11:13:56Z</time>
      </trkpt>
      <trkpt lat="43.65713" lon="3.33362">
        <ele>141.45</ele>
        <time>2014-09-28T11:13:58Z</time>
      </trkpt>
      <trkpt lat="43.65727" lon="3.3338">
        <ele>141.45</ele>
        <time>2014-09-28T11:14:05Z</time>
      </trkpt>
      <trkpt lat="43.65738" lon="3.33395">
        <ele>141.45</ele>
        <time>2014-09-28T11:14:15Z</time>
      </trkpt>
      <trkpt lat="43.65747" lon="3.33401">
        <ele>142.89</ele>
        <time>2014-09-28T11:14:27Z</time>
      </trkpt>
      <trkpt lat="43.6575" lon="3.33403">
        <ele>143.37</ele>
        <time>2014-09-28T11:14:31Z</time>
      </trkpt>
      <trkpt lat="43.65759" lon="3.33411">
        <ele>144.82</ele>
        <time>2014-09-28T11:14:44Z</time>
      </trkpt>
      <trkpt lat="43.65761" lon="3.33414">
        <ele>144.82</ele>
        <time>2014-09-28T11:14:52Z</time>
      </trkpt>
      <trkpt lat="43.65764" lon="3.33417">
        <ele>145.3</ele>
        <time>2014-09-28T11:14:55Z</time>
      </trkpt>
      <trkpt lat="43.65772" lon="3.33424">
        <ele>145.78</ele>
        <time>2014-09-28T11:15:00Z</time>
      </trkpt>
      <trkpt lat="43.65777" lon="3.33427">
        <ele>145.78</ele>
        <time>2014-09-28T11:15:02Z</time>
      </trkpt>
      <trkpt lat="43.65806" lon="3.3344">
        <ele>144.34</ele>
        <time>2014-09-28T11:15:12Z</time>
      </trkpt>
      <trkpt lat="43.65821" lon="3.33443">
        <ele>143.37</ele>
        <time>2014-09-28T11:15:15Z</time>
      </trkpt>
      <trkpt lat="43.65838" lon="3.33447">
        <ele>142.41</ele>
        <time>2014-09-28T11:15:21Z</time>
      </trkpt>
      <trkpt lat="43.65844" lon="3.3345">
        <ele>140.49</ele>
        <time>2014-09-28T11:15:30Z</time>
      </trkpt>
      <trkpt lat="43.65847" lon="3.33452">
        <ele>140.49</ele>
        <time>2014-09-28T11:15:32Z</time>
      </trkpt>
      <trkpt lat="43.65852" lon="3.33459">
        <ele>139.53</ele>
        <time>2014-09-28T11:15:43Z</time>
      </trkpt>
      <trkpt lat="43.65853" lon="3.33461">
        <ele>139.53</ele>
        <time>2014-09-28T11:15:44Z</time>
      </trkpt>
      <trkpt lat="43.65879" lon="3.33464">
        <ele>139.53</ele>
        <time>2014-09-28T11:15:54Z</time>
      </trkpt>
      <trkpt lat="43.65882" lon="3.33464">
        <ele>139.53</ele>
        <time>2014-09-28T11:15:55Z</time>
      </trkpt>
      <trkpt lat="43.65889" lon="3.33464">
        <ele>140.97</ele>
        <time>2014-09-28T11:15:59Z</time>
      </trkpt>
      <trkpt lat="43.65919" lon="3.33494">
        <ele>141.93</ele>
        <time>2014-09-28T11:16:13Z</time>
      </trkpt>
      <trkpt lat="43.65933" lon="3.33523">
        <ele>142.89</ele>
        <time>2014-09-28T11:16:23Z</time>
      </trkpt>
      <trkpt lat="43.65938" lon="3.33525">
        <ele>143.37</ele>
        <time>2014-09-28T11:16:25Z</time>
      </trkpt>
      <trkpt lat="43.65944" lon="3.33528">
        <ele>143.85</ele>
        <time>2014-09-28T11:16:29Z</time>
      </trkpt>
      <trkpt lat="43.65955" lon="3.33529">
        <ele>144.82</ele>
        <time>2014-09-28T11:16:35Z</time>
      </trkpt>
      <trkpt lat="43.65973" lon="3.33522">
        <ele>147.7</ele>
        <time>2014-09-28T11:16:49Z</time>
      </trkpt>
      <trkpt lat="43.65975" lon="3.33522">
        <ele>147.7</ele>
        <time>2014-09-28T11:16:50Z</time>
      </trkpt>
      <trkpt lat="43.65998" lon="3.33529">
        <ele>150.1</ele>
        <time>2014-09-28T11:17:06Z</time>
      </trkpt>
      <trkpt lat="43.66021" lon="3.33536">
        <ele>152.03</ele>
        <time>2014-09-28T11:17:21Z</time>
      </trkpt>
      <trkpt lat="43.66031" lon="3.33534">
        <ele>152.51</ele>
        <time>2014-09-28T11:17:25Z</time>
      </trkpt>
      <trkpt lat="43.66059" lon="3.33551">
        <ele>152.99</ele>
        <time>2014-09-28T11:17:37Z</time>
      </trkpt>
      <trkpt lat="43.66091" lon="3.33559">
        <ele>154.91</ele>
        <time>2014-09-28T11:17:51Z</time>
      </trkpt>
      <trkpt lat="43.66124" lon="3.33576">
        <ele>154.91</ele>
        <time>2014-09-28T11:18:03Z</time>
      </trkpt>
      <trkpt lat="43.66143" lon="3.33608">
        <ele>157.79</ele>
        <time>2014-09-28T11:18:16Z</time>
      </trkpt>
      <trkpt lat="43.6618" lon="3.33612">
        <ele>159.72</ele>
        <time>2014-09-28T11:18:29Z</time>
      </trkpt>
      <trkpt lat="43.66198" lon="3.33611">
        <ele>159.24</ele>
        <time>2014-09-28T11:18:34Z</time>
      </trkpt>
      <trkpt lat="43.66219" lon="3.33617">
        <ele>157.31</ele>
        <time>2014-09-28T11:18:38Z</time>
      </trkpt>
      <trkpt lat="43.66224" lon="3.33619">
        <ele>157.31</ele>
        <time>2014-09-28T11:18:39Z</time>
      </trkpt>
      <trkpt lat="43.6626" lon="3.33621">
        <ele>159.72</ele>
        <time>2014-09-28T11:18:50Z</time>
      </trkpt>
      <trkpt lat="43.66299" lon="3.33622">
        <ele>162.12</ele>
        <time>2014-09-28T11:19:06Z</time>
      </trkpt>
      <trkpt lat="43.66327" lon="3.33621">
        <ele>163.08</ele>
        <time>2014-09-28T11:19:19Z</time>
      </trkpt>
      <trkpt lat="43.66338" lon="3.33616">
        <ele>162.6</ele>
        <time>2014-09-28T11:19:24Z</time>
      </trkpt>
      <trkpt lat="43.66374" lon="3.33606">
        <ele>163.08</ele>
        <time>2014-09-28T11:19:38Z</time>
      </trkpt>
      <trkpt lat="43.66389" lon="3.33599">
        <ele>163.08</ele>
        <time>2014-09-28T11:19:46Z</time>
      </trkpt>
      <trkpt lat="43.66384" lon="3.33629">
        <ele>161.16</ele>
        <time>2014-09-28T11:19:53Z</time>
      </trkpt>
      <trkpt lat="43.66382" lon="3.33649">
        <ele>159.24</ele>
        <time>2014-09-28T11:19:55Z</time>
      </trkpt>
      <trkpt lat="43.66385" lon="3.33696">
        <ele>156.35</ele>
        <time>2014-09-28T11:19:59Z</time>
      </trkpt>
      <trkpt lat="43.66385" lon="3.33722">
        <ele>154.91</ele>
        <time>2014-09-28T11:20:01Z</time>
      </trkpt>
      <trkpt lat="43.66378" lon="3.33745">
        <ele>152.03</ele>
        <time>2014-09-28T11:20:03Z</time>
      </trkpt>
      <trkpt lat="43.66368" lon="3.33769">
        <ele>150.58</ele>
        <time>2014-09-28T11:20:05Z</time>
      </trkpt>
      <trkpt lat="43.66359" lon="3.33821">
        <ele>147.22</ele>
        <time>2014-09-28T11:20:09Z</time>
      </trkpt>
      <trkpt lat="43.66347" lon="3.33834">
        <ele>146.74</ele>
        <time>2014-09-28T11:20:11Z</time>
      </trkpt>
      <trkpt lat="43.66324" lon="3.33849">
        <ele>146.26</ele>
        <time>2014-09-28T11:20:15Z</time>
      </trkpt>
      <trkpt lat="43.66307" lon="3.33869">
        <ele>145.78</ele>
        <time>2014-09-28T11:20:19Z</time>
      </trkpt>
      <trkpt lat="43.66282" lon="3.33902">
        <ele>146.74</ele>
        <time>2014-09-28T11:20:29Z</time>
      </trkpt>
      <trkpt lat="43.66269" lon="3.33948">
        <ele>145.78</ele>
        <time>2014-09-28T11:20:37Z</time>
      </trkpt>
      <trkpt lat="43.66241" lon="3.3396">
        <ele>144.34</ele>
        <time>2014-09-28T11:20:44Z</time>
      </trkpt>
      <trkpt lat="43.66215" lon="3.33946">
        <ele>143.37</ele>
        <time>2014-09-28T11:20:51Z</time>
      </trkpt>
      <trkpt lat="43.66211" lon="3.33964">
        <ele>143.85</ele>
        <time>2014-09-28T11:20:58Z</time>
      </trkpt>
      <trkpt lat="43.66217" lon="3.33979">
        <ele>144.82</ele>
        <time>2014-09-28T11:21:04Z</time>
      </trkpt>
      <trkpt lat="43.66237" lon="3.33993">
        <ele>146.74</ele>
        <time>2014-09-28T11:21:17Z</time>
      </trkpt>
      <trkpt lat="43.66252" lon="3.33997">
        <ele>148.18</ele>
        <time>2014-09-28T11:21:26Z</time>
      </trkpt>
      <trkpt lat="43.66279" lon="3.33987">
        <ele>149.14</ele>
        <time>2014-09-28T11:21:39Z</time>
      </trkpt>
      <trkpt lat="43.663" lon="3.33982">
        <ele>150.1</ele>
        <time>2014-09-28T11:21:51Z</time>
      </trkpt>
      <trkpt lat="43.66308" lon="3.33981">
        <ele>150.58</ele>
        <time>2014-09-28T11:21:55Z</time>
      </trkpt>
      <trkpt lat="43.66333" lon="3.33966">
        <ele>152.51</ele>
        <time>2014-09-28T11:22:09Z</time>
      </trkpt>
      <trkpt lat="43.66336" lon="3.33963">
        <ele>152.99</ele>
        <time>2014-09-28T11:22:12Z</time>
      </trkpt>
      <trkpt lat="43.66361" lon="3.33948">
        <ele>154.91</ele>
        <time>2014-09-28T11:22:27Z</time>
      </trkpt>
      <trkpt lat="43.66376" lon="3.33945">
        <ele>153.95</ele>
        <time>2014-09-28T11:22:33Z</time>
      </trkpt>
      <trkpt lat="43.66399" lon="3.33933">
        <ele>152.51</ele>
        <time>2014-09-28T11:22:39Z</time>
      </trkpt>
      <trkpt lat="43.664" lon="3.3393">
        <ele>152.99</ele>
        <time>2014-09-28T11:22:40Z</time>
      </trkpt>
      <trkpt lat="43.66417" lon="3.339">
        <ele>156.35</ele>
        <time>2014-09-28T11:22:54Z</time>
      </trkpt>
      <trkpt lat="43.66419" lon="3.33897">
        <ele>157.31</ele>
        <time>2014-09-28T11:22:56Z</time>
      </trkpt>
      <trkpt lat="43.6642" lon="3.33894">
        <ele>158.27</ele>
        <time>2014-09-28T11:22:58Z</time>
      </trkpt>
      <trkpt lat="43.66421" lon="3.33892">
        <ele>157.79</ele>
        <time>2014-09-28T11:22:59Z</time>
      </trkpt>
      <trkpt lat="43.66436" lon="3.33885">
        <ele>159.72</ele>
        <time>2014-09-28T11:23:11Z</time>
      </trkpt>
      <trkpt lat="43.66442" lon="3.33883">
        <ele>159.72</ele>
        <time>2014-09-28T11:23:15Z</time>
      </trkpt>
      <trkpt lat="43.6646" lon="3.33883">
        <ele>159.24</ele>
        <time>2014-09-28T11:23:22Z</time>
      </trkpt>
      <trkpt lat="43.66485" lon="3.33865">
        <ele>159.24</ele>
        <time>2014-09-28T11:23:32Z</time>
      </trkpt>
      <trkpt lat="43.66497" lon="3.3385">
        <ele>160.68</ele>
        <time>2014-09-28T11:23:43Z</time>
      </trkpt>
      <trkpt lat="43.66499" lon="3.33849">
        <ele>161.16</ele>
        <time>2014-09-28T11:23:45Z</time>
      </trkpt>
      <trkpt lat="43.66514" lon="3.3384">
        <ele>163.56</ele>
        <time>2014-09-28T11:23:59Z</time>
      </trkpt>
      <trkpt lat="43.66515" lon="3.33838">
        <ele>164.04</ele>
        <time>2014-09-28T11:24:01Z</time>
      </trkpt>
      <trkpt lat="43.66529" lon="3.3383">
        <ele>166.93</ele>
        <time>2014-09-28T11:24:16Z</time>
      </trkpt>
      <trkpt lat="43.66531" lon="3.33828">
        <ele>167.41</ele>
        <time>2014-09-28T11:24:19Z</time>
      </trkpt>
      <trkpt lat="43.66538" lon="3.33824">
        <ele>168.85</ele>
        <time>2014-09-28T11:24:27Z</time>
      </trkpt>
      <trkpt lat="43.6654" lon="3.33824">
        <ele>169.33</ele>
        <time>2014-09-28T11:24:29Z</time>
      </trkpt>
      <trkpt lat="43.66546" lon="3.33828">
        <ele>169.81</ele>
        <time>2014-09-28T11:24:34Z</time>
      </trkpt>
      <trkpt lat="43.66552" lon="3.33827">
        <ele>170.77</ele>
        <time>2014-09-28T11:24:39Z</time>
      </trkpt>
      <trkpt lat="43.66564" lon="3.33829">
        <ele>172.69</ele>
        <time>2014-09-28T11:24:50Z</time>
      </trkpt>
      <trkpt lat="43.66578" lon="3.33826">
        <ele>174.62</ele>
        <time>2014-09-28T11:25:04Z</time>
      </trkpt>
      <trkpt lat="43.6658" lon="3.33825">
        <ele>175.58</ele>
        <time>2014-09-28T11:25:14Z</time>
      </trkpt>
      <trkpt lat="43.66584" lon="3.33827">
        <ele>176.06</ele>
        <time>2014-09-28T11:25:31Z</time>
      </trkpt>
      <trkpt lat="43.6659" lon="3.33825">
        <ele>177.02</ele>
        <time>2014-09-28T11:25:38Z</time>
      </trkpt>
      <trkpt lat="43.66602" lon="3.3382">
        <ele>178.46</ele>
        <time>2014-09-28T11:25:53Z</time>
      </trkpt>
      <trkpt lat="43.66613" lon="3.33817">
        <ele>179.9</ele>
        <time>2014-09-28T11:26:07Z</time>
      </trkpt>
      <trkpt lat="43.66622" lon="3.33818">
        <ele>180.87</ele>
        <time>2014-09-28T11:26:17Z</time>
      </trkpt>
      <trkpt lat="43.66635" lon="3.33816">
        <ele>182.31</ele>
        <time>2014-09-28T11:26:29Z</time>
      </trkpt>
      <trkpt lat="43.66636" lon="3.33817">
        <ele>182.31</ele>
        <time>2014-09-28T11:26:45Z</time>
      </trkpt>
      <trkpt lat="43.66636" lon="3.33817">
        <ele>182.79</ele>
        <time>2014-09-28T11:27:09Z</time>
      </trkpt>
      <trkpt lat="43.66637" lon="3.33818">
        <ele>182.31</ele>
        <time>2014-09-28T11:27:34Z</time>
      </trkpt>
      <trkpt lat="43.66636" lon="3.33818">
        <ele>182.31</ele>
        <time>2014-09-28T11:27:58Z</time>
      </trkpt>
      <trkpt lat="43.66637" lon="3.33818">
        <ele>182.31</ele>
        <time>2014-09-28T11:28:26Z</time>
      </trkpt>
      <trkpt lat="43.66636" lon="3.33817">
        <ele>182.31</ele>
        <time>2014-09-28T11:28:55Z</time>
      </trkpt>
      <trkpt lat="43.66639" lon="3.33818">
        <ele>182.79</ele>
        <time>2014-09-28T11:29:03Z</time>
      </trkpt>
      <trkpt lat="43.6665" lon="3.33815">
        <ele>183.27</ele>
        <time>2014-09-28T11:29:09Z</time>
      </trkpt>
      <trkpt lat="43.66662" lon="3.33787">
        <ele>184.23</ele>
        <time>2014-09-28T11:29:21Z</time>
      </trkpt>
      <trkpt lat="43.66677" lon="3.33774">
        <ele>185.19</ele>
        <time>2014-09-28T11:29:33Z</time>
      </trkpt>
      <trkpt lat="43.66693" lon="3.33749">
        <ele>187.59</ele>
        <time>2014-09-28T11:29:50Z</time>
      </trkpt>
      <trkpt lat="43.66694" lon="3.33739">
        <ele>187.59</ele>
        <time>2014-09-28T11:29:53Z</time>
      </trkpt>
      <trkpt lat="43.66702" lon="3.3373">
        <ele>187.59</ele>
        <time>2014-09-28T11:29:57Z</time>
      </trkpt>
      <trkpt lat="43.66724" lon="3.33706">
        <ele>188.56</ele>
        <time>2014-09-28T11:30:10Z</time>
      </trkpt>
      <trkpt lat="43.66748" lon="3.33684">
        <ele>186.63</ele>
        <time>2014-09-28T11:30:20Z</time>
      </trkpt>
      <trkpt lat="43.66756" lon="3.33677">
        <ele>185.67</ele>
        <time>2014-09-28T11:30:22Z</time>
      </trkpt>
      <trkpt lat="43.66778" lon="3.33653">
        <ele>183.75</ele>
        <time>2014-09-28T11:30:30Z</time>
      </trkpt>
      <trkpt lat="43.66775" lon="3.33642">
        <ele>183.75</ele>
        <time>2014-09-28T11:30:34Z</time>
      </trkpt>
      <trkpt lat="43.66779" lon="3.33597">
        <ele>183.75</ele>
        <time>2014-09-28T11:30:46Z</time>
      </trkpt>
      <trkpt lat="43.66795" lon="3.33566">
        <ele>183.75</ele>
        <time>2014-09-28T11:30:58Z</time>
      </trkpt>
      <trkpt lat="43.66807" lon="3.33569">
        <ele>184.23</ele>
        <time>2014-09-28T11:31:05Z</time>
      </trkpt>
      <trkpt lat="43.66829" lon="3.33565">
        <ele>186.63</ele>
        <time>2014-09-28T11:31:17Z</time>
      </trkpt>
      <trkpt lat="43.66858" lon="3.3356">
        <ele>187.11</ele>
        <time>2014-09-28T11:31:29Z</time>
      </trkpt>
      <trkpt lat="43.66866" lon="3.3356">
        <ele>187.11</ele>
        <time>2014-09-28T11:31:31Z</time>
      </trkpt>
      <trkpt lat="43.66898" lon="3.33552">
        <ele>186.63</ele>
        <time>2014-09-28T11:31:39Z</time>
      </trkpt>
      <trkpt lat="43.66907" lon="3.3355">
        <ele>186.63</ele>
        <time>2014-09-28T11:31:41Z</time>
      </trkpt>
      <trkpt lat="43.66921" lon="3.33551">
        <ele>186.63</ele>
        <time>2014-09-28T11:31:44Z</time>
      </trkpt>
      <trkpt lat="43.66946" lon="3.33553">
        <ele>186.63</ele>
        <time>2014-09-28T11:31:49Z</time>
      </trkpt>
      <trkpt lat="43.66968" lon="3.33556">
        <ele>186.15</ele>
        <time>2014-09-28T11:31:54Z</time>
      </trkpt>
      <trkpt lat="43.66977" lon="3.33557">
        <ele>185.67</ele>
        <time>2014-09-28T11:31:56Z</time>
      </trkpt>
      <trkpt lat="43.66998" lon="3.3356">
        <ele>184.71</ele>
        <time>2014-09-28T11:32:00Z</time>
      </trkpt>
      <trkpt lat="43.67017" lon="3.33563">
        <ele>184.71</ele>
        <time>2014-09-28T11:32:05Z</time>
      </trkpt>
      <trkpt lat="43.67026" lon="3.33546">
        <ele>181.35</ele>
        <time>2014-09-28T11:32:11Z</time>
      </trkpt>
      <trkpt lat="43.67039" lon="3.33523">
        <ele>177.5</ele>
        <time>2014-09-28T11:32:16Z</time>
      </trkpt>
      <trkpt lat="43.67049" lon="3.3352">
        <ele>176.06</ele>
        <time>2014-09-28T11:32:18Z</time>
      </trkpt>
      <trkpt lat="43.67075" lon="3.33516">
        <ele>172.21</ele>
        <time>2014-09-28T11:32:23Z</time>
      </trkpt>
      <trkpt lat="43.67083" lon="3.33517">
        <ele>171.25</ele>
        <time>2014-09-28T11:32:25Z</time>
      </trkpt>
      <trkpt lat="43.67113" lon="3.3351">
        <ele>169.81</ele>
        <time>2014-09-28T11:32:33Z</time>
      </trkpt>
      <trkpt lat="43.67124" lon="3.33505">
        <ele>168.37</ele>
        <time>2014-09-28T11:32:35Z</time>
      </trkpt>
      <trkpt lat="43.67143" lon="3.33501">
        <ele>166.45</ele>
        <time>2014-09-28T11:32:38Z</time>
      </trkpt>
      <trkpt lat="43.67156" lon="3.33497">
        <ele>165.96</ele>
        <time>2014-09-28T11:32:40Z</time>
      </trkpt>
      <trkpt lat="43.6717" lon="3.3349">
        <ele>164.04</ele>
        <time>2014-09-28T11:32:43Z</time>
      </trkpt>
      <trkpt lat="43.67174" lon="3.33488">
        <ele>163.56</ele>
        <time>2014-09-28T11:32:44Z</time>
      </trkpt>
      <trkpt lat="43.67196" lon="3.33499">
        <ele>162.12</ele>
        <time>2014-09-28T11:32:51Z</time>
      </trkpt>
      <trkpt lat="43.6721" lon="3.3351">
        <ele>163.56</ele>
        <time>2014-09-28T11:32:59Z</time>
      </trkpt>
      <trkpt lat="43.6722" lon="3.33512">
        <ele>163.56</ele>
        <time>2014-09-28T11:33:03Z</time>
      </trkpt>
      <trkpt lat="43.67225" lon="3.33517">
        <ele>163.56</ele>
        <time>2014-09-28T11:33:05Z</time>
      </trkpt>
      <trkpt lat="43.67248" lon="3.335">
        <ele>159.72</ele>
        <time>2014-09-28T11:33:12Z</time>
      </trkpt>
      <trkpt lat="43.67273" lon="3.3351">
        <ele>156.35</ele>
        <time>2014-09-28T11:33:17Z</time>
      </trkpt>
      <trkpt lat="43.67286" lon="3.33524">
        <ele>155.39</ele>
        <time>2014-09-28T11:33:21Z</time>
      </trkpt>
      <trkpt lat="43.67304" lon="3.33536">
        <ele>156.35</ele>
        <time>2014-09-28T11:33:30Z</time>
      </trkpt>
      <trkpt lat="43.67309" lon="3.33545">
        <ele>155.39</ele>
        <time>2014-09-28T11:33:33Z</time>
      </trkpt>
      <trkpt lat="43.67318" lon="3.33555">
        <ele>155.39</ele>
        <time>2014-09-28T11:33:37Z</time>
      </trkpt>
      <trkpt lat="43.67328" lon="3.33557">
        <ele>155.87</ele>
        <time>2014-09-28T11:33:42Z</time>
      </trkpt>
      <trkpt lat="43.67334" lon="3.33567">
        <ele>156.83</ele>
        <time>2014-09-28T11:33:46Z</time>
      </trkpt>
      <trkpt lat="43.67352" lon="3.33596">
        <ele>157.31</ele>
        <time>2014-09-28T11:33:57Z</time>
      </trkpt>
      <trkpt lat="43.67367" lon="3.33614">
        <ele>158.75</ele>
        <time>2014-09-28T11:34:06Z</time>
      </trkpt>
      <trkpt lat="43.67378" lon="3.33643">
        <ele>159.72</ele>
        <time>2014-09-28T11:34:17Z</time>
      </trkpt>
      <trkpt lat="43.67378" lon="3.33645">
        <ele>160.2</ele>
        <time>2014-09-28T11:34:18Z</time>
      </trkpt>
      <trkpt lat="43.67396" lon="3.33639">
        <ele>158.27</ele>
        <time>2014-09-28T11:34:25Z</time>
      </trkpt>
      <trkpt lat="43.67404" lon="3.33641">
        <ele>157.79</ele>
        <time>2014-09-28T11:34:27Z</time>
      </trkpt>
      <trkpt lat="43.6742" lon="3.33633">
        <ele>155.87</ele>
        <time>2014-09-28T11:34:31Z</time>
      </trkpt>
      <trkpt lat="43.6743" lon="3.33633">
        <ele>154.43</ele>
        <time>2014-09-28T11:34:34Z</time>
      </trkpt>
      <trkpt lat="43.67439" lon="3.33633">
        <ele>153.47</ele>
        <time>2014-09-28T11:34:38Z</time>
      </trkpt>
      <trkpt lat="43.67456" lon="3.33635">
        <ele>148.66</ele>
        <time>2014-09-28T11:34:43Z</time>
      </trkpt>
      <trkpt lat="43.67468" lon="3.33626">
        <ele>146.74</ele>
        <time>2014-09-28T11:34:46Z</time>
      </trkpt>
      <trkpt lat="43.67474" lon="3.33622">
        <ele>146.74</ele>
        <time>2014-09-28T11:34:48Z</time>
      </trkpt>
      <trkpt lat="43.67486" lon="3.33624">
        <ele>143.85</ele>
        <time>2014-09-28T11:34:57Z</time>
      </trkpt>
      <trkpt lat="43.67487" lon="3.33627">
        <ele>143.85</ele>
        <time>2014-09-28T11:34:59Z</time>
      </trkpt>
      <trkpt lat="43.67495" lon="3.33628">
        <ele>145.78</ele>
        <time>2014-09-28T11:35:10Z</time>
      </trkpt>
      <trkpt lat="43.67499" lon="3.3363">
        <ele>146.26</ele>
        <time>2014-09-28T11:35:14Z</time>
      </trkpt>
      <trkpt lat="43.67504" lon="3.33644">
        <ele>148.66</ele>
        <time>2014-09-28T11:35:27Z</time>
      </trkpt>
      <trkpt lat="43.67505" lon="3.3365">
        <ele>148.66</ele>
        <time>2014-09-28T11:35:41Z</time>
      </trkpt>
      <trkpt lat="43.67504" lon="3.33654">
        <ele>149.14</ele>
        <time>2014-09-28T11:35:58Z</time>
      </trkpt>
      <trkpt lat="43.67504" lon="3.33655">
        <ele>149.14</ele>
        <time>2014-09-28T11:36:26Z</time>
      </trkpt>
      <trkpt lat="43.67504" lon="3.33655">
        <ele>148.66</ele>
        <time>2014-09-28T11:36:51Z</time>
      </trkpt>
      <trkpt lat="43.67505" lon="3.33655">
        <ele>149.14</ele>
        <time>2014-09-28T11:37:13Z</time>
      </trkpt>
      <trkpt lat="43.67505" lon="3.33655">
        <ele>148.66</ele>
        <time>2014-09-28T11:37:39Z</time>
      </trkpt>
      <trkpt lat="43.67506" lon="3.33655">
        <ele>149.14</ele>
        <time>2014-09-28T11:38:13Z</time>
      </trkpt>
      <trkpt lat="43.67505" lon="3.33654">
        <ele>148.66</ele>
        <time>2014-09-28T11:38:39Z</time>
      </trkpt>
      <trkpt lat="43.67505" lon="3.33652">
        <ele>148.18</ele>
        <time>2014-09-28T11:38:57Z</time>
      </trkpt>
      <trkpt lat="43.67505" lon="3.33652">
        <ele>148.18</ele>
        <time>2014-09-28T11:39:23Z</time>
      </trkpt>
      <trkpt lat="43.67505" lon="3.33652">
        <ele>148.18</ele>
        <time>2014-09-28T11:39:51Z</time>
      </trkpt>
      <trkpt lat="43.67505" lon="3.33653">
        <ele>148.18</ele>
        <time>2014-09-28T11:40:15Z</time>
      </trkpt>
      <trkpt lat="43.67506" lon="3.33653">
        <ele>147.7</ele>
        <time>2014-09-28T11:40:40Z</time>
      </trkpt>
      <trkpt lat="43.67506" lon="3.33652">
        <ele>147.7</ele>
        <time>2014-09-28T11:41:07Z</time>
      </trkpt>
      <trkpt lat="43.67505" lon="3.33652">
        <ele>147.7</ele>
        <time>2014-09-28T11:41:37Z</time>
      </trkpt>
      <trkpt lat="43.67505" lon="3.33652">
        <ele>147.7</ele>
        <time>2014-09-28T11:42:03Z</time>
      </trkpt>
      <trkpt lat="43.67504" lon="3.33652">
        <ele>147.7</ele>
        <time>2014-09-28T11:42:23Z</time>
      </trkpt>
      <trkpt lat="43.67504" lon="3.33652">
        <ele>147.7</ele>
        <time>2014-09-28T11:42:25Z</time>
      </trkpt>
      <trkpt lat="43.67518" lon="3.33624">
        <ele>145.78</ele>
        <time>2014-09-28T11:42:33Z</time>
      </trkpt>
      <trkpt lat="43.67533" lon="3.33596">
        <ele>143.85</ele>
        <time>2014-09-28T11:42:38Z</time>
      </trkpt>
      <trkpt lat="43.67528" lon="3.33568">
        <ele>140.49</ele>
        <time>2014-09-28T11:42:45Z</time>
      </trkpt>
      <trkpt lat="43.6753" lon="3.33556">
        <ele>139.05</ele>
        <time>2014-09-28T11:42:53Z</time>
      </trkpt>
      <trkpt lat="43.6753" lon="3.33555">
        <ele>139.05</ele>
        <time>2014-09-28T11:42:54Z</time>
      </trkpt>
      <trkpt lat="43.67534" lon="3.33556">
        <ele>139.05</ele>
        <time>2014-09-28T11:42:59Z</time>
      </trkpt>
      <trkpt lat="43.67543" lon="3.33561">
        <ele>138.57</ele>
        <time>2014-09-28T11:43:04Z</time>
      </trkpt>
      <trkpt lat="43.67543" lon="3.3356">
        <ele>138.57</ele>
        <time>2014-09-28T11:43:05Z</time>
      </trkpt>
      <trkpt lat="43.67548" lon="3.33541">
        <ele>139.53</ele>
        <time>2014-09-28T11:43:13Z</time>
      </trkpt>
      <trkpt lat="43.67548" lon="3.33533">
        <ele>139.53</ele>
        <time>2014-09-28T11:43:19Z</time>
      </trkpt>
      <trkpt lat="43.67561" lon="3.33527">
        <ele>140.49</ele>
        <time>2014-09-28T11:43:29Z</time>
      </trkpt>
      <trkpt lat="43.67569" lon="3.33521">
        <ele>141.93</ele>
        <time>2014-09-28T11:43:40Z</time>
      </trkpt>
      <trkpt lat="43.67573" lon="3.33516">
        <ele>142.89</ele>
        <time>2014-09-28T11:43:46Z</time>
      </trkpt>
      <trkpt lat="43.67571" lon="3.33501">
        <ele>144.34</ele>
        <time>2014-09-28T11:43:58Z</time>
      </trkpt>
      <trkpt lat="43.67565" lon="3.33483">
        <ele>145.78</ele>
        <time>2014-09-28T11:44:06Z</time>
      </trkpt>
      <trkpt lat="43.67563" lon="3.33464">
        <ele>147.22</ele>
        <time>2014-09-28T11:44:15Z</time>
      </trkpt>
      <trkpt lat="43.6756" lon="3.33433">
        <ele>150.1</ele>
        <time>2014-09-28T11:44:30Z</time>
      </trkpt>
      <trkpt lat="43.67561" lon="3.33425">
        <ele>150.58</ele>
        <time>2014-09-28T11:44:34Z</time>
      </trkpt>
      <trkpt lat="43.67562" lon="3.33398">
        <ele>152.51</ele>
        <time>2014-09-28T11:44:48Z</time>
      </trkpt>
      <trkpt lat="43.67567" lon="3.33363">
        <ele>154.43</ele>
        <time>2014-09-28T11:45:03Z</time>
      </trkpt>
      <trkpt lat="43.67566" lon="3.33327">
        <ele>156.83</ele>
        <time>2014-09-28T11:45:17Z</time>
      </trkpt>
      <trkpt lat="43.67579" lon="3.33292">
        <ele>157.79</ele>
        <time>2014-09-28T11:45:30Z</time>
      </trkpt>
      <trkpt lat="43.67589" lon="3.33261">
        <ele>160.68</ele>
        <time>2014-09-28T11:45:44Z</time>
      </trkpt>
      <trkpt lat="43.67602" lon="3.33236">
        <ele>163.08</ele>
        <time>2014-09-28T11:45:58Z</time>
      </trkpt>
      <trkpt lat="43.67607" lon="3.33228">
        <ele>164.04</ele>
        <time>2014-09-28T11:46:03Z</time>
      </trkpt>
      <trkpt lat="43.67633" lon="3.33227">
        <ele>165.48</ele>
        <time>2014-09-28T11:46:17Z</time>
      </trkpt>
      <trkpt lat="43.67667" lon="3.33225">
        <ele>165</ele>
        <time>2014-09-28T11:46:29Z</time>
      </trkpt>
      <trkpt lat="43.67684" lon="3.33219">
        <ele>164.52</ele>
        <time>2014-09-28T11:46:33Z</time>
      </trkpt>
      <trkpt lat="43.6771" lon="3.33211">
        <ele>162.6</ele>
        <time>2014-09-28T11:46:38Z</time>
      </trkpt>
      <trkpt lat="43.67728" lon="3.33207">
        <ele>161.64</ele>
        <time>2014-09-28T11:46:42Z</time>
      </trkpt>
      <trkpt lat="43.67749" lon="3.33205">
        <ele>157.79</ele>
        <time>2014-09-28T11:46:47Z</time>
      </trkpt>
      <trkpt lat="43.67753" lon="3.33205">
        <ele>157.31</ele>
        <time>2014-09-28T11:46:48Z</time>
      </trkpt>
      <trkpt lat="43.67769" lon="3.33204">
        <ele>155.87</ele>
        <time>2014-09-28T11:46:52Z</time>
      </trkpt>
      <trkpt lat="43.67792" lon="3.33204">
        <ele>152.03</ele>
        <time>2014-09-28T11:46:59Z</time>
      </trkpt>
      <trkpt lat="43.67795" lon="3.33204">
        <ele>151.54</ele>
        <time>2014-09-28T11:47:00Z</time>
      </trkpt>
      <trkpt lat="43.67819" lon="3.33208">
        <ele>147.22</ele>
        <time>2014-09-28T11:47:06Z</time>
      </trkpt>
      <trkpt lat="43.67831" lon="3.33215">
        <ele>145.78</ele>
        <time>2014-09-28T11:47:09Z</time>
      </trkpt>
      <trkpt lat="43.67842" lon="3.33225">
        <ele>144.82</ele>
        <time>2014-09-28T11:47:13Z</time>
      </trkpt>
      <trkpt lat="43.67875" lon="3.3323">
        <ele>144.34</ele>
        <time>2014-09-28T11:47:24Z</time>
      </trkpt>
      <trkpt lat="43.67881" lon="3.33223">
        <ele>143.85</ele>
        <time>2014-09-28T11:47:26Z</time>
      </trkpt>
      <trkpt lat="43.67919" lon="3.33163">
        <ele>145.78</ele>
        <time>2014-09-28T11:47:42Z</time>
      </trkpt>
      <trkpt lat="43.6793" lon="3.33103">
        <ele>146.26</ele>
        <time>2014-09-28T11:47:55Z</time>
      </trkpt>
      <trkpt lat="43.67929" lon="3.33097">
        <ele>145.78</ele>
        <time>2014-09-28T11:47:57Z</time>
      </trkpt>
      <trkpt lat="43.67925" lon="3.33092">
        <ele>145.3</ele>
        <time>2014-09-28T11:47:59Z</time>
      </trkpt>
      <trkpt lat="43.67926" lon="3.33079">
        <ele>145.3</ele>
        <time>2014-09-28T11:48:03Z</time>
      </trkpt>
      <trkpt lat="43.67942" lon="3.33041">
        <ele>147.22</ele>
        <time>2014-09-28T11:48:15Z</time>
      </trkpt>
      <trkpt lat="43.6796" lon="3.32996">
        <ele>146.74</ele>
        <time>2014-09-28T11:48:27Z</time>
      </trkpt>
      <trkpt lat="43.67958" lon="3.32982">
        <ele>146.74</ele>
        <time>2014-09-28T11:48:30Z</time>
      </trkpt>
      <trkpt lat="43.67954" lon="3.32971">
        <ele>145.3</ele>
        <time>2014-09-28T11:48:32Z</time>
      </trkpt>
      <trkpt lat="43.67952" lon="3.32931">
        <ele>145.3</ele>
        <time>2014-09-28T11:48:39Z</time>
      </trkpt>
      <trkpt lat="43.67955" lon="3.32924">
        <ele>146.26</ele>
        <time>2014-09-28T11:48:42Z</time>
      </trkpt>
      <trkpt lat="43.67966" lon="3.32889">
        <ele>149.14</ele>
        <time>2014-09-28T11:48:55Z</time>
      </trkpt>
      <trkpt lat="43.67969" lon="3.32846">
        <ele>151.54</ele>
        <time>2014-09-28T11:49:10Z</time>
      </trkpt>
      <trkpt lat="43.67976" lon="3.32816">
        <ele>152.99</ele>
        <time>2014-09-28T11:49:23Z</time>
      </trkpt>
      <trkpt lat="43.67981" lon="3.32816">
        <ele>153.95</ele>
        <time>2014-09-28T11:49:27Z</time>
      </trkpt>
      <trkpt lat="43.6799" lon="3.3284">
        <ele>155.39</ele>
        <time>2014-09-28T11:49:39Z</time>
      </trkpt>
      <trkpt lat="43.67993" lon="3.32848">
        <ele>155.87</ele>
        <time>2014-09-28T11:49:42Z</time>
      </trkpt>
      <trkpt lat="43.68004" lon="3.3288">
        <ele>156.35</ele>
        <time>2014-09-28T11:49:53Z</time>
      </trkpt>
      <trkpt lat="43.68015" lon="3.32914">
        <ele>158.27</ele>
        <time>2014-09-28T11:50:06Z</time>
      </trkpt>
      <trkpt lat="43.68027" lon="3.32933">
        <ele>160.2</ele>
        <time>2014-09-28T11:50:20Z</time>
      </trkpt>
      <trkpt lat="43.68038" lon="3.32935">
        <ele>161.64</ele>
        <time>2014-09-28T11:50:29Z</time>
      </trkpt>
      <trkpt lat="43.6804" lon="3.32932">
        <ele>162.12</ele>
        <time>2014-09-28T11:50:31Z</time>
      </trkpt>
      <trkpt lat="43.68045" lon="3.32916">
        <ele>163.56</ele>
        <time>2014-09-28T11:50:40Z</time>
      </trkpt>
      <trkpt lat="43.68047" lon="3.32907">
        <ele>164.52</ele>
        <time>2014-09-28T11:50:45Z</time>
      </trkpt>
      <trkpt lat="43.6805" lon="3.32893">
        <ele>165.48</ele>
        <time>2014-09-28T11:50:53Z</time>
      </trkpt>
      <trkpt lat="43.68051" lon="3.32883">
        <ele>165.96</ele>
        <time>2014-09-28T11:50:59Z</time>
      </trkpt>
      <trkpt lat="43.68055" lon="3.32869">
        <ele>167.41</ele>
        <time>2014-09-28T11:51:09Z</time>
      </trkpt>
      <trkpt lat="43.68067" lon="3.32857">
        <ele>168.85</ele>
        <time>2014-09-28T11:51:21Z</time>
      </trkpt>
      <trkpt lat="43.68085" lon="3.32849">
        <ele>169.81</ele>
        <time>2014-09-28T11:51:35Z</time>
      </trkpt>
      <trkpt lat="43.68091" lon="3.32832">
        <ele>172.21</ele>
        <time>2014-09-28T11:51:48Z</time>
      </trkpt>
      <trkpt lat="43.68088" lon="3.32821">
        <ele>173.66</ele>
        <time>2014-09-28T11:51:56Z</time>
      </trkpt>
      <trkpt lat="43.68085" lon="3.32803">
        <ele>174.62</ele>
        <time>2014-09-28T11:52:06Z</time>
      </trkpt>
      <trkpt lat="43.68086" lon="3.32795">
        <ele>175.1</ele>
        <time>2014-09-28T11:52:10Z</time>
      </trkpt>
      <trkpt lat="43.68097" lon="3.32776">
        <ele>176.06</ele>
        <time>2014-09-28T11:52:20Z</time>
      </trkpt>
      <trkpt lat="43.68107" lon="3.3276">
        <ele>176.54</ele>
        <time>2014-09-28T11:52:28Z</time>
      </trkpt>
      <trkpt lat="43.68126" lon="3.32734">
        <ele>177.98</ele>
        <time>2014-09-28T11:52:44Z</time>
      </trkpt>
      <trkpt lat="43.68142" lon="3.32714">
        <ele>179.42</ele>
        <time>2014-09-28T11:53:00Z</time>
      </trkpt>
      <trkpt lat="43.6815" lon="3.32697">
        <ele>180.87</ele>
        <time>2014-09-28T11:53:11Z</time>
      </trkpt>
      <trkpt lat="43.68153" lon="3.32688">
        <ele>181.35</ele>
        <time>2014-09-28T11:53:15Z</time>
      </trkpt>
      <trkpt lat="43.68164" lon="3.32661">
        <ele>182.79</ele>
        <time>2014-09-28T11:53:30Z</time>
      </trkpt>
      <trkpt lat="43.68169" lon="3.32642">
        <ele>182.79</ele>
        <time>2014-09-28T11:53:39Z</time>
      </trkpt>
      <trkpt lat="43.6817" lon="3.32615">
        <ele>183.27</ele>
        <time>2014-09-28T11:53:49Z</time>
      </trkpt>
      <trkpt lat="43.68173" lon="3.32573">
        <ele>183.75</ele>
        <time>2014-09-28T11:54:03Z</time>
      </trkpt>
      <trkpt lat="43.68176" lon="3.32548">
        <ele>184.71</ele>
        <time>2014-09-28T11:54:13Z</time>
      </trkpt>
      <trkpt lat="43.68179" lon="3.32536">
        <ele>186.63</ele>
        <time>2014-09-28T11:54:20Z</time>
      </trkpt>
      <trkpt lat="43.6818" lon="3.32528">
        <ele>187.11</ele>
        <time>2014-09-28T11:54:25Z</time>
      </trkpt>
      <trkpt lat="43.68182" lon="3.32522">
        <ele>187.11</ele>
        <time>2014-09-28T11:54:29Z</time>
      </trkpt>
      <trkpt lat="43.68184" lon="3.32518">
        <ele>187.59</ele>
        <time>2014-09-28T11:54:32Z</time>
      </trkpt>
      <trkpt lat="43.68191" lon="3.32507">
        <ele>189.04</ele>
        <time>2014-09-28T11:54:40Z</time>
      </trkpt>
      <trkpt lat="43.68204" lon="3.325">
        <ele>190.96</ele>
        <time>2014-09-28T11:54:53Z</time>
      </trkpt>
      <trkpt lat="43.68219" lon="3.32489">
        <ele>192.88</ele>
        <time>2014-09-28T11:55:08Z</time>
      </trkpt>
      <trkpt lat="43.68229" lon="3.32474">
        <ele>194.32</ele>
        <time>2014-09-28T11:55:20Z</time>
      </trkpt>
      <trkpt lat="43.68232" lon="3.32467">
        <ele>195.28</ele>
        <time>2014-09-28T11:55:25Z</time>
      </trkpt>
      <trkpt lat="43.68233" lon="3.32444">
        <ele>196.25</ele>
        <time>2014-09-28T11:55:36Z</time>
      </trkpt>
      <trkpt lat="43.68238" lon="3.32437">
        <ele>196.73</ele>
        <time>2014-09-28T11:55:41Z</time>
      </trkpt>
      <trkpt lat="43.68261" lon="3.32437">
        <ele>198.65</ele>
        <time>2014-09-28T11:55:57Z</time>
      </trkpt>
      <trkpt lat="43.68277" lon="3.32427">
        <ele>200.57</ele>
        <time>2014-09-28T11:56:12Z</time>
      </trkpt>
      <trkpt lat="43.68281" lon="3.32417">
        <ele>202.01</ele>
        <time>2014-09-28T11:56:19Z</time>
      </trkpt>
      <trkpt lat="43.68285" lon="3.32398">
        <ele>203.46</ele>
        <time>2014-09-28T11:56:31Z</time>
      </trkpt>
      <trkpt lat="43.68285" lon="3.32388">
        <ele>203.94</ele>
        <time>2014-09-28T11:56:45Z</time>
      </trkpt>
      <trkpt lat="43.68284" lon="3.32389">
        <ele>204.42</ele>
        <time>2014-09-28T11:57:11Z</time>
      </trkpt>
      <trkpt lat="43.68284" lon="3.32389">
        <ele>204.42</ele>
        <time>2014-09-28T11:57:24Z</time>
      </trkpt>
      <trkpt lat="43.68286" lon="3.32388">
        <ele>203.94</ele>
        <time>2014-09-28T11:57:26Z</time>
      </trkpt>
      <trkpt lat="43.683" lon="3.32384">
        <ele>204.42</ele>
        <time>2014-09-28T11:57:35Z</time>
      </trkpt>
      <trkpt lat="43.68328" lon="3.32404">
        <ele>205.86</ele>
        <time>2014-09-28T11:57:50Z</time>
      </trkpt>
      <trkpt lat="43.68355" lon="3.32424">
        <ele>208.26</ele>
        <time>2014-09-28T11:58:07Z</time>
      </trkpt>
      <trkpt lat="43.68382" lon="3.32443">
        <ele>210.19</ele>
        <time>2014-09-28T11:58:22Z</time>
      </trkpt>
      <trkpt lat="43.68412" lon="3.32439">
        <ele>210.19</ele>
        <time>2014-09-28T11:58:33Z</time>
      </trkpt>
      <trkpt lat="43.68446" lon="3.32447">
        <ele>211.63</ele>
        <time>2014-09-28T11:58:47Z</time>
      </trkpt>
      <trkpt lat="43.68475" lon="3.32453">
        <ele>213.07</ele>
        <time>2014-09-28T11:59:00Z</time>
      </trkpt>
      <trkpt lat="43.68509" lon="3.32471">
        <ele>213.07</ele>
        <time>2014-09-28T11:59:12Z</time>
      </trkpt>
      <trkpt lat="43.68528" lon="3.32533">
        <ele>213.55</ele>
        <time>2014-09-28T11:59:25Z</time>
      </trkpt>
      <trkpt lat="43.68537" lon="3.32582">
        <ele>214.51</ele>
        <time>2014-09-28T11:59:37Z</time>
      </trkpt>
      <trkpt lat="43.68548" lon="3.32639">
        <ele>216.43</ele>
        <time>2014-09-28T11:59:54Z</time>
      </trkpt>
      <trkpt lat="43.6856" lon="3.32694">
        <ele>217.4</ele>
        <time>2014-09-28T12:00:11Z</time>
      </trkpt>
      <trkpt lat="43.68575" lon="3.32746">
        <ele>219.32</ele>
        <time>2014-09-28T12:00:28Z</time>
      </trkpt>
      <trkpt lat="43.68592" lon="3.32787">
        <ele>222.2</ele>
        <time>2014-09-28T12:00:43Z</time>
      </trkpt>
      <trkpt lat="43.68602" lon="3.3281">
        <ele>225.09</ele>
        <time>2014-09-28T12:00:53Z</time>
      </trkpt>
      <trkpt lat="43.68602" lon="3.32813">
        <ele>224.12</ele>
        <time>2014-09-28T12:01:05Z</time>
      </trkpt>
      <trkpt lat="43.68602" lon="3.32813">
        <ele>224.12</ele>
        <time>2014-09-28T12:01:09Z</time>
      </trkpt>
      <trkpt lat="43.68595" lon="3.3283">
        <ele>221.72</ele>
        <time>2014-09-28T12:01:14Z</time>
      </trkpt>
      <trkpt lat="43.68587" lon="3.32864">
        <ele>218.36</ele>
        <time>2014-09-28T12:01:21Z</time>
      </trkpt>
      <trkpt lat="43.68586" lon="3.32869">
        <ele>217.88</ele>
        <time>2014-09-28T12:01:22Z</time>
      </trkpt>
      <trkpt lat="43.68587" lon="3.32881">
        <ele>216.91</ele>
        <time>2014-09-28T12:01:24Z</time>
      </trkpt>
      <trkpt lat="43.68585" lon="3.32924">
        <ele>214.03</ele>
        <time>2014-09-28T12:01:32Z</time>
      </trkpt>
      <trkpt lat="43.68579" lon="3.32964">
        <ele>211.15</ele>
        <time>2014-09-28T12:01:39Z</time>
      </trkpt>
      <trkpt lat="43.6857" lon="3.32998">
        <ele>208.26</ele>
        <time>2014-09-28T12:01:46Z</time>
      </trkpt>
      <trkpt lat="43.68566" lon="3.33006">
        <ele>206.82</ele>
        <time>2014-09-28T12:01:48Z</time>
      </trkpt>
      <trkpt lat="43.68558" lon="3.33013">
        <ele>204.9</ele>
        <time>2014-09-28T12:01:51Z</time>
      </trkpt>
      <trkpt lat="43.68555" lon="3.33018">
        <ele>203.46</ele>
        <time>2014-09-28T12:01:53Z</time>
      </trkpt>
      <trkpt lat="43.68541" lon="3.33032">
        <ele>202.49</ele>
        <time>2014-09-28T12:01:58Z</time>
      </trkpt>
      <trkpt lat="43.68529" lon="3.33045">
        <ele>201.05</ele>
        <time>2014-09-28T12:02:01Z</time>
      </trkpt>
      <trkpt lat="43.68523" lon="3.33055">
        <ele>200.09</ele>
        <time>2014-09-28T12:02:03Z</time>
      </trkpt>
      <trkpt lat="43.68518" lon="3.33068">
        <ele>198.65</ele>
        <time>2014-09-28T12:02:05Z</time>
      </trkpt>
      <trkpt lat="43.68501" lon="3.33084">
        <ele>196.73</ele>
        <time>2014-09-28T12:02:09Z</time>
      </trkpt>
      <trkpt lat="43.68491" lon="3.33089">
        <ele>195.77</ele>
        <time>2014-09-28T12:02:11Z</time>
      </trkpt>
      <trkpt lat="43.68468" lon="3.33108">
        <ele>195.77</ele>
        <time>2014-09-28T12:02:19Z</time>
      </trkpt>
      <trkpt lat="43.68458" lon="3.33122">
        <ele>194.8</ele>
        <time>2014-09-28T12:02:23Z</time>
      </trkpt>
      <trkpt lat="43.68443" lon="3.33167">
        <ele>190.96</ele>
        <time>2014-09-28T12:02:30Z</time>
      </trkpt>
      <trkpt lat="43.68435" lon="3.33193">
        <ele>189.52</ele>
        <time>2014-09-28T12:02:33Z</time>
      </trkpt>
      <trkpt lat="43.68422" lon="3.33233">
        <ele>187.11</ele>
        <time>2014-09-28T12:02:38Z</time>
      </trkpt>
      <trkpt lat="43.68409" lon="3.33279">
        <ele>185.19</ele>
        <time>2014-09-28T12:02:45Z</time>
      </trkpt>
      <trkpt lat="43.68395" lon="3.33305">
        <ele>182.79</ele>
        <time>2014-09-28T12:02:50Z</time>
      </trkpt>
      <trkpt lat="43.68388" lon="3.3332">
        <ele>181.35</ele>
        <time>2014-09-28T12:02:53Z</time>
      </trkpt>
      <trkpt lat="43.68382" lon="3.33329">
        <ele>180.38</ele>
        <time>2014-09-28T12:02:55Z</time>
      </trkpt>
      <trkpt lat="43.68365" lon="3.33365">
        <ele>177.5</ele>
        <time>2014-09-28T12:03:05Z</time>
      </trkpt>
      <trkpt lat="43.6836" lon="3.33388">
        <ele>176.54</ele>
        <time>2014-09-28T12:03:09Z</time>
      </trkpt>
      <trkpt lat="43.68348" lon="3.33422">
        <ele>174.14</ele>
        <time>2014-09-28T12:03:16Z</time>
      </trkpt>
      <trkpt lat="43.68339" lon="3.33428">
        <ele>172.69</ele>
        <time>2014-09-28T12:03:20Z</time>
      </trkpt>
      <trkpt lat="43.68303" lon="3.33414">
        <ele>169.81</ele>
        <time>2014-09-28T12:03:28Z</time>
      </trkpt>
      <trkpt lat="43.68275" lon="3.33413">
        <ele>166.93</ele>
        <time>2014-09-28T12:03:34Z</time>
      </trkpt>
      <trkpt lat="43.68259" lon="3.33413">
        <ele>163.56</ele>
        <time>2014-09-28T12:03:39Z</time>
      </trkpt>
      <trkpt lat="43.68252" lon="3.33418">
        <ele>162.6</ele>
        <time>2014-09-28T12:03:41Z</time>
      </trkpt>
      <trkpt lat="43.68237" lon="3.33432">
        <ele>158.75</ele>
        <time>2014-09-28T12:03:46Z</time>
      </trkpt>
      <trkpt lat="43.68229" lon="3.33446">
        <ele>156.83</ele>
        <time>2014-09-28T12:03:49Z</time>
      </trkpt>
      <trkpt lat="43.68224" lon="3.33452">
        <ele>155.39</ele>
        <time>2014-09-28T12:03:51Z</time>
      </trkpt>
      <trkpt lat="43.68204" lon="3.33455">
        <ele>151.54</ele>
        <time>2014-09-28T12:03:56Z</time>
      </trkpt>
      <trkpt lat="43.68183" lon="3.33466">
        <ele>146.26</ele>
        <time>2014-09-28T12:04:02Z</time>
      </trkpt>
      <trkpt lat="43.68168" lon="3.33474">
        <ele>142.41</ele>
        <time>2014-09-28T12:04:07Z</time>
      </trkpt>
      <trkpt lat="43.68165" lon="3.33476">
        <ele>141.45</ele>
        <time>2014-09-28T12:04:09Z</time>
      </trkpt>
      <trkpt lat="43.68136" lon="3.33475">
        <ele>142.41</ele>
        <time>2014-09-28T12:04:20Z</time>
      </trkpt>
      <trkpt lat="43.68096" lon="3.33477">
        <ele>142.41</ele>
        <time>2014-09-28T12:04:33Z</time>
      </trkpt>
      <trkpt lat="43.68056" lon="3.33474">
        <ele>143.37</ele>
        <time>2014-09-28T12:04:46Z</time>
      </trkpt>
      <trkpt lat="43.68052" lon="3.33472">
        <ele>143.85</ele>
        <time>2014-09-28T12:04:48Z</time>
      </trkpt>
      <trkpt lat="43.68033" lon="3.33464">
        <ele>144.34</ele>
        <time>2014-09-28T12:04:57Z</time>
      </trkpt>
      <trkpt lat="43.68012" lon="3.33464">
        <ele>142.89</ele>
        <time>2014-09-28T12:05:04Z</time>
      </trkpt>
      <trkpt lat="43.67985" lon="3.33465">
        <ele>139.53</ele>
        <time>2014-09-28T12:05:09Z</time>
      </trkpt>
      <trkpt lat="43.67979" lon="3.33466">
        <ele>138.57</ele>
        <time>2014-09-28T12:05:10Z</time>
      </trkpt>
      <trkpt lat="43.67947" lon="3.33486">
        <ele>138.09</ele>
        <time>2014-09-28T12:05:17Z</time>
      </trkpt>
      <trkpt lat="43.67926" lon="3.33507">
        <ele>139.05</ele>
        <time>2014-09-28T12:05:26Z</time>
      </trkpt>
      <trkpt lat="43.67925" lon="3.33529">
        <ele>138.09</ele>
        <time>2014-09-28T12:05:31Z</time>
      </trkpt>
      <trkpt lat="43.67931" lon="3.33588">
        <ele>138.09</ele>
        <time>2014-09-28T12:05:44Z</time>
      </trkpt>
      <trkpt lat="43.67943" lon="3.33645">
        <ele>137.13</ele>
        <time>2014-09-28T12:05:56Z</time>
      </trkpt>
      <trkpt lat="43.67943" lon="3.33657">
        <ele>136.64</ele>
        <time>2014-09-28T12:05:58Z</time>
      </trkpt>
      <trkpt lat="43.67943" lon="3.33669">
        <ele>136.16</ele>
        <time>2014-09-28T12:06:00Z</time>
      </trkpt>
      <trkpt lat="43.67948" lon="3.33693">
        <ele>135.68</ele>
        <time>2014-09-28T12:06:04Z</time>
      </trkpt>
      <trkpt lat="43.67956" lon="3.33708">
        <ele>135.2</ele>
        <time>2014-09-28T12:06:07Z</time>
      </trkpt>
      <trkpt lat="43.67985" lon="3.33797">
        <ele>132.32</ele>
        <time>2014-09-28T12:06:21Z</time>
      </trkpt>
      <trkpt lat="43.67989" lon="3.33825">
        <ele>131.84</ele>
        <time>2014-09-28T12:06:26Z</time>
      </trkpt>
      <trkpt lat="43.68" lon="3.33905">
        <ele>133.28</ele>
        <time>2014-09-28T12:06:42Z</time>
      </trkpt>
      <trkpt lat="43.68004" lon="3.33958">
        <ele>133.28</ele>
        <time>2014-09-28T12:06:53Z</time>
      </trkpt>
      <trkpt lat="43.68007" lon="3.34002">
        <ele>133.28</ele>
        <time>2014-09-28T12:07:03Z</time>
      </trkpt>
      <trkpt lat="43.68008" lon="3.34012">
        <ele>133.28</ele>
        <time>2014-09-28T12:07:05Z</time>
      </trkpt>
      <trkpt lat="43.68015" lon="3.341">
        <ele>132.8</ele>
        <time>2014-09-28T12:07:20Z</time>
      </trkpt>
      <trkpt lat="43.68021" lon="3.34185">
        <ele>131.36</ele>
        <time>2014-09-28T12:07:35Z</time>
      </trkpt>
      <trkpt lat="43.68033" lon="3.34241">
        <ele>131.36</ele>
        <time>2014-09-28T12:07:46Z</time>
      </trkpt>
      <trkpt lat="43.68042" lon="3.3427">
        <ele>130.4</ele>
        <time>2014-09-28T12:07:51Z</time>
      </trkpt>
      <trkpt lat="43.68043" lon="3.34297">
        <ele>130.4</ele>
        <time>2014-09-28T12:07:55Z</time>
      </trkpt>
      <trkpt lat="43.68047" lon="3.34352">
        <ele>129.43</ele>
        <time>2014-09-28T12:08:04Z</time>
      </trkpt>
      <trkpt lat="43.68057" lon="3.34437">
        <ele>129.92</ele>
        <time>2014-09-28T12:08:19Z</time>
      </trkpt>
      <trkpt lat="43.68062" lon="3.34496">
        <ele>129.92</ele>
        <time>2014-09-28T12:08:32Z</time>
      </trkpt>
      <trkpt lat="43.68053" lon="3.34507">
        <ele>128.95</ele>
        <time>2014-09-28T12:08:39Z</time>
      </trkpt>
      <trkpt lat="43.68046" lon="3.34501">
        <ele>128.47</ele>
        <time>2014-09-28T12:08:43Z</time>
      </trkpt>
      <trkpt lat="43.68028" lon="3.3451">
        <ele>125.11</ele>
        <time>2014-09-28T12:08:50Z</time>
      </trkpt>
      <trkpt lat="43.68018" lon="3.34523">
        <ele>121.74</ele>
        <time>2014-09-28T12:08:54Z</time>
      </trkpt>
      <trkpt lat="43.68012" lon="3.34541">
        <ele>118.38</ele>
        <time>2014-09-28T12:09:01Z</time>
      </trkpt>
      <trkpt lat="43.68011" lon="3.34542">
        <ele>118.38</ele>
        <time>2014-09-28T12:09:05Z</time>
      </trkpt>
      <trkpt lat="43.68008" lon="3.3455">
        <ele>118.38</ele>
        <time>2014-09-28T12:09:15Z</time>
      </trkpt>
      <trkpt lat="43.6801" lon="3.34566">
        <ele>119.82</ele>
        <time>2014-09-28T12:09:28Z</time>
      </trkpt>
      <trkpt lat="43.68007" lon="3.34569">
        <ele>121.26</ele>
        <time>2014-09-28T12:09:35Z</time>
      </trkpt>
      <trkpt lat="43.68002" lon="3.34572">
        <ele>122.22</ele>
        <time>2014-09-28T12:09:40Z</time>
      </trkpt>
      <trkpt lat="43.67995" lon="3.34581">
        <ele>122.71</ele>
        <time>2014-09-28T12:09:49Z</time>
      </trkpt>
      <trkpt lat="43.67984" lon="3.34573">
        <ele>122.71</ele>
        <time>2014-09-28T12:10:02Z</time>
      </trkpt>
      <trkpt lat="43.67954" lon="3.34553">
        <ele>123.67</ele>
        <time>2014-09-28T12:10:15Z</time>
      </trkpt>
      <trkpt lat="43.67922" lon="3.34536">
        <ele>124.15</ele>
        <time>2014-09-28T12:10:27Z</time>
      </trkpt>
      <trkpt lat="43.67887" lon="3.34507">
        <ele>125.11</ele>
        <time>2014-09-28T12:10:40Z</time>
      </trkpt>
      <trkpt lat="43.67866" lon="3.34491">
        <ele>125.11</ele>
        <time>2014-09-28T12:10:47Z</time>
      </trkpt>
      <trkpt lat="43.67864" lon="3.34477">
        <ele>125.59</ele>
        <time>2014-09-28T12:10:51Z</time>
      </trkpt>
      <trkpt lat="43.67869" lon="3.34462">
        <ele>124.15</ele>
        <time>2014-09-28T12:10:59Z</time>
      </trkpt>
      <trkpt lat="43.67869" lon="3.34447">
        <ele>121.26</ele>
        <time>2014-09-28T12:11:04Z</time>
      </trkpt>
      <trkpt lat="43.67866" lon="3.34441">
        <ele>120.78</ele>
        <time>2014-09-28T12:11:10Z</time>
      </trkpt>
      <trkpt lat="43.67866" lon="3.34435">
        <ele>121.26</ele>
        <time>2014-09-28T12:11:14Z</time>
      </trkpt>
      <trkpt lat="43.67857" lon="3.34417">
        <ele>121.26</ele>
        <time>2014-09-28T12:11:28Z</time>
      </trkpt>
      <trkpt lat="43.67852" lon="3.34409">
        <ele>121.74</ele>
        <time>2014-09-28T12:11:41Z</time>
      </trkpt>
      <trkpt lat="43.67851" lon="3.34408">
        <ele>122.71</ele>
        <time>2014-09-28T12:11:42Z</time>
      </trkpt>
      <trkpt lat="43.67849" lon="3.34405">
        <ele>121.74</ele>
        <time>2014-09-28T12:11:45Z</time>
      </trkpt>
      <trkpt lat="43.67841" lon="3.34397">
        <ele>122.22</ele>
        <time>2014-09-28T12:11:52Z</time>
      </trkpt>
      <trkpt lat="43.6783" lon="3.34379">
        <ele>122.71</ele>
        <time>2014-09-28T12:12:04Z</time>
      </trkpt>
      <trkpt lat="43.67827" lon="3.34347">
        <ele>122.71</ele>
        <time>2014-09-28T12:12:17Z</time>
      </trkpt>
      <trkpt lat="43.67823" lon="3.3434">
        <ele>123.19</ele>
        <time>2014-09-28T12:12:21Z</time>
      </trkpt>
      <trkpt lat="43.67812" lon="3.34336">
        <ele>123.67</ele>
        <time>2014-09-28T12:12:28Z</time>
      </trkpt>
      <trkpt lat="43.67804" lon="3.34337">
        <ele>123.67</ele>
        <time>2014-09-28T12:12:35Z</time>
      </trkpt>
      <trkpt lat="43.67804" lon="3.34347">
        <ele>125.11</ele>
        <time>2014-09-28T12:12:46Z</time>
      </trkpt>
      <trkpt lat="43.67805" lon="3.34359">
        <ele>126.07</ele>
        <time>2014-09-28T12:12:57Z</time>
      </trkpt>
      <trkpt lat="43.67805" lon="3.34376">
        <ele>127.99</ele>
        <time>2014-09-28T12:13:09Z</time>
      </trkpt>
      <trkpt lat="43.67802" lon="3.34392">
        <ele>127.99</ele>
        <time>2014-09-28T12:13:19Z</time>
      </trkpt>
      <trkpt lat="43.67783" lon="3.34453">
        <ele>127.99</ele>
        <time>2014-09-28T12:13:36Z</time>
      </trkpt>
      <trkpt lat="43.67756" lon="3.34481">
        <ele>128.95</ele>
        <time>2014-09-28T12:13:49Z</time>
      </trkpt>
      <trkpt lat="43.67735" lon="3.34492">
        <ele>129.92</ele>
        <time>2014-09-28T12:14:01Z</time>
      </trkpt>
      <trkpt lat="43.67716" lon="3.34501">
        <ele>130.4</ele>
        <time>2014-09-28T12:14:12Z</time>
      </trkpt>
      <trkpt lat="43.67713" lon="3.34503">
        <ele>130.4</ele>
        <time>2014-09-28T12:14:14Z</time>
      </trkpt>
      <trkpt lat="43.67704" lon="3.3451">
        <ele>130.88</ele>
        <time>2014-09-28T12:14:20Z</time>
      </trkpt>
      <trkpt lat="43.67684" lon="3.34523">
        <ele>132.32</ele>
        <time>2014-09-28T12:14:34Z</time>
      </trkpt>
      <trkpt lat="43.67678" lon="3.34529">
        <ele>131.84</ele>
        <time>2014-09-28T12:14:37Z</time>
      </trkpt>
      <trkpt lat="43.67667" lon="3.34547">
        <ele>132.32</ele>
        <time>2014-09-28T12:14:45Z</time>
      </trkpt>
      <trkpt lat="43.67645" lon="3.34568">
        <ele>132.32</ele>
        <time>2014-09-28T12:14:58Z</time>
      </trkpt>
      <trkpt lat="43.67636" lon="3.34584">
        <ele>133.76</ele>
        <time>2014-09-28T12:15:06Z</time>
      </trkpt>
      <trkpt lat="43.67628" lon="3.34584">
        <ele>134.24</ele>
        <time>2014-09-28T12:15:12Z</time>
      </trkpt>
      <trkpt lat="43.6761" lon="3.34596">
        <ele>135.2</ele>
        <time>2014-09-28T12:15:26Z</time>
      </trkpt>
      <trkpt lat="43.67589" lon="3.34611">
        <ele>136.64</ele>
        <time>2014-09-28T12:15:40Z</time>
      </trkpt>
      <trkpt lat="43.67569" lon="3.34635">
        <ele>138.09</ele>
        <time>2014-09-28T12:15:55Z</time>
      </trkpt>
      <trkpt lat="43.67553" lon="3.34669">
        <ele>138.09</ele>
        <time>2014-09-28T12:16:08Z</time>
      </trkpt>
      <trkpt lat="43.67541" lon="3.34695">
        <ele>137.13</ele>
        <time>2014-09-28T12:16:15Z</time>
      </trkpt>
      <trkpt lat="43.67538" lon="3.34698">
        <ele>137.13</ele>
        <time>2014-09-28T12:16:16Z</time>
      </trkpt>
      <trkpt lat="43.67531" lon="3.34706">
        <ele>137.13</ele>
        <time>2014-09-28T12:16:19Z</time>
      </trkpt>
      <trkpt lat="43.6753" lon="3.3471">
        <ele>137.13</ele>
        <time>2014-09-28T12:16:20Z</time>
      </trkpt>
      <trkpt lat="43.67529" lon="3.34713">
        <ele>137.13</ele>
        <time>2014-09-28T12:16:21Z</time>
      </trkpt>
      <trkpt lat="43.67528" lon="3.34716">
        <ele>137.61</ele>
        <time>2014-09-28T12:16:22Z</time>
      </trkpt>
      <trkpt lat="43.67527" lon="3.34718">
        <ele>137.61</ele>
        <time>2014-09-28T12:16:23Z</time>
      </trkpt>
      <trkpt lat="43.67525" lon="3.3472">
        <ele>138.09</ele>
        <time>2014-09-28T12:16:24Z</time>
      </trkpt>
      <trkpt lat="43.67518" lon="3.34728">
        <ele>139.05</ele>
        <time>2014-09-28T12:16:30Z</time>
      </trkpt>
      <trkpt lat="43.67517" lon="3.3473">
        <ele>139.53</ele>
        <time>2014-09-28T12:16:31Z</time>
      </trkpt>
      <trkpt lat="43.67517" lon="3.34732">
        <ele>139.53</ele>
        <time>2014-09-28T12:16:32Z</time>
      </trkpt>
      <trkpt lat="43.67517" lon="3.34734">
        <ele>140.01</ele>
        <time>2014-09-28T12:16:33Z</time>
      </trkpt>
      <trkpt lat="43.67514" lon="3.34784">
        <ele>138.09</ele>
        <time>2014-09-28T12:16:44Z</time>
      </trkpt>
      <trkpt lat="43.67513" lon="3.34791">
        <ele>137.61</ele>
        <time>2014-09-28T12:16:45Z</time>
      </trkpt>
      <trkpt lat="43.67514" lon="3.34817">
        <ele>137.13</ele>
        <time>2014-09-28T12:16:49Z</time>
      </trkpt>
      <trkpt lat="43.67509" lon="3.3486">
        <ele>138.09</ele>
        <time>2014-09-28T12:17:01Z</time>
      </trkpt>
      <trkpt lat="43.67492" lon="3.34882">
        <ele>139.05</ele>
        <time>2014-09-28T12:17:12Z</time>
      </trkpt>
      <trkpt lat="43.6748" lon="3.34889">
        <ele>140.01</ele>
        <time>2014-09-28T12:17:21Z</time>
      </trkpt>
      <trkpt lat="43.67466" lon="3.34902">
        <ele>142.41</ele>
        <time>2014-09-28T12:17:33Z</time>
      </trkpt>
      <trkpt lat="43.67464" lon="3.34904">
        <ele>142.41</ele>
        <time>2014-09-28T12:17:35Z</time>
      </trkpt>
      <trkpt lat="43.67456" lon="3.34916">
        <ele>143.37</ele>
        <time>2014-09-28T12:17:44Z</time>
      </trkpt>
      <trkpt lat="43.67452" lon="3.34922">
        <ele>142.41</ele>
        <time>2014-09-28T12:17:47Z</time>
      </trkpt>
      <trkpt lat="43.67451" lon="3.34937">
        <ele>142.41</ele>
        <time>2014-09-28T12:17:51Z</time>
      </trkpt>
      <trkpt lat="43.67447" lon="3.34974">
        <ele>140.49</ele>
        <time>2014-09-28T12:17:59Z</time>
      </trkpt>
      <trkpt lat="43.67449" lon="3.35037">
        <ele>140.49</ele>
        <time>2014-09-28T12:18:12Z</time>
      </trkpt>
      <trkpt lat="43.67445" lon="3.35081">
        <ele>138.09</ele>
        <time>2014-09-28T12:18:20Z</time>
      </trkpt>
      <trkpt lat="43.67444" lon="3.35087">
        <ele>138.09</ele>
        <time>2014-09-28T12:18:21Z</time>
      </trkpt>
      <trkpt lat="43.67431" lon="3.35127">
        <ele>138.09</ele>
        <time>2014-09-28T12:18:29Z</time>
      </trkpt>
      <trkpt lat="43.67428" lon="3.35131">
        <ele>137.61</ele>
        <time>2014-09-28T12:18:30Z</time>
      </trkpt>
      <trkpt lat="43.67412" lon="3.35149">
        <ele>136.16</ele>
        <time>2014-09-28T12:18:35Z</time>
      </trkpt>
      <trkpt lat="43.67409" lon="3.35153">
        <ele>135.68</ele>
        <time>2014-09-28T12:18:36Z</time>
      </trkpt>
      <trkpt lat="43.67407" lon="3.35158">
        <ele>135.2</ele>
        <time>2014-09-28T12:18:37Z</time>
      </trkpt>
      <trkpt lat="43.67405" lon="3.35164">
        <ele>135.2</ele>
        <time>2014-09-28T12:18:38Z</time>
      </trkpt>
      <trkpt lat="43.67404" lon="3.35169">
        <ele>135.2</ele>
        <time>2014-09-28T12:18:39Z</time>
      </trkpt>
      <trkpt lat="43.67403" lon="3.35174">
        <ele>135.2</ele>
        <time>2014-09-28T12:18:40Z</time>
      </trkpt>
      <trkpt lat="43.67402" lon="3.35179">
        <ele>134.72</ele>
        <time>2014-09-28T12:18:41Z</time>
      </trkpt>
      <trkpt lat="43.67397" lon="3.352">
        <ele>135.68</ele>
        <time>2014-09-28T12:18:46Z</time>
      </trkpt>
      <trkpt lat="43.67366" lon="3.35231">
        <ele>136.16</ele>
        <time>2014-09-28T12:19:00Z</time>
      </trkpt>
      <trkpt lat="43.67336" lon="3.3526">
        <ele>136.16</ele>
        <time>2014-09-28T12:19:14Z</time>
      </trkpt>
      <trkpt lat="43.67314" lon="3.35282">
        <ele>137.61</ele>
        <time>2014-09-28T12:19:28Z</time>
      </trkpt>
      <trkpt lat="43.67294" lon="3.35299">
        <ele>137.61</ele>
        <time>2014-09-28T12:19:40Z</time>
      </trkpt>
      <trkpt lat="43.67266" lon="3.35323">
        <ele>138.57</ele>
        <time>2014-09-28T12:19:56Z</time>
      </trkpt>
      <trkpt lat="43.67243" lon="3.35333">
        <ele>139.05</ele>
        <time>2014-09-28T12:20:09Z</time>
      </trkpt>
      <trkpt lat="43.67223" lon="3.35329">
        <ele>140.01</ele>
        <time>2014-09-28T12:20:21Z</time>
      </trkpt>
      <trkpt lat="43.67201" lon="3.35324">
        <ele>140.01</ele>
        <time>2014-09-28T12:20:34Z</time>
      </trkpt>
      <trkpt lat="43.67181" lon="3.3532">
        <ele>140.97</ele>
        <time>2014-09-28T12:20:48Z</time>
      </trkpt>
      <trkpt lat="43.6718" lon="3.35319">
        <ele>140.97</ele>
        <time>2014-09-28T12:21:07Z</time>
      </trkpt>
      <trkpt lat="43.67174" lon="3.35318">
        <ele>140.97</ele>
        <time>2014-09-28T12:21:11Z</time>
      </trkpt>
      <trkpt lat="43.67165" lon="3.35314">
        <ele>141.93</ele>
        <time>2014-09-28T12:21:15Z</time>
      </trkpt>
      <trkpt lat="43.6716" lon="3.35311">
        <ele>143.85</ele>
        <time>2014-09-28T12:21:19Z</time>
      </trkpt>
      <trkpt lat="43.6716" lon="3.35311">
        <ele>144.34</ele>
        <time>2014-09-28T12:21:20Z</time>
      </trkpt>
      <trkpt lat="43.67143" lon="3.35314">
        <ele>144.34</ele>
        <time>2014-09-28T12:21:29Z</time>
      </trkpt>
      <trkpt lat="43.67136" lon="3.35316">
        <ele>146.26</ele>
        <time>2014-09-28T12:21:34Z</time>
      </trkpt>
      <trkpt lat="43.67131" lon="3.35317">
        <ele>147.7</ele>
        <time>2014-09-28T12:21:39Z</time>
      </trkpt>
      <trkpt lat="43.67115" lon="3.35305">
        <ele>147.7</ele>
        <time>2014-09-28T12:21:52Z</time>
      </trkpt>
      <trkpt lat="43.67111" lon="3.35271">
        <ele>147.7</ele>
        <time>2014-09-28T12:22:04Z</time>
      </trkpt>
      <trkpt lat="43.67107" lon="3.35236">
        <ele>148.66</ele>
        <time>2014-09-28T12:22:19Z</time>
      </trkpt>
      <trkpt lat="43.67104" lon="3.35227">
        <ele>149.14</ele>
        <time>2014-09-28T12:22:24Z</time>
      </trkpt>
      <trkpt lat="43.67101" lon="3.35202">
        <ele>151.06</ele>
        <time>2014-09-28T12:22:36Z</time>
      </trkpt>
      <trkpt lat="43.671" lon="3.35196">
        <ele>151.54</ele>
        <time>2014-09-28T12:22:39Z</time>
      </trkpt>
      <trkpt lat="43.67093" lon="3.3517">
        <ele>152.99</ele>
        <time>2014-09-28T12:22:53Z</time>
      </trkpt>
      <trkpt lat="43.67078" lon="3.35144">
        <ele>154.43</ele>
        <time>2014-09-28T12:23:08Z</time>
      </trkpt>
      <trkpt lat="43.67063" lon="3.35125">
        <ele>155.87</ele>
        <time>2014-09-28T12:23:21Z</time>
      </trkpt>
      <trkpt lat="43.67062" lon="3.35124">
        <ele>155.87</ele>
        <time>2014-09-28T12:23:22Z</time>
      </trkpt>
      <trkpt lat="43.67054" lon="3.35124">
        <ele>155.87</ele>
        <time>2014-09-28T12:23:27Z</time>
      </trkpt>
      <trkpt lat="43.67047" lon="3.35126">
        <ele>156.35</ele>
        <time>2014-09-28T12:23:31Z</time>
      </trkpt>
      <trkpt lat="43.67019" lon="3.35164">
        <ele>155.39</ele>
        <time>2014-09-28T12:23:43Z</time>
      </trkpt>
      <trkpt lat="43.67006" lon="3.3518">
        <ele>153.47</ele>
        <time>2014-09-28T12:23:48Z</time>
      </trkpt>
      <trkpt lat="43.67004" lon="3.35198">
        <ele>152.51</ele>
        <time>2014-09-28T12:23:52Z</time>
      </trkpt>
      <trkpt lat="43.66998" lon="3.35248">
        <ele>149.62</ele>
        <time>2014-09-28T12:23:59Z</time>
      </trkpt>
      <trkpt lat="43.66998" lon="3.35286">
        <ele>146.26</ele>
        <time>2014-09-28T12:24:05Z</time>
      </trkpt>
      <trkpt lat="43.66998" lon="3.35292">
        <ele>146.74</ele>
        <time>2014-09-28T12:24:06Z</time>
      </trkpt>
      <trkpt lat="43.66999" lon="3.35298">
        <ele>145.78</ele>
        <time>2014-09-28T12:24:07Z</time>
      </trkpt>
      <trkpt lat="43.67001" lon="3.35329">
        <ele>144.34</ele>
        <time>2014-09-28T12:24:12Z</time>
      </trkpt>
      <trkpt lat="43.67001" lon="3.35334">
        <ele>143.37</ele>
        <time>2014-09-28T12:24:13Z</time>
      </trkpt>
      <trkpt lat="43.66999" lon="3.35339">
        <ele>142.89</ele>
        <time>2014-09-28T12:24:14Z</time>
      </trkpt>
      <trkpt lat="43.66997" lon="3.35343">
        <ele>142.41</ele>
        <time>2014-09-28T12:24:15Z</time>
      </trkpt>
      <trkpt lat="43.66994" lon="3.35346">
        <ele>141.93</ele>
        <time>2014-09-28T12:24:16Z</time>
      </trkpt>
      <trkpt lat="43.66992" lon="3.35349">
        <ele>141.45</ele>
        <time>2014-09-28T12:24:17Z</time>
      </trkpt>
      <trkpt lat="43.66989" lon="3.35352">
        <ele>141.45</ele>
        <time>2014-09-28T12:24:18Z</time>
      </trkpt>
      <trkpt lat="43.66987" lon="3.35354">
        <ele>140.97</ele>
        <time>2014-09-28T12:24:19Z</time>
      </trkpt>
      <trkpt lat="43.66987" lon="3.35357">
        <ele>140.97</ele>
        <time>2014-09-28T12:24:20Z</time>
      </trkpt>
      <trkpt lat="43.66986" lon="3.3537">
        <ele>139.53</ele>
        <time>2014-09-28T12:24:23Z</time>
      </trkpt>
      <trkpt lat="43.66985" lon="3.35375">
        <ele>139.05</ele>
        <time>2014-09-28T12:24:24Z</time>
      </trkpt>
      <trkpt lat="43.66985" lon="3.3538">
        <ele>138.57</ele>
        <time>2014-09-28T12:24:25Z</time>
      </trkpt>
      <trkpt lat="43.66988" lon="3.35388">
        <ele>138.57</ele>
        <time>2014-09-28T12:24:27Z</time>
      </trkpt>
      <trkpt lat="43.6699" lon="3.35399">
        <ele>138.09</ele>
        <time>2014-09-28T12:24:30Z</time>
      </trkpt>
      <trkpt lat="43.66991" lon="3.35427">
        <ele>138.09</ele>
        <time>2014-09-28T12:24:39Z</time>
      </trkpt>
      <trkpt lat="43.67" lon="3.35466">
        <ele>137.61</ele>
        <time>2014-09-28T12:24:50Z</time>
      </trkpt>
      <trkpt lat="43.67007" lon="3.35512">
        <ele>138.09</ele>
        <time>2014-09-28T12:25:03Z</time>
      </trkpt>
      <trkpt lat="43.67004" lon="3.35526">
        <ele>138.57</ele>
        <time>2014-09-28T12:25:08Z</time>
      </trkpt>
      <trkpt lat="43.66995" lon="3.35532">
        <ele>140.01</ele>
        <time>2014-09-28T12:25:20Z</time>
      </trkpt>
      <trkpt lat="43.66993" lon="3.35529">
        <ele>140.01</ele>
        <time>2014-09-28T12:25:35Z</time>
      </trkpt>
      <trkpt lat="43.66993" lon="3.35529">
        <ele>139.53</ele>
        <time>2014-09-28T12:26:07Z</time>
      </trkpt>
      <trkpt lat="43.66993" lon="3.35529">
        <ele>140.01</ele>
        <time>2014-09-28T12:26:42Z</time>
      </trkpt>
      <trkpt lat="43.66993" lon="3.35528">
        <ele>140.01</ele>
        <time>2014-09-28T12:27:15Z</time>
      </trkpt>
      <trkpt lat="43.66994" lon="3.35529">
        <ele>140.01</ele>
        <time>2014-09-28T12:27:48Z</time>
      </trkpt>
      <trkpt lat="43.66994" lon="3.35528">
        <ele>140.01</ele>
        <time>2014-09-28T12:28:25Z</time>
      </trkpt>
      <trkpt lat="43.66994" lon="3.35529">
        <ele>140.01</ele>
        <time>2014-09-28T12:28:58Z</time>
      </trkpt>
      <trkpt lat="43.66995" lon="3.35529">
        <ele>140.01</ele>
        <time>2014-09-28T12:29:33Z</time>
      </trkpt>
      <trkpt lat="43.66994" lon="3.35528">
        <ele>140.01</ele>
        <time>2014-09-28T12:30:03Z</time>
      </trkpt>
      <trkpt lat="43.66994" lon="3.35527">
        <ele>140.01</ele>
        <time>2014-09-28T12:30:37Z</time>
      </trkpt>
      <trkpt lat="43.66995" lon="3.35527">
        <ele>140.49</ele>
        <time>2014-09-28T12:31:06Z</time>
      </trkpt>
      <trkpt lat="43.66994" lon="3.35527">
        <ele>140.49</ele>
        <time>2014-09-28T12:31:35Z</time>
      </trkpt>
      <trkpt lat="43.66994" lon="3.35527">
        <ele>140.49</ele>
        <time>2014-09-28T12:32:05Z</time>
      </trkpt>
      <trkpt lat="43.66993" lon="3.35528">
        <ele>140.49</ele>
        <time>2014-09-28T12:32:33Z</time>
      </trkpt>
      <trkpt lat="43.66993" lon="3.35529">
        <ele>140.49</ele>
        <time>2014-09-28T12:33:06Z</time>
      </trkpt>
      <trkpt lat="43.66993" lon="3.35528">
        <ele>140.49</ele>
        <time>2014-09-28T12:33:41Z</time>
      </trkpt>
      <trkpt lat="43.66992" lon="3.35528">
        <ele>140.49</ele>
        <time>2014-09-28T12:34:13Z</time>
      </trkpt>
      <trkpt lat="43.66992" lon="3.35529">
        <ele>140.49</ele>
        <time>2014-09-28T12:34:48Z</time>
      </trkpt>
      <trkpt lat="43.66992" lon="3.35529">
        <ele>140.49</ele>
        <time>2014-09-28T12:35:11Z</time>
      </trkpt>
      <trkpt lat="43.66994" lon="3.35529">
        <ele>140.49</ele>
        <time>2014-09-28T12:35:24Z</time>
      </trkpt>
      <trkpt lat="43.66996" lon="3.35531">
        <ele>140.49</ele>
        <time>2014-09-28T12:35:51Z</time>
      </trkpt>
      <trkpt lat="43.66996" lon="3.35532">
        <ele>140.49</ele>
        <time>2014-09-28T12:35:55Z</time>
      </trkpt>
      <trkpt lat="43.67" lon="3.35534">
        <ele>140.49</ele>
        <time>2014-09-28T12:35:58Z</time>
      </trkpt>
      <trkpt lat="43.66996" lon="3.35521">
        <ele>139.05</ele>
        <time>2014-09-28T12:36:06Z</time>
      </trkpt>
      <trkpt lat="43.66991" lon="3.3552">
        <ele>139.05</ele>
        <time>2014-09-28T12:36:08Z</time>
      </trkpt>
      <trkpt lat="43.66965" lon="3.3552">
        <ele>138.57</ele>
        <time>2014-09-28T12:36:21Z</time>
      </trkpt>
      <trkpt lat="43.66934" lon="3.35526">
        <ele>138.57</ele>
        <time>2014-09-28T12:36:33Z</time>
      </trkpt>
      <trkpt lat="43.66926" lon="3.35529">
        <ele>138.57</ele>
        <time>2014-09-28T12:36:36Z</time>
      </trkpt>
      <trkpt lat="43.66913" lon="3.3556">
        <ele>139.05</ele>
        <time>2014-09-28T12:36:47Z</time>
      </trkpt>
      <trkpt lat="43.66895" lon="3.35609">
        <ele>139.05</ele>
        <time>2014-09-28T12:37:03Z</time>
      </trkpt>
      <trkpt lat="43.66869" lon="3.35657">
        <ele>139.53</ele>
        <time>2014-09-28T12:37:18Z</time>
      </trkpt>
      <trkpt lat="43.66856" lon="3.35678">
        <ele>139.53</ele>
        <time>2014-09-28T12:37:26Z</time>
      </trkpt>
      <trkpt lat="43.6685" lon="3.35687">
        <ele>138.57</ele>
        <time>2014-09-28T12:37:28Z</time>
      </trkpt>
      <trkpt lat="43.66825" lon="3.35719">
        <ele>140.49</ele>
        <time>2014-09-28T12:37:39Z</time>
      </trkpt>
      <trkpt lat="43.66822" lon="3.35721">
        <ele>140.97</ele>
        <time>2014-09-28T12:37:41Z</time>
      </trkpt>
      <trkpt lat="43.66793" lon="3.35739">
        <ele>139.53</ele>
        <time>2014-09-28T12:37:50Z</time>
      </trkpt>
      <trkpt lat="43.66772" lon="3.35749">
        <ele>140.97</ele>
        <time>2014-09-28T12:38:01Z</time>
      </trkpt>
      <trkpt lat="43.66758" lon="3.35766">
        <ele>143.85</ele>
        <time>2014-09-28T12:38:13Z</time>
      </trkpt>
      <trkpt lat="43.6675" lon="3.35778">
        <ele>143.85</ele>
        <time>2014-09-28T12:38:19Z</time>
      </trkpt>
      <trkpt lat="43.66743" lon="3.35788">
        <ele>141.93</ele>
        <time>2014-09-28T12:38:21Z</time>
      </trkpt>
      <trkpt lat="43.66729" lon="3.35811">
        <ele>139.05</ele>
        <time>2014-09-28T12:38:24Z</time>
      </trkpt>
      <trkpt lat="43.66715" lon="3.35829">
        <ele>139.53</ele>
        <time>2014-09-28T12:38:28Z</time>
      </trkpt>
      <trkpt lat="43.66695" lon="3.35851">
        <ele>138.09</ele>
        <time>2014-09-28T12:38:37Z</time>
      </trkpt>
      <trkpt lat="43.66671" lon="3.35881">
        <ele>138.09</ele>
        <time>2014-09-28T12:38:51Z</time>
      </trkpt>
      <trkpt lat="43.66658" lon="3.359">
        <ele>139.53</ele>
        <time>2014-09-28T12:39:01Z</time>
      </trkpt>
      <trkpt lat="43.66651" lon="3.35903">
        <ele>139.05</ele>
        <time>2014-09-28T12:39:08Z</time>
      </trkpt>
      <trkpt lat="43.66634" lon="3.35933">
        <ele>139.05</ele>
        <time>2014-09-28T12:39:18Z</time>
      </trkpt>
      <trkpt lat="43.66626" lon="3.35956">
        <ele>139.53</ele>
        <time>2014-09-28T12:39:26Z</time>
      </trkpt>
      <trkpt lat="43.6662" lon="3.35969">
        <ele>139.05</ele>
        <time>2014-09-28T12:39:30Z</time>
      </trkpt>
      <trkpt lat="43.66611" lon="3.35988">
        <ele>139.05</ele>
        <time>2014-09-28T12:39:35Z</time>
      </trkpt>
      <trkpt lat="43.66609" lon="3.35991">
        <ele>139.05</ele>
        <time>2014-09-28T12:39:37Z</time>
      </trkpt>
      <trkpt lat="43.66586" lon="3.36015">
        <ele>140.01</ele>
        <time>2014-09-28T12:39:48Z</time>
      </trkpt>
      <trkpt lat="43.66583" lon="3.3602">
        <ele>140.01</ele>
        <time>2014-09-28T12:39:50Z</time>
      </trkpt>
      <trkpt lat="43.66583" lon="3.36038">
        <ele>140.01</ele>
        <time>2014-09-28T12:39:55Z</time>
      </trkpt>
      <trkpt lat="43.666" lon="3.36064">
        <ele>142.41</ele>
        <time>2014-09-28T12:40:07Z</time>
      </trkpt>
      <trkpt lat="43.66617" lon="3.36092">
        <ele>140.97</ele>
        <time>2014-09-28T12:40:19Z</time>
      </trkpt>
      <trkpt lat="43.66623" lon="3.3611">
        <ele>138.57</ele>
        <time>2014-09-28T12:40:24Z</time>
      </trkpt>
      <trkpt lat="43.66627" lon="3.36135">
        <ele>138.09</ele>
        <time>2014-09-28T12:40:30Z</time>
      </trkpt>
      <trkpt lat="43.6662" lon="3.36149">
        <ele>140.01</ele>
        <time>2014-09-28T12:40:37Z</time>
      </trkpt>
      <trkpt lat="43.66617" lon="3.36172">
        <ele>138.09</ele>
        <time>2014-09-28T12:40:44Z</time>
      </trkpt>
      <trkpt lat="43.66628" lon="3.36211">
        <ele>137.61</ele>
        <time>2014-09-28T12:40:54Z</time>
      </trkpt>
      <trkpt lat="43.66632" lon="3.36236">
        <ele>138.09</ele>
        <time>2014-09-28T12:41:01Z</time>
      </trkpt>
      <trkpt lat="43.66635" lon="3.3625">
        <ele>139.05</ele>
        <time>2014-09-28T12:41:09Z</time>
      </trkpt>
      <trkpt lat="43.6663" lon="3.36266">
        <ele>139.05</ele>
        <time>2014-09-28T12:41:17Z</time>
      </trkpt>
      <trkpt lat="43.66627" lon="3.36267">
        <ele>139.05</ele>
        <time>2014-09-28T12:41:22Z</time>
      </trkpt>
      <trkpt lat="43.66616" lon="3.3627">
        <ele>140.01</ele>
        <time>2014-09-28T12:41:31Z</time>
      </trkpt>
      <trkpt lat="43.66606" lon="3.36268">
        <ele>140.97</ele>
        <time>2014-09-28T12:41:40Z</time>
      </trkpt>
      <trkpt lat="43.6659" lon="3.36273">
        <ele>140.49</ele>
        <time>2014-09-28T12:41:50Z</time>
      </trkpt>
      <trkpt lat="43.66572" lon="3.36278">
        <ele>141.45</ele>
        <time>2014-09-28T12:41:56Z</time>
      </trkpt>
      <trkpt lat="43.66562" lon="3.36288">
        <ele>141.45</ele>
        <time>2014-09-28T12:42:00Z</time>
      </trkpt>
      <trkpt lat="43.66548" lon="3.36319">
        <ele>140.01</ele>
        <time>2014-09-28T12:42:07Z</time>
      </trkpt>
      <trkpt lat="43.66545" lon="3.36331">
        <ele>140.01</ele>
        <time>2014-09-28T12:42:09Z</time>
      </trkpt>
      <trkpt lat="43.66545" lon="3.36344">
        <ele>140.01</ele>
        <time>2014-09-28T12:42:11Z</time>
      </trkpt>
      <trkpt lat="43.6655" lon="3.36394">
        <ele>140.01</ele>
        <time>2014-09-28T12:42:19Z</time>
      </trkpt>
      <trkpt lat="43.66547" lon="3.36442">
        <ele>139.05</ele>
        <time>2014-09-28T12:42:28Z</time>
      </trkpt>
      <trkpt lat="43.66521" lon="3.36493">
        <ele>140.49</ele>
        <time>2014-09-28T12:42:40Z</time>
      </trkpt>
      <trkpt lat="43.66494" lon="3.36536">
        <ele>140.49</ele>
        <time>2014-09-28T12:42:52Z</time>
      </trkpt>
      <trkpt lat="43.6649" lon="3.36575">
        <ele>139.53</ele>
        <time>2014-09-28T12:43:01Z</time>
      </trkpt>
      <trkpt lat="43.6649" lon="3.36586">
        <ele>139.05</ele>
        <time>2014-09-28T12:43:03Z</time>
      </trkpt>
      <trkpt lat="43.66472" lon="3.36606">
        <ele>140.01</ele>
        <time>2014-09-28T12:43:12Z</time>
      </trkpt>
      <trkpt lat="43.66471" lon="3.36607">
        <ele>140.01</ele>
        <time>2014-09-28T12:43:13Z</time>
      </trkpt>
      <trkpt lat="43.66462" lon="3.36631">
        <ele>141.45</ele>
        <time>2014-09-28T12:43:23Z</time>
      </trkpt>
      <trkpt lat="43.66454" lon="3.36674">
        <ele>141.45</ele>
        <time>2014-09-28T12:43:36Z</time>
      </trkpt>
      <trkpt lat="43.66449" lon="3.3669">
        <ele>141.45</ele>
        <time>2014-09-28T12:43:40Z</time>
      </trkpt>
      <trkpt lat="43.66437" lon="3.36717">
        <ele>141.93</ele>
        <time>2014-09-28T12:43:49Z</time>
      </trkpt>
      <trkpt lat="43.66432" lon="3.3674">
        <ele>142.41</ele>
        <time>2014-09-28T12:43:56Z</time>
      </trkpt>
      <trkpt lat="43.66429" lon="3.36752">
        <ele>142.89</ele>
        <time>2014-09-28T12:44:00Z</time>
      </trkpt>
      <trkpt lat="43.66424" lon="3.3679">
        <ele>141.45</ele>
        <time>2014-09-28T12:44:10Z</time>
      </trkpt>
      <trkpt lat="43.66425" lon="3.36802">
        <ele>140.97</ele>
        <time>2014-09-28T12:44:12Z</time>
      </trkpt>
      <trkpt lat="43.66424" lon="3.36832">
        <ele>140.01</ele>
        <time>2014-09-28T12:44:17Z</time>
      </trkpt>
      <trkpt lat="43.66404" lon="3.36869">
        <ele>140.97</ele>
        <time>2014-09-28T12:44:28Z</time>
      </trkpt>
      <trkpt lat="43.66385" lon="3.36903">
        <ele>141.93</ele>
        <time>2014-09-28T12:44:40Z</time>
      </trkpt>
      <trkpt lat="43.6638" lon="3.36909">
        <ele>142.41</ele>
        <time>2014-09-28T12:44:43Z</time>
      </trkpt>
      <trkpt lat="43.66372" lon="3.3693">
        <ele>144.34</ele>
        <time>2014-09-28T12:44:52Z</time>
      </trkpt>
      <trkpt lat="43.66362" lon="3.36963">
        <ele>143.37</ele>
        <time>2014-09-28T12:45:00Z</time>
      </trkpt>
      <trkpt lat="43.66355" lon="3.36994">
        <ele>142.41</ele>
        <time>2014-09-28T12:45:06Z</time>
      </trkpt>
      <trkpt lat="43.66343" lon="3.37011">
        <ele>140.49</ele>
        <time>2014-09-28T12:45:10Z</time>
      </trkpt>
      <trkpt lat="43.66336" lon="3.3702">
        <ele>140.01</ele>
        <time>2014-09-28T12:45:12Z</time>
      </trkpt>
      <trkpt lat="43.66324" lon="3.37038">
        <ele>139.53</ele>
        <time>2014-09-28T12:45:21Z</time>
      </trkpt>
      <trkpt lat="43.66315" lon="3.37045">
        <ele>140.49</ele>
        <time>2014-09-28T12:45:33Z</time>
      </trkpt>
      <trkpt lat="43.66292" lon="3.37076">
        <ele>142.41</ele>
        <time>2014-09-28T12:45:45Z</time>
      </trkpt>
      <trkpt lat="43.66284" lon="3.37093">
        <ele>142.89</ele>
        <time>2014-09-28T12:45:50Z</time>
      </trkpt>
      <trkpt lat="43.66282" lon="3.37113">
        <ele>142.89</ele>
        <time>2014-09-28T12:45:56Z</time>
      </trkpt>
      <trkpt lat="43.6629" lon="3.37164">
        <ele>142.89</ele>
        <time>2014-09-28T12:46:10Z</time>
      </trkpt>
      <trkpt lat="43.66309" lon="3.37182">
        <ele>143.85</ele>
        <time>2014-09-28T12:46:21Z</time>
      </trkpt>
      <trkpt lat="43.66327" lon="3.37214">
        <ele>145.3</ele>
        <time>2014-09-28T12:46:35Z</time>
      </trkpt>
      <trkpt lat="43.66331" lon="3.37219">
        <ele>146.26</ele>
        <time>2014-09-28T12:46:38Z</time>
      </trkpt>
      <trkpt lat="43.66333" lon="3.37222">
        <ele>146.26</ele>
        <time>2014-09-28T12:46:40Z</time>
      </trkpt>
      <trkpt lat="43.66348" lon="3.3724">
        <ele>148.18</ele>
        <time>2014-09-28T12:46:53Z</time>
      </trkpt>
      <trkpt lat="43.66367" lon="3.37245">
        <ele>150.58</ele>
        <time>2014-09-28T12:47:06Z</time>
      </trkpt>
      <trkpt lat="43.66369" lon="3.37245">
        <ele>150.58</ele>
        <time>2014-09-28T12:47:07Z</time>
      </trkpt>
      <trkpt lat="43.66388" lon="3.37258">
        <ele>152.51</ele>
        <time>2014-09-28T12:47:22Z</time>
      </trkpt>
      <trkpt lat="43.66405" lon="3.3727">
        <ele>154.43</ele>
        <time>2014-09-28T12:47:37Z</time>
      </trkpt>
      <trkpt lat="43.66413" lon="3.37274">
        <ele>155.39</ele>
        <time>2014-09-28T12:47:49Z</time>
      </trkpt>
      <trkpt lat="43.66423" lon="3.3728">
        <ele>157.79</ele>
        <time>2014-09-28T12:48:02Z</time>
      </trkpt>
      <trkpt lat="43.6643" lon="3.37287">
        <ele>159.24</ele>
        <time>2014-09-28T12:48:17Z</time>
      </trkpt>
      <trkpt lat="43.66438" lon="3.3729">
        <ele>160.68</ele>
        <time>2014-09-28T12:48:29Z</time>
      </trkpt>
      <trkpt lat="43.66444" lon="3.37293">
        <ele>161.16</ele>
        <time>2014-09-28T12:48:45Z</time>
      </trkpt>
      <trkpt lat="43.66458" lon="3.37299">
        <ele>163.56</ele>
        <time>2014-09-28T12:49:00Z</time>
      </trkpt>
      <trkpt lat="43.6646" lon="3.37301">
        <ele>164.04</ele>
        <time>2014-09-28T12:49:03Z</time>
      </trkpt>
      <trkpt lat="43.66473" lon="3.37311">
        <ele>165.96</ele>
        <time>2014-09-28T12:49:18Z</time>
      </trkpt>
      <trkpt lat="43.6648" lon="3.37317">
        <ele>167.89</ele>
        <time>2014-09-28T12:49:27Z</time>
      </trkpt>
      <trkpt lat="43.66494" lon="3.37319">
        <ele>169.81</ele>
        <time>2014-09-28T12:49:42Z</time>
      </trkpt>
      <trkpt lat="43.66495" lon="3.3732">
        <ele>169.81</ele>
        <time>2014-09-28T12:49:43Z</time>
      </trkpt>
      <trkpt lat="43.66502" lon="3.37334">
        <ele>171.25</ele>
        <time>2014-09-28T12:49:56Z</time>
      </trkpt>
      <trkpt lat="43.66507" lon="3.37344">
        <ele>173.17</ele>
        <time>2014-09-28T12:50:07Z</time>
      </trkpt>
      <trkpt lat="43.66521" lon="3.37342">
        <ele>175.1</ele>
        <time>2014-09-28T12:50:23Z</time>
      </trkpt>
      <trkpt lat="43.66523" lon="3.37339">
        <ele>175.58</ele>
        <time>2014-09-28T12:50:35Z</time>
      </trkpt>
      <trkpt lat="43.66528" lon="3.37335">
        <ele>176.06</ele>
        <time>2014-09-28T12:50:40Z</time>
      </trkpt>
      <trkpt lat="43.66546" lon="3.3732">
        <ele>177.98</ele>
        <time>2014-09-28T12:50:56Z</time>
      </trkpt>
      <trkpt lat="43.66562" lon="3.37311">
        <ele>178.94</ele>
        <time>2014-09-28T12:51:08Z</time>
      </trkpt>
      <trkpt lat="43.66579" lon="3.37299">
        <ele>180.87</ele>
        <time>2014-09-28T12:51:21Z</time>
      </trkpt>
      <trkpt lat="43.66597" lon="3.3728">
        <ele>183.27</ele>
        <time>2014-09-28T12:51:35Z</time>
      </trkpt>
      <trkpt lat="43.666" lon="3.37294">
        <ele>184.71</ele>
        <time>2014-09-28T12:51:43Z</time>
      </trkpt>
      <trkpt lat="43.66569" lon="3.37326">
        <ele>183.75</ele>
        <time>2014-09-28T12:51:58Z</time>
      </trkpt>
      <trkpt lat="43.66538" lon="3.37368">
        <ele>183.75</ele>
        <time>2014-09-28T12:52:11Z</time>
      </trkpt>
      <trkpt lat="43.66512" lon="3.37414">
        <ele>183.75</ele>
        <time>2014-09-28T12:52:23Z</time>
      </trkpt>
      <trkpt lat="43.66477" lon="3.37437">
        <ele>184.23</ele>
        <time>2014-09-28T12:52:34Z</time>
      </trkpt>
      <trkpt lat="43.6645" lon="3.37488">
        <ele>184.23</ele>
        <time>2014-09-28T12:52:48Z</time>
      </trkpt>
      <trkpt lat="43.66431" lon="3.3754">
        <ele>184.23</ele>
        <time>2014-09-28T12:53:00Z</time>
      </trkpt>
      <trkpt lat="43.66419" lon="3.37599">
        <ele>184.71</ele>
        <time>2014-09-28T12:53:13Z</time>
      </trkpt>
      <trkpt lat="43.6641" lon="3.37657">
        <ele>184.23</ele>
        <time>2014-09-28T12:53:25Z</time>
      </trkpt>
      <trkpt lat="43.66416" lon="3.37722">
        <ele>183.27</ele>
        <time>2014-09-28T12:53:38Z</time>
      </trkpt>
      <trkpt lat="43.66434" lon="3.37791">
        <ele>182.31</ele>
        <time>2014-09-28T12:53:53Z</time>
      </trkpt>
      <trkpt lat="43.66463" lon="3.37855">
        <ele>181.35</ele>
        <time>2014-09-28T12:54:06Z</time>
      </trkpt>
      <trkpt lat="43.66465" lon="3.37859">
        <ele>180.87</ele>
        <time>2014-09-28T12:54:07Z</time>
      </trkpt>
      <trkpt lat="43.6647" lon="3.37869">
        <ele>181.35</ele>
        <time>2014-09-28T12:54:09Z</time>
      </trkpt>
      <trkpt lat="43.66489" lon="3.37904">
        <ele>181.83</ele>
        <time>2014-09-28T12:54:16Z</time>
      </trkpt>
      <trkpt lat="43.66486" lon="3.37939">
        <ele>182.79</ele>
        <time>2014-09-28T12:54:24Z</time>
      </trkpt>
      <trkpt lat="43.66462" lon="3.37943">
        <ele>182.79</ele>
        <time>2014-09-28T12:54:30Z</time>
      </trkpt>
      <trkpt lat="43.66435" lon="3.37946">
        <ele>182.79</ele>
        <time>2014-09-28T12:54:36Z</time>
      </trkpt>
      <trkpt lat="43.66399" lon="3.37952">
        <ele>182.79</ele>
        <time>2014-09-28T12:54:44Z</time>
      </trkpt>
      <trkpt lat="43.6636" lon="3.37965">
        <ele>183.27</ele>
        <time>2014-09-28T12:54:54Z</time>
      </trkpt>
      <trkpt lat="43.66337" lon="3.37988">
        <ele>183.27</ele>
        <time>2014-09-28T12:55:01Z</time>
      </trkpt>
      <trkpt lat="43.66302" lon="3.38043">
        <ele>183.27</ele>
        <time>2014-09-28T12:55:15Z</time>
      </trkpt>
      <trkpt lat="43.66273" lon="3.38089">
        <ele>184.23</ele>
        <time>2014-09-28T12:55:28Z</time>
      </trkpt>
      <trkpt lat="43.66254" lon="3.3815">
        <ele>183.75</ele>
        <time>2014-09-28T12:55:42Z</time>
      </trkpt>
      <trkpt lat="43.66239" lon="3.38219">
        <ele>183.27</ele>
        <time>2014-09-28T12:55:56Z</time>
      </trkpt>
      <trkpt lat="43.66245" lon="3.38294">
        <ele>182.31</ele>
        <time>2014-09-28T12:56:12Z</time>
      </trkpt>
      <trkpt lat="43.66257" lon="3.38347">
        <ele>182.31</ele>
        <time>2014-09-28T12:56:25Z</time>
      </trkpt>
      <trkpt lat="43.66255" lon="3.38383">
        <ele>183.27</ele>
        <time>2014-09-28T12:56:36Z</time>
      </trkpt>
      <trkpt lat="43.66258" lon="3.38423">
        <ele>184.71</ele>
        <time>2014-09-28T12:56:49Z</time>
      </trkpt>
      <trkpt lat="43.66262" lon="3.38464">
        <ele>186.15</ele>
        <time>2014-09-28T12:57:04Z</time>
      </trkpt>
      <trkpt lat="43.66257" lon="3.385">
        <ele>187.59</ele>
        <time>2014-09-28T12:57:18Z</time>
      </trkpt>
      <trkpt lat="43.66253" lon="3.38531">
        <ele>189.04</ele>
        <time>2014-09-28T12:57:30Z</time>
      </trkpt>
      <trkpt lat="43.6625" lon="3.38571">
        <ele>190.48</ele>
        <time>2014-09-28T12:57:44Z</time>
      </trkpt>
      <trkpt lat="43.66252" lon="3.38612">
        <ele>191.92</ele>
        <time>2014-09-28T12:57:59Z</time>
      </trkpt>
      <trkpt lat="43.66253" lon="3.38623">
        <ele>192.4</ele>
        <time>2014-09-28T12:58:04Z</time>
      </trkpt>
      <trkpt lat="43.66253" lon="3.38634">
        <ele>192.88</ele>
        <time>2014-09-28T12:58:09Z</time>
      </trkpt>
      <trkpt lat="43.66256" lon="3.38674">
        <ele>193.36</ele>
        <time>2014-09-28T12:58:25Z</time>
      </trkpt>
      <trkpt lat="43.66265" lon="3.38712">
        <ele>193.84</ele>
        <time>2014-09-28T12:58:38Z</time>
      </trkpt>
      <trkpt lat="43.66286" lon="3.38745">
        <ele>195.77</ele>
        <time>2014-09-28T12:58:51Z</time>
      </trkpt>
      <trkpt lat="43.66288" lon="3.38752">
        <ele>195.77</ele>
        <time>2014-09-28T12:58:53Z</time>
      </trkpt>
      <trkpt lat="43.66281" lon="3.38773">
        <ele>196.73</ele>
        <time>2014-09-28T12:59:00Z</time>
      </trkpt>
      <trkpt lat="43.66272" lon="3.38805">
        <ele>198.65</ele>
        <time>2014-09-28T12:59:13Z</time>
      </trkpt>
      <trkpt lat="43.66266" lon="3.38821">
        <ele>199.61</ele>
        <time>2014-09-28T12:59:20Z</time>
      </trkpt>
      <trkpt lat="43.66262" lon="3.38827">
        <ele>200.09</ele>
        <time>2014-09-28T12:59:24Z</time>
      </trkpt>
      <trkpt lat="43.66243" lon="3.38861">
        <ele>201.53</ele>
        <time>2014-09-28T12:59:39Z</time>
      </trkpt>
      <trkpt lat="43.66228" lon="3.38894">
        <ele>202.49</ele>
        <time>2014-09-28T12:59:51Z</time>
      </trkpt>
      <trkpt lat="43.6621" lon="3.38934">
        <ele>204.42</ele>
        <time>2014-09-28T13:00:07Z</time>
      </trkpt>
      <trkpt lat="43.66194" lon="3.38972">
        <ele>205.86</ele>
        <time>2014-09-28T13:00:20Z</time>
      </trkpt>
      <trkpt lat="43.66183" lon="3.3901">
        <ele>207.3</ele>
        <time>2014-09-28T13:00:33Z</time>
      </trkpt>
      <trkpt lat="43.66175" lon="3.39042">
        <ele>208.26</ele>
        <time>2014-09-28T13:00:44Z</time>
      </trkpt>
      <trkpt lat="43.66172" lon="3.39075">
        <ele>208.74</ele>
        <time>2014-09-28T13:00:54Z</time>
      </trkpt>
      <trkpt lat="43.66162" lon="3.39116">
        <ele>210.19</ele>
        <time>2014-09-28T13:01:09Z</time>
      </trkpt>
      <trkpt lat="43.66158" lon="3.39156">
        <ele>211.63</ele>
        <time>2014-09-28T13:01:24Z</time>
      </trkpt>
      <trkpt lat="43.66163" lon="3.39189">
        <ele>214.03</ele>
        <time>2014-09-28T13:01:38Z</time>
      </trkpt>
      <trkpt lat="43.6617" lon="3.3922">
        <ele>215.95</ele>
        <time>2014-09-28T13:01:52Z</time>
      </trkpt>
      <trkpt lat="43.66173" lon="3.39236">
        <ele>216.43</ele>
        <time>2014-09-28T13:01:59Z</time>
      </trkpt>
      <trkpt lat="43.66172" lon="3.39243">
        <ele>217.4</ele>
        <time>2014-09-28T13:02:03Z</time>
      </trkpt>
      <trkpt lat="43.66165" lon="3.39275">
        <ele>218.84</ele>
        <time>2014-09-28T13:02:19Z</time>
      </trkpt>
      <trkpt lat="43.66155" lon="3.39303">
        <ele>221.24</ele>
        <time>2014-09-28T13:02:33Z</time>
      </trkpt>
      <trkpt lat="43.66146" lon="3.39321">
        <ele>222.2</ele>
        <time>2014-09-28T13:02:43Z</time>
      </trkpt>
      <trkpt lat="43.6613" lon="3.39354">
        <ele>222.68</ele>
        <time>2014-09-28T13:02:57Z</time>
      </trkpt>
      <trkpt lat="43.66109" lon="3.39395">
        <ele>224.12</ele>
        <time>2014-09-28T13:03:11Z</time>
      </trkpt>
      <trkpt lat="43.66102" lon="3.39434">
        <ele>225.57</ele>
        <time>2014-09-28T13:03:24Z</time>
      </trkpt>
      <trkpt lat="43.6613" lon="3.39464">
        <ele>223.16</ele>
        <time>2014-09-28T13:03:35Z</time>
      </trkpt>
      <trkpt lat="43.66141" lon="3.39475">
        <ele>223.16</ele>
        <time>2014-09-28T13:03:38Z</time>
      </trkpt>
      <trkpt lat="43.66163" lon="3.39483">
        <ele>222.68</ele>
        <time>2014-09-28T13:03:43Z</time>
      </trkpt>
      <trkpt lat="43.66198" lon="3.39487">
        <ele>220.28</ele>
        <time>2014-09-28T13:03:50Z</time>
      </trkpt>
      <trkpt lat="43.66233" lon="3.39496">
        <ele>218.36</ele>
        <time>2014-09-28T13:03:56Z</time>
      </trkpt>
      <trkpt lat="43.663" lon="3.39523">
        <ele>214.99</ele>
        <time>2014-09-28T13:04:05Z</time>
      </trkpt>
      <trkpt lat="43.66315" lon="3.39527">
        <ele>214.51</ele>
        <time>2014-09-28T13:04:07Z</time>
      </trkpt>
      <trkpt lat="43.66352" lon="3.39521">
        <ele>212.11</ele>
        <time>2014-09-28T13:04:12Z</time>
      </trkpt>
      <trkpt lat="43.66381" lon="3.3953">
        <ele>210.67</ele>
        <time>2014-09-28T13:04:19Z</time>
      </trkpt>
      <trkpt lat="43.6636" lon="3.39548">
        <ele>211.15</ele>
        <time>2014-09-28T13:04:26Z</time>
      </trkpt>
      <trkpt lat="43.66334" lon="3.39593">
        <ele>212.11</ele>
        <time>2014-09-28T13:04:38Z</time>
      </trkpt>
      <trkpt lat="43.66308" lon="3.39604">
        <ele>213.07</ele>
        <time>2014-09-28T13:04:48Z</time>
      </trkpt>
      <trkpt lat="43.66273" lon="3.39622">
        <ele>214.99</ele>
        <time>2014-09-28T13:05:04Z</time>
      </trkpt>
      <trkpt lat="43.66245" lon="3.39635">
        <ele>215.47</ele>
        <time>2014-09-28T13:05:16Z</time>
      </trkpt>
      <trkpt lat="43.66226" lon="3.39665">
        <ele>214.51</ele>
        <time>2014-09-28T13:05:26Z</time>
      </trkpt>
      <trkpt lat="43.66206" lon="3.39694">
        <ele>214.99</ele>
        <time>2014-09-28T13:05:35Z</time>
      </trkpt>
      <trkpt lat="43.66169" lon="3.39715">
        <ele>215.47</ele>
        <time>2014-09-28T13:05:49Z</time>
      </trkpt>
      <trkpt lat="43.66131" lon="3.39717">
        <ele>216.43</ele>
        <time>2014-09-28T13:06:03Z</time>
      </trkpt>
      <trkpt lat="43.66103" lon="3.39763">
        <ele>216.43</ele>
        <time>2014-09-28T13:06:16Z</time>
      </trkpt>
      <trkpt lat="43.6607" lon="3.39792">
        <ele>215.95</ele>
        <time>2014-09-28T13:06:27Z</time>
      </trkpt>
      <trkpt lat="43.66033" lon="3.39827">
        <ele>217.88</ele>
        <time>2014-09-28T13:06:41Z</time>
      </trkpt>
      <trkpt lat="43.66002" lon="3.3985">
        <ele>219.32</ele>
        <time>2014-09-28T13:06:54Z</time>
      </trkpt>
      <trkpt lat="43.65969" lon="3.39874">
        <ele>219.8</ele>
        <time>2014-09-28T13:07:08Z</time>
      </trkpt>
      <trkpt lat="43.6593" lon="3.39899">
        <ele>220.76</ele>
        <time>2014-09-28T13:07:22Z</time>
      </trkpt>
      <trkpt lat="43.65904" lon="3.39933">
        <ele>220.28</ele>
        <time>2014-09-28T13:07:34Z</time>
      </trkpt>
      <trkpt lat="43.65896" lon="3.3999">
        <ele>218.36</ele>
        <time>2014-09-28T13:07:47Z</time>
      </trkpt>
      <trkpt lat="43.65911" lon="3.40047">
        <ele>217.88</ele>
        <time>2014-09-28T13:07:59Z</time>
      </trkpt>
      <trkpt lat="43.65914" lon="3.40057">
        <ele>217.4</ele>
        <time>2014-09-28T13:08:01Z</time>
      </trkpt>
      <trkpt lat="43.65953" lon="3.40115">
        <ele>217.4</ele>
        <time>2014-09-28T13:08:16Z</time>
      </trkpt>
      <trkpt lat="43.65973" lon="3.40137">
        <ele>214.99</ele>
        <time>2014-09-28T13:08:23Z</time>
      </trkpt>
      <trkpt lat="43.65997" lon="3.40191">
        <ele>215.47</ele>
        <time>2014-09-28T13:08:35Z</time>
      </trkpt>
      <trkpt lat="43.66014" lon="3.40264">
        <ele>214.99</ele>
        <time>2014-09-28T13:08:50Z</time>
      </trkpt>
      <trkpt lat="43.66026" lon="3.40336">
        <ele>214.51</ele>
        <time>2014-09-28T13:09:03Z</time>
      </trkpt>
      <trkpt lat="43.66026" lon="3.40354">
        <ele>214.51</ele>
        <time>2014-09-28T13:09:06Z</time>
      </trkpt>
      <trkpt lat="43.66027" lon="3.40366">
        <ele>214.03</ele>
        <time>2014-09-28T13:09:08Z</time>
      </trkpt>
      <trkpt lat="43.66031" lon="3.40396">
        <ele>214.03</ele>
        <time>2014-09-28T13:09:13Z</time>
      </trkpt>
      <trkpt lat="43.66034" lon="3.40407">
        <ele>214.03</ele>
        <time>2014-09-28T13:09:15Z</time>
      </trkpt>
      <trkpt lat="43.66036" lon="3.40419">
        <ele>214.03</ele>
        <time>2014-09-28T13:09:17Z</time>
      </trkpt>
      <trkpt lat="43.66042" lon="3.40441">
        <ele>214.03</ele>
        <time>2014-09-28T13:09:21Z</time>
      </trkpt>
      <trkpt lat="43.6606" lon="3.4047">
        <ele>213.55</ele>
        <time>2014-09-28T13:09:28Z</time>
      </trkpt>
      <trkpt lat="43.66088" lon="3.40474">
        <ele>212.59</ele>
        <time>2014-09-28T13:09:41Z</time>
      </trkpt>
      <trkpt lat="43.66088" lon="3.40474">
        <ele>213.07</ele>
        <time>2014-09-28T13:09:57Z</time>
      </trkpt>
      <trkpt lat="43.66089" lon="3.40473">
        <ele>212.59</ele>
        <time>2014-09-28T13:10:17Z</time>
      </trkpt>
      <trkpt lat="43.661" lon="3.40467">
        <ele>212.11</ele>
        <time>2014-09-28T13:10:26Z</time>
      </trkpt>
      <trkpt lat="43.66114" lon="3.40458">
        <ele>212.11</ele>
        <time>2014-09-28T13:10:39Z</time>
      </trkpt>
      <trkpt lat="43.66131" lon="3.40442">
        <ele>212.11</ele>
        <time>2014-09-28T13:10:45Z</time>
      </trkpt>
      <trkpt lat="43.66139" lon="3.40437">
        <ele>211.63</ele>
        <time>2014-09-28T13:10:47Z</time>
      </trkpt>
      <trkpt lat="43.66163" lon="3.40414">
        <ele>211.15</ele>
        <time>2014-09-28T13:10:53Z</time>
      </trkpt>
      <trkpt lat="43.66191" lon="3.40412">
        <ele>211.63</ele>
        <time>2014-09-28T13:11:00Z</time>
      </trkpt>
      <trkpt lat="43.66194" lon="3.40417">
        <ele>211.63</ele>
        <time>2014-09-28T13:11:01Z</time>
      </trkpt>
      <trkpt lat="43.66215" lon="3.40452">
        <ele>213.55</ele>
        <time>2014-09-28T13:11:14Z</time>
      </trkpt>
      <trkpt lat="43.66242" lon="3.40484">
        <ele>214.99</ele>
        <time>2014-09-28T13:11:27Z</time>
      </trkpt>
      <trkpt lat="43.66281" lon="3.40515">
        <ele>216.43</ele>
        <time>2014-09-28T13:11:44Z</time>
      </trkpt>
      <trkpt lat="43.66302" lon="3.4053">
        <ele>217.88</ele>
        <time>2014-09-28T13:11:55Z</time>
      </trkpt>
      <trkpt lat="43.66322" lon="3.40548">
        <ele>220.76</ele>
        <time>2014-09-28T13:12:10Z</time>
      </trkpt>
      <trkpt lat="43.66334" lon="3.40565">
        <ele>222.2</ele>
        <time>2014-09-28T13:12:22Z</time>
      </trkpt>
      <trkpt lat="43.66352" lon="3.40575">
        <ele>221.24</ele>
        <time>2014-09-28T13:12:31Z</time>
      </trkpt>
      <trkpt lat="43.66365" lon="3.40581">
        <ele>220.28</ele>
        <time>2014-09-28T13:12:34Z</time>
      </trkpt>
      <trkpt lat="43.66391" lon="3.40597">
        <ele>217.88</ele>
        <time>2014-09-28T13:12:39Z</time>
      </trkpt>
      <trkpt lat="43.66435" lon="3.40612">
        <ele>214.99</ele>
        <time>2014-09-28T13:12:45Z</time>
      </trkpt>
      <trkpt lat="43.66456" lon="3.40627">
        <ele>212.59</ele>
        <time>2014-09-28T13:12:48Z</time>
      </trkpt>
      <trkpt lat="43.66472" lon="3.40641">
        <ele>209.7</ele>
        <time>2014-09-28T13:12:51Z</time>
      </trkpt>
      <trkpt lat="43.66488" lon="3.40662">
        <ele>206.34</ele>
        <time>2014-09-28T13:12:54Z</time>
      </trkpt>
      <trkpt lat="43.6651" lon="3.40679">
        <ele>202.01</ele>
        <time>2014-09-28T13:12:57Z</time>
      </trkpt>
      <trkpt lat="43.66518" lon="3.40683">
        <ele>200.57</ele>
        <time>2014-09-28T13:12:58Z</time>
      </trkpt>
      <trkpt lat="43.66548" lon="3.40698">
        <ele>196.73</ele>
        <time>2014-09-28T13:13:04Z</time>
      </trkpt>
      <trkpt lat="43.66562" lon="3.40704">
        <ele>194.8</ele>
        <time>2014-09-28T13:13:07Z</time>
      </trkpt>
      <trkpt lat="43.6659" lon="3.40718">
        <ele>191.44</ele>
        <time>2014-09-28T13:13:12Z</time>
      </trkpt>
      <trkpt lat="43.66609" lon="3.40724">
        <ele>188.56</ele>
        <time>2014-09-28T13:13:15Z</time>
      </trkpt>
      <trkpt lat="43.6664" lon="3.40737">
        <ele>184.71</ele>
        <time>2014-09-28T13:13:20Z</time>
      </trkpt>
      <trkpt lat="43.66654" lon="3.40743">
        <ele>182.31</ele>
        <time>2014-09-28T13:13:22Z</time>
      </trkpt>
      <trkpt lat="43.66697" lon="3.40752">
        <ele>179.42</ele>
        <time>2014-09-28T13:13:27Z</time>
      </trkpt>
      <trkpt lat="43.66716" lon="3.40788">
        <ele>177.02</ele>
        <time>2014-09-28T13:13:31Z</time>
      </trkpt>
      <trkpt lat="43.66735" lon="3.40831">
        <ele>172.69</ele>
        <time>2014-09-28T13:13:35Z</time>
      </trkpt>
      <trkpt lat="43.66748" lon="3.40847">
        <ele>170.77</ele>
        <time>2014-09-28T13:13:37Z</time>
      </trkpt>
      <trkpt lat="43.66781" lon="3.40873">
        <ele>166.45</ele>
        <time>2014-09-28T13:13:41Z</time>
      </trkpt>
      <trkpt lat="43.66808" lon="3.40889">
        <ele>162.6</ele>
        <time>2014-09-28T13:13:44Z</time>
      </trkpt>
      <trkpt lat="43.66845" lon="3.40904">
        <ele>158.75</ele>
        <time>2014-09-28T13:13:48Z</time>
      </trkpt>
      <trkpt lat="43.66862" lon="3.40911">
        <ele>155.87</ele>
        <time>2014-09-28T13:13:50Z</time>
      </trkpt>
      <trkpt lat="43.66894" lon="3.40929">
        <ele>152.03</ele>
        <time>2014-09-28T13:13:54Z</time>
      </trkpt>
      <trkpt lat="43.66915" lon="3.40943">
        <ele>148.18</ele>
        <time>2014-09-28T13:13:57Z</time>
      </trkpt>
      <trkpt lat="43.66936" lon="3.40974">
        <ele>145.3</ele>
        <time>2014-09-28T13:14:01Z</time>
      </trkpt>
      <trkpt lat="43.66935" lon="3.41014">
        <ele>145.3</ele>
        <time>2014-09-28T13:14:06Z</time>
      </trkpt>
      <trkpt lat="43.6693" lon="3.41028">
        <ele>144.34</ele>
        <time>2014-09-28T13:14:08Z</time>
      </trkpt>
      <trkpt lat="43.66914" lon="3.41036">
        <ele>142.41</ele>
        <time>2014-09-28T13:14:12Z</time>
      </trkpt>
      <trkpt lat="43.66907" lon="3.41018">
        <ele>140.49</ele>
        <time>2014-09-28T13:14:15Z</time>
      </trkpt>
      <trkpt lat="43.66901" lon="3.41">
        <ele>139.53</ele>
        <time>2014-09-28T13:14:18Z</time>
      </trkpt>
      <trkpt lat="43.66894" lon="3.40989">
        <ele>139.05</ele>
        <time>2014-09-28T13:14:20Z</time>
      </trkpt>
      <trkpt lat="43.66871" lon="3.40969">
        <ele>137.61</ele>
        <time>2014-09-28T13:14:25Z</time>
      </trkpt>
      <trkpt lat="43.66832" lon="3.40953">
        <ele>137.13</ele>
        <time>2014-09-28T13:14:34Z</time>
      </trkpt>
      <trkpt lat="43.66766" lon="3.40942">
        <ele>133.76</ele>
        <time>2014-09-28T13:14:47Z</time>
      </trkpt>
      <trkpt lat="43.66725" lon="3.40934">
        <ele>130.4</ele>
        <time>2014-09-28T13:14:53Z</time>
      </trkpt>
      <trkpt lat="43.66696" lon="3.40931">
        <ele>127.51</ele>
        <time>2014-09-28T13:14:58Z</time>
      </trkpt>
      <trkpt lat="43.66674" lon="3.40923">
        <ele>125.11</ele>
        <time>2014-09-28T13:15:05Z</time>
      </trkpt>
      <trkpt lat="43.66681" lon="3.40931">
        <ele>124.15</ele>
        <time>2014-09-28T13:15:10Z</time>
      </trkpt>
      <trkpt lat="43.66743" lon="3.40964">
        <ele>121.74</ele>
        <time>2014-09-28T13:15:22Z</time>
      </trkpt>
      <trkpt lat="43.66748" lon="3.40967">
        <ele>121.74</ele>
        <time>2014-09-28T13:15:23Z</time>
      </trkpt>
      <trkpt lat="43.66779" lon="3.40984">
        <ele>121.74</ele>
        <time>2014-09-28T13:15:30Z</time>
      </trkpt>
      <trkpt lat="43.66793" lon="3.40993">
        <ele>120.78</ele>
        <time>2014-09-28T13:15:33Z</time>
      </trkpt>
      <trkpt lat="43.66812" lon="3.41011">
        <ele>119.34</ele>
        <time>2014-09-28T13:15:39Z</time>
      </trkpt>
      <trkpt lat="43.66808" lon="3.41016">
        <ele>118.86</ele>
        <time>2014-09-28T13:15:44Z</time>
      </trkpt>
      <trkpt lat="43.66798" lon="3.41009">
        <ele>117.9</ele>
        <time>2014-09-28T13:15:47Z</time>
      </trkpt>
      <trkpt lat="43.66781" lon="3.40999">
        <ele>117.42</ele>
        <time>2014-09-28T13:15:51Z</time>
      </trkpt>
      <trkpt lat="43.6674" lon="3.40979">
        <ele>113.57</ele>
        <time>2014-09-28T13:15:58Z</time>
      </trkpt>
      <trkpt lat="43.66733" lon="3.40975">
        <ele>113.57</ele>
        <time>2014-09-28T13:15:59Z</time>
      </trkpt>
      <trkpt lat="43.6672" lon="3.40969">
        <ele>113.09</ele>
        <time>2014-09-28T13:16:01Z</time>
      </trkpt>
      <trkpt lat="43.66692" lon="3.40966">
        <ele>112.13</ele>
        <time>2014-09-28T13:16:05Z</time>
      </trkpt>
      <trkpt lat="43.66659" lon="3.40962">
        <ele>110.69</ele>
        <time>2014-09-28T13:16:10Z</time>
      </trkpt>
      <trkpt lat="43.66605" lon="3.40969">
        <ele>108.29</ele>
        <time>2014-09-28T13:16:17Z</time>
      </trkpt>
      <trkpt lat="43.66582" lon="3.40964">
        <ele>106.84</ele>
        <time>2014-09-28T13:16:20Z</time>
      </trkpt>
      <trkpt lat="43.66505" lon="3.40944">
        <ele>106.36</ele>
        <time>2014-09-28T13:16:32Z</time>
      </trkpt>
      <trkpt lat="43.66459" lon="3.40943">
        <ele>105.4</ele>
        <time>2014-09-28T13:16:41Z</time>
      </trkpt>
      <trkpt lat="43.6645" lon="3.40942">
        <ele>105.4</ele>
        <time>2014-09-28T13:16:43Z</time>
      </trkpt>
      <trkpt lat="43.66389" lon="3.40966">
        <ele>101.56</ele>
        <time>2014-09-28T13:16:55Z</time>
      </trkpt>
      <trkpt lat="43.66298" lon="3.40999">
        <ele>99.63</ele>
        <time>2014-09-28T13:17:09Z</time>
      </trkpt>
      <trkpt lat="43.66292" lon="3.41002">
        <ele>99.63</ele>
        <time>2014-09-28T13:17:10Z</time>
      </trkpt>
      <trkpt lat="43.66275" lon="3.41018">
        <ele>100.6</ele>
        <time>2014-09-28T13:17:14Z</time>
      </trkpt>
      <trkpt lat="43.66235" lon="3.41064">
        <ele>101.56</ele>
        <time>2014-09-28T13:17:27Z</time>
      </trkpt>
      <trkpt lat="43.66194" lon="3.41066">
        <ele>102.52</ele>
        <time>2014-09-28T13:17:40Z</time>
      </trkpt>
      <trkpt lat="43.66149" lon="3.41035">
        <ele>102.52</ele>
        <time>2014-09-28T13:17:57Z</time>
      </trkpt>
      <trkpt lat="43.66098" lon="3.41008">
        <ele>103.48</ele>
        <time>2014-09-28T13:18:14Z</time>
      </trkpt>
      <trkpt lat="43.66085" lon="3.40998">
        <ele>103</ele>
        <time>2014-09-28T13:18:18Z</time>
      </trkpt>
      <trkpt lat="43.66047" lon="3.40986">
        <ele>103</ele>
        <time>2014-09-28T13:18:31Z</time>
      </trkpt>
      <trkpt lat="43.6603" lon="3.40986">
        <ele>103.96</ele>
        <time>2014-09-28T13:18:45Z</time>
      </trkpt>
      <trkpt lat="43.66027" lon="3.40978">
        <ele>104.92</ele>
        <time>2014-09-28T13:18:57Z</time>
      </trkpt>
      <trkpt lat="43.66025" lon="3.40974">
        <ele>104.92</ele>
        <time>2014-09-28T13:19:09Z</time>
      </trkpt>
      <trkpt lat="43.66025" lon="3.40973">
        <ele>104.92</ele>
        <time>2014-09-28T13:19:12Z</time>
      </trkpt>
      <trkpt lat="43.66018" lon="3.40968">
        <ele>105.88</ele>
        <time>2014-09-28T13:19:17Z</time>
      </trkpt>
      <trkpt lat="43.66004" lon="3.40945">
        <ele>109.73</ele>
        <time>2014-09-28T13:19:30Z</time>
      </trkpt>
      <trkpt lat="43.66001" lon="3.40936">
        <ele>108.77</ele>
        <time>2014-09-28T13:19:34Z</time>
      </trkpt>
      <trkpt lat="43.66" lon="3.40934">
        <ele>108.77</ele>
        <time>2014-09-28T13:19:35Z</time>
      </trkpt>
      <trkpt lat="43.65991" lon="3.40894">
        <ele>110.69</ele>
        <time>2014-09-28T13:19:51Z</time>
      </trkpt>
      <trkpt lat="43.65993" lon="3.40858">
        <ele>113.09</ele>
        <time>2014-09-28T13:20:06Z</time>
      </trkpt>
      <trkpt lat="43.65992" lon="3.40839">
        <ele>114.53</ele>
        <time>2014-09-28T13:20:14Z</time>
      </trkpt>
      <trkpt lat="43.65991" lon="3.40836">
        <ele>114.53</ele>
        <time>2014-09-28T13:20:15Z</time>
      </trkpt>
      <trkpt lat="43.65961" lon="3.40822">
        <ele>116.94</ele>
        <time>2014-09-28T13:20:33Z</time>
      </trkpt>
      <trkpt lat="43.6595" lon="3.40787">
        <ele>118.86</ele>
        <time>2014-09-28T13:20:47Z</time>
      </trkpt>
      <trkpt lat="43.65936" lon="3.40758">
        <ele>120.78</ele>
        <time>2014-09-28T13:21:02Z</time>
      </trkpt>
      <trkpt lat="43.65923" lon="3.40729">
        <ele>121.74</ele>
        <time>2014-09-28T13:21:16Z</time>
      </trkpt>
      <trkpt lat="43.65919" lon="3.40695">
        <ele>124.15</ele>
        <time>2014-09-28T13:21:30Z</time>
      </trkpt>
      <trkpt lat="43.6591" lon="3.40669">
        <ele>125.59</ele>
        <time>2014-09-28T13:21:42Z</time>
      </trkpt>
      <trkpt lat="43.65891" lon="3.40645">
        <ele>128.95</ele>
        <time>2014-09-28T13:21:57Z</time>
      </trkpt>
      <trkpt lat="43.6587" lon="3.40624">
        <ele>131.84</ele>
        <time>2014-09-28T13:22:12Z</time>
      </trkpt>
      <trkpt lat="43.65869" lon="3.40589">
        <ele>132.8</ele>
        <time>2014-09-28T13:22:26Z</time>
      </trkpt>
      <trkpt lat="43.65868" lon="3.40552">
        <ele>134.72</ele>
        <time>2014-09-28T13:22:42Z</time>
      </trkpt>
      <trkpt lat="43.65865" lon="3.40503">
        <ele>137.61</ele>
        <time>2014-09-28T13:23:00Z</time>
      </trkpt>
      <trkpt lat="43.65862" lon="3.40459">
        <ele>140.01</ele>
        <time>2014-09-28T13:23:17Z</time>
      </trkpt>
      <trkpt lat="43.65861" lon="3.40419">
        <ele>141.93</ele>
        <time>2014-09-28T13:23:31Z</time>
      </trkpt>
      <trkpt lat="43.65853" lon="3.40376">
        <ele>143.37</ele>
        <time>2014-09-28T13:23:45Z</time>
      </trkpt>
      <trkpt lat="43.6584" lon="3.40333">
        <ele>145.3</ele>
        <time>2014-09-28T13:24:00Z</time>
      </trkpt>
      <trkpt lat="43.65833" lon="3.40293">
        <ele>147.7</ele>
        <time>2014-09-28T13:24:14Z</time>
      </trkpt>
      <trkpt lat="43.65821" lon="3.40252">
        <ele>150.1</ele>
        <time>2014-09-28T13:24:29Z</time>
      </trkpt>
      <trkpt lat="43.65807" lon="3.40207">
        <ele>152.03</ele>
        <time>2014-09-28T13:24:46Z</time>
      </trkpt>
      <trkpt lat="43.65792" lon="3.40166">
        <ele>153.47</ele>
        <time>2014-09-28T13:25:01Z</time>
      </trkpt>
      <trkpt lat="43.65769" lon="3.40113">
        <ele>153.95</ele>
        <time>2014-09-28T13:25:16Z</time>
      </trkpt>
      <trkpt lat="43.65751" lon="3.40045">
        <ele>153.47</ele>
        <time>2014-09-28T13:25:30Z</time>
      </trkpt>
      <trkpt lat="43.65729" lon="3.39985">
        <ele>152.99</ele>
        <time>2014-09-28T13:25:43Z</time>
      </trkpt>
      <trkpt lat="43.6572" lon="3.39941">
        <ele>152.03</ele>
        <time>2014-09-28T13:25:51Z</time>
      </trkpt>
      <trkpt lat="43.65699" lon="3.39892">
        <ele>150.58</ele>
        <time>2014-09-28T13:26:01Z</time>
      </trkpt>
      <trkpt lat="43.65694" lon="3.39907">
        <ele>149.62</ele>
        <time>2014-09-28T13:26:07Z</time>
      </trkpt>
      <trkpt lat="43.65705" lon="3.39936">
        <ele>149.14</ele>
        <time>2014-09-28T13:26:13Z</time>
      </trkpt>
      <trkpt lat="43.65711" lon="3.39958">
        <ele>148.66</ele>
        <time>2014-09-28T13:26:17Z</time>
      </trkpt>
      <trkpt lat="43.65713" lon="3.3997">
        <ele>148.18</ele>
        <time>2014-09-28T13:26:19Z</time>
      </trkpt>
      <trkpt lat="43.65716" lon="3.39983">
        <ele>148.18</ele>
        <time>2014-09-28T13:26:21Z</time>
      </trkpt>
      <trkpt lat="43.65717" lon="3.40004">
        <ele>146.74</ele>
        <time>2014-09-28T13:26:24Z</time>
      </trkpt>
      <trkpt lat="43.65717" lon="3.40012">
        <ele>146.26</ele>
        <time>2014-09-28T13:26:25Z</time>
      </trkpt>
      <trkpt lat="43.6571" lon="3.40044">
        <ele>143.85</ele>
        <time>2014-09-28T13:26:29Z</time>
      </trkpt>
      <trkpt lat="43.65657" lon="3.40119">
        <ele>143.85</ele>
        <time>2014-09-28T13:26:43Z</time>
      </trkpt>
      <trkpt lat="43.65609" lon="3.40186">
        <ele>144.34</ele>
        <time>2014-09-28T13:26:59Z</time>
      </trkpt>
      <trkpt lat="43.65549" lon="3.40275">
        <ele>144.34</ele>
        <time>2014-09-28T13:27:19Z</time>
      </trkpt>
      <trkpt lat="43.65514" lon="3.40326">
        <ele>144.34</ele>
        <time>2014-09-28T13:27:33Z</time>
      </trkpt>
      <trkpt lat="43.65503" lon="3.40337">
        <ele>143.85</ele>
        <time>2014-09-28T13:27:41Z</time>
      </trkpt>
      <trkpt lat="43.65498" lon="3.40345">
        <ele>144.82</ele>
        <time>2014-09-28T13:27:46Z</time>
      </trkpt>
      <trkpt lat="43.65476" lon="3.40319">
        <ele>145.78</ele>
        <time>2014-09-28T13:27:58Z</time>
      </trkpt>
      <trkpt lat="43.6545" lon="3.40287">
        <ele>147.22</ele>
        <time>2014-09-28T13:28:12Z</time>
      </trkpt>
      <trkpt lat="43.6542" lon="3.40258">
        <ele>149.62</ele>
        <time>2014-09-28T13:28:26Z</time>
      </trkpt>
      <trkpt lat="43.65383" lon="3.40231">
        <ele>152.03</ele>
        <time>2014-09-28T13:28:42Z</time>
      </trkpt>
      <trkpt lat="43.65338" lon="3.40209">
        <ele>154.43</ele>
        <time>2014-09-28T13:29:01Z</time>
      </trkpt>
      <trkpt lat="43.65298" lon="3.40197">
        <ele>156.35</ele>
        <time>2014-09-28T13:29:17Z</time>
      </trkpt>
      <trkpt lat="43.65278" lon="3.40162">
        <ele>158.27</ele>
        <time>2014-09-28T13:29:30Z</time>
      </trkpt>
      <trkpt lat="43.65274" lon="3.40113">
        <ele>160.2</ele>
        <time>2014-09-28T13:29:44Z</time>
      </trkpt>
      <trkpt lat="43.65261" lon="3.40063">
        <ele>162.12</ele>
        <time>2014-09-28T13:29:59Z</time>
      </trkpt>
      <trkpt lat="43.65235" lon="3.40025">
        <ele>164.04</ele>
        <time>2014-09-28T13:30:14Z</time>
      </trkpt>
      <trkpt lat="43.65203" lon="3.39997">
        <ele>165.48</ele>
        <time>2014-09-28T13:30:28Z</time>
      </trkpt>
      <trkpt lat="43.65161" lon="3.39985">
        <ele>167.41</ele>
        <time>2014-09-28T13:30:44Z</time>
      </trkpt>
      <trkpt lat="43.65131" lon="3.39955">
        <ele>168.37</ele>
        <time>2014-09-28T13:30:57Z</time>
      </trkpt>
      <trkpt lat="43.65127" lon="3.39915">
        <ele>169.33</ele>
        <time>2014-09-28T13:31:08Z</time>
      </trkpt>
      <trkpt lat="43.65145" lon="3.39867">
        <ele>170.29</ele>
        <time>2014-09-28T13:31:21Z</time>
      </trkpt>
      <trkpt lat="43.65156" lon="3.3981">
        <ele>170.77</ele>
        <time>2014-09-28T13:31:32Z</time>
      </trkpt>
      <trkpt lat="43.65155" lon="3.39765">
        <ele>171.25</ele>
        <time>2014-09-28T13:31:40Z</time>
      </trkpt>
      <trkpt lat="43.65148" lon="3.39672">
        <ele>172.21</ele>
        <time>2014-09-28T13:31:56Z</time>
      </trkpt>
      <trkpt lat="43.65144" lon="3.39632">
        <ele>172.69</ele>
        <time>2014-09-28T13:32:03Z</time>
      </trkpt>
      <trkpt lat="43.65142" lon="3.39586">
        <ele>172.69</ele>
        <time>2014-09-28T13:32:11Z</time>
      </trkpt>
      <trkpt lat="43.65144" lon="3.39564">
        <ele>173.17</ele>
        <time>2014-09-28T13:32:15Z</time>
      </trkpt>
      <trkpt lat="43.6516" lon="3.39478">
        <ele>173.66</ele>
        <time>2014-09-28T13:32:31Z</time>
      </trkpt>
      <trkpt lat="43.65163" lon="3.39449">
        <ele>173.66</ele>
        <time>2014-09-28T13:32:36Z</time>
      </trkpt>
      <trkpt lat="43.65154" lon="3.39356">
        <ele>174.62</ele>
        <time>2014-09-28T13:32:52Z</time>
      </trkpt>
      <trkpt lat="43.65142" lon="3.39258">
        <ele>175.58</ele>
        <time>2014-09-28T13:33:11Z</time>
      </trkpt>
      <trkpt lat="43.65114" lon="3.39168">
        <ele>176.54</ele>
        <time>2014-09-28T13:33:28Z</time>
      </trkpt>
      <trkpt lat="43.65102" lon="3.39146">
        <ele>176.54</ele>
        <time>2014-09-28T13:33:33Z</time>
      </trkpt>
      <trkpt lat="43.65089" lon="3.39125">
        <ele>176.54</ele>
        <time>2014-09-28T13:33:38Z</time>
      </trkpt>
      <trkpt lat="43.65031" lon="3.3907">
        <ele>175.58</ele>
        <time>2014-09-28T13:33:51Z</time>
      </trkpt>
      <trkpt lat="43.65003" lon="3.3906">
        <ele>172.69</ele>
        <time>2014-09-28T13:33:55Z</time>
      </trkpt>
      <trkpt lat="43.64952" lon="3.39063">
        <ele>169.33</ele>
        <time>2014-09-28T13:34:02Z</time>
      </trkpt>
      <trkpt lat="43.64931" lon="3.39069">
        <ele>167.89</ele>
        <time>2014-09-28T13:34:09Z</time>
      </trkpt>
      <trkpt lat="43.6493" lon="3.39069">
        <ele>167.41</ele>
        <time>2014-09-28T13:34:18Z</time>
      </trkpt>
      <trkpt lat="43.64913" lon="3.39046">
        <ele>164.04</ele>
        <time>2014-09-28T13:34:28Z</time>
      </trkpt>
      <trkpt lat="43.64911" lon="3.39027">
        <ele>164.04</ele>
        <time>2014-09-28T13:34:34Z</time>
      </trkpt>
      <trkpt lat="43.64912" lon="3.39016">
        <ele>163.08</ele>
        <time>2014-09-28T13:34:36Z</time>
      </trkpt>
      <trkpt lat="43.64913" lon="3.38981">
        <ele>158.27</ele>
        <time>2014-09-28T13:34:42Z</time>
      </trkpt>
      <trkpt lat="43.64913" lon="3.38975">
        <ele>158.27</ele>
        <time>2014-09-28T13:34:43Z</time>
      </trkpt>
      <trkpt lat="43.64911" lon="3.38969">
        <ele>158.27</ele>
        <time>2014-09-28T13:34:44Z</time>
      </trkpt>
      <trkpt lat="43.64896" lon="3.38948">
        <ele>156.35</ele>
        <time>2014-09-28T13:34:49Z</time>
      </trkpt>
      <trkpt lat="43.64877" lon="3.38919">
        <ele>153.95</ele>
        <time>2014-09-28T13:34:57Z</time>
      </trkpt>
      <trkpt lat="43.64862" lon="3.3891">
        <ele>152.99</ele>
        <time>2014-09-28T13:35:00Z</time>
      </trkpt>
      <trkpt lat="43.64852" lon="3.38902">
        <ele>152.03</ele>
        <time>2014-09-28T13:35:02Z</time>
      </trkpt>
      <trkpt lat="43.64848" lon="3.38897">
        <ele>151.54</ele>
        <time>2014-09-28T13:35:03Z</time>
      </trkpt>
      <trkpt lat="43.64838" lon="3.38888">
        <ele>150.1</ele>
        <time>2014-09-28T13:35:05Z</time>
      </trkpt>
      <trkpt lat="43.64828" lon="3.38879">
        <ele>148.66</ele>
        <time>2014-09-28T13:35:07Z</time>
      </trkpt>
      <trkpt lat="43.64824" lon="3.38875">
        <ele>148.18</ele>
        <time>2014-09-28T13:35:08Z</time>
      </trkpt>
      <trkpt lat="43.64822" lon="3.38871">
        <ele>147.7</ele>
        <time>2014-09-28T13:35:09Z</time>
      </trkpt>
      <trkpt lat="43.6482" lon="3.38867">
        <ele>147.22</ele>
        <time>2014-09-28T13:35:10Z</time>
      </trkpt>
      <trkpt lat="43.64801" lon="3.38859">
        <ele>144.82</ele>
        <time>2014-09-28T13:35:17Z</time>
      </trkpt>
      <trkpt lat="43.64791" lon="3.38874">
        <ele>144.34</ele>
        <time>2014-09-28T13:35:21Z</time>
      </trkpt>
      <trkpt lat="43.64787" lon="3.38878">
        <ele>144.34</ele>
        <time>2014-09-28T13:35:22Z</time>
      </trkpt>
      <trkpt lat="43.6478" lon="3.38886">
        <ele>143.85</ele>
        <time>2014-09-28T13:35:24Z</time>
      </trkpt>
      <trkpt lat="43.64764" lon="3.38909">
        <ele>142.89</ele>
        <time>2014-09-28T13:35:29Z</time>
      </trkpt>
      <trkpt lat="43.64758" lon="3.38919">
        <ele>142.41</ele>
        <time>2014-09-28T13:35:31Z</time>
      </trkpt>
      <trkpt lat="43.64755" lon="3.38923">
        <ele>141.93</ele>
        <time>2014-09-28T13:35:32Z</time>
      </trkpt>
      <trkpt lat="43.6475" lon="3.38926">
        <ele>141.93</ele>
        <time>2014-09-28T13:35:33Z</time>
      </trkpt>
      <trkpt lat="43.64733" lon="3.38918">
        <ele>141.45</ele>
        <time>2014-09-28T13:35:37Z</time>
      </trkpt>
      <trkpt lat="43.6473" lon="3.38913">
        <ele>140.97</ele>
        <time>2014-09-28T13:35:38Z</time>
      </trkpt>
      <trkpt lat="43.64727" lon="3.38909">
        <ele>140.97</ele>
        <time>2014-09-28T13:35:39Z</time>
      </trkpt>
      <trkpt lat="43.64724" lon="3.38904">
        <ele>140.97</ele>
        <time>2014-09-28T13:35:40Z</time>
      </trkpt>
      <trkpt lat="43.64718" lon="3.38897">
        <ele>140.97</ele>
        <time>2014-09-28T13:35:42Z</time>
      </trkpt>
      <trkpt lat="43.64705" lon="3.38894">
        <ele>140.97</ele>
        <time>2014-09-28T13:35:46Z</time>
      </trkpt>
      <trkpt lat="43.64675" lon="3.3889">
        <ele>142.41</ele>
        <time>2014-09-28T13:35:59Z</time>
      </trkpt>
      <trkpt lat="43.64667" lon="3.38898">
        <ele>142.89</ele>
        <time>2014-09-28T13:36:05Z</time>
      </trkpt>
      <trkpt lat="43.64657" lon="3.38911">
        <ele>143.37</ele>
        <time>2014-09-28T13:36:16Z</time>
      </trkpt>
      <trkpt lat="43.64657" lon="3.38921">
        <ele>143.37</ele>
        <time>2014-09-28T13:36:20Z</time>
      </trkpt>
      <trkpt lat="43.64654" lon="3.38929">
        <ele>143.37</ele>
        <time>2014-09-28T13:36:23Z</time>
      </trkpt>
      <trkpt lat="43.64649" lon="3.38932">
        <ele>143.37</ele>
        <time>2014-09-28T13:36:26Z</time>
      </trkpt>
      <trkpt lat="43.64633" lon="3.3892">
        <ele>143.37</ele>
        <time>2014-09-28T13:36:33Z</time>
      </trkpt>
      <trkpt lat="43.64636" lon="3.38904">
        <ele>142.89</ele>
        <time>2014-09-28T13:36:42Z</time>
      </trkpt>
      <trkpt lat="43.64635" lon="3.38905">
        <ele>142.89</ele>
        <time>2014-09-28T13:36:54Z</time>
      </trkpt>
      <trkpt lat="43.64634" lon="3.38905">
        <ele>142.89</ele>
        <time>2014-09-28T13:37:11Z</time>
      </trkpt>
      <trkpt lat="43.64635" lon="3.38905">
        <ele>142.89</ele>
        <time>2014-09-28T13:37:33Z</time>
      </trkpt>
      <trkpt lat="43.64633" lon="3.38908">
        <ele>143.37</ele>
        <time>2014-09-28T13:37:59Z</time>
      </trkpt>
      <trkpt lat="43.64635" lon="3.38922">
        <ele>143.37</ele>
        <time>2014-09-28T13:38:11Z</time>
      </trkpt>
      <trkpt lat="43.64643" lon="3.38941">
        <ele>143.85</ele>
        <time>2014-09-28T13:38:28Z</time>
      </trkpt>
      <trkpt lat="43.64643" lon="3.38945">
        <ele>143.85</ele>
        <time>2014-09-28T13:38:39Z</time>
      </trkpt>
      <trkpt lat="43.64645" lon="3.38946">
        <ele>142.89</ele>
        <time>2014-09-28T13:38:53Z</time>
      </trkpt>
      <trkpt lat="43.64643" lon="3.38945">
        <ele>143.37</ele>
        <time>2014-09-28T13:39:18Z</time>
      </trkpt>
      <trkpt lat="43.64643" lon="3.38945">
        <ele>143.37</ele>
        <time>2014-09-28T13:39:46Z</time>
      </trkpt>
      <trkpt lat="43.64643" lon="3.38945">
        <ele>143.85</ele>
        <time>2014-09-28T13:40:04Z</time>
      </trkpt>
      <trkpt lat="43.64644" lon="3.38943">
        <ele>143.85</ele>
        <time>2014-09-28T13:40:26Z</time>
      </trkpt>
      <trkpt lat="43.64643" lon="3.38942">
        <ele>143.85</ele>
        <time>2014-09-28T13:40:28Z</time>
      </trkpt>
      <trkpt lat="43.64644" lon="3.38939">
        <ele>143.85</ele>
        <time>2014-09-28T13:40:31Z</time>
      </trkpt>
      <trkpt lat="43.64645" lon="3.38935">
        <ele>143.85</ele>
        <time>2014-09-28T13:40:34Z</time>
      </trkpt>
      <trkpt lat="43.64637" lon="3.38931">
        <ele>143.85</ele>
        <time>2014-09-28T13:40:40Z</time>
      </trkpt>
      <trkpt lat="43.64601" lon="3.38923">
        <ele>143.37</ele>
        <time>2014-09-28T13:40:51Z</time>
      </trkpt>
      <trkpt lat="43.64587" lon="3.38926">
        <ele>144.34</ele>
        <time>2014-09-28T13:40:58Z</time>
      </trkpt>
      <trkpt lat="43.64575" lon="3.38936">
        <ele>144.82</ele>
        <time>2014-09-28T13:41:05Z</time>
      </trkpt>
      <trkpt lat="43.64554" lon="3.38953">
        <ele>146.26</ele>
        <time>2014-09-28T13:41:18Z</time>
      </trkpt>
    </trkseg>
  </trk>
</gpx>